<?xml version="1.0" encoding="UTF-8" standalone="no" ?>
<gpx xmlns="http://www.topografix.com/GPX/1/1" xmlns:xsi="http://www.w3.org/2001/XMLSchema-instance" xsi:schemaLocation="http://www.topografix.com/GPX/1/1 http://www.topografix.com/GPX/1/1/gpx.xsd" version="1.1" creator="VisuGPX - https://www.visugpx.com">
  <metadata>
    <name>Séance 115</name>
    <desc><![CDATA[Séance 15 du dim 6/2]]></desc>
  </metadata>
  <trk>
    <name><![CDATA[Séance 115_1]]></name>
    <trkseg>
      <trkpt lat="44.9204" lon="5.63811">
        <ele>867.328354</ele>
        <time>2011-02-06T09:35:27.886</time>
      </trkpt>
      <trkpt lat="44.92016" lon="5.63794">
        <ele>853.328274</ele>
        <time>2011-02-06T09:35:53.897</time>
      </trkpt>
      <trkpt lat="44.92014" lon="5.63789">
        <ele>852.328266</ele>
        <time>2011-02-06T09:35:56.894</time>
      </trkpt>
      <trkpt lat="44.92012" lon="5.63786">
        <ele>852.328259</ele>
        <time>2011-02-06T09:35:58.893</time>
      </trkpt>
      <trkpt lat="44.92008" lon="5.63782">
        <ele>853.328239</ele>
        <time>2011-02-06T09:36:01.883</time>
      </trkpt>
      <trkpt lat="44.92006" lon="5.63779">
        <ele>853.328232</ele>
        <time>2011-02-06T09:36:03.888</time>
      </trkpt>
      <trkpt lat="44.92" lon="5.63774">
        <ele>854.328209</ele>
        <time>2011-02-06T09:36:07.892</time>
      </trkpt>
      <trkpt lat="44.91997" lon="5.63771">
        <ele>855.328197</ele>
        <time>2011-02-06T09:36:09.890</time>
      </trkpt>
      <trkpt lat="44.91992" lon="5.63768">
        <ele>855.328186</ele>
        <time>2011-02-06T09:36:12.888</time>
      </trkpt>
      <trkpt lat="44.91988" lon="5.63766">
        <ele>856.328175</ele>
        <time>2011-02-06T09:36:14.901</time>
      </trkpt>
      <trkpt lat="44.91984" lon="5.63763">
        <ele>857.328159</ele>
        <time>2011-02-06T09:36:16.891</time>
      </trkpt>
      <trkpt lat="44.91981" lon="5.63759">
        <ele>858.328148</ele>
        <time>2011-02-06T09:36:18.890</time>
      </trkpt>
      <trkpt lat="44.91977" lon="5.63752">
        <ele>859.328125</ele>
        <time>2011-02-06T09:36:20.896</time>
      </trkpt>
      <trkpt lat="44.91972" lon="5.63744">
        <ele>860.328102</ele>
        <time>2011-02-06T09:36:22.891</time>
      </trkpt>
      <trkpt lat="44.91969" lon="5.63735">
        <ele>861.328087</ele>
        <time>2011-02-06T09:36:24.890</time>
      </trkpt>
      <trkpt lat="44.91966" lon="5.63727">
        <ele>861.32806</ele>
        <time>2011-02-06T09:36:26.892</time>
      </trkpt>
      <trkpt lat="44.91962" lon="5.63719">
        <ele>861.328041</ele>
        <time>2011-02-06T09:36:28.890</time>
      </trkpt>
      <trkpt lat="44.91959" lon="5.63712">
        <ele>862.32803</ele>
        <time>2011-02-06T09:36:30.894</time>
      </trkpt>
      <trkpt lat="44.91956" lon="5.63705">
        <ele>862.328011</ele>
        <time>2011-02-06T09:36:32.895</time>
      </trkpt>
      <trkpt lat="44.91953" lon="5.63699">
        <ele>862.327991</ele>
        <time>2011-02-06T09:36:34.894</time>
      </trkpt>
      <trkpt lat="44.9195" lon="5.63692">
        <ele>862.327972</ele>
        <time>2011-02-06T09:36:36.894</time>
      </trkpt>
      <trkpt lat="44.91947" lon="5.63686">
        <ele>862.327961</ele>
        <time>2011-02-06T09:36:38.896</time>
      </trkpt>
      <trkpt lat="44.91944" lon="5.6368">
        <ele>863.327942</ele>
        <time>2011-02-06T09:36:40.890</time>
      </trkpt>
      <trkpt lat="44.91942" lon="5.63673">
        <ele>863.327927</ele>
        <time>2011-02-06T09:36:42.893</time>
      </trkpt>
      <trkpt lat="44.91938" lon="5.63668">
        <ele>863.327915</ele>
        <time>2011-02-06T09:36:44.894</time>
      </trkpt>
      <trkpt lat="44.91935" lon="5.63663">
        <ele>863.327896</ele>
        <time>2011-02-06T09:36:46.893</time>
      </trkpt>
      <trkpt lat="44.91932" lon="5.63658">
        <ele>862.327881</ele>
        <time>2011-02-06T09:36:48.892</time>
      </trkpt>
      <trkpt lat="44.91929" lon="5.63655">
        <ele>861.327873</ele>
        <time>2011-02-06T09:36:50.899</time>
      </trkpt>
      <trkpt lat="44.91926" lon="5.63651">
        <ele>860.327858</ele>
        <time>2011-02-06T09:36:52.892</time>
      </trkpt>
      <trkpt lat="44.91923" lon="5.63646">
        <ele>861.327847</ele>
        <time>2011-02-06T09:36:54.893</time>
      </trkpt>
      <trkpt lat="44.91921" lon="5.63641">
        <ele>861.327835</ele>
        <time>2011-02-06T09:36:56.894</time>
      </trkpt>
      <trkpt lat="44.9192" lon="5.63635">
        <ele>861.327824</ele>
        <time>2011-02-06T09:36:58.897</time>
      </trkpt>
      <trkpt lat="44.9192" lon="5.63629">
        <ele>861.327812</ele>
        <time>2011-02-06T09:37:00.894</time>
      </trkpt>
      <trkpt lat="44.91921" lon="5.63623">
        <ele>861.327808</ele>
        <time>2011-02-06T09:37:02.898</time>
      </trkpt>
      <trkpt lat="44.91922" lon="5.63617">
        <ele>861.327801</ele>
        <time>2011-02-06T09:37:04.892</time>
      </trkpt>
      <trkpt lat="44.91924" lon="5.6361">
        <ele>861.327789</ele>
        <time>2011-02-06T09:37:06.891</time>
      </trkpt>
      <trkpt lat="44.91925" lon="5.63604">
        <ele>860.327785</ele>
        <time>2011-02-06T09:37:08.892</time>
      </trkpt>
      <trkpt lat="44.91928" lon="5.636">
        <ele>861.327785</ele>
        <time>2011-02-06T09:37:10.894</time>
      </trkpt>
      <trkpt lat="44.91932" lon="5.63598">
        <ele>861.327797</ele>
        <time>2011-02-06T09:37:12.890</time>
      </trkpt>
      <trkpt lat="44.91936" lon="5.63598">
        <ele>861.327805</ele>
        <time>2011-02-06T09:37:14.893</time>
      </trkpt>
      <trkpt lat="44.9194" lon="5.63598">
        <ele>862.327812</ele>
        <time>2011-02-06T09:37:16.894</time>
      </trkpt>
      <trkpt lat="44.91944" lon="5.63599">
        <ele>863.32782</ele>
        <time>2011-02-06T09:37:18.891</time>
      </trkpt>
      <trkpt lat="44.91947" lon="5.636">
        <ele>863.327827</ele>
        <time>2011-02-06T09:37:20.895</time>
      </trkpt>
      <trkpt lat="44.9195" lon="5.63601">
        <ele>864.327839</ele>
        <time>2011-02-06T09:37:22.890</time>
      </trkpt>
      <trkpt lat="44.91954" lon="5.63603">
        <ele>864.327847</ele>
        <time>2011-02-06T09:37:24.890</time>
      </trkpt>
      <trkpt lat="44.91957" lon="5.63605">
        <ele>864.327858</ele>
        <time>2011-02-06T09:37:26.892</time>
      </trkpt>
      <trkpt lat="44.9196" lon="5.63606">
        <ele>863.327866</ele>
        <time>2011-02-06T09:37:28.891</time>
      </trkpt>
      <trkpt lat="44.91973" lon="5.63611">
        <ele>860.3279</ele>
        <time>2011-02-06T09:37:42.891</time>
      </trkpt>
      <trkpt lat="44.91977" lon="5.63613">
        <ele>860.327915</ele>
        <time>2011-02-06T09:37:46.891</time>
      </trkpt>
      <trkpt lat="44.91991" lon="5.63619">
        <ele>858.327953</ele>
        <time>2011-02-06T09:37:54.887</time>
      </trkpt>
      <trkpt lat="44.91997" lon="5.63621">
        <ele>858.327969</ele>
        <time>2011-02-06T09:37:57.916</time>
      </trkpt>
      <trkpt lat="44.92009" lon="5.63625">
        <ele>859.328003</ele>
        <time>2011-02-06T09:38:02.896</time>
      </trkpt>
      <trkpt lat="44.92021" lon="5.63628">
        <ele>860.328033</ele>
        <time>2011-02-06T09:38:07.895</time>
      </trkpt>
      <trkpt lat="44.92034" lon="5.63632">
        <ele>860.328064</ele>
        <time>2011-02-06T09:38:12.891</time>
      </trkpt>
      <trkpt lat="44.92057" lon="5.63638">
        <ele>860.328121</ele>
        <time>2011-02-06T09:38:23.907</time>
      </trkpt>
      <trkpt lat="44.92061" lon="5.63639">
        <ele>858.328136</ele>
        <time>2011-02-06T09:38:25.892</time>
      </trkpt>
      <trkpt lat="44.92067" lon="5.63641">
        <ele>857.328152</ele>
        <time>2011-02-06T09:38:27.891</time>
      </trkpt>
      <trkpt lat="44.92072" lon="5.63643">
        <ele>855.328167</ele>
        <time>2011-02-06T09:38:29.896</time>
      </trkpt>
      <trkpt lat="44.92077" lon="5.63645">
        <ele>850.328182</ele>
        <time>2011-02-06T09:38:31.894</time>
      </trkpt>
      <trkpt lat="44.92082" lon="5.63647">
        <ele>845.328194</ele>
        <time>2011-02-06T09:38:33.893</time>
      </trkpt>
      <trkpt lat="44.92087" lon="5.63648">
        <ele>840.328209</ele>
        <time>2011-02-06T09:38:35.893</time>
      </trkpt>
      <trkpt lat="44.92093" lon="5.6365">
        <ele>837.328224</ele>
        <time>2011-02-06T09:38:37.893</time>
      </trkpt>
      <trkpt lat="44.92098" lon="5.63652">
        <ele>834.328239</ele>
        <time>2011-02-06T09:38:39.888</time>
      </trkpt>
      <trkpt lat="44.92103" lon="5.63653">
        <ele>832.328247</ele>
        <time>2011-02-06T09:38:41.894</time>
      </trkpt>
      <trkpt lat="44.92109" lon="5.63652">
        <ele>830.328262</ele>
        <time>2011-02-06T09:38:43.890</time>
      </trkpt>
      <trkpt lat="44.92114" lon="5.63651">
        <ele>829.32827</ele>
        <time>2011-02-06T09:38:45.893</time>
      </trkpt>
      <trkpt lat="44.92119" lon="5.63648">
        <ele>828.328278</ele>
        <time>2011-02-06T09:38:47.893</time>
      </trkpt>
      <trkpt lat="44.92124" lon="5.63642">
        <ele>828.328281</ele>
        <time>2011-02-06T09:38:49.891</time>
      </trkpt>
      <trkpt lat="44.9213" lon="5.63636">
        <ele>828.328281</ele>
        <time>2011-02-06T09:38:51.891</time>
      </trkpt>
      <trkpt lat="44.92134" lon="5.6363">
        <ele>827.328285</ele>
        <time>2011-02-06T09:38:53.895</time>
      </trkpt>
      <trkpt lat="44.92137" lon="5.63626">
        <ele>827.328281</ele>
        <time>2011-02-06T09:38:55.895</time>
      </trkpt>
      <trkpt lat="44.92141" lon="5.63621">
        <ele>827.328285</ele>
        <time>2011-02-06T09:38:59.893</time>
      </trkpt>
      <trkpt lat="44.92142" lon="5.63619">
        <ele>827.328281</ele>
        <time>2011-02-06T09:39:01.892</time>
      </trkpt>
      <trkpt lat="44.9215" lon="5.63605">
        <ele>829.328278</ele>
        <time>2011-02-06T09:39:07.889</time>
      </trkpt>
      <trkpt lat="44.92154" lon="5.63593">
        <ele>828.32827</ele>
        <time>2011-02-06T09:39:10.894</time>
      </trkpt>
      <trkpt lat="44.92158" lon="5.63586">
        <ele>827.32827</ele>
        <time>2011-02-06T09:39:12.888</time>
      </trkpt>
      <trkpt lat="44.92162" lon="5.6358">
        <ele>827.328266</ele>
        <time>2011-02-06T09:39:14.894</time>
      </trkpt>
      <trkpt lat="44.92165" lon="5.63576">
        <ele>826.328266</ele>
        <time>2011-02-06T09:39:16.888</time>
      </trkpt>
      <trkpt lat="44.92174" lon="5.63568">
        <ele>825.328274</ele>
        <time>2011-02-06T09:39:23.894</time>
      </trkpt>
      <trkpt lat="44.92187" lon="5.63564">
        <ele>825.328297</ele>
        <time>2011-02-06T09:39:29.884</time>
      </trkpt>
      <trkpt lat="44.92191" lon="5.63564">
        <ele>824.328308</ele>
        <time>2011-02-06T09:39:32.892</time>
      </trkpt>
      <trkpt lat="44.92204" lon="5.63561">
        <ele>822.328327</ele>
        <time>2011-02-06T09:39:39.892</time>
      </trkpt>
      <trkpt lat="44.92218" lon="5.63555">
        <ele>827.32835</ele>
        <time>2011-02-06T09:39:45.889</time>
      </trkpt>
      <trkpt lat="44.92226" lon="5.63548">
        <ele>827.328354</ele>
        <time>2011-02-06T09:39:47.894</time>
      </trkpt>
      <trkpt lat="44.92235" lon="5.63539">
        <ele>827.328362</ele>
        <time>2011-02-06T09:39:49.892</time>
      </trkpt>
      <trkpt lat="44.92244" lon="5.63531">
        <ele>826.328373</ele>
        <time>2011-02-06T09:39:51.891</time>
      </trkpt>
      <trkpt lat="44.92252" lon="5.63525">
        <ele>825.328377</ele>
        <time>2011-02-06T09:39:53.892</time>
      </trkpt>
      <trkpt lat="44.92258" lon="5.6352">
        <ele>824.328384</ele>
        <time>2011-02-06T09:39:55.892</time>
      </trkpt>
      <trkpt lat="44.92264" lon="5.63516">
        <ele>823.328392</ele>
        <time>2011-02-06T09:39:57.883</time>
      </trkpt>
      <trkpt lat="44.9227" lon="5.63511">
        <ele>823.328396</ele>
        <time>2011-02-06T09:39:59.895</time>
      </trkpt>
      <trkpt lat="44.92276" lon="5.63507">
        <ele>822.3284</ele>
        <time>2011-02-06T09:40:01.891</time>
      </trkpt>
      <trkpt lat="44.92281" lon="5.63505">
        <ele>821.328407</ele>
        <time>2011-02-06T09:40:03.894</time>
      </trkpt>
      <trkpt lat="44.92285" lon="5.63503">
        <ele>821.328419</ele>
        <time>2011-02-06T09:40:05.891</time>
      </trkpt>
      <trkpt lat="44.92289" lon="5.63501">
        <ele>821.328423</ele>
        <time>2011-02-06T09:40:07.892</time>
      </trkpt>
      <trkpt lat="44.92293" lon="5.63499">
        <ele>821.328426</ele>
        <time>2011-02-06T09:40:09.893</time>
      </trkpt>
      <trkpt lat="44.92297" lon="5.63498">
        <ele>821.328438</ele>
        <time>2011-02-06T09:40:11.890</time>
      </trkpt>
      <trkpt lat="44.92313" lon="5.63495">
        <ele>820.328465</ele>
        <time>2011-02-06T09:40:19.892</time>
      </trkpt>
      <trkpt lat="44.92316" lon="5.63495">
        <ele>819.328472</ele>
        <time>2011-02-06T09:40:21.886</time>
      </trkpt>
      <trkpt lat="44.9232" lon="5.63495">
        <ele>818.328476</ele>
        <time>2011-02-06T09:40:23.892</time>
      </trkpt>
      <trkpt lat="44.92324" lon="5.63494">
        <ele>818.328484</ele>
        <time>2011-02-06T09:40:25.893</time>
      </trkpt>
      <trkpt lat="44.92327" lon="5.63493">
        <ele>818.328495</ele>
        <time>2011-02-06T09:40:27.888</time>
      </trkpt>
      <trkpt lat="44.9234" lon="5.6349">
        <ele>818.328514</ele>
        <time>2011-02-06T09:40:33.890</time>
      </trkpt>
      <trkpt lat="44.92352" lon="5.6349">
        <ele>822.328545</ele>
        <time>2011-02-06T09:40:42.889</time>
      </trkpt>
      <trkpt lat="44.92363" lon="5.63489">
        <ele>825.328568</ele>
        <time>2011-02-06T09:40:48.887</time>
      </trkpt>
      <trkpt lat="44.92373" lon="5.63492">
        <ele>826.32859</ele>
        <time>2011-02-06T09:40:53.892</time>
      </trkpt>
      <trkpt lat="44.92385" lon="5.63494">
        <ele>827.328621</ele>
        <time>2011-02-06T09:40:57.889</time>
      </trkpt>
      <trkpt lat="44.92395" lon="5.63495">
        <ele>828.328644</ele>
        <time>2011-02-06T09:41:01.888</time>
      </trkpt>
      <trkpt lat="44.92405" lon="5.63495">
        <ele>831.328667</ele>
        <time>2011-02-06T09:41:07.891</time>
      </trkpt>
      <trkpt lat="44.92414" lon="5.63494">
        <ele>834.32869</ele>
        <time>2011-02-06T09:41:12.887</time>
      </trkpt>
      <trkpt lat="44.92419" lon="5.63494">
        <ele>835.328693</ele>
        <time>2011-02-06T09:41:14.892</time>
      </trkpt>
      <trkpt lat="44.92424" lon="5.63494">
        <ele>836.328705</ele>
        <time>2011-02-06T09:41:16.890</time>
      </trkpt>
      <trkpt lat="44.9243" lon="5.63494">
        <ele>837.32872</ele>
        <time>2011-02-06T09:41:18.889</time>
      </trkpt>
      <trkpt lat="44.92443" lon="5.63494">
        <ele>839.328747</ele>
        <time>2011-02-06T09:41:23.895</time>
      </trkpt>
      <trkpt lat="44.92447" lon="5.63494">
        <ele>839.328758</ele>
        <time>2011-02-06T09:41:25.888</time>
      </trkpt>
      <trkpt lat="44.92451" lon="5.63495">
        <ele>839.328766</ele>
        <time>2011-02-06T09:41:27.889</time>
      </trkpt>
      <trkpt lat="44.92456" lon="5.63495">
        <ele>839.328773</ele>
        <time>2011-02-06T09:41:29.893</time>
      </trkpt>
      <trkpt lat="44.9246" lon="5.63496">
        <ele>839.328785</ele>
        <time>2011-02-06T09:41:31.892</time>
      </trkpt>
      <trkpt lat="44.92464" lon="5.63496">
        <ele>839.328796</ele>
        <time>2011-02-06T09:41:33.894</time>
      </trkpt>
      <trkpt lat="44.92468" lon="5.63497">
        <ele>840.328804</ele>
        <time>2011-02-06T09:41:35.895</time>
      </trkpt>
      <trkpt lat="44.92473" lon="5.63497">
        <ele>840.328819</ele>
        <time>2011-02-06T09:41:37.895</time>
      </trkpt>
      <trkpt lat="44.92477" lon="5.63498">
        <ele>840.328827</ele>
        <time>2011-02-06T09:41:39.890</time>
      </trkpt>
      <trkpt lat="44.92484" lon="5.63499">
        <ele>840.328842</ele>
        <time>2011-02-06T09:41:42.890</time>
      </trkpt>
      <trkpt lat="44.92489" lon="5.635">
        <ele>840.328854</ele>
        <time>2011-02-06T09:41:44.890</time>
      </trkpt>
      <trkpt lat="44.92494" lon="5.63502">
        <ele>841.328869</ele>
        <time>2011-02-06T09:41:46.889</time>
      </trkpt>
      <trkpt lat="44.92498" lon="5.63503">
        <ele>841.328884</ele>
        <time>2011-02-06T09:41:48.888</time>
      </trkpt>
      <trkpt lat="44.92503" lon="5.63504">
        <ele>842.328896</ele>
        <time>2011-02-06T09:41:50.892</time>
      </trkpt>
      <trkpt lat="44.92515" lon="5.63507">
        <ele>840.328926</ele>
        <time>2011-02-06T09:41:55.892</time>
      </trkpt>
      <trkpt lat="44.9252" lon="5.63508">
        <ele>840.328938</ele>
        <time>2011-02-06T09:41:57.890</time>
      </trkpt>
      <trkpt lat="44.92525" lon="5.63508">
        <ele>839.328949</ele>
        <time>2011-02-06T09:41:59.895</time>
      </trkpt>
      <trkpt lat="44.9253" lon="5.63509">
        <ele>839.32896</ele>
        <time>2011-02-06T09:42:01.891</time>
      </trkpt>
      <trkpt lat="44.92537" lon="5.63509">
        <ele>838.328976</ele>
        <time>2011-02-06T09:42:04.891</time>
      </trkpt>
      <trkpt lat="44.92542" lon="5.63509">
        <ele>838.328987</ele>
        <time>2011-02-06T09:42:06.886</time>
      </trkpt>
      <trkpt lat="44.92546" lon="5.63509">
        <ele>838.328995</ele>
        <time>2011-02-06T09:42:08.890</time>
      </trkpt>
      <trkpt lat="44.92551" lon="5.63509">
        <ele>838.329006</ele>
        <time>2011-02-06T09:42:10.893</time>
      </trkpt>
      <trkpt lat="44.92559" lon="5.63508">
        <ele>838.329025</ele>
        <time>2011-02-06T09:42:14.894</time>
      </trkpt>
      <trkpt lat="44.92564" lon="5.63508">
        <ele>838.329033</ele>
        <time>2011-02-06T09:42:16.893</time>
      </trkpt>
      <trkpt lat="44.92568" lon="5.63509">
        <ele>838.329044</ele>
        <time>2011-02-06T09:42:18.890</time>
      </trkpt>
      <trkpt lat="44.92572" lon="5.6351">
        <ele>839.329052</ele>
        <time>2011-02-06T09:42:20.915</time>
      </trkpt>
      <trkpt lat="44.92576" lon="5.63511">
        <ele>839.329063</ele>
        <time>2011-02-06T09:42:22.892</time>
      </trkpt>
      <trkpt lat="44.92581" lon="5.63513">
        <ele>839.329079</ele>
        <time>2011-02-06T09:42:24.890</time>
      </trkpt>
      <trkpt lat="44.92587" lon="5.63515">
        <ele>838.329098</ele>
        <time>2011-02-06T09:42:27.889</time>
      </trkpt>
      <trkpt lat="44.92592" lon="5.63517">
        <ele>837.329105</ele>
        <time>2011-02-06T09:42:29.892</time>
      </trkpt>
      <trkpt lat="44.92596" lon="5.63518">
        <ele>837.329117</ele>
        <time>2011-02-06T09:42:31.894</time>
      </trkpt>
      <trkpt lat="44.92601" lon="5.6352">
        <ele>837.329132</ele>
        <time>2011-02-06T09:42:33.890</time>
      </trkpt>
      <trkpt lat="44.92605" lon="5.63521">
        <ele>837.329144</ele>
        <time>2011-02-06T09:42:35.884</time>
      </trkpt>
      <trkpt lat="44.92615" lon="5.63525">
        <ele>837.32917</ele>
        <time>2011-02-06T09:42:40.894</time>
      </trkpt>
      <trkpt lat="44.9262" lon="5.63526">
        <ele>837.329185</ele>
        <time>2011-02-06T09:42:42.897</time>
      </trkpt>
      <trkpt lat="44.92624" lon="5.63527">
        <ele>837.329193</ele>
        <time>2011-02-06T09:42:44.897</time>
      </trkpt>
      <trkpt lat="44.92629" lon="5.63527">
        <ele>838.329208</ele>
        <time>2011-02-06T09:42:46.891</time>
      </trkpt>
      <trkpt lat="44.92634" lon="5.63527">
        <ele>838.329216</ele>
        <time>2011-02-06T09:42:48.892</time>
      </trkpt>
      <trkpt lat="44.92638" lon="5.63527">
        <ele>837.329224</ele>
        <time>2011-02-06T09:42:50.891</time>
      </trkpt>
      <trkpt lat="44.92642" lon="5.63527">
        <ele>837.329231</ele>
        <time>2011-02-06T09:42:52.894</time>
      </trkpt>
      <trkpt lat="44.92647" lon="5.63527">
        <ele>837.329247</ele>
        <time>2011-02-06T09:42:54.888</time>
      </trkpt>
      <trkpt lat="44.92652" lon="5.63528">
        <ele>837.329254</ele>
        <time>2011-02-06T09:42:56.893</time>
      </trkpt>
      <trkpt lat="44.92656" lon="5.63528">
        <ele>837.329266</ele>
        <time>2011-02-06T09:42:58.892</time>
      </trkpt>
      <trkpt lat="44.92661" lon="5.63528">
        <ele>838.329273</ele>
        <time>2011-02-06T09:43:00.892</time>
      </trkpt>
      <trkpt lat="44.92665" lon="5.63528">
        <ele>840.329285</ele>
        <time>2011-02-06T09:43:02.895</time>
      </trkpt>
      <trkpt lat="44.9267" lon="5.63528">
        <ele>840.329296</ele>
        <time>2011-02-06T09:43:04.889</time>
      </trkpt>
      <trkpt lat="44.92681" lon="5.63528">
        <ele>839.329323</ele>
        <time>2011-02-06T09:43:08.893</time>
      </trkpt>
      <trkpt lat="44.92693" lon="5.63531">
        <ele>837.32935</ele>
        <time>2011-02-06T09:43:13.892</time>
      </trkpt>
      <trkpt lat="44.9271" lon="5.63531">
        <ele>837.329388</ele>
        <time>2011-02-06T09:43:18.889</time>
      </trkpt>
      <trkpt lat="44.92715" lon="5.6353">
        <ele>837.329395</ele>
        <time>2011-02-06T09:43:20.904</time>
      </trkpt>
      <trkpt lat="44.92725" lon="5.63528">
        <ele>836.329414</ele>
        <time>2011-02-06T09:43:23.890</time>
      </trkpt>
      <trkpt lat="44.92731" lon="5.63527">
        <ele>836.329426</ele>
        <time>2011-02-06T09:43:25.889</time>
      </trkpt>
      <trkpt lat="44.92735" lon="5.63526">
        <ele>835.329433</ele>
        <time>2011-02-06T09:43:27.888</time>
      </trkpt>
      <trkpt lat="44.9274" lon="5.63526">
        <ele>834.329445</ele>
        <time>2011-02-06T09:43:29.893</time>
      </trkpt>
      <trkpt lat="44.92744" lon="5.63526">
        <ele>833.329453</ele>
        <time>2011-02-06T09:43:31.890</time>
      </trkpt>
      <trkpt lat="44.92753" lon="5.63527">
        <ele>832.329472</ele>
        <time>2011-02-06T09:43:35.894</time>
      </trkpt>
      <trkpt lat="44.92764" lon="5.63531">
        <ele>833.329502</ele>
        <time>2011-02-06T09:43:40.889</time>
      </trkpt>
      <trkpt lat="44.92768" lon="5.63532">
        <ele>833.329514</ele>
        <time>2011-02-06T09:43:42.890</time>
      </trkpt>
      <trkpt lat="44.9278" lon="5.63534">
        <ele>832.329544</ele>
        <time>2011-02-06T09:43:47.892</time>
      </trkpt>
      <trkpt lat="44.92785" lon="5.63535">
        <ele>831.329556</ele>
        <time>2011-02-06T09:43:49.890</time>
      </trkpt>
      <trkpt lat="44.92789" lon="5.63535">
        <ele>831.329567</ele>
        <time>2011-02-06T09:43:51.892</time>
      </trkpt>
      <trkpt lat="44.92793" lon="5.63536">
        <ele>831.329575</ele>
        <time>2011-02-06T09:43:53.892</time>
      </trkpt>
      <trkpt lat="44.92797" lon="5.63538">
        <ele>830.32959</ele>
        <time>2011-02-06T09:43:55.891</time>
      </trkpt>
      <trkpt lat="44.92801" lon="5.63539">
        <ele>830.329597</ele>
        <time>2011-02-06T09:43:57.890</time>
      </trkpt>
      <trkpt lat="44.92805" lon="5.6354">
        <ele>831.329605</ele>
        <time>2011-02-06T09:43:59.893</time>
      </trkpt>
      <trkpt lat="44.92808" lon="5.63541">
        <ele>831.329617</ele>
        <time>2011-02-06T09:44:01.889</time>
      </trkpt>
      <trkpt lat="44.92811" lon="5.63541">
        <ele>831.329624</ele>
        <time>2011-02-06T09:44:03.888</time>
      </trkpt>
      <trkpt lat="44.92816" lon="5.6354">
        <ele>831.329632</ele>
        <time>2011-02-06T09:44:06.900</time>
      </trkpt>
      <trkpt lat="44.92822" lon="5.6354">
        <ele>832.329647</ele>
        <time>2011-02-06T09:44:09.890</time>
      </trkpt>
      <trkpt lat="44.92826" lon="5.6354">
        <ele>832.329651</ele>
        <time>2011-02-06T09:44:11.895</time>
      </trkpt>
      <trkpt lat="44.9283" lon="5.63539">
        <ele>833.329662</ele>
        <time>2011-02-06T09:44:13.894</time>
      </trkpt>
      <trkpt lat="44.92835" lon="5.63539">
        <ele>835.329674</ele>
        <time>2011-02-06T09:44:16.895</time>
      </trkpt>
      <trkpt lat="44.92839" lon="5.63541">
        <ele>835.329681</ele>
        <time>2011-02-06T09:44:19.892</time>
      </trkpt>
      <trkpt lat="44.92849" lon="5.63539">
        <ele>839.3297</ele>
        <time>2011-02-06T09:44:27.890</time>
      </trkpt>
      <trkpt lat="44.92853" lon="5.63536">
        <ele>839.329708</ele>
        <time>2011-02-06T09:44:29.893</time>
      </trkpt>
      <trkpt lat="44.92858" lon="5.63534">
        <ele>839.329712</ele>
        <time>2011-02-06T09:44:31.892</time>
      </trkpt>
      <trkpt lat="44.92863" lon="5.6353">
        <ele>840.32972</ele>
        <time>2011-02-06T09:44:33.891</time>
      </trkpt>
      <trkpt lat="44.92871" lon="5.63525">
        <ele>840.329727</ele>
        <time>2011-02-06T09:44:36.889</time>
      </trkpt>
      <trkpt lat="44.92876" lon="5.63521">
        <ele>841.329735</ele>
        <time>2011-02-06T09:44:38.892</time>
      </trkpt>
      <trkpt lat="44.92882" lon="5.63516">
        <ele>842.329742</ele>
        <time>2011-02-06T09:44:41.892</time>
      </trkpt>
      <trkpt lat="44.92886" lon="5.63512">
        <ele>842.329746</ele>
        <time>2011-02-06T09:44:43.892</time>
      </trkpt>
      <trkpt lat="44.9289" lon="5.6351">
        <ele>841.329742</ele>
        <time>2011-02-06T09:44:45.907</time>
      </trkpt>
      <trkpt lat="44.92894" lon="5.63507">
        <ele>841.329754</ele>
        <time>2011-02-06T09:44:47.900</time>
      </trkpt>
      <trkpt lat="44.92905" lon="5.63502">
        <ele>841.329765</ele>
        <time>2011-02-06T09:44:51.889</time>
      </trkpt>
      <trkpt lat="44.9291" lon="5.635">
        <ele>840.329777</ele>
        <time>2011-02-06T09:44:53.894</time>
      </trkpt>
      <trkpt lat="44.92915" lon="5.63497">
        <ele>840.329781</ele>
        <time>2011-02-06T09:44:55.892</time>
      </trkpt>
      <trkpt lat="44.9292" lon="5.63494">
        <ele>841.329788</ele>
        <time>2011-02-06T09:44:57.896</time>
      </trkpt>
      <trkpt lat="44.92924" lon="5.63491">
        <ele>841.329792</ele>
        <time>2011-02-06T09:44:59.890</time>
      </trkpt>
      <trkpt lat="44.92927" lon="5.63489">
        <ele>841.329796</ele>
        <time>2011-02-06T09:45:01.893</time>
      </trkpt>
      <trkpt lat="44.92935" lon="5.63482">
        <ele>841.329803</ele>
        <time>2011-02-06T09:45:05.893</time>
      </trkpt>
      <trkpt lat="44.92939" lon="5.63479">
        <ele>841.329807</ele>
        <time>2011-02-06T09:45:07.888</time>
      </trkpt>
      <trkpt lat="44.92943" lon="5.63476">
        <ele>841.329815</ele>
        <time>2011-02-06T09:45:09.892</time>
      </trkpt>
      <trkpt lat="44.92947" lon="5.63473">
        <ele>841.329819</ele>
        <time>2011-02-06T09:45:11.891</time>
      </trkpt>
      <trkpt lat="44.92952" lon="5.6347">
        <ele>841.329819</ele>
        <time>2011-02-06T09:45:13.890</time>
      </trkpt>
      <trkpt lat="44.92963" lon="5.63463">
        <ele>842.329834</ele>
        <time>2011-02-06T09:45:18.889</time>
      </trkpt>
      <trkpt lat="44.92967" lon="5.6346">
        <ele>843.329838</ele>
        <time>2011-02-06T09:45:20.890</time>
      </trkpt>
      <trkpt lat="44.9297" lon="5.63457">
        <ele>843.329842</ele>
        <time>2011-02-06T09:45:22.895</time>
      </trkpt>
      <trkpt lat="44.92974" lon="5.63454">
        <ele>843.329845</ele>
        <time>2011-02-06T09:45:24.890</time>
      </trkpt>
      <trkpt lat="44.92978" lon="5.63451">
        <ele>843.329849</ele>
        <time>2011-02-06T09:45:26.893</time>
      </trkpt>
      <trkpt lat="44.92981" lon="5.63447">
        <ele>843.329849</ele>
        <time>2011-02-06T09:45:28.893</time>
      </trkpt>
      <trkpt lat="44.92985" lon="5.63442">
        <ele>843.329853</ele>
        <time>2011-02-06T09:45:30.887</time>
      </trkpt>
      <trkpt lat="44.92991" lon="5.63428">
        <ele>847.329842</ele>
        <time>2011-02-06T09:45:35.896</time>
      </trkpt>
      <trkpt lat="44.92992" lon="5.63421">
        <ele>849.329834</ele>
        <time>2011-02-06T09:45:37.892</time>
      </trkpt>
      <trkpt lat="44.92993" lon="5.63415">
        <ele>850.329826</ele>
        <time>2011-02-06T09:45:39.891</time>
      </trkpt>
      <trkpt lat="44.92993" lon="5.63409">
        <ele>851.329819</ele>
        <time>2011-02-06T09:45:41.888</time>
      </trkpt>
      <trkpt lat="44.92992" lon="5.63394">
        <ele>855.329796</ele>
        <time>2011-02-06T09:45:45.892</time>
      </trkpt>
      <trkpt lat="44.92992" lon="5.63387">
        <ele>856.329781</ele>
        <time>2011-02-06T09:45:47.891</time>
      </trkpt>
      <trkpt lat="44.92991" lon="5.6338">
        <ele>856.329769</ele>
        <time>2011-02-06T09:45:49.890</time>
      </trkpt>
      <trkpt lat="44.9299" lon="5.63374">
        <ele>856.329758</ele>
        <time>2011-02-06T09:45:51.905</time>
      </trkpt>
      <trkpt lat="44.92988" lon="5.63366">
        <ele>855.329742</ele>
        <time>2011-02-06T09:45:53.897</time>
      </trkpt>
      <trkpt lat="44.92986" lon="5.63354">
        <ele>851.329716</ele>
        <time>2011-02-06T09:45:56.891</time>
      </trkpt>
      <trkpt lat="44.92983" lon="5.63345">
        <ele>849.329697</ele>
        <time>2011-02-06T09:45:58.890</time>
      </trkpt>
      <trkpt lat="44.92981" lon="5.63338">
        <ele>847.329681</ele>
        <time>2011-02-06T09:46:00.890</time>
      </trkpt>
      <trkpt lat="44.92978" lon="5.63331">
        <ele>845.329666</ele>
        <time>2011-02-06T09:46:02.894</time>
      </trkpt>
      <trkpt lat="44.92975" lon="5.63324">
        <ele>843.329647</ele>
        <time>2011-02-06T09:46:04.891</time>
      </trkpt>
      <trkpt lat="44.92972" lon="5.63317">
        <ele>841.329628</ele>
        <time>2011-02-06T09:46:06.897</time>
      </trkpt>
      <trkpt lat="44.92969" lon="5.63312">
        <ele>840.329617</ele>
        <time>2011-02-06T09:46:08.897</time>
      </trkpt>
      <trkpt lat="44.92966" lon="5.63306">
        <ele>840.329597</ele>
        <time>2011-02-06T09:46:10.892</time>
      </trkpt>
      <trkpt lat="44.92962" lon="5.63301">
        <ele>842.329582</ele>
        <time>2011-02-06T09:46:12.888</time>
      </trkpt>
      <trkpt lat="44.92959" lon="5.63296">
        <ele>843.329567</ele>
        <time>2011-02-06T09:46:14.893</time>
      </trkpt>
      <trkpt lat="44.92955" lon="5.63291">
        <ele>844.329552</ele>
        <time>2011-02-06T09:46:16.894</time>
      </trkpt>
      <trkpt lat="44.92951" lon="5.63286">
        <ele>843.329536</ele>
        <time>2011-02-06T09:46:18.892</time>
      </trkpt>
      <trkpt lat="44.92947" lon="5.6328">
        <ele>843.329517</ele>
        <time>2011-02-06T09:46:20.895</time>
      </trkpt>
      <trkpt lat="44.92943" lon="5.63275">
        <ele>842.329502</ele>
        <time>2011-02-06T09:46:22.891</time>
      </trkpt>
      <trkpt lat="44.92939" lon="5.63271">
        <ele>841.329487</ele>
        <time>2011-02-06T09:46:24.891</time>
      </trkpt>
      <trkpt lat="44.92935" lon="5.63266">
        <ele>840.329472</ele>
        <time>2011-02-06T09:46:26.894</time>
      </trkpt>
      <trkpt lat="44.92931" lon="5.6326">
        <ele>839.329453</ele>
        <time>2011-02-06T09:46:28.890</time>
      </trkpt>
      <trkpt lat="44.92928" lon="5.63255">
        <ele>838.329437</ele>
        <time>2011-02-06T09:46:30.893</time>
      </trkpt>
      <trkpt lat="44.92924" lon="5.63249">
        <ele>838.329422</ele>
        <time>2011-02-06T09:46:32.896</time>
      </trkpt>
      <trkpt lat="44.9292" lon="5.63243">
        <ele>837.329407</ele>
        <time>2011-02-06T09:46:34.891</time>
      </trkpt>
      <trkpt lat="44.92917" lon="5.63237">
        <ele>836.329388</ele>
        <time>2011-02-06T09:46:36.889</time>
      </trkpt>
      <trkpt lat="44.92914" lon="5.63231">
        <ele>835.329372</ele>
        <time>2011-02-06T09:46:38.903</time>
      </trkpt>
      <trkpt lat="44.92911" lon="5.63224">
        <ele>834.329353</ele>
        <time>2011-02-06T09:46:40.893</time>
      </trkpt>
      <trkpt lat="44.92908" lon="5.63217">
        <ele>833.329338</ele>
        <time>2011-02-06T09:46:42.903</time>
      </trkpt>
      <trkpt lat="44.92906" lon="5.63211">
        <ele>832.329323</ele>
        <time>2011-02-06T09:46:44.893</time>
      </trkpt>
      <trkpt lat="44.92904" lon="5.63205">
        <ele>832.329308</ele>
        <time>2011-02-06T09:46:46.898</time>
      </trkpt>
      <trkpt lat="44.92902" lon="5.632">
        <ele>831.329296</ele>
        <time>2011-02-06T09:46:48.891</time>
      </trkpt>
      <trkpt lat="44.92901" lon="5.63194">
        <ele>831.329288</ele>
        <time>2011-02-06T09:46:50.891</time>
      </trkpt>
      <trkpt lat="44.92899" lon="5.63188">
        <ele>830.329273</ele>
        <time>2011-02-06T09:46:52.893</time>
      </trkpt>
      <trkpt lat="44.92898" lon="5.63182">
        <ele>831.329262</ele>
        <time>2011-02-06T09:46:54.890</time>
      </trkpt>
      <trkpt lat="44.92896" lon="5.63176">
        <ele>831.329247</ele>
        <time>2011-02-06T09:46:56.892</time>
      </trkpt>
      <trkpt lat="44.92895" lon="5.63169">
        <ele>830.329235</ele>
        <time>2011-02-06T09:46:58.892</time>
      </trkpt>
      <trkpt lat="44.92894" lon="5.63163">
        <ele>830.329224</ele>
        <time>2011-02-06T09:47:00.890</time>
      </trkpt>
      <trkpt lat="44.92893" lon="5.63157">
        <ele>830.329212</ele>
        <time>2011-02-06T09:47:02.891</time>
      </trkpt>
      <trkpt lat="44.92892" lon="5.63151">
        <ele>831.329201</ele>
        <time>2011-02-06T09:47:04.890</time>
      </trkpt>
      <trkpt lat="44.92891" lon="5.63146">
        <ele>831.329189</ele>
        <time>2011-02-06T09:47:06.890</time>
      </trkpt>
      <trkpt lat="44.92889" lon="5.63141">
        <ele>830.329182</ele>
        <time>2011-02-06T09:47:08.890</time>
      </trkpt>
      <trkpt lat="44.92889" lon="5.63138">
        <ele>831.329174</ele>
        <time>2011-02-06T09:47:11.895</time>
      </trkpt>
      <trkpt lat="44.92887" lon="5.63135">
        <ele>831.329166</ele>
        <time>2011-02-06T09:47:13.892</time>
      </trkpt>
      <trkpt lat="44.92882" lon="5.63117">
        <ele>832.329124</ele>
        <time>2011-02-06T09:47:21.889</time>
      </trkpt>
      <trkpt lat="44.92881" lon="5.63112">
        <ele>832.329117</ele>
        <time>2011-02-06T09:47:23.894</time>
      </trkpt>
      <trkpt lat="44.9288" lon="5.63107">
        <ele>832.329105</ele>
        <time>2011-02-06T09:47:25.892</time>
      </trkpt>
      <trkpt lat="44.92879" lon="5.631">
        <ele>833.329094</ele>
        <time>2011-02-06T09:47:27.887</time>
      </trkpt>
      <trkpt lat="44.92877" lon="5.63082">
        <ele>835.329063</ele>
        <time>2011-02-06T09:47:32.891</time>
      </trkpt>
      <trkpt lat="44.92876" lon="5.63075">
        <ele>835.329048</ele>
        <time>2011-02-06T09:47:34.892</time>
      </trkpt>
      <trkpt lat="44.92876" lon="5.63067">
        <ele>835.329037</ele>
        <time>2011-02-06T09:47:36.892</time>
      </trkpt>
      <trkpt lat="44.92876" lon="5.63059">
        <ele>835.329025</ele>
        <time>2011-02-06T09:47:38.896</time>
      </trkpt>
      <trkpt lat="44.92875" lon="5.63053">
        <ele>835.329014</ele>
        <time>2011-02-06T09:47:40.889</time>
      </trkpt>
      <trkpt lat="44.92874" lon="5.6304">
        <ele>835.328987</ele>
        <time>2011-02-06T09:47:47.894</time>
      </trkpt>
      <trkpt lat="44.92874" lon="5.63035">
        <ele>834.328983</ele>
        <time>2011-02-06T09:47:49.893</time>
      </trkpt>
      <trkpt lat="44.92873" lon="5.63029">
        <ele>834.328972</ele>
        <time>2011-02-06T09:47:51.892</time>
      </trkpt>
      <trkpt lat="44.92872" lon="5.63022">
        <ele>834.328964</ele>
        <time>2011-02-06T09:47:53.892</time>
      </trkpt>
      <trkpt lat="44.9287" lon="5.63004">
        <ele>836.328926</ele>
        <time>2011-02-06T09:47:59.893</time>
      </trkpt>
      <trkpt lat="44.9287" lon="5.62997">
        <ele>836.328918</ele>
        <time>2011-02-06T09:48:01.894</time>
      </trkpt>
      <trkpt lat="44.9287" lon="5.62991">
        <ele>836.328907</ele>
        <time>2011-02-06T09:48:03.888</time>
      </trkpt>
      <trkpt lat="44.92871" lon="5.62985">
        <ele>836.328899</ele>
        <time>2011-02-06T09:48:05.889</time>
      </trkpt>
      <trkpt lat="44.92873" lon="5.62979">
        <ele>837.328896</ele>
        <time>2011-02-06T09:48:07.890</time>
      </trkpt>
      <trkpt lat="44.92875" lon="5.62974">
        <ele>837.328892</ele>
        <time>2011-02-06T09:48:09.909</time>
      </trkpt>
      <trkpt lat="44.92878" lon="5.62969">
        <ele>837.328892</ele>
        <time>2011-02-06T09:48:11.894</time>
      </trkpt>
      <trkpt lat="44.92881" lon="5.62965">
        <ele>837.328892</ele>
        <time>2011-02-06T09:48:13.893</time>
      </trkpt>
      <trkpt lat="44.92885" lon="5.6296">
        <ele>837.328888</ele>
        <time>2011-02-06T09:48:15.888</time>
      </trkpt>
      <trkpt lat="44.92888" lon="5.62955">
        <ele>837.328896</ele>
        <time>2011-02-06T09:48:17.894</time>
      </trkpt>
      <trkpt lat="44.92892" lon="5.6295">
        <ele>836.328896</ele>
        <time>2011-02-06T09:48:19.891</time>
      </trkpt>
      <trkpt lat="44.92896" lon="5.62945">
        <ele>837.328896</ele>
        <time>2011-02-06T09:48:21.889</time>
      </trkpt>
      <trkpt lat="44.92899" lon="5.62941">
        <ele>837.328892</ele>
        <time>2011-02-06T09:48:23.887</time>
      </trkpt>
      <trkpt lat="44.92902" lon="5.62937">
        <ele>838.328896</ele>
        <time>2011-02-06T09:48:25.889</time>
      </trkpt>
      <trkpt lat="44.92905" lon="5.62932">
        <ele>839.328896</ele>
        <time>2011-02-06T09:48:27.890</time>
      </trkpt>
      <trkpt lat="44.92908" lon="5.62928">
        <ele>839.328892</ele>
        <time>2011-02-06T09:48:29.893</time>
      </trkpt>
      <trkpt lat="44.92911" lon="5.62923">
        <ele>840.328892</ele>
        <time>2011-02-06T09:48:31.891</time>
      </trkpt>
      <trkpt lat="44.92914" lon="5.62919">
        <ele>840.328892</ele>
        <time>2011-02-06T09:48:33.890</time>
      </trkpt>
      <trkpt lat="44.92917" lon="5.62914">
        <ele>840.328888</ele>
        <time>2011-02-06T09:48:35.958</time>
      </trkpt>
      <trkpt lat="44.9292" lon="5.6291">
        <ele>840.328892</ele>
        <time>2011-02-06T09:48:37.889</time>
      </trkpt>
      <trkpt lat="44.92922" lon="5.62905">
        <ele>840.328888</ele>
        <time>2011-02-06T09:48:39.889</time>
      </trkpt>
      <trkpt lat="44.92925" lon="5.629">
        <ele>840.328888</ele>
        <time>2011-02-06T09:48:41.892</time>
      </trkpt>
      <trkpt lat="44.92928" lon="5.62894">
        <ele>839.328888</ele>
        <time>2011-02-06T09:48:43.890</time>
      </trkpt>
      <trkpt lat="44.92931" lon="5.62889">
        <ele>839.328884</ele>
        <time>2011-02-06T09:48:45.887</time>
      </trkpt>
      <trkpt lat="44.92934" lon="5.62884">
        <ele>839.32888</ele>
        <time>2011-02-06T09:48:47.895</time>
      </trkpt>
      <trkpt lat="44.92937" lon="5.62878">
        <ele>840.32888</ele>
        <time>2011-02-06T09:48:49.890</time>
      </trkpt>
      <trkpt lat="44.9294" lon="5.62872">
        <ele>839.328876</ele>
        <time>2011-02-06T09:48:51.891</time>
      </trkpt>
      <trkpt lat="44.92943" lon="5.62866">
        <ele>839.328873</ele>
        <time>2011-02-06T09:48:53.892</time>
      </trkpt>
      <trkpt lat="44.92945" lon="5.6286">
        <ele>838.328873</ele>
        <time>2011-02-06T09:48:55.887</time>
      </trkpt>
      <trkpt lat="44.92948" lon="5.62853">
        <ele>838.328865</ele>
        <time>2011-02-06T09:48:57.890</time>
      </trkpt>
      <trkpt lat="44.9295" lon="5.62847">
        <ele>838.328865</ele>
        <time>2011-02-06T09:48:59.890</time>
      </trkpt>
      <trkpt lat="44.92952" lon="5.62841">
        <ele>837.328857</ele>
        <time>2011-02-06T09:49:01.894</time>
      </trkpt>
      <trkpt lat="44.92955" lon="5.62834">
        <ele>836.328854</ele>
        <time>2011-02-06T09:49:03.892</time>
      </trkpt>
      <trkpt lat="44.92957" lon="5.62828">
        <ele>835.328846</ele>
        <time>2011-02-06T09:49:05.892</time>
      </trkpt>
      <trkpt lat="44.92959" lon="5.62821">
        <ele>834.328842</ele>
        <time>2011-02-06T09:49:07.895</time>
      </trkpt>
      <trkpt lat="44.92962" lon="5.62814">
        <ele>834.328838</ele>
        <time>2011-02-06T09:49:09.890</time>
      </trkpt>
      <trkpt lat="44.92965" lon="5.62808">
        <ele>833.328831</ele>
        <time>2011-02-06T09:49:11.892</time>
      </trkpt>
      <trkpt lat="44.92967" lon="5.62801">
        <ele>833.328827</ele>
        <time>2011-02-06T09:49:13.893</time>
      </trkpt>
      <trkpt lat="44.9297" lon="5.62794">
        <ele>832.328823</ele>
        <time>2011-02-06T09:49:15.885</time>
      </trkpt>
      <trkpt lat="44.92971" lon="5.62788">
        <ele>832.328819</ele>
        <time>2011-02-06T09:49:17.894</time>
      </trkpt>
      <trkpt lat="44.92973" lon="5.62781">
        <ele>833.328812</ele>
        <time>2011-02-06T09:49:19.891</time>
      </trkpt>
      <trkpt lat="44.92974" lon="5.62775">
        <ele>832.328804</ele>
        <time>2011-02-06T09:49:21.887</time>
      </trkpt>
      <trkpt lat="44.92975" lon="5.62769">
        <ele>832.328796</ele>
        <time>2011-02-06T09:49:23.889</time>
      </trkpt>
      <trkpt lat="44.92977" lon="5.62763">
        <ele>832.328793</ele>
        <time>2011-02-06T09:49:25.889</time>
      </trkpt>
      <trkpt lat="44.92979" lon="5.62756">
        <ele>831.328785</ele>
        <time>2011-02-06T09:49:27.892</time>
      </trkpt>
      <trkpt lat="44.92982" lon="5.6275">
        <ele>831.328785</ele>
        <time>2011-02-06T09:49:29.892</time>
      </trkpt>
      <trkpt lat="44.92984" lon="5.62744">
        <ele>831.328777</ele>
        <time>2011-02-06T09:49:31.888</time>
      </trkpt>
      <trkpt lat="44.92985" lon="5.62738">
        <ele>830.32877</ele>
        <time>2011-02-06T09:49:33.891</time>
      </trkpt>
      <trkpt lat="44.92987" lon="5.62733">
        <ele>830.32877</ele>
        <time>2011-02-06T09:49:35.898</time>
      </trkpt>
      <trkpt lat="44.92989" lon="5.62727">
        <ele>830.328766</ele>
        <time>2011-02-06T09:49:37.889</time>
      </trkpt>
      <trkpt lat="44.92991" lon="5.62723">
        <ele>830.328758</ele>
        <time>2011-02-06T09:49:39.889</time>
      </trkpt>
      <trkpt lat="44.92993" lon="5.62718">
        <ele>830.328754</ele>
        <time>2011-02-06T09:49:41.892</time>
      </trkpt>
      <trkpt lat="44.92997" lon="5.62705">
        <ele>832.328747</ele>
        <time>2011-02-06T09:49:46.889</time>
      </trkpt>
      <trkpt lat="44.92998" lon="5.627">
        <ele>832.328743</ele>
        <time>2011-02-06T09:49:48.889</time>
      </trkpt>
      <trkpt lat="44.93" lon="5.62694">
        <ele>832.328735</ele>
        <time>2011-02-06T09:49:50.896</time>
      </trkpt>
      <trkpt lat="44.93002" lon="5.62688">
        <ele>832.328728</ele>
        <time>2011-02-06T09:49:52.891</time>
      </trkpt>
      <trkpt lat="44.93004" lon="5.62682">
        <ele>832.328728</ele>
        <time>2011-02-06T09:49:54.891</time>
      </trkpt>
      <trkpt lat="44.93007" lon="5.62676">
        <ele>831.32872</ele>
        <time>2011-02-06T09:49:56.889</time>
      </trkpt>
      <trkpt lat="44.93009" lon="5.6267">
        <ele>831.328716</ele>
        <time>2011-02-06T09:49:58.893</time>
      </trkpt>
      <trkpt lat="44.93012" lon="5.62664">
        <ele>831.328712</ele>
        <time>2011-02-06T09:50:00.886</time>
      </trkpt>
      <trkpt lat="44.93014" lon="5.62657">
        <ele>832.328709</ele>
        <time>2011-02-06T09:50:02.891</time>
      </trkpt>
      <trkpt lat="44.93016" lon="5.62651">
        <ele>832.328705</ele>
        <time>2011-02-06T09:50:04.891</time>
      </trkpt>
      <trkpt lat="44.93018" lon="5.62644">
        <ele>832.328697</ele>
        <time>2011-02-06T09:50:06.888</time>
      </trkpt>
      <trkpt lat="44.9302" lon="5.62638">
        <ele>832.328693</ele>
        <time>2011-02-06T09:50:08.909</time>
      </trkpt>
      <trkpt lat="44.93022" lon="5.62631">
        <ele>832.32869</ele>
        <time>2011-02-06T09:50:10.894</time>
      </trkpt>
      <trkpt lat="44.93024" lon="5.62625">
        <ele>832.328682</ele>
        <time>2011-02-06T09:50:12.890</time>
      </trkpt>
      <trkpt lat="44.93026" lon="5.62618">
        <ele>831.328674</ele>
        <time>2011-02-06T09:50:14.890</time>
      </trkpt>
      <trkpt lat="44.93028" lon="5.62612">
        <ele>830.328671</ele>
        <time>2011-02-06T09:50:16.891</time>
      </trkpt>
      <trkpt lat="44.9303" lon="5.62605">
        <ele>829.328667</ele>
        <time>2011-02-06T09:50:18.891</time>
      </trkpt>
      <trkpt lat="44.93032" lon="5.62599">
        <ele>829.328659</ele>
        <time>2011-02-06T09:50:20.895</time>
      </trkpt>
      <trkpt lat="44.93034" lon="5.62593">
        <ele>829.328655</ele>
        <time>2011-02-06T09:50:22.891</time>
      </trkpt>
      <trkpt lat="44.93037" lon="5.62588">
        <ele>828.328651</ele>
        <time>2011-02-06T09:50:24.892</time>
      </trkpt>
      <trkpt lat="44.9304" lon="5.62582">
        <ele>827.328651</ele>
        <time>2011-02-06T09:50:26.892</time>
      </trkpt>
      <trkpt lat="44.93042" lon="5.62576">
        <ele>827.328644</ele>
        <time>2011-02-06T09:50:28.897</time>
      </trkpt>
      <trkpt lat="44.93044" lon="5.6257">
        <ele>827.32864</ele>
        <time>2011-02-06T09:50:30.887</time>
      </trkpt>
      <trkpt lat="44.93046" lon="5.62565">
        <ele>827.328636</ele>
        <time>2011-02-06T09:50:32.885</time>
      </trkpt>
      <trkpt lat="44.93047" lon="5.6256">
        <ele>827.328636</ele>
        <time>2011-02-06T09:50:34.891</time>
      </trkpt>
      <trkpt lat="44.93048" lon="5.62556">
        <ele>827.328629</ele>
        <time>2011-02-06T09:50:36.887</time>
      </trkpt>
      <trkpt lat="44.93049" lon="5.62551">
        <ele>827.328621</ele>
        <time>2011-02-06T09:50:38.889</time>
      </trkpt>
      <trkpt lat="44.9305" lon="5.62547">
        <ele>828.328621</ele>
        <time>2011-02-06T09:50:40.890</time>
      </trkpt>
      <trkpt lat="44.93051" lon="5.62544">
        <ele>829.328617</ele>
        <time>2011-02-06T09:50:42.885</time>
      </trkpt>
      <trkpt lat="44.93053" lon="5.62541">
        <ele>829.328613</ele>
        <time>2011-02-06T09:50:44.891</time>
      </trkpt>
      <trkpt lat="44.93054" lon="5.62537">
        <ele>830.328613</ele>
        <time>2011-02-06T09:50:46.891</time>
      </trkpt>
      <trkpt lat="44.93055" lon="5.62533">
        <ele>830.328613</ele>
        <time>2011-02-06T09:50:48.890</time>
      </trkpt>
      <trkpt lat="44.93057" lon="5.62529">
        <ele>831.328606</ele>
        <time>2011-02-06T09:50:50.927</time>
      </trkpt>
      <trkpt lat="44.93058" lon="5.62525">
        <ele>832.328602</ele>
        <time>2011-02-06T09:50:52.893</time>
      </trkpt>
      <trkpt lat="44.93059" lon="5.62521">
        <ele>833.328598</ele>
        <time>2011-02-06T09:50:54.888</time>
      </trkpt>
      <trkpt lat="44.93061" lon="5.62511">
        <ele>834.32859</ele>
        <time>2011-02-06T09:50:58.890</time>
      </trkpt>
      <trkpt lat="44.93062" lon="5.62506">
        <ele>835.328579</ele>
        <time>2011-02-06T09:51:00.890</time>
      </trkpt>
      <trkpt lat="44.93064" lon="5.62501">
        <ele>835.328575</ele>
        <time>2011-02-06T09:51:02.894</time>
      </trkpt>
      <trkpt lat="44.93065" lon="5.62495">
        <ele>835.328571</ele>
        <time>2011-02-06T09:51:04.889</time>
      </trkpt>
      <trkpt lat="44.93067" lon="5.62489">
        <ele>835.328568</ele>
        <time>2011-02-06T09:51:06.887</time>
      </trkpt>
      <trkpt lat="44.9307" lon="5.62482">
        <ele>835.32856</ele>
        <time>2011-02-06T09:51:08.891</time>
      </trkpt>
      <trkpt lat="44.93073" lon="5.62474">
        <ele>834.328552</ele>
        <time>2011-02-06T09:51:10.889</time>
      </trkpt>
      <trkpt lat="44.93075" lon="5.62465">
        <ele>833.328548</ele>
        <time>2011-02-06T09:51:12.891</time>
      </trkpt>
      <trkpt lat="44.93078" lon="5.62456">
        <ele>832.328541</ele>
        <time>2011-02-06T09:51:14.893</time>
      </trkpt>
      <trkpt lat="44.93081" lon="5.62448">
        <ele>831.328529</ele>
        <time>2011-02-06T09:51:16.888</time>
      </trkpt>
      <trkpt lat="44.93083" lon="5.62439">
        <ele>831.328526</ele>
        <time>2011-02-06T09:51:18.891</time>
      </trkpt>
      <trkpt lat="44.93086" lon="5.62432">
        <ele>829.328522</ele>
        <time>2011-02-06T09:51:20.905</time>
      </trkpt>
      <trkpt lat="44.93089" lon="5.62424">
        <ele>829.328514</ele>
        <time>2011-02-06T09:51:22.890</time>
      </trkpt>
      <trkpt lat="44.93091" lon="5.62417">
        <ele>829.32851</ele>
        <time>2011-02-06T09:51:24.886</time>
      </trkpt>
      <trkpt lat="44.93093" lon="5.6241">
        <ele>828.328503</ele>
        <time>2011-02-06T09:51:26.892</time>
      </trkpt>
      <trkpt lat="44.93095" lon="5.62403">
        <ele>829.328495</ele>
        <time>2011-02-06T09:51:28.888</time>
      </trkpt>
      <trkpt lat="44.93097" lon="5.62396">
        <ele>829.328491</ele>
        <time>2011-02-06T09:51:30.889</time>
      </trkpt>
      <trkpt lat="44.93099" lon="5.62389">
        <ele>828.328484</ele>
        <time>2011-02-06T09:51:32.892</time>
      </trkpt>
      <trkpt lat="44.93101" lon="5.62382">
        <ele>828.328476</ele>
        <time>2011-02-06T09:51:34.891</time>
      </trkpt>
      <trkpt lat="44.93103" lon="5.62376">
        <ele>828.328472</ele>
        <time>2011-02-06T09:51:36.890</time>
      </trkpt>
      <trkpt lat="44.93105" lon="5.62369">
        <ele>828.328465</ele>
        <time>2011-02-06T09:51:38.889</time>
      </trkpt>
      <trkpt lat="44.93108" lon="5.62361">
        <ele>828.328461</ele>
        <time>2011-02-06T09:51:40.889</time>
      </trkpt>
      <trkpt lat="44.9311" lon="5.62354">
        <ele>827.328457</ele>
        <time>2011-02-06T09:51:42.888</time>
      </trkpt>
      <trkpt lat="44.93112" lon="5.62347">
        <ele>827.328449</ele>
        <time>2011-02-06T09:51:44.902</time>
      </trkpt>
      <trkpt lat="44.93114" lon="5.62341">
        <ele>827.328438</ele>
        <time>2011-02-06T09:51:46.893</time>
      </trkpt>
      <trkpt lat="44.93115" lon="5.62334">
        <ele>827.328434</ele>
        <time>2011-02-06T09:51:48.886</time>
      </trkpt>
      <trkpt lat="44.93116" lon="5.62328">
        <ele>826.32843</ele>
        <time>2011-02-06T09:51:50.894</time>
      </trkpt>
      <trkpt lat="44.93117" lon="5.62323">
        <ele>826.328423</ele>
        <time>2011-02-06T09:51:52.890</time>
      </trkpt>
      <trkpt lat="44.93118" lon="5.62317">
        <ele>826.328415</ele>
        <time>2011-02-06T09:51:54.888</time>
      </trkpt>
      <trkpt lat="44.9312" lon="5.62311">
        <ele>827.328407</ele>
        <time>2011-02-06T09:51:56.897</time>
      </trkpt>
      <trkpt lat="44.93121" lon="5.62304">
        <ele>827.3284</ele>
        <time>2011-02-06T09:51:58.891</time>
      </trkpt>
      <trkpt lat="44.93122" lon="5.62298">
        <ele>827.328392</ele>
        <time>2011-02-06T09:52:00.890</time>
      </trkpt>
      <trkpt lat="44.93122" lon="5.62292">
        <ele>827.328384</ele>
        <time>2011-02-06T09:52:02.894</time>
      </trkpt>
      <trkpt lat="44.93123" lon="5.62286">
        <ele>828.328381</ele>
        <time>2011-02-06T09:52:04.888</time>
      </trkpt>
      <trkpt lat="44.93123" lon="5.62279">
        <ele>828.328369</ele>
        <time>2011-02-06T09:52:06.894</time>
      </trkpt>
      <trkpt lat="44.93124" lon="5.62272">
        <ele>829.328362</ele>
        <time>2011-02-06T09:52:08.893</time>
      </trkpt>
      <trkpt lat="44.93124" lon="5.62265">
        <ele>830.32835</ele>
        <time>2011-02-06T09:52:10.892</time>
      </trkpt>
      <trkpt lat="44.93125" lon="5.62257">
        <ele>830.328339</ele>
        <time>2011-02-06T09:52:12.891</time>
      </trkpt>
      <trkpt lat="44.93125" lon="5.6225">
        <ele>830.328327</ele>
        <time>2011-02-06T09:52:14.890</time>
      </trkpt>
      <trkpt lat="44.93125" lon="5.62242">
        <ele>831.32832</ele>
        <time>2011-02-06T09:52:16.889</time>
      </trkpt>
      <trkpt lat="44.93125" lon="5.62233">
        <ele>830.3283</ele>
        <time>2011-02-06T09:52:18.888</time>
      </trkpt>
      <trkpt lat="44.93125" lon="5.62225">
        <ele>830.328289</ele>
        <time>2011-02-06T09:52:20.908</time>
      </trkpt>
      <trkpt lat="44.93125" lon="5.62217">
        <ele>830.328278</ele>
        <time>2011-02-06T09:52:22.889</time>
      </trkpt>
      <trkpt lat="44.93125" lon="5.62209">
        <ele>830.328259</ele>
        <time>2011-02-06T09:52:24.890</time>
      </trkpt>
      <trkpt lat="44.93125" lon="5.62201">
        <ele>830.328251</ele>
        <time>2011-02-06T09:52:26.896</time>
      </trkpt>
      <trkpt lat="44.93125" lon="5.62193">
        <ele>829.328239</ele>
        <time>2011-02-06T09:52:28.889</time>
      </trkpt>
      <trkpt lat="44.93126" lon="5.62186">
        <ele>830.328228</ele>
        <time>2011-02-06T09:52:30.893</time>
      </trkpt>
      <trkpt lat="44.93127" lon="5.62179">
        <ele>830.328224</ele>
        <time>2011-02-06T09:52:32.892</time>
      </trkpt>
      <trkpt lat="44.93128" lon="5.62172">
        <ele>830.328213</ele>
        <time>2011-02-06T09:52:34.890</time>
      </trkpt>
      <trkpt lat="44.93128" lon="5.62165">
        <ele>830.328201</ele>
        <time>2011-02-06T09:52:36.889</time>
      </trkpt>
      <trkpt lat="44.93129" lon="5.62162">
        <ele>831.328205</ele>
        <time>2011-02-06T09:52:38.890</time>
      </trkpt>
      <trkpt lat="44.9313" lon="5.62153">
        <ele>832.328186</ele>
        <time>2011-02-06T09:52:41.892</time>
      </trkpt>
      <trkpt lat="44.9313" lon="5.62148">
        <ele>833.328186</ele>
        <time>2011-02-06T09:52:43.887</time>
      </trkpt>
      <trkpt lat="44.93131" lon="5.6214">
        <ele>834.328171</ele>
        <time>2011-02-06T09:52:46.892</time>
      </trkpt>
      <trkpt lat="44.93133" lon="5.62135">
        <ele>835.328167</ele>
        <time>2011-02-06T09:52:48.895</time>
      </trkpt>
      <trkpt lat="44.93134" lon="5.62129">
        <ele>835.328163</ele>
        <time>2011-02-06T09:52:50.891</time>
      </trkpt>
      <trkpt lat="44.93136" lon="5.62124">
        <ele>836.328159</ele>
        <time>2011-02-06T09:52:52.890</time>
      </trkpt>
      <trkpt lat="44.93139" lon="5.6212">
        <ele>836.328159</ele>
        <time>2011-02-06T09:52:54.882</time>
      </trkpt>
      <trkpt lat="44.93142" lon="5.62115">
        <ele>836.328156</ele>
        <time>2011-02-06T09:52:56.902</time>
      </trkpt>
      <trkpt lat="44.93144" lon="5.62111">
        <ele>836.328156</ele>
        <time>2011-02-06T09:52:58.894</time>
      </trkpt>
      <trkpt lat="44.93148" lon="5.62106">
        <ele>836.328159</ele>
        <time>2011-02-06T09:53:00.890</time>
      </trkpt>
      <trkpt lat="44.93151" lon="5.62102">
        <ele>836.328156</ele>
        <time>2011-02-06T09:53:02.891</time>
      </trkpt>
      <trkpt lat="44.93155" lon="5.62097">
        <ele>836.328156</ele>
        <time>2011-02-06T09:53:04.895</time>
      </trkpt>
      <trkpt lat="44.93159" lon="5.62093">
        <ele>837.328163</ele>
        <time>2011-02-06T09:53:06.888</time>
      </trkpt>
      <trkpt lat="44.93162" lon="5.62089">
        <ele>837.328163</ele>
        <time>2011-02-06T09:53:08.893</time>
      </trkpt>
      <trkpt lat="44.93167" lon="5.62086">
        <ele>838.328171</ele>
        <time>2011-02-06T09:53:10.888</time>
      </trkpt>
      <trkpt lat="44.93171" lon="5.62082">
        <ele>838.328171</ele>
        <time>2011-02-06T09:53:12.886</time>
      </trkpt>
      <trkpt lat="44.93175" lon="5.62079">
        <ele>838.328175</ele>
        <time>2011-02-06T09:53:14.890</time>
      </trkpt>
      <trkpt lat="44.9318" lon="5.62075">
        <ele>837.328178</ele>
        <time>2011-02-06T09:53:16.890</time>
      </trkpt>
      <trkpt lat="44.93184" lon="5.62071">
        <ele>837.328178</ele>
        <time>2011-02-06T09:53:18.894</time>
      </trkpt>
      <trkpt lat="44.93188" lon="5.62068">
        <ele>837.328186</ele>
        <time>2011-02-06T09:53:20.889</time>
      </trkpt>
      <trkpt lat="44.93193" lon="5.62064">
        <ele>837.32819</ele>
        <time>2011-02-06T09:53:22.893</time>
      </trkpt>
      <trkpt lat="44.93197" lon="5.6206">
        <ele>836.328194</ele>
        <time>2011-02-06T09:53:24.891</time>
      </trkpt>
      <trkpt lat="44.93202" lon="5.62056">
        <ele>836.328197</ele>
        <time>2011-02-06T09:53:26.890</time>
      </trkpt>
      <trkpt lat="44.93206" lon="5.62052">
        <ele>835.328201</ele>
        <time>2011-02-06T09:53:28.891</time>
      </trkpt>
      <trkpt lat="44.93211" lon="5.62049">
        <ele>835.328205</ele>
        <time>2011-02-06T09:53:30.889</time>
      </trkpt>
      <trkpt lat="44.93215" lon="5.62045">
        <ele>834.328213</ele>
        <time>2011-02-06T09:53:32.889</time>
      </trkpt>
      <trkpt lat="44.9322" lon="5.62042">
        <ele>834.328217</ele>
        <time>2011-02-06T09:53:34.897</time>
      </trkpt>
      <trkpt lat="44.93224" lon="5.6204">
        <ele>834.328224</ele>
        <time>2011-02-06T09:53:36.890</time>
      </trkpt>
      <trkpt lat="44.93228" lon="5.62038">
        <ele>834.328224</ele>
        <time>2011-02-06T09:53:38.891</time>
      </trkpt>
      <trkpt lat="44.93231" lon="5.62035">
        <ele>833.328228</ele>
        <time>2011-02-06T09:53:40.886</time>
      </trkpt>
      <trkpt lat="44.93234" lon="5.62033">
        <ele>834.328232</ele>
        <time>2011-02-06T09:53:42.884</time>
      </trkpt>
      <trkpt lat="44.93237" lon="5.62031">
        <ele>834.328239</ele>
        <time>2011-02-06T09:53:44.892</time>
      </trkpt>
      <trkpt lat="44.93241" lon="5.62029">
        <ele>835.328247</ele>
        <time>2011-02-06T09:53:46.889</time>
      </trkpt>
      <trkpt lat="44.93244" lon="5.62026">
        <ele>835.328243</ele>
        <time>2011-02-06T09:53:48.887</time>
      </trkpt>
      <trkpt lat="44.93247" lon="5.62024">
        <ele>835.328247</ele>
        <time>2011-02-06T09:53:50.890</time>
      </trkpt>
      <trkpt lat="44.93251" lon="5.62021">
        <ele>836.328251</ele>
        <time>2011-02-06T09:53:52.892</time>
      </trkpt>
      <trkpt lat="44.93253" lon="5.6202">
        <ele>837.328255</ele>
        <time>2011-02-06T09:53:54.888</time>
      </trkpt>
      <trkpt lat="44.93255" lon="5.62019">
        <ele>838.328255</ele>
        <time>2011-02-06T09:53:56.889</time>
      </trkpt>
      <trkpt lat="44.9326" lon="5.62017">
        <ele>838.328262</ele>
        <time>2011-02-06T09:53:59.890</time>
      </trkpt>
      <trkpt lat="44.93263" lon="5.62014">
        <ele>838.328266</ele>
        <time>2011-02-06T09:54:01.890</time>
      </trkpt>
      <trkpt lat="44.93268" lon="5.62012">
        <ele>839.328274</ele>
        <time>2011-02-06T09:54:03.890</time>
      </trkpt>
      <trkpt lat="44.93274" lon="5.62009">
        <ele>839.328285</ele>
        <time>2011-02-06T09:54:05.892</time>
      </trkpt>
      <trkpt lat="44.93279" lon="5.62007">
        <ele>838.328293</ele>
        <time>2011-02-06T09:54:07.893</time>
      </trkpt>
      <trkpt lat="44.93285" lon="5.62005">
        <ele>838.3283</ele>
        <time>2011-02-06T09:54:09.886</time>
      </trkpt>
      <trkpt lat="44.93291" lon="5.62003">
        <ele>837.328312</ele>
        <time>2011-02-06T09:54:11.900</time>
      </trkpt>
      <trkpt lat="44.93296" lon="5.62">
        <ele>837.32832</ele>
        <time>2011-02-06T09:54:13.890</time>
      </trkpt>
      <trkpt lat="44.93302" lon="5.61998">
        <ele>836.328331</ele>
        <time>2011-02-06T09:54:15.888</time>
      </trkpt>
      <trkpt lat="44.93307" lon="5.61997">
        <ele>835.328339</ele>
        <time>2011-02-06T09:54:17.926</time>
      </trkpt>
      <trkpt lat="44.93313" lon="5.61996">
        <ele>835.328346</ele>
        <time>2011-02-06T09:54:19.889</time>
      </trkpt>
      <trkpt lat="44.93319" lon="5.61996">
        <ele>835.328362</ele>
        <time>2011-02-06T09:54:21.887</time>
      </trkpt>
      <trkpt lat="44.93324" lon="5.61995">
        <ele>833.328369</ele>
        <time>2011-02-06T09:54:23.890</time>
      </trkpt>
      <trkpt lat="44.9333" lon="5.61995">
        <ele>833.328384</ele>
        <time>2011-02-06T09:54:25.890</time>
      </trkpt>
      <trkpt lat="44.93335" lon="5.61996">
        <ele>833.3284</ele>
        <time>2011-02-06T09:54:27.889</time>
      </trkpt>
      <trkpt lat="44.9334" lon="5.61996">
        <ele>833.328407</ele>
        <time>2011-02-06T09:54:29.888</time>
      </trkpt>
      <trkpt lat="44.93345" lon="5.61997">
        <ele>833.328419</ele>
        <time>2011-02-06T09:54:31.889</time>
      </trkpt>
      <trkpt lat="44.93349" lon="5.61998">
        <ele>832.32843</ele>
        <time>2011-02-06T09:54:33.886</time>
      </trkpt>
      <trkpt lat="44.93354" lon="5.61998">
        <ele>832.328442</ele>
        <time>2011-02-06T09:54:35.890</time>
      </trkpt>
      <trkpt lat="44.93358" lon="5.61999">
        <ele>832.328449</ele>
        <time>2011-02-06T09:54:37.890</time>
      </trkpt>
      <trkpt lat="44.93362" lon="5.62">
        <ele>832.328461</ele>
        <time>2011-02-06T09:54:39.905</time>
      </trkpt>
      <trkpt lat="44.93367" lon="5.62002">
        <ele>832.328476</ele>
        <time>2011-02-06T09:54:41.889</time>
      </trkpt>
      <trkpt lat="44.93371" lon="5.62003">
        <ele>832.328484</ele>
        <time>2011-02-06T09:54:43.888</time>
      </trkpt>
      <trkpt lat="44.93376" lon="5.62005">
        <ele>832.328499</ele>
        <time>2011-02-06T09:54:45.888</time>
      </trkpt>
      <trkpt lat="44.9338" lon="5.62007">
        <ele>831.328514</ele>
        <time>2011-02-06T09:54:47.892</time>
      </trkpt>
      <trkpt lat="44.93384" lon="5.62009">
        <ele>831.328522</ele>
        <time>2011-02-06T09:54:49.894</time>
      </trkpt>
      <trkpt lat="44.93388" lon="5.6201">
        <ele>832.328533</ele>
        <time>2011-02-06T09:54:51.889</time>
      </trkpt>
      <trkpt lat="44.93392" lon="5.62012">
        <ele>832.328545</ele>
        <time>2011-02-06T09:54:53.892</time>
      </trkpt>
      <trkpt lat="44.93396" lon="5.62013">
        <ele>831.32856</ele>
        <time>2011-02-06T09:54:55.888</time>
      </trkpt>
      <trkpt lat="44.934" lon="5.62015">
        <ele>832.328571</ele>
        <time>2011-02-06T09:54:57.898</time>
      </trkpt>
      <trkpt lat="44.93401" lon="5.62016">
        <ele>831.328571</ele>
        <time>2011-02-06T09:54:59.890</time>
      </trkpt>
      <trkpt lat="44.93404" lon="5.62018">
        <ele>832.328583</ele>
        <time>2011-02-06T09:55:01.891</time>
      </trkpt>
      <trkpt lat="44.93407" lon="5.6202">
        <ele>832.32859</ele>
        <time>2011-02-06T09:55:03.888</time>
      </trkpt>
      <trkpt lat="44.93412" lon="5.62021">
        <ele>833.328606</ele>
        <time>2011-02-06T09:55:06.886</time>
      </trkpt>
      <trkpt lat="44.93417" lon="5.62021">
        <ele>835.328617</ele>
        <time>2011-02-06T09:55:09.887</time>
      </trkpt>
      <trkpt lat="44.93421" lon="5.6202">
        <ele>836.328621</ele>
        <time>2011-02-06T09:55:11.891</time>
      </trkpt>
      <trkpt lat="44.93424" lon="5.62018">
        <ele>837.328625</ele>
        <time>2011-02-06T09:55:13.890</time>
      </trkpt>
      <trkpt lat="44.93428" lon="5.62016">
        <ele>837.328629</ele>
        <time>2011-02-06T09:55:15.908</time>
      </trkpt>
      <trkpt lat="44.93435" lon="5.62007">
        <ele>841.328632</ele>
        <time>2011-02-06T09:55:20.882</time>
      </trkpt>
      <trkpt lat="44.93438" lon="5.61991">
        <ele>844.328617</ele>
        <time>2011-02-06T09:55:24.889</time>
      </trkpt>
      <trkpt lat="44.93439" lon="5.61982">
        <ele>845.328606</ele>
        <time>2011-02-06T09:55:26.892</time>
      </trkpt>
      <trkpt lat="44.93439" lon="5.61973">
        <ele>845.328594</ele>
        <time>2011-02-06T09:55:28.887</time>
      </trkpt>
      <trkpt lat="44.93439" lon="5.61964">
        <ele>845.328575</ele>
        <time>2011-02-06T09:55:30.885</time>
      </trkpt>
      <trkpt lat="44.93438" lon="5.61956">
        <ele>845.32856</ele>
        <time>2011-02-06T09:55:32.892</time>
      </trkpt>
      <trkpt lat="44.93437" lon="5.61948">
        <ele>844.328548</ele>
        <time>2011-02-06T09:55:34.889</time>
      </trkpt>
      <trkpt lat="44.93436" lon="5.61941">
        <ele>844.328533</ele>
        <time>2011-02-06T09:55:36.890</time>
      </trkpt>
      <trkpt lat="44.93435" lon="5.61933">
        <ele>844.328522</ele>
        <time>2011-02-06T09:55:38.926</time>
      </trkpt>
      <trkpt lat="44.93433" lon="5.61925">
        <ele>843.328506</ele>
        <time>2011-02-06T09:55:40.888</time>
      </trkpt>
      <trkpt lat="44.93431" lon="5.61918">
        <ele>842.328491</ele>
        <time>2011-02-06T09:55:42.891</time>
      </trkpt>
      <trkpt lat="44.93429" lon="5.61912">
        <ele>841.328472</ele>
        <time>2011-02-06T09:55:44.890</time>
      </trkpt>
      <trkpt lat="44.93428" lon="5.61905">
        <ele>841.328461</ele>
        <time>2011-02-06T09:55:46.890</time>
      </trkpt>
      <trkpt lat="44.93427" lon="5.61899">
        <ele>841.328449</ele>
        <time>2011-02-06T09:55:48.886</time>
      </trkpt>
      <trkpt lat="44.93426" lon="5.61892">
        <ele>840.328438</ele>
        <time>2011-02-06T09:55:50.887</time>
      </trkpt>
      <trkpt lat="44.93424" lon="5.61886">
        <ele>840.328423</ele>
        <time>2011-02-06T09:55:52.889</time>
      </trkpt>
      <trkpt lat="44.93423" lon="5.61879">
        <ele>840.328415</ele>
        <time>2011-02-06T09:55:54.886</time>
      </trkpt>
      <trkpt lat="44.93422" lon="5.61873">
        <ele>840.3284</ele>
        <time>2011-02-06T09:55:56.891</time>
      </trkpt>
      <trkpt lat="44.93421" lon="5.61866">
        <ele>840.328392</ele>
        <time>2011-02-06T09:55:58.896</time>
      </trkpt>
      <trkpt lat="44.93421" lon="5.6186">
        <ele>841.328373</ele>
        <time>2011-02-06T09:56:00.889</time>
      </trkpt>
      <trkpt lat="44.9342" lon="5.61853">
        <ele>842.328365</ele>
        <time>2011-02-06T09:56:02.893</time>
      </trkpt>
      <trkpt lat="44.9342" lon="5.61847">
        <ele>842.328358</ele>
        <time>2011-02-06T09:56:04.888</time>
      </trkpt>
      <trkpt lat="44.93419" lon="5.61841">
        <ele>843.328342</ele>
        <time>2011-02-06T09:56:06.895</time>
      </trkpt>
      <trkpt lat="44.93419" lon="5.61834">
        <ele>843.328331</ele>
        <time>2011-02-06T09:56:08.891</time>
      </trkpt>
      <trkpt lat="44.93419" lon="5.61827">
        <ele>844.328323</ele>
        <time>2011-02-06T09:56:10.889</time>
      </trkpt>
      <trkpt lat="44.93419" lon="5.6182">
        <ele>844.328316</ele>
        <time>2011-02-06T09:56:12.886</time>
      </trkpt>
      <trkpt lat="44.93419" lon="5.61813">
        <ele>845.3283</ele>
        <time>2011-02-06T09:56:14.913</time>
      </trkpt>
      <trkpt lat="44.93419" lon="5.61807">
        <ele>845.328289</ele>
        <time>2011-02-06T09:56:16.888</time>
      </trkpt>
      <trkpt lat="44.93418" lon="5.618">
        <ele>845.328281</ele>
        <time>2011-02-06T09:56:18.887</time>
      </trkpt>
      <trkpt lat="44.93418" lon="5.61793">
        <ele>845.32827</ele>
        <time>2011-02-06T09:56:20.902</time>
      </trkpt>
      <trkpt lat="44.93418" lon="5.61786">
        <ele>846.328255</ele>
        <time>2011-02-06T09:56:22.890</time>
      </trkpt>
      <trkpt lat="44.93418" lon="5.61779">
        <ele>846.328243</ele>
        <time>2011-02-06T09:56:24.891</time>
      </trkpt>
      <trkpt lat="44.93418" lon="5.61772">
        <ele>846.328232</ele>
        <time>2011-02-06T09:56:26.891</time>
      </trkpt>
      <trkpt lat="44.93418" lon="5.61766">
        <ele>846.328228</ele>
        <time>2011-02-06T09:56:28.893</time>
      </trkpt>
      <trkpt lat="44.93418" lon="5.6176">
        <ele>845.32822</ele>
        <time>2011-02-06T09:56:30.892</time>
      </trkpt>
      <trkpt lat="44.93417" lon="5.61754">
        <ele>845.328209</ele>
        <time>2011-02-06T09:56:32.891</time>
      </trkpt>
      <trkpt lat="44.93417" lon="5.61748">
        <ele>846.328197</ele>
        <time>2011-02-06T09:56:34.890</time>
      </trkpt>
      <trkpt lat="44.93416" lon="5.61742">
        <ele>845.328186</ele>
        <time>2011-02-06T09:56:36.889</time>
      </trkpt>
      <trkpt lat="44.93416" lon="5.61736">
        <ele>847.328178</ele>
        <time>2011-02-06T09:56:38.890</time>
      </trkpt>
      <trkpt lat="44.93414" lon="5.61731">
        <ele>847.328163</ele>
        <time>2011-02-06T09:56:40.937</time>
      </trkpt>
      <trkpt lat="44.93413" lon="5.61726">
        <ele>848.328156</ele>
        <time>2011-02-06T09:56:42.885</time>
      </trkpt>
      <trkpt lat="44.93413" lon="5.61722">
        <ele>848.328148</ele>
        <time>2011-02-06T09:56:45.886</time>
      </trkpt>
      <trkpt lat="44.93413" lon="5.61719">
        <ele>849.32814</ele>
        <time>2011-02-06T09:56:47.892</time>
      </trkpt>
      <trkpt lat="44.93412" lon="5.61714">
        <ele>851.328133</ele>
        <time>2011-02-06T09:56:49.888</time>
      </trkpt>
      <trkpt lat="44.93411" lon="5.61708">
        <ele>853.328125</ele>
        <time>2011-02-06T09:56:51.886</time>
      </trkpt>
      <trkpt lat="44.9341" lon="5.61697">
        <ele>858.328106</ele>
        <time>2011-02-06T09:56:55.890</time>
      </trkpt>
      <trkpt lat="44.93409" lon="5.61688">
        <ele>858.328087</ele>
        <time>2011-02-06T09:56:58.890</time>
      </trkpt>
      <trkpt lat="44.93409" lon="5.61682">
        <ele>859.328079</ele>
        <time>2011-02-06T09:57:00.890</time>
      </trkpt>
      <trkpt lat="44.93409" lon="5.61666">
        <ele>861.328056</ele>
        <time>2011-02-06T09:57:05.896</time>
      </trkpt>
      <trkpt lat="44.93409" lon="5.6166">
        <ele>861.328041</ele>
        <time>2011-02-06T09:57:07.891</time>
      </trkpt>
      <trkpt lat="44.9341" lon="5.61655">
        <ele>861.328037</ele>
        <time>2011-02-06T09:57:09.889</time>
      </trkpt>
      <trkpt lat="44.93408" lon="5.61634">
        <ele>860.328003</ele>
        <time>2011-02-06T09:57:15.887</time>
      </trkpt>
      <trkpt lat="44.93408" lon="5.61629">
        <ele>860.327991</ele>
        <time>2011-02-06T09:57:17.891</time>
      </trkpt>
      <trkpt lat="44.93407" lon="5.61626">
        <ele>860.327991</ele>
        <time>2011-02-06T09:57:19.890</time>
      </trkpt>
      <trkpt lat="44.93407" lon="5.61621">
        <ele>860.327984</ele>
        <time>2011-02-06T09:57:21.890</time>
      </trkpt>
      <trkpt lat="44.93407" lon="5.61611">
        <ele>860.327969</ele>
        <time>2011-02-06T09:57:24.886</time>
      </trkpt>
      <trkpt lat="44.93408" lon="5.61603">
        <ele>861.327953</ele>
        <time>2011-02-06T09:57:26.894</time>
      </trkpt>
      <trkpt lat="44.93408" lon="5.61593">
        <ele>863.327938</ele>
        <time>2011-02-06T09:57:29.890</time>
      </trkpt>
      <trkpt lat="44.93409" lon="5.61582">
        <ele>866.327927</ele>
        <time>2011-02-06T09:57:32.889</time>
      </trkpt>
      <trkpt lat="44.93409" lon="5.61576">
        <ele>867.327919</ele>
        <time>2011-02-06T09:57:34.890</time>
      </trkpt>
      <trkpt lat="44.93409" lon="5.61566">
        <ele>869.3279</ele>
        <time>2011-02-06T09:57:37.892</time>
      </trkpt>
      <trkpt lat="44.93409" lon="5.61559">
        <ele>870.327892</ele>
        <time>2011-02-06T09:57:39.889</time>
      </trkpt>
      <trkpt lat="44.93409" lon="5.61553">
        <ele>871.327881</ele>
        <time>2011-02-06T09:57:41.890</time>
      </trkpt>
      <trkpt lat="44.9341" lon="5.61546">
        <ele>872.327873</ele>
        <time>2011-02-06T09:57:43.891</time>
      </trkpt>
      <trkpt lat="44.93411" lon="5.6154">
        <ele>872.327866</ele>
        <time>2011-02-06T09:57:45.884</time>
      </trkpt>
      <trkpt lat="44.93413" lon="5.61514">
        <ele>875.327827</ele>
        <time>2011-02-06T09:57:55.892</time>
      </trkpt>
      <trkpt lat="44.93414" lon="5.6151">
        <ele>876.327827</ele>
        <time>2011-02-06T09:57:57.889</time>
      </trkpt>
      <trkpt lat="44.93416" lon="5.61506">
        <ele>876.327824</ele>
        <time>2011-02-06T09:57:59.890</time>
      </trkpt>
      <trkpt lat="44.93417" lon="5.61501">
        <ele>876.32782</ele>
        <time>2011-02-06T09:58:01.887</time>
      </trkpt>
      <trkpt lat="44.93418" lon="5.61495">
        <ele>875.327812</ele>
        <time>2011-02-06T09:58:03.887</time>
      </trkpt>
      <trkpt lat="44.93423" lon="5.6148">
        <ele>875.327797</ele>
        <time>2011-02-06T09:58:08.920</time>
      </trkpt>
      <trkpt lat="44.93429" lon="5.61461">
        <ele>876.327782</ele>
        <time>2011-02-06T09:58:13.895</time>
      </trkpt>
      <trkpt lat="44.93433" lon="5.61449">
        <ele>876.327774</ele>
        <time>2011-02-06T09:58:16.889</time>
      </trkpt>
      <trkpt lat="44.9344" lon="5.6143">
        <ele>878.327759</ele>
        <time>2011-02-06T09:58:21.909</time>
      </trkpt>
      <trkpt lat="44.93445" lon="5.61412">
        <ele>881.327747</ele>
        <time>2011-02-06T09:58:26.890</time>
      </trkpt>
      <trkpt lat="44.93448" lon="5.61405">
        <ele>881.327736</ele>
        <time>2011-02-06T09:58:28.889</time>
      </trkpt>
      <trkpt lat="44.93451" lon="5.61397">
        <ele>881.327736</ele>
        <time>2011-02-06T09:58:30.886</time>
      </trkpt>
      <trkpt lat="44.93453" lon="5.61392">
        <ele>882.327728</ele>
        <time>2011-02-06T09:58:32.889</time>
      </trkpt>
      <trkpt lat="44.93457" lon="5.61387">
        <ele>882.327728</ele>
        <time>2011-02-06T09:58:35.889</time>
      </trkpt>
      <trkpt lat="44.9346" lon="5.6138">
        <ele>881.327728</ele>
        <time>2011-02-06T09:58:38.891</time>
      </trkpt>
      <trkpt lat="44.93462" lon="5.61375">
        <ele>881.327724</ele>
        <time>2011-02-06T09:58:40.889</time>
      </trkpt>
      <trkpt lat="44.93465" lon="5.61367">
        <ele>883.327717</ele>
        <time>2011-02-06T09:58:43.887</time>
      </trkpt>
      <trkpt lat="44.93469" lon="5.6136">
        <ele>884.327717</ele>
        <time>2011-02-06T09:58:46.889</time>
      </trkpt>
      <trkpt lat="44.93472" lon="5.61354">
        <ele>884.327713</ele>
        <time>2011-02-06T09:58:49.890</time>
      </trkpt>
      <trkpt lat="44.93474" lon="5.61347">
        <ele>882.327709</ele>
        <time>2011-02-06T09:58:51.886</time>
      </trkpt>
      <trkpt lat="44.93478" lon="5.61338">
        <ele>881.327702</ele>
        <time>2011-02-06T09:58:53.922</time>
      </trkpt>
      <trkpt lat="44.93484" lon="5.61323">
        <ele>879.327694</ele>
        <time>2011-02-06T09:58:56.890</time>
      </trkpt>
      <trkpt lat="44.93488" lon="5.61314">
        <ele>878.327686</ele>
        <time>2011-02-06T09:58:58.888</time>
      </trkpt>
      <trkpt lat="44.93492" lon="5.61304">
        <ele>877.327682</ele>
        <time>2011-02-06T09:59:00.890</time>
      </trkpt>
      <trkpt lat="44.93497" lon="5.61296">
        <ele>876.327679</ele>
        <time>2011-02-06T09:59:02.891</time>
      </trkpt>
      <trkpt lat="44.93501" lon="5.61287">
        <ele>875.327675</ele>
        <time>2011-02-06T09:59:04.886</time>
      </trkpt>
      <trkpt lat="44.93505" lon="5.61279">
        <ele>874.327671</ele>
        <time>2011-02-06T09:59:06.885</time>
      </trkpt>
      <trkpt lat="44.9351" lon="5.61272">
        <ele>872.327671</ele>
        <time>2011-02-06T09:59:08.891</time>
      </trkpt>
      <trkpt lat="44.93514" lon="5.61265">
        <ele>871.327667</ele>
        <time>2011-02-06T09:59:10.888</time>
      </trkpt>
      <trkpt lat="44.93518" lon="5.61259">
        <ele>870.327667</ele>
        <time>2011-02-06T09:59:12.883</time>
      </trkpt>
      <trkpt lat="44.93522" lon="5.61252">
        <ele>869.327667</ele>
        <time>2011-02-06T09:59:14.887</time>
      </trkpt>
      <trkpt lat="44.93525" lon="5.61246">
        <ele>867.327667</ele>
        <time>2011-02-06T09:59:16.907</time>
      </trkpt>
      <trkpt lat="44.93529" lon="5.6124">
        <ele>866.327663</ele>
        <time>2011-02-06T09:59:18.885</time>
      </trkpt>
      <trkpt lat="44.93533" lon="5.61234">
        <ele>865.327663</ele>
        <time>2011-02-06T09:59:20.890</time>
      </trkpt>
      <trkpt lat="44.93537" lon="5.61228">
        <ele>864.327663</ele>
        <time>2011-02-06T09:59:22.893</time>
      </trkpt>
      <trkpt lat="44.93541" lon="5.61222">
        <ele>863.327663</ele>
        <time>2011-02-06T09:59:24.891</time>
      </trkpt>
      <trkpt lat="44.93544" lon="5.61216">
        <ele>862.32766</ele>
        <time>2011-02-06T09:59:26.892</time>
      </trkpt>
      <trkpt lat="44.93548" lon="5.6121">
        <ele>861.32766</ele>
        <time>2011-02-06T09:59:28.887</time>
      </trkpt>
      <trkpt lat="44.93552" lon="5.61203">
        <ele>860.327656</ele>
        <time>2011-02-06T09:59:30.894</time>
      </trkpt>
      <trkpt lat="44.93556" lon="5.61197">
        <ele>859.32766</ele>
        <time>2011-02-06T09:59:32.889</time>
      </trkpt>
      <trkpt lat="44.9356" lon="5.61192">
        <ele>858.327656</ele>
        <time>2011-02-06T09:59:34.884</time>
      </trkpt>
      <trkpt lat="44.93564" lon="5.61186">
        <ele>857.32766</ele>
        <time>2011-02-06T09:59:36.887</time>
      </trkpt>
      <trkpt lat="44.93568" lon="5.61181">
        <ele>857.327656</ele>
        <time>2011-02-06T09:59:38.891</time>
      </trkpt>
      <trkpt lat="44.93571" lon="5.61175">
        <ele>857.327656</ele>
        <time>2011-02-06T09:59:40.887</time>
      </trkpt>
      <trkpt lat="44.93575" lon="5.61171">
        <ele>857.32766</ele>
        <time>2011-02-06T09:59:42.885</time>
      </trkpt>
      <trkpt lat="44.93579" lon="5.61166">
        <ele>857.32766</ele>
        <time>2011-02-06T09:59:44.892</time>
      </trkpt>
      <trkpt lat="44.93584" lon="5.61161">
        <ele>856.327663</ele>
        <time>2011-02-06T09:59:46.888</time>
      </trkpt>
      <trkpt lat="44.93588" lon="5.61156">
        <ele>856.327663</ele>
        <time>2011-02-06T09:59:48.885</time>
      </trkpt>
      <trkpt lat="44.93592" lon="5.61152">
        <ele>856.327667</ele>
        <time>2011-02-06T09:59:50.887</time>
      </trkpt>
      <trkpt lat="44.93596" lon="5.61147">
        <ele>856.327667</ele>
        <time>2011-02-06T09:59:52.887</time>
      </trkpt>
      <trkpt lat="44.93599" lon="5.61142">
        <ele>856.327667</ele>
        <time>2011-02-06T09:59:54.884</time>
      </trkpt>
      <trkpt lat="44.93603" lon="5.61138">
        <ele>857.327667</ele>
        <time>2011-02-06T09:59:56.889</time>
      </trkpt>
      <trkpt lat="44.93606" lon="5.61135">
        <ele>857.327675</ele>
        <time>2011-02-06T09:59:58.889</time>
      </trkpt>
      <trkpt lat="44.9361" lon="5.61132">
        <ele>858.327675</ele>
        <time>2011-02-06T10:00:00.886</time>
      </trkpt>
      <trkpt lat="44.93614" lon="5.6113">
        <ele>859.327686</ele>
        <time>2011-02-06T10:00:02.894</time>
      </trkpt>
      <trkpt lat="44.93617" lon="5.61128">
        <ele>860.327682</ele>
        <time>2011-02-06T10:00:04.892</time>
      </trkpt>
      <trkpt lat="44.93621" lon="5.61125">
        <ele>860.32769</ele>
        <time>2011-02-06T10:00:06.888</time>
      </trkpt>
      <trkpt lat="44.93625" lon="5.61121">
        <ele>861.327694</ele>
        <time>2011-02-06T10:00:08.892</time>
      </trkpt>
      <trkpt lat="44.93629" lon="5.61117">
        <ele>861.327694</ele>
        <time>2011-02-06T10:00:10.885</time>
      </trkpt>
      <trkpt lat="44.93632" lon="5.61112">
        <ele>862.327698</ele>
        <time>2011-02-06T10:00:12.889</time>
      </trkpt>
      <trkpt lat="44.93636" lon="5.61107">
        <ele>861.327694</ele>
        <time>2011-02-06T10:00:14.887</time>
      </trkpt>
      <trkpt lat="44.9364" lon="5.61101">
        <ele>861.327694</ele>
        <time>2011-02-06T10:00:16.998</time>
      </trkpt>
      <trkpt lat="44.93642" lon="5.61098">
        <ele>861.327694</ele>
        <time>2011-02-06T10:00:18.12</time>
      </trkpt>
      <trkpt lat="44.93645" lon="5.61092">
        <ele>860.327694</ele>
        <time>2011-02-06T10:00:20.12</time>
      </trkpt>
      <trkpt lat="44.93648" lon="5.61086">
        <ele>861.32769</ele>
        <time>2011-02-06T10:00:22.12</time>
      </trkpt>
      <trkpt lat="44.93651" lon="5.61081">
        <ele>861.32769</ele>
        <time>2011-02-06T10:00:24.11</time>
      </trkpt>
      <trkpt lat="44.93654" lon="5.61075">
        <ele>861.327686</ele>
        <time>2011-02-06T10:00:26.11</time>
      </trkpt>
      <trkpt lat="44.93658" lon="5.61069">
        <ele>861.327686</ele>
        <time>2011-02-06T10:00:28.12</time>
      </trkpt>
      <trkpt lat="44.93661" lon="5.61064">
        <ele>861.327682</ele>
        <time>2011-02-06T10:00:30.12</time>
      </trkpt>
      <trkpt lat="44.93664" lon="5.61059">
        <ele>861.327679</ele>
        <time>2011-02-06T10:00:32.59</time>
      </trkpt>
      <trkpt lat="44.93668" lon="5.61054">
        <ele>860.327682</ele>
        <time>2011-02-06T10:00:34.12</time>
      </trkpt>
      <trkpt lat="44.93671" lon="5.61049">
        <ele>861.327682</ele>
        <time>2011-02-06T10:00:36.11</time>
      </trkpt>
      <trkpt lat="44.93675" lon="5.61045">
        <ele>861.327682</ele>
        <time>2011-02-06T10:00:38.18</time>
      </trkpt>
      <trkpt lat="44.93679" lon="5.61041">
        <ele>861.32769</ele>
        <time>2011-02-06T10:00:40.12</time>
      </trkpt>
      <trkpt lat="44.93682" lon="5.61037">
        <ele>861.32769</ele>
        <time>2011-02-06T10:00:42.12</time>
      </trkpt>
      <trkpt lat="44.93686" lon="5.61034">
        <ele>860.32769</ele>
        <time>2011-02-06T10:00:44.37</time>
      </trkpt>
      <trkpt lat="44.9369" lon="5.61031">
        <ele>860.327694</ele>
        <time>2011-02-06T10:00:46.12</time>
      </trkpt>
      <trkpt lat="44.93695" lon="5.61028">
        <ele>860.327702</ele>
        <time>2011-02-06T10:00:48.12</time>
      </trkpt>
      <trkpt lat="44.93699" lon="5.61025">
        <ele>861.327709</ele>
        <time>2011-02-06T10:00:50.109</time>
      </trkpt>
      <trkpt lat="44.93704" lon="5.61023">
        <ele>861.327713</ele>
        <time>2011-02-06T10:00:52.14</time>
      </trkpt>
      <trkpt lat="44.93708" lon="5.6102">
        <ele>862.327721</ele>
        <time>2011-02-06T10:00:54.12</time>
      </trkpt>
      <trkpt lat="44.93713" lon="5.61017">
        <ele>861.327724</ele>
        <time>2011-02-06T10:00:56.15</time>
      </trkpt>
      <trkpt lat="44.93717" lon="5.61014">
        <ele>861.327728</ele>
        <time>2011-02-06T10:00:58.16</time>
      </trkpt>
      <trkpt lat="44.93722" lon="5.61012">
        <ele>861.327736</ele>
        <time>2011-02-06T10:01:00.12</time>
      </trkpt>
      <trkpt lat="44.93727" lon="5.61009">
        <ele>860.327744</ele>
        <time>2011-02-06T10:01:02.13</time>
      </trkpt>
      <trkpt lat="44.93732" lon="5.61006">
        <ele>860.327751</ele>
        <time>2011-02-06T10:01:04.109</time>
      </trkpt>
      <trkpt lat="44.93737" lon="5.61004">
        <ele>860.327759</ele>
        <time>2011-02-06T10:01:06.1</time>
      </trkpt>
      <trkpt lat="44.93742" lon="5.61002">
        <ele>860.327766</ele>
        <time>2011-02-06T10:01:08.12</time>
      </trkpt>
      <trkpt lat="44.93747" lon="5.61">
        <ele>860.32777</ele>
        <time>2011-02-06T10:01:10.16</time>
      </trkpt>
      <trkpt lat="44.93751" lon="5.60997">
        <ele>859.327782</ele>
        <time>2011-02-06T10:01:12.10</time>
      </trkpt>
      <trkpt lat="44.93756" lon="5.60995">
        <ele>859.327789</ele>
        <time>2011-02-06T10:01:14.12</time>
      </trkpt>
      <trkpt lat="44.9376" lon="5.60992">
        <ele>859.327789</ele>
        <time>2011-02-06T10:01:16.12</time>
      </trkpt>
      <trkpt lat="44.93765" lon="5.60989">
        <ele>859.327797</ele>
        <time>2011-02-06T10:01:18.13</time>
      </trkpt>
      <trkpt lat="44.93769" lon="5.60986">
        <ele>858.327805</ele>
        <time>2011-02-06T10:01:20.12</time>
      </trkpt>
      <trkpt lat="44.93773" lon="5.60982">
        <ele>858.327805</ele>
        <time>2011-02-06T10:01:22.12</time>
      </trkpt>
      <trkpt lat="44.93778" lon="5.60979">
        <ele>858.327805</ele>
        <time>2011-02-06T10:01:24.126</time>
      </trkpt>
      <trkpt lat="44.93782" lon="5.60975">
        <ele>858.327812</ele>
        <time>2011-02-06T10:01:26.13</time>
      </trkpt>
      <trkpt lat="44.93786" lon="5.60971">
        <ele>858.327812</ele>
        <time>2011-02-06T10:01:28.60</time>
      </trkpt>
      <trkpt lat="44.9379" lon="5.60967">
        <ele>858.327816</ele>
        <time>2011-02-06T10:01:30.12</time>
      </trkpt>
      <trkpt lat="44.93794" lon="5.60963">
        <ele>858.32782</ele>
        <time>2011-02-06T10:01:32.25</time>
      </trkpt>
      <trkpt lat="44.93798" lon="5.60959">
        <ele>858.327824</ele>
        <time>2011-02-06T10:01:34.9</time>
      </trkpt>
      <trkpt lat="44.93803" lon="5.60955">
        <ele>858.327827</ele>
        <time>2011-02-06T10:01:36.7</time>
      </trkpt>
      <trkpt lat="44.93807" lon="5.60951">
        <ele>858.327827</ele>
        <time>2011-02-06T10:01:38.12</time>
      </trkpt>
      <trkpt lat="44.93811" lon="5.60947">
        <ele>858.327835</ele>
        <time>2011-02-06T10:01:40.12</time>
      </trkpt>
      <trkpt lat="44.93816" lon="5.60945">
        <ele>858.327839</ele>
        <time>2011-02-06T10:01:42.5</time>
      </trkpt>
      <trkpt lat="44.93821" lon="5.60944">
        <ele>858.32785</ele>
        <time>2011-02-06T10:01:44.10</time>
      </trkpt>
      <trkpt lat="44.93826" lon="5.60943">
        <ele>858.327862</ele>
        <time>2011-02-06T10:01:46.9</time>
      </trkpt>
      <trkpt lat="44.9383" lon="5.60941">
        <ele>857.327866</ele>
        <time>2011-02-06T10:01:48.9</time>
      </trkpt>
      <trkpt lat="44.93834" lon="5.6094">
        <ele>857.327873</ele>
        <time>2011-02-06T10:01:50.13</time>
      </trkpt>
      <trkpt lat="44.93838" lon="5.6094">
        <ele>858.327881</ele>
        <time>2011-02-06T10:01:52.23</time>
      </trkpt>
      <trkpt lat="44.93841" lon="5.6094">
        <ele>858.327888</ele>
        <time>2011-02-06T10:01:54.7</time>
      </trkpt>
      <trkpt lat="44.93846" lon="5.60942">
        <ele>858.327904</ele>
        <time>2011-02-06T10:01:56.15</time>
      </trkpt>
      <trkpt lat="44.9385" lon="5.60944">
        <ele>859.327915</ele>
        <time>2011-02-06T10:01:58.10</time>
      </trkpt>
      <trkpt lat="44.93853" lon="5.60948">
        <ele>859.327927</ele>
        <time>2011-02-06T10:02:00.7</time>
      </trkpt>
      <trkpt lat="44.93857" lon="5.60952">
        <ele>859.327946</ele>
        <time>2011-02-06T10:02:02.13</time>
      </trkpt>
      <trkpt lat="44.93861" lon="5.60957">
        <ele>860.327965</ele>
        <time>2011-02-06T10:02:04.10</time>
      </trkpt>
      <trkpt lat="44.93864" lon="5.60963">
        <ele>860.327972</ele>
        <time>2011-02-06T10:02:06.11</time>
      </trkpt>
      <trkpt lat="44.93867" lon="5.60968">
        <ele>860.327991</ele>
        <time>2011-02-06T10:02:08.14</time>
      </trkpt>
      <trkpt lat="44.9387" lon="5.60974">
        <ele>860.328007</ele>
        <time>2011-02-06T10:02:10.8</time>
      </trkpt>
      <trkpt lat="44.93872" lon="5.6098">
        <ele>860.328018</ele>
        <time>2011-02-06T10:02:12.8</time>
      </trkpt>
      <trkpt lat="44.93875" lon="5.60985">
        <ele>860.328033</ele>
        <time>2011-02-06T10:02:14.13</time>
      </trkpt>
      <trkpt lat="44.93876" lon="5.6099">
        <ele>860.328045</ele>
        <time>2011-02-06T10:02:16.11</time>
      </trkpt>
      <trkpt lat="44.93878" lon="5.60993">
        <ele>860.328053</ele>
        <time>2011-02-06T10:02:18.10</time>
      </trkpt>
      <trkpt lat="44.93879" lon="5.60996">
        <ele>861.328056</ele>
        <time>2011-02-06T10:02:20.8</time>
      </trkpt>
      <trkpt lat="44.9388" lon="5.60999">
        <ele>861.328064</ele>
        <time>2011-02-06T10:02:22.8</time>
      </trkpt>
      <trkpt lat="44.93883" lon="5.61005">
        <ele>862.328079</ele>
        <time>2011-02-06T10:02:26.13</time>
      </trkpt>
      <trkpt lat="44.93886" lon="5.61008">
        <ele>861.328091</ele>
        <time>2011-02-06T10:02:28.11</time>
      </trkpt>
      <trkpt lat="44.9389" lon="5.61012">
        <ele>862.32811</ele>
        <time>2011-02-06T10:02:33.11</time>
      </trkpt>
      <trkpt lat="44.93892" lon="5.61014">
        <ele>862.328117</ele>
        <time>2011-02-06T10:02:35.11</time>
      </trkpt>
      <trkpt lat="44.93895" lon="5.61018">
        <ele>861.328125</ele>
        <time>2011-02-06T10:02:37.7</time>
      </trkpt>
      <trkpt lat="44.93897" lon="5.61023">
        <ele>861.328136</ele>
        <time>2011-02-06T10:02:39.9</time>
      </trkpt>
      <trkpt lat="44.939" lon="5.61028">
        <ele>861.328152</ele>
        <time>2011-02-06T10:02:41.10</time>
      </trkpt>
      <trkpt lat="44.9391" lon="5.61042">
        <ele>859.328194</ele>
        <time>2011-02-06T10:02:46.9</time>
      </trkpt>
      <trkpt lat="44.93913" lon="5.61047">
        <ele>858.328209</ele>
        <time>2011-02-06T10:02:48.6</time>
      </trkpt>
      <trkpt lat="44.93917" lon="5.61053">
        <ele>858.328228</ele>
        <time>2011-02-06T10:02:50.13</time>
      </trkpt>
      <trkpt lat="44.93921" lon="5.61059">
        <ele>857.328247</ele>
        <time>2011-02-06T10:02:52.10</time>
      </trkpt>
      <trkpt lat="44.93925" lon="5.61063">
        <ele>857.328262</ele>
        <time>2011-02-06T10:02:54.9</time>
      </trkpt>
      <trkpt lat="44.93929" lon="5.6107">
        <ele>856.328281</ele>
        <time>2011-02-06T10:02:57.8</time>
      </trkpt>
      <trkpt lat="44.93932" lon="5.61075">
        <ele>856.328297</ele>
        <time>2011-02-06T10:02:59.12</time>
      </trkpt>
      <trkpt lat="44.93937" lon="5.61082">
        <ele>856.32832</ele>
        <time>2011-02-06T10:03:02.13</time>
      </trkpt>
      <trkpt lat="44.93941" lon="5.61086">
        <ele>857.328335</ele>
        <time>2011-02-06T10:03:04.12</time>
      </trkpt>
      <trkpt lat="44.93946" lon="5.61092">
        <ele>856.328354</ele>
        <time>2011-02-06T10:03:07.8</time>
      </trkpt>
      <trkpt lat="44.9395" lon="5.61096">
        <ele>856.328369</ele>
        <time>2011-02-06T10:03:09.8</time>
      </trkpt>
      <trkpt lat="44.93961" lon="5.61108">
        <ele>854.328407</ele>
        <time>2011-02-06T10:03:14.12</time>
      </trkpt>
      <trkpt lat="44.93969" lon="5.6112">
        <ele>853.328442</ele>
        <time>2011-02-06T10:03:18.13</time>
      </trkpt>
      <trkpt lat="44.93976" lon="5.6113">
        <ele>852.328476</ele>
        <time>2011-02-06T10:03:21.23</time>
      </trkpt>
      <trkpt lat="44.9398" lon="5.61136">
        <ele>852.328491</ele>
        <time>2011-02-06T10:03:23.9</time>
      </trkpt>
      <trkpt lat="44.93983" lon="5.61142">
        <ele>851.32851</ele>
        <time>2011-02-06T10:03:25.11</time>
      </trkpt>
      <trkpt lat="44.93986" lon="5.61148">
        <ele>851.328526</ele>
        <time>2011-02-06T10:03:27.7</time>
      </trkpt>
      <trkpt lat="44.9399" lon="5.61154">
        <ele>850.328541</ele>
        <time>2011-02-06T10:03:29.9</time>
      </trkpt>
      <trkpt lat="44.93992" lon="5.6116">
        <ele>850.328556</ele>
        <time>2011-02-06T10:03:31.13</time>
      </trkpt>
      <trkpt lat="44.93995" lon="5.61166">
        <ele>850.328568</ele>
        <time>2011-02-06T10:03:33.9</time>
      </trkpt>
      <trkpt lat="44.93998" lon="5.61172">
        <ele>849.328587</ele>
        <time>2011-02-06T10:03:35.12</time>
      </trkpt>
      <trkpt lat="44.94001" lon="5.61179">
        <ele>849.328606</ele>
        <time>2011-02-06T10:03:37.12</time>
      </trkpt>
      <trkpt lat="44.94005" lon="5.61188">
        <ele>848.328629</ele>
        <time>2011-02-06T10:03:40.8</time>
      </trkpt>
      <trkpt lat="44.94007" lon="5.61194">
        <ele>848.328644</ele>
        <time>2011-02-06T10:03:42.7</time>
      </trkpt>
      <trkpt lat="44.94009" lon="5.612">
        <ele>848.328659</ele>
        <time>2011-02-06T10:03:44.12</time>
      </trkpt>
      <trkpt lat="44.94011" lon="5.61206">
        <ele>848.328674</ele>
        <time>2011-02-06T10:03:46.44</time>
      </trkpt>
      <trkpt lat="44.94013" lon="5.61212">
        <ele>846.328686</ele>
        <time>2011-02-06T10:03:48.26</time>
      </trkpt>
      <trkpt lat="44.94015" lon="5.61218">
        <ele>846.328697</ele>
        <time>2011-02-06T10:03:50.9</time>
      </trkpt>
      <trkpt lat="44.94017" lon="5.61223">
        <ele>846.328712</ele>
        <time>2011-02-06T10:03:52.9</time>
      </trkpt>
      <trkpt lat="44.94019" lon="5.61229">
        <ele>846.328724</ele>
        <time>2011-02-06T10:03:54.7</time>
      </trkpt>
      <trkpt lat="44.94021" lon="5.61235">
        <ele>845.328735</ele>
        <time>2011-02-06T10:03:56.11</time>
      </trkpt>
      <trkpt lat="44.94023" lon="5.6124">
        <ele>844.328747</ele>
        <time>2011-02-06T10:03:58.8</time>
      </trkpt>
      <trkpt lat="44.94025" lon="5.61246">
        <ele>843.328758</ele>
        <time>2011-02-06T10:04:00.7</time>
      </trkpt>
      <trkpt lat="44.94027" lon="5.61252">
        <ele>842.32877</ele>
        <time>2011-02-06T10:04:02.13</time>
      </trkpt>
      <trkpt lat="44.9403" lon="5.6126">
        <ele>842.328793</ele>
        <time>2011-02-06T10:04:05.9</time>
      </trkpt>
      <trkpt lat="44.94032" lon="5.61266">
        <ele>842.328804</ele>
        <time>2011-02-06T10:04:07.27</time>
      </trkpt>
      <trkpt lat="44.94034" lon="5.61272">
        <ele>842.328819</ele>
        <time>2011-02-06T10:04:09.8</time>
      </trkpt>
      <trkpt lat="44.94036" lon="5.61281">
        <ele>842.328838</ele>
        <time>2011-02-06T10:04:12.6</time>
      </trkpt>
      <trkpt lat="44.94038" lon="5.61288">
        <ele>841.328857</ele>
        <time>2011-02-06T10:04:14.10</time>
      </trkpt>
      <trkpt lat="44.94041" lon="5.61295">
        <ele>840.328873</ele>
        <time>2011-02-06T10:04:16.8</time>
      </trkpt>
      <trkpt lat="44.94043" lon="5.61303">
        <ele>840.328888</ele>
        <time>2011-02-06T10:04:18.9</time>
      </trkpt>
      <trkpt lat="44.94045" lon="5.6131">
        <ele>839.328903</ele>
        <time>2011-02-06T10:04:20.12</time>
      </trkpt>
      <trkpt lat="44.94047" lon="5.61317">
        <ele>838.328918</ele>
        <time>2011-02-06T10:04:22.7</time>
      </trkpt>
      <trkpt lat="44.9405" lon="5.61325">
        <ele>837.328938</ele>
        <time>2011-02-06T10:04:24.10</time>
      </trkpt>
      <trkpt lat="44.94052" lon="5.61332">
        <ele>836.328953</ele>
        <time>2011-02-06T10:04:26.12</time>
      </trkpt>
      <trkpt lat="44.94055" lon="5.61339">
        <ele>836.328972</ele>
        <time>2011-02-06T10:04:28.11</time>
      </trkpt>
      <trkpt lat="44.94059" lon="5.61347">
        <ele>836.328987</ele>
        <time>2011-02-06T10:04:30.8</time>
      </trkpt>
      <trkpt lat="44.94062" lon="5.61354">
        <ele>835.329002</ele>
        <time>2011-02-06T10:04:32.6</time>
      </trkpt>
      <trkpt lat="44.94064" lon="5.6136">
        <ele>834.329021</ele>
        <time>2011-02-06T10:04:34.11</time>
      </trkpt>
      <trkpt lat="44.94066" lon="5.61366">
        <ele>834.329033</ele>
        <time>2011-02-06T10:04:36.6</time>
      </trkpt>
      <trkpt lat="44.94068" lon="5.61372">
        <ele>834.329048</ele>
        <time>2011-02-06T10:04:38.7</time>
      </trkpt>
      <trkpt lat="44.94071" lon="5.61378">
        <ele>834.329063</ele>
        <time>2011-02-06T10:04:40.16</time>
      </trkpt>
      <trkpt lat="44.94073" lon="5.61384">
        <ele>834.329079</ele>
        <time>2011-02-06T10:04:42.7</time>
      </trkpt>
      <trkpt lat="44.94075" lon="5.61391">
        <ele>833.329094</ele>
        <time>2011-02-06T10:04:44.15</time>
      </trkpt>
      <trkpt lat="44.94078" lon="5.61397">
        <ele>833.329109</ele>
        <time>2011-02-06T10:04:46.13</time>
      </trkpt>
      <trkpt lat="44.9408" lon="5.61403">
        <ele>832.329124</ele>
        <time>2011-02-06T10:04:48.54</time>
      </trkpt>
      <trkpt lat="44.94083" lon="5.61409">
        <ele>832.32914</ele>
        <time>2011-02-06T10:04:50.10</time>
      </trkpt>
      <trkpt lat="44.94086" lon="5.61415">
        <ele>832.329151</ele>
        <time>2011-02-06T10:04:52.18</time>
      </trkpt>
      <trkpt lat="44.94088" lon="5.61421">
        <ele>832.329166</ele>
        <time>2011-02-06T10:04:54.9</time>
      </trkpt>
      <trkpt lat="44.9409" lon="5.61428">
        <ele>831.329178</ele>
        <time>2011-02-06T10:04:56.8</time>
      </trkpt>
      <trkpt lat="44.94092" lon="5.61434">
        <ele>830.329193</ele>
        <time>2011-02-06T10:04:58.13</time>
      </trkpt>
      <trkpt lat="44.94093" lon="5.6144">
        <ele>829.329208</ele>
        <time>2011-02-06T10:05:00.10</time>
      </trkpt>
      <trkpt lat="44.94095" lon="5.61447">
        <ele>828.329224</ele>
        <time>2011-02-06T10:05:02.15</time>
      </trkpt>
      <trkpt lat="44.94097" lon="5.61454">
        <ele>828.329235</ele>
        <time>2011-02-06T10:05:04.10</time>
      </trkpt>
      <trkpt lat="44.941" lon="5.6146">
        <ele>826.329254</ele>
        <time>2011-02-06T10:05:06.8</time>
      </trkpt>
      <trkpt lat="44.94102" lon="5.61465">
        <ele>825.329266</ele>
        <time>2011-02-06T10:05:08.13</time>
      </trkpt>
      <trkpt lat="44.94106" lon="5.61474">
        <ele>825.329288</ele>
        <time>2011-02-06T10:05:12.7</time>
      </trkpt>
      <trkpt lat="44.94107" lon="5.61478">
        <ele>825.329296</ele>
        <time>2011-02-06T10:05:14.11</time>
      </trkpt>
      <trkpt lat="44.94108" lon="5.61484">
        <ele>826.329308</ele>
        <time>2011-02-06T10:05:16.9</time>
      </trkpt>
      <trkpt lat="44.94109" lon="5.6149">
        <ele>827.329319</ele>
        <time>2011-02-06T10:05:18.9</time>
      </trkpt>
      <trkpt lat="44.9411" lon="5.61496">
        <ele>828.329327</ele>
        <time>2011-02-06T10:05:20.12</time>
      </trkpt>
      <trkpt lat="44.94111" lon="5.61501">
        <ele>829.329342</ele>
        <time>2011-02-06T10:05:22.11</time>
      </trkpt>
      <trkpt lat="44.94112" lon="5.61507">
        <ele>829.32935</ele>
        <time>2011-02-06T10:05:24.8</time>
      </trkpt>
      <trkpt lat="44.94113" lon="5.61513">
        <ele>829.329365</ele>
        <time>2011-02-06T10:05:26.10</time>
      </trkpt>
      <trkpt lat="44.94114" lon="5.61517">
        <ele>829.329372</ele>
        <time>2011-02-06T10:05:28.10</time>
      </trkpt>
      <trkpt lat="44.94117" lon="5.61524">
        <ele>831.329391</ele>
        <time>2011-02-06T10:05:31.10</time>
      </trkpt>
      <trkpt lat="44.94119" lon="5.61528">
        <ele>832.329399</ele>
        <time>2011-02-06T10:05:33.7</time>
      </trkpt>
      <trkpt lat="44.94122" lon="5.61532">
        <ele>833.329414</ele>
        <time>2011-02-06T10:05:35.11</time>
      </trkpt>
      <trkpt lat="44.94124" lon="5.61537">
        <ele>834.329422</ele>
        <time>2011-02-06T10:05:37.8</time>
      </trkpt>
      <trkpt lat="44.94127" lon="5.61542">
        <ele>834.329437</ele>
        <time>2011-02-06T10:05:39.10</time>
      </trkpt>
      <trkpt lat="44.94128" lon="5.61548">
        <ele>833.329453</ele>
        <time>2011-02-06T10:05:41.11</time>
      </trkpt>
      <trkpt lat="44.9413" lon="5.61554">
        <ele>832.32946</ele>
        <time>2011-02-06T10:05:43.14</time>
      </trkpt>
      <trkpt lat="44.94132" lon="5.6156">
        <ele>832.329479</ele>
        <time>2011-02-06T10:05:45.11</time>
      </trkpt>
      <trkpt lat="44.94134" lon="5.61566">
        <ele>833.329491</ele>
        <time>2011-02-06T10:05:47.12</time>
      </trkpt>
      <trkpt lat="44.94136" lon="5.61572">
        <ele>832.329502</ele>
        <time>2011-02-06T10:05:49.9</time>
      </trkpt>
      <trkpt lat="44.94138" lon="5.61578">
        <ele>832.329517</ele>
        <time>2011-02-06T10:05:51.8</time>
      </trkpt>
      <trkpt lat="44.9414" lon="5.61585">
        <ele>832.329529</ele>
        <time>2011-02-06T10:05:53.12</time>
      </trkpt>
      <trkpt lat="44.94143" lon="5.61593">
        <ele>832.329552</ele>
        <time>2011-02-06T10:05:55.11</time>
      </trkpt>
      <trkpt lat="44.94147" lon="5.61601">
        <ele>832.329575</ele>
        <time>2011-02-06T10:05:57.10</time>
      </trkpt>
      <trkpt lat="44.94152" lon="5.6161">
        <ele>830.329597</ele>
        <time>2011-02-06T10:05:59.18</time>
      </trkpt>
      <trkpt lat="44.94157" lon="5.61618">
        <ele>829.329617</ele>
        <time>2011-02-06T10:06:01.9</time>
      </trkpt>
      <trkpt lat="44.94162" lon="5.61625">
        <ele>828.329639</ele>
        <time>2011-02-06T10:06:03.9</time>
      </trkpt>
      <trkpt lat="44.94167" lon="5.61632">
        <ele>827.329662</ele>
        <time>2011-02-06T10:06:05.11</time>
      </trkpt>
      <trkpt lat="44.94172" lon="5.61638">
        <ele>826.329681</ele>
        <time>2011-02-06T10:06:07.7</time>
      </trkpt>
      <trkpt lat="44.94176" lon="5.61644">
        <ele>825.3297</ele>
        <time>2011-02-06T10:06:09.7</time>
      </trkpt>
      <trkpt lat="44.94181" lon="5.6165">
        <ele>826.32972</ele>
        <time>2011-02-06T10:06:11.12</time>
      </trkpt>
      <trkpt lat="44.94185" lon="5.61656">
        <ele>826.329739</ele>
        <time>2011-02-06T10:06:13.14</time>
      </trkpt>
      <trkpt lat="44.9419" lon="5.61661">
        <ele>825.329758</ele>
        <time>2011-02-06T10:06:15.8</time>
      </trkpt>
      <trkpt lat="44.94195" lon="5.61667">
        <ele>826.329777</ele>
        <time>2011-02-06T10:06:17.12</time>
      </trkpt>
      <trkpt lat="44.942" lon="5.61672">
        <ele>826.329796</ele>
        <time>2011-02-06T10:06:19.7</time>
      </trkpt>
      <trkpt lat="44.94204" lon="5.61677">
        <ele>825.329815</ele>
        <time>2011-02-06T10:06:21.10</time>
      </trkpt>
      <trkpt lat="44.94209" lon="5.61683">
        <ele>825.32983</ele>
        <time>2011-02-06T10:06:23.11</time>
      </trkpt>
      <trkpt lat="44.94213" lon="5.61688">
        <ele>825.329849</ele>
        <time>2011-02-06T10:06:25.5</time>
      </trkpt>
      <trkpt lat="44.94217" lon="5.61692">
        <ele>825.329868</ele>
        <time>2011-02-06T10:06:27.8</time>
      </trkpt>
      <trkpt lat="44.94221" lon="5.61697">
        <ele>825.32988</ele>
        <time>2011-02-06T10:06:29.14</time>
      </trkpt>
      <trkpt lat="44.94225" lon="5.61701">
        <ele>825.329895</ele>
        <time>2011-02-06T10:06:31.8</time>
      </trkpt>
      <trkpt lat="44.94228" lon="5.61704">
        <ele>825.32991</ele>
        <time>2011-02-06T10:06:33.6</time>
      </trkpt>
      <trkpt lat="44.9423" lon="5.61707">
        <ele>825.329914</ele>
        <time>2011-02-06T10:06:35.10</time>
      </trkpt>
      <trkpt lat="44.94233" lon="5.61712">
        <ele>827.329929</ele>
        <time>2011-02-06T10:06:41.12</time>
      </trkpt>
      <trkpt lat="44.94235" lon="5.61715">
        <ele>828.329937</ele>
        <time>2011-02-06T10:06:43.9</time>
      </trkpt>
      <trkpt lat="44.94236" lon="5.61718">
        <ele>829.329945</ele>
        <time>2011-02-06T10:06:45.8</time>
      </trkpt>
      <trkpt lat="44.94237" lon="5.61722">
        <ele>829.329956</ele>
        <time>2011-02-06T10:06:47.11</time>
      </trkpt>
      <trkpt lat="44.94238" lon="5.61725">
        <ele>831.329964</ele>
        <time>2011-02-06T10:06:49.8</time>
      </trkpt>
      <trkpt lat="44.94239" lon="5.61729">
        <ele>831.329971</ele>
        <time>2011-02-06T10:06:51.9</time>
      </trkpt>
      <trkpt lat="44.9424" lon="5.61733">
        <ele>832.329979</ele>
        <time>2011-02-06T10:06:53.8</time>
      </trkpt>
      <trkpt lat="44.94241" lon="5.61737">
        <ele>832.329987</ele>
        <time>2011-02-06T10:06:55.11</time>
      </trkpt>
      <trkpt lat="44.94242" lon="5.61741">
        <ele>832.329994</ele>
        <time>2011-02-06T10:06:57.7</time>
      </trkpt>
      <trkpt lat="44.94243" lon="5.61745">
        <ele>832.330002</ele>
        <time>2011-02-06T10:06:59.11</time>
      </trkpt>
      <trkpt lat="44.94243" lon="5.61749">
        <ele>831.330009</ele>
        <time>2011-02-06T10:07:01.6</time>
      </trkpt>
      <trkpt lat="44.94244" lon="5.61754">
        <ele>832.330017</ele>
        <time>2011-02-06T10:07:03.9</time>
      </trkpt>
      <trkpt lat="44.94244" lon="5.61758">
        <ele>831.330025</ele>
        <time>2011-02-06T10:07:05.12</time>
      </trkpt>
      <trkpt lat="44.94245" lon="5.61762">
        <ele>831.330029</ele>
        <time>2011-02-06T10:07:07.23</time>
      </trkpt>
      <trkpt lat="44.94246" lon="5.61767">
        <ele>831.33004</ele>
        <time>2011-02-06T10:07:09.7</time>
      </trkpt>
      <trkpt lat="44.94247" lon="5.61772">
        <ele>832.330051</ele>
        <time>2011-02-06T10:07:11.11</time>
      </trkpt>
      <trkpt lat="44.94248" lon="5.61777">
        <ele>832.330059</ele>
        <time>2011-02-06T10:07:13.5</time>
      </trkpt>
      <trkpt lat="44.94249" lon="5.61782">
        <ele>832.33007</ele>
        <time>2011-02-06T10:07:15.10</time>
      </trkpt>
      <trkpt lat="44.94251" lon="5.61788">
        <ele>833.330086</ele>
        <time>2011-02-06T10:07:17.12</time>
      </trkpt>
      <trkpt lat="44.94252" lon="5.61795">
        <ele>832.330097</ele>
        <time>2011-02-06T10:07:19.8</time>
      </trkpt>
      <trkpt lat="44.94254" lon="5.61802">
        <ele>832.330116</ele>
        <time>2011-02-06T10:07:21.8</time>
      </trkpt>
      <trkpt lat="44.94256" lon="5.61808">
        <ele>833.330128</ele>
        <time>2011-02-06T10:07:23.10</time>
      </trkpt>
      <trkpt lat="44.94257" lon="5.61813">
        <ele>833.330139</ele>
        <time>2011-02-06T10:07:25.6</time>
      </trkpt>
      <trkpt lat="44.94259" lon="5.61818">
        <ele>832.330151</ele>
        <time>2011-02-06T10:07:27.5</time>
      </trkpt>
      <trkpt lat="44.94259" lon="5.61823">
        <ele>832.330158</ele>
        <time>2011-02-06T10:07:29.15</time>
      </trkpt>
      <trkpt lat="44.9426" lon="5.61828">
        <ele>832.33017</ele>
        <time>2011-02-06T10:07:31.9</time>
      </trkpt>
      <trkpt lat="44.94262" lon="5.61832">
        <ele>832.330177</ele>
        <time>2011-02-06T10:07:33.8</time>
      </trkpt>
      <trkpt lat="44.94263" lon="5.61836">
        <ele>833.330185</ele>
        <time>2011-02-06T10:07:35.11</time>
      </trkpt>
      <trkpt lat="44.94264" lon="5.6184">
        <ele>833.330193</ele>
        <time>2011-02-06T10:07:37.10</time>
      </trkpt>
      <trkpt lat="44.94265" lon="5.61845">
        <ele>834.3302</ele>
        <time>2011-02-06T10:07:39.10</time>
      </trkpt>
      <trkpt lat="44.94266" lon="5.61849">
        <ele>835.330215</ele>
        <time>2011-02-06T10:07:41.9</time>
      </trkpt>
      <trkpt lat="44.94268" lon="5.61855">
        <ele>836.330223</ele>
        <time>2011-02-06T10:07:43.13</time>
      </trkpt>
      <trkpt lat="44.9427" lon="5.6186">
        <ele>836.330238</ele>
        <time>2011-02-06T10:07:45.7</time>
      </trkpt>
      <trkpt lat="44.94272" lon="5.61866">
        <ele>837.33025</ele>
        <time>2011-02-06T10:07:47.9</time>
      </trkpt>
      <trkpt lat="44.94274" lon="5.61872">
        <ele>837.330269</ele>
        <time>2011-02-06T10:07:49.42</time>
      </trkpt>
      <trkpt lat="44.94277" lon="5.61878">
        <ele>837.33028</ele>
        <time>2011-02-06T10:07:51.6</time>
      </trkpt>
      <trkpt lat="44.94279" lon="5.61883">
        <ele>838.330292</ele>
        <time>2011-02-06T10:07:53.9</time>
      </trkpt>
      <trkpt lat="44.94281" lon="5.61888">
        <ele>838.330307</ele>
        <time>2011-02-06T10:07:55.13</time>
      </trkpt>
      <trkpt lat="44.94283" lon="5.61893">
        <ele>838.330318</ele>
        <time>2011-02-06T10:07:57.7</time>
      </trkpt>
      <trkpt lat="44.94286" lon="5.61898">
        <ele>838.330326</ele>
        <time>2011-02-06T10:07:59.8</time>
      </trkpt>
      <trkpt lat="44.94289" lon="5.61906">
        <ele>838.330345</ele>
        <time>2011-02-06T10:08:02.8</time>
      </trkpt>
      <trkpt lat="44.94291" lon="5.61911">
        <ele>838.33036</ele>
        <time>2011-02-06T10:08:04.7</time>
      </trkpt>
      <trkpt lat="44.94293" lon="5.61916">
        <ele>837.330376</ele>
        <time>2011-02-06T10:08:06.30</time>
      </trkpt>
      <trkpt lat="44.94295" lon="5.61921">
        <ele>836.330387</ele>
        <time>2011-02-06T10:08:08.10</time>
      </trkpt>
      <trkpt lat="44.94297" lon="5.61927">
        <ele>836.330399</ele>
        <time>2011-02-06T10:08:10.5</time>
      </trkpt>
      <trkpt lat="44.94299" lon="5.61932">
        <ele>835.33041</ele>
        <time>2011-02-06T10:08:12.9</time>
      </trkpt>
      <trkpt lat="44.94301" lon="5.61937">
        <ele>835.330421</ele>
        <time>2011-02-06T10:08:14.13</time>
      </trkpt>
      <trkpt lat="44.94302" lon="5.61941">
        <ele>835.330433</ele>
        <time>2011-02-06T10:08:16.12</time>
      </trkpt>
      <trkpt lat="44.94303" lon="5.61946">
        <ele>835.330437</ele>
        <time>2011-02-06T10:08:18.7</time>
      </trkpt>
      <trkpt lat="44.94304" lon="5.6195">
        <ele>836.330452</ele>
        <time>2011-02-06T10:08:20.10</time>
      </trkpt>
      <trkpt lat="44.94305" lon="5.61954">
        <ele>836.330463</ele>
        <time>2011-02-06T10:08:22.7</time>
      </trkpt>
      <trkpt lat="44.94307" lon="5.61961">
        <ele>838.330475</ele>
        <time>2011-02-06T10:08:25.30</time>
      </trkpt>
      <trkpt lat="44.94309" lon="5.61968">
        <ele>838.33049</ele>
        <time>2011-02-06T10:08:27.6</time>
      </trkpt>
      <trkpt lat="44.94311" lon="5.61977">
        <ele>837.330505</ele>
        <time>2011-02-06T10:08:29.9</time>
      </trkpt>
      <trkpt lat="44.94313" lon="5.61988">
        <ele>837.330528</ele>
        <time>2011-02-06T10:08:31.9</time>
      </trkpt>
      <trkpt lat="44.94316" lon="5.61998">
        <ele>837.330551</ele>
        <time>2011-02-06T10:08:33.6</time>
      </trkpt>
      <trkpt lat="44.94319" lon="5.62008">
        <ele>837.330574</ele>
        <time>2011-02-06T10:08:35.11</time>
      </trkpt>
      <trkpt lat="44.94321" lon="5.62017">
        <ele>837.330589</ele>
        <time>2011-02-06T10:08:37.11</time>
      </trkpt>
      <trkpt lat="44.94324" lon="5.62026">
        <ele>838.330612</ele>
        <time>2011-02-06T10:08:39.6</time>
      </trkpt>
      <trkpt lat="44.94326" lon="5.62036">
        <ele>838.330627</ele>
        <time>2011-02-06T10:08:41.10</time>
      </trkpt>
      <trkpt lat="44.94329" lon="5.62045">
        <ele>839.330647</ele>
        <time>2011-02-06T10:08:43.9</time>
      </trkpt>
      <trkpt lat="44.94331" lon="5.62055">
        <ele>838.330669</ele>
        <time>2011-02-06T10:08:45.4</time>
      </trkpt>
      <trkpt lat="44.94333" lon="5.62063">
        <ele>838.330688</ele>
        <time>2011-02-06T10:08:47.8</time>
      </trkpt>
      <trkpt lat="44.94335" lon="5.62071">
        <ele>838.330704</ele>
        <time>2011-02-06T10:08:49.7</time>
      </trkpt>
      <trkpt lat="44.94337" lon="5.62078">
        <ele>838.330715</ele>
        <time>2011-02-06T10:08:51.5</time>
      </trkpt>
      <trkpt lat="44.94338" lon="5.62085">
        <ele>839.330727</ele>
        <time>2011-02-06T10:08:53.13</time>
      </trkpt>
      <trkpt lat="44.94339" lon="5.62091">
        <ele>839.330742</ele>
        <time>2011-02-06T10:08:55.58</time>
      </trkpt>
      <trkpt lat="44.9434" lon="5.62098">
        <ele>840.330757</ele>
        <time>2011-02-06T10:08:57.5</time>
      </trkpt>
      <trkpt lat="44.94341" lon="5.62105">
        <ele>840.330769</ele>
        <time>2011-02-06T10:08:59.8</time>
      </trkpt>
      <trkpt lat="44.94343" lon="5.62111">
        <ele>840.33078</ele>
        <time>2011-02-06T10:09:01.13</time>
      </trkpt>
      <trkpt lat="44.94344" lon="5.62118">
        <ele>840.330795</ele>
        <time>2011-02-06T10:09:03.14</time>
      </trkpt>
      <trkpt lat="44.94345" lon="5.62125">
        <ele>841.330803</ele>
        <time>2011-02-06T10:09:05.11</time>
      </trkpt>
      <trkpt lat="44.94347" lon="5.62131">
        <ele>841.330826</ele>
        <time>2011-02-06T10:09:07.10</time>
      </trkpt>
      <trkpt lat="44.94349" lon="5.62138">
        <ele>841.330837</ele>
        <time>2011-02-06T10:09:09.5</time>
      </trkpt>
      <trkpt lat="44.94351" lon="5.62145">
        <ele>841.330853</ele>
        <time>2011-02-06T10:09:11.8</time>
      </trkpt>
      <trkpt lat="44.94354" lon="5.62152">
        <ele>840.330872</ele>
        <time>2011-02-06T10:09:13.8</time>
      </trkpt>
      <trkpt lat="44.94357" lon="5.62159">
        <ele>840.330887</ele>
        <time>2011-02-06T10:09:15.14</time>
      </trkpt>
      <trkpt lat="44.94361" lon="5.62166">
        <ele>839.330906</ele>
        <time>2011-02-06T10:09:17.10</time>
      </trkpt>
      <trkpt lat="44.94365" lon="5.62173">
        <ele>838.330925</ele>
        <time>2011-02-06T10:09:19.9</time>
      </trkpt>
      <trkpt lat="44.94369" lon="5.62181">
        <ele>838.330944</ele>
        <time>2011-02-06T10:09:21.41</time>
      </trkpt>
      <trkpt lat="44.94373" lon="5.62188">
        <ele>837.330963</ele>
        <time>2011-02-06T10:09:23.10</time>
      </trkpt>
      <trkpt lat="44.94377" lon="5.62194">
        <ele>838.330986</ele>
        <time>2011-02-06T10:09:25.8</time>
      </trkpt>
      <trkpt lat="44.94382" lon="5.62201">
        <ele>838.331001</ele>
        <time>2011-02-06T10:09:27.7</time>
      </trkpt>
      <trkpt lat="44.94387" lon="5.62207">
        <ele>837.331024</ele>
        <time>2011-02-06T10:09:29.13</time>
      </trkpt>
      <trkpt lat="44.94394" lon="5.62211">
        <ele>836.331047</ele>
        <time>2011-02-06T10:09:31.8</time>
      </trkpt>
      <trkpt lat="44.944" lon="5.62214">
        <ele>834.331062</ele>
        <time>2011-02-06T10:09:33.7</time>
      </trkpt>
      <trkpt lat="44.94406" lon="5.62216">
        <ele>832.331078</ele>
        <time>2011-02-06T10:09:35.5</time>
      </trkpt>
      <trkpt lat="44.9441" lon="5.62215">
        <ele>832.331089</ele>
        <time>2011-02-06T10:09:37.3</time>
      </trkpt>
      <trkpt lat="44.94413" lon="5.62214">
        <ele>832.331093</ele>
        <time>2011-02-06T10:09:39.27</time>
      </trkpt>
      <trkpt lat="44.94416" lon="5.62213">
        <ele>832.3311</ele>
        <time>2011-02-06T10:09:41.11</time>
      </trkpt>
      <trkpt lat="44.94418" lon="5.62213">
        <ele>832.3311</ele>
        <time>2011-02-06T10:09:43.11</time>
      </trkpt>
      <trkpt lat="44.9442" lon="5.62209">
        <ele>833.331097</ele>
        <time>2011-02-06T10:09:45.6</time>
      </trkpt>
      <trkpt lat="44.94422" lon="5.62205">
        <ele>834.331097</ele>
        <time>2011-02-06T10:09:47.9</time>
      </trkpt>
      <trkpt lat="44.94423" lon="5.622">
        <ele>835.331093</ele>
        <time>2011-02-06T10:09:49.7</time>
      </trkpt>
      <trkpt lat="44.94425" lon="5.62196">
        <ele>836.331093</ele>
        <time>2011-02-06T10:09:51.3</time>
      </trkpt>
      <trkpt lat="44.94426" lon="5.62192">
        <ele>837.331089</ele>
        <time>2011-02-06T10:09:53.11</time>
      </trkpt>
      <trkpt lat="44.94428" lon="5.62179">
        <ele>839.33107</ele>
        <time>2011-02-06T10:09:58.14</time>
      </trkpt>
      <trkpt lat="44.9443" lon="5.6217">
        <ele>841.331062</ele>
        <time>2011-02-06T10:10:03.10</time>
      </trkpt>
      <trkpt lat="44.94433" lon="5.62159">
        <ele>844.331051</ele>
        <time>2011-02-06T10:10:08.12</time>
      </trkpt>
      <trkpt lat="44.94434" lon="5.62154">
        <ele>846.331043</ele>
        <time>2011-02-06T10:10:10.46</time>
      </trkpt>
      <trkpt lat="44.94436" lon="5.62149">
        <ele>847.331043</ele>
        <time>2011-02-06T10:10:12.6</time>
      </trkpt>
      <trkpt lat="44.9444" lon="5.62139">
        <ele>852.331036</ele>
        <time>2011-02-06T10:10:17.11</time>
      </trkpt>
      <trkpt lat="44.94442" lon="5.62134">
        <ele>854.331032</ele>
        <time>2011-02-06T10:10:20.8</time>
      </trkpt>
      <trkpt lat="44.94443" lon="5.6213">
        <ele>855.331024</ele>
        <time>2011-02-06T10:10:22.11</time>
      </trkpt>
      <trkpt lat="44.94444" lon="5.62126">
        <ele>856.331024</ele>
        <time>2011-02-06T10:10:24.10</time>
      </trkpt>
      <trkpt lat="44.94447" lon="5.62114">
        <ele>858.331013</ele>
        <time>2011-02-06T10:10:27.9</time>
      </trkpt>
      <trkpt lat="44.94449" lon="5.62112">
        <ele>859.331013</ele>
        <time>2011-02-06T10:10:29.7</time>
      </trkpt>
      <trkpt lat="44.94451" lon="5.6211">
        <ele>861.331017</ele>
        <time>2011-02-06T10:10:32.8</time>
      </trkpt>
      <trkpt lat="44.94453" lon="5.62107">
        <ele>862.331017</ele>
        <time>2011-02-06T10:10:34.26</time>
      </trkpt>
      <trkpt lat="44.94456" lon="5.62103">
        <ele>862.331017</ele>
        <time>2011-02-06T10:10:36.7</time>
      </trkpt>
      <trkpt lat="44.94459" lon="5.62098">
        <ele>863.331017</ele>
        <time>2011-02-06T10:10:38.8</time>
      </trkpt>
      <trkpt lat="44.94465" lon="5.62082">
        <ele>864.331005</ele>
        <time>2011-02-06T10:10:41.11</time>
      </trkpt>
      <trkpt lat="44.94468" lon="5.6207">
        <ele>866.330994</ele>
        <time>2011-02-06T10:10:44.14</time>
      </trkpt>
      <trkpt lat="44.9447" lon="5.62066">
        <ele>866.33099</ele>
        <time>2011-02-06T10:10:46.7</time>
      </trkpt>
      <trkpt lat="44.94471" lon="5.62062">
        <ele>866.330986</ele>
        <time>2011-02-06T10:10:48.7</time>
      </trkpt>
      <trkpt lat="44.94473" lon="5.62057">
        <ele>866.330982</ele>
        <time>2011-02-06T10:10:50.7</time>
      </trkpt>
      <trkpt lat="44.9448" lon="5.62042">
        <ele>866.330978</ele>
        <time>2011-02-06T10:10:55.7</time>
      </trkpt>
      <trkpt lat="44.94482" lon="5.62037">
        <ele>866.330967</ele>
        <time>2011-02-06T10:10:57.8</time>
      </trkpt>
      <trkpt lat="44.94495" lon="5.61997">
        <ele>871.33094</ele>
        <time>2011-02-06T10:11:11.11</time>
      </trkpt>
      <trkpt lat="44.94501" lon="5.6198">
        <ele>872.330925</ele>
        <time>2011-02-06T10:11:18.5</time>
      </trkpt>
      <trkpt lat="44.94503" lon="5.61972">
        <ele>873.330917</ele>
        <time>2011-02-06T10:11:21.7</time>
      </trkpt>
      <trkpt lat="44.94507" lon="5.6196">
        <ele>871.330914</ele>
        <time>2011-02-06T10:11:27.10</time>
      </trkpt>
      <trkpt lat="44.9451" lon="5.61953">
        <ele>870.330902</ele>
        <time>2011-02-06T10:11:29.13</time>
      </trkpt>
      <trkpt lat="44.94512" lon="5.61948">
        <ele>869.330898</ele>
        <time>2011-02-06T10:11:31.10</time>
      </trkpt>
      <trkpt lat="44.94514" lon="5.6194">
        <ele>868.330894</ele>
        <time>2011-02-06T10:11:33.3</time>
      </trkpt>
      <trkpt lat="44.94518" lon="5.6193">
        <ele>867.330887</ele>
        <time>2011-02-06T10:11:35.10</time>
      </trkpt>
      <trkpt lat="44.9452" lon="5.61923">
        <ele>867.330879</ele>
        <time>2011-02-06T10:11:37.5</time>
      </trkpt>
      <trkpt lat="44.94524" lon="5.61913">
        <ele>866.330872</ele>
        <time>2011-02-06T10:11:39.27</time>
      </trkpt>
      <trkpt lat="44.94528" lon="5.61903">
        <ele>865.330872</ele>
        <time>2011-02-06T10:11:41.8</time>
      </trkpt>
      <trkpt lat="44.9453" lon="5.61896">
        <ele>865.33086</ele>
        <time>2011-02-06T10:11:43.7</time>
      </trkpt>
      <trkpt lat="44.94532" lon="5.6189">
        <ele>865.330856</ele>
        <time>2011-02-06T10:11:45.7</time>
      </trkpt>
      <trkpt lat="44.94535" lon="5.6188">
        <ele>865.330853</ele>
        <time>2011-02-06T10:11:47.7</time>
      </trkpt>
      <trkpt lat="44.94538" lon="5.61871">
        <ele>865.330841</ele>
        <time>2011-02-06T10:11:49.9</time>
      </trkpt>
      <trkpt lat="44.94539" lon="5.61866">
        <ele>865.330841</ele>
        <time>2011-02-06T10:11:51.5</time>
      </trkpt>
      <trkpt lat="44.9454" lon="5.61864">
        <ele>866.330833</ele>
        <time>2011-02-06T10:11:53.8</time>
      </trkpt>
      <trkpt lat="44.94541" lon="5.61858">
        <ele>866.330826</ele>
        <time>2011-02-06T10:11:55.8</time>
      </trkpt>
      <trkpt lat="44.94542" lon="5.61851">
        <ele>865.330818</ele>
        <time>2011-02-06T10:11:57.1</time>
      </trkpt>
      <trkpt lat="44.94545" lon="5.61838">
        <ele>864.330803</ele>
        <time>2011-02-06T10:12:00.4</time>
      </trkpt>
      <trkpt lat="44.94548" lon="5.61824">
        <ele>864.330788</ele>
        <time>2011-02-06T10:12:02.8</time>
      </trkpt>
      <trkpt lat="44.94551" lon="5.61816">
        <ele>865.330788</ele>
        <time>2011-02-06T10:12:04.7</time>
      </trkpt>
      <trkpt lat="44.94554" lon="5.61806">
        <ele>865.330776</ele>
        <time>2011-02-06T10:12:06.40</time>
      </trkpt>
      <trkpt lat="44.94558" lon="5.61788">
        <ele>867.330757</ele>
        <time>2011-02-06T10:12:09.3</time>
      </trkpt>
      <trkpt lat="44.94561" lon="5.61777">
        <ele>867.33075</ele>
        <time>2011-02-06T10:12:11.7</time>
      </trkpt>
      <trkpt lat="44.94563" lon="5.61767">
        <ele>867.330742</ele>
        <time>2011-02-06T10:12:13.15</time>
      </trkpt>
      <trkpt lat="44.94566" lon="5.61757">
        <ele>866.330727</ele>
        <time>2011-02-06T10:12:15.16</time>
      </trkpt>
      <trkpt lat="44.94569" lon="5.61748">
        <ele>866.330723</ele>
        <time>2011-02-06T10:12:17.9</time>
      </trkpt>
      <trkpt lat="44.94572" lon="5.6174">
        <ele>865.330715</ele>
        <time>2011-02-06T10:12:19.7</time>
      </trkpt>
      <trkpt lat="44.94574" lon="5.61732">
        <ele>864.330711</ele>
        <time>2011-02-06T10:12:21.6</time>
      </trkpt>
      <trkpt lat="44.94577" lon="5.61724">
        <ele>864.330704</ele>
        <time>2011-02-06T10:12:23.11</time>
      </trkpt>
      <trkpt lat="44.9458" lon="5.61716">
        <ele>864.330696</ele>
        <time>2011-02-06T10:12:25.9</time>
      </trkpt>
      <trkpt lat="44.94583" lon="5.61708">
        <ele>864.330688</ele>
        <time>2011-02-06T10:12:27.9</time>
      </trkpt>
      <trkpt lat="44.94586" lon="5.61701">
        <ele>864.330685</ele>
        <time>2011-02-06T10:12:29.10</time>
      </trkpt>
      <trkpt lat="44.94589" lon="5.61693">
        <ele>863.330681</ele>
        <time>2011-02-06T10:12:31.11</time>
      </trkpt>
      <trkpt lat="44.94592" lon="5.61685">
        <ele>862.330673</ele>
        <time>2011-02-06T10:12:33.7</time>
      </trkpt>
      <trkpt lat="44.94595" lon="5.61677">
        <ele>861.330669</ele>
        <time>2011-02-06T10:12:35.21</time>
      </trkpt>
      <trkpt lat="44.94598" lon="5.6167">
        <ele>861.330666</ele>
        <time>2011-02-06T10:12:37.7</time>
      </trkpt>
      <trkpt lat="44.946" lon="5.61662">
        <ele>860.330658</ele>
        <time>2011-02-06T10:12:39.42</time>
      </trkpt>
      <trkpt lat="44.94603" lon="5.61655">
        <ele>860.330654</ele>
        <time>2011-02-06T10:12:41.8</time>
      </trkpt>
      <trkpt lat="44.94605" lon="5.61648">
        <ele>859.330647</ele>
        <time>2011-02-06T10:12:43.8</time>
      </trkpt>
      <trkpt lat="44.94608" lon="5.61641">
        <ele>859.330643</ele>
        <time>2011-02-06T10:12:45.3</time>
      </trkpt>
      <trkpt lat="44.9461" lon="5.61635">
        <ele>859.330643</ele>
        <time>2011-02-06T10:12:47.6</time>
      </trkpt>
      <trkpt lat="44.9461" lon="5.6163">
        <ele>858.330631</ele>
        <time>2011-02-06T10:12:51.6</time>
      </trkpt>
      <trkpt lat="44.94609" lon="5.61627">
        <ele>855.33062</ele>
        <time>2011-02-06T10:12:56.9</time>
      </trkpt>
      <trkpt lat="44.94609" lon="5.61626">
        <ele>853.33062</ele>
        <time>2011-02-06T10:12:58.6</time>
      </trkpt>
      <trkpt lat="44.94607" lon="5.61625">
        <ele>850.33062</ele>
        <time>2011-02-06T10:13:00.12</time>
      </trkpt>
      <trkpt lat="44.94606" lon="5.61624">
        <ele>846.330612</ele>
        <time>2011-02-06T10:13:02.15</time>
      </trkpt>
      <trkpt lat="44.94604" lon="5.61624">
        <ele>844.330608</ele>
        <time>2011-02-06T10:13:04.7</time>
      </trkpt>
      <trkpt lat="44.94601" lon="5.61624">
        <ele>833.330605</ele>
        <time>2011-02-06T10:13:48.4</time>
      </trkpt>
      <trkpt lat="44.94678" lon="5.613">
        <ele>798.330276</ele>
        <time>2011-02-06T10:15:20.2</time>
      </trkpt>
      <trkpt lat="44.94695" lon="5.61237">
        <ele>832.330215</ele>
        <time>2011-02-06T10:15:43.7</time>
      </trkpt>
      <trkpt lat="44.94699" lon="5.61227">
        <ele>831.330208</ele>
        <time>2011-02-06T10:15:45.11</time>
      </trkpt>
      <trkpt lat="44.94702" lon="5.61216">
        <ele>830.3302</ele>
        <time>2011-02-06T10:15:47.9</time>
      </trkpt>
      <trkpt lat="44.94705" lon="5.61206">
        <ele>830.330193</ele>
        <time>2011-02-06T10:15:49.5</time>
      </trkpt>
      <trkpt lat="44.94707" lon="5.61197">
        <ele>830.330181</ele>
        <time>2011-02-06T10:15:51.6</time>
      </trkpt>
      <trkpt lat="44.94707" lon="5.61191">
        <ele>830.330173</ele>
        <time>2011-02-06T10:15:53.5</time>
      </trkpt>
      <trkpt lat="44.94707" lon="5.61184">
        <ele>831.330162</ele>
        <time>2011-02-06T10:15:55.9</time>
      </trkpt>
      <trkpt lat="44.94708" lon="5.61168">
        <ele>832.330139</ele>
        <time>2011-02-06T10:16:00.7</time>
      </trkpt>
      <trkpt lat="44.94708" lon="5.61163">
        <ele>834.330132</ele>
        <time>2011-02-06T10:16:02.8</time>
      </trkpt>
      <trkpt lat="44.9471" lon="5.61155">
        <ele>834.330124</ele>
        <time>2011-02-06T10:16:05.9</time>
      </trkpt>
      <trkpt lat="44.94711" lon="5.61149">
        <ele>834.33012</ele>
        <time>2011-02-06T10:16:07.16</time>
      </trkpt>
      <trkpt lat="44.94713" lon="5.61142">
        <ele>834.330112</ele>
        <time>2011-02-06T10:16:09.11</time>
      </trkpt>
      <trkpt lat="44.94714" lon="5.61136">
        <ele>833.330109</ele>
        <time>2011-02-06T10:16:11.8</time>
      </trkpt>
      <trkpt lat="44.94719" lon="5.61121">
        <ele>834.330093</ele>
        <time>2011-02-06T10:16:16.11</time>
      </trkpt>
      <trkpt lat="44.94722" lon="5.61115">
        <ele>834.33009</ele>
        <time>2011-02-06T10:16:18.14</time>
      </trkpt>
      <trkpt lat="44.94725" lon="5.61109">
        <ele>834.330086</ele>
        <time>2011-02-06T10:16:20.9</time>
      </trkpt>
      <trkpt lat="44.94728" lon="5.61101">
        <ele>834.330078</ele>
        <time>2011-02-06T10:16:22.13</time>
      </trkpt>
      <trkpt lat="44.94731" lon="5.61092">
        <ele>834.330078</ele>
        <time>2011-02-06T10:16:24.12</time>
      </trkpt>
      <trkpt lat="44.94734" lon="5.61083">
        <ele>833.33007</ele>
        <time>2011-02-06T10:16:26.24</time>
      </trkpt>
      <trkpt lat="44.94738" lon="5.61075">
        <ele>834.330063</ele>
        <time>2011-02-06T10:16:28.11</time>
      </trkpt>
      <trkpt lat="44.94741" lon="5.61067">
        <ele>834.330055</ele>
        <time>2011-02-06T10:16:30.8</time>
      </trkpt>
      <trkpt lat="44.94745" lon="5.61059">
        <ele>834.330055</ele>
        <time>2011-02-06T10:16:32.8</time>
      </trkpt>
      <trkpt lat="44.94748" lon="5.61052">
        <ele>834.330051</ele>
        <time>2011-02-06T10:16:34.7</time>
      </trkpt>
      <trkpt lat="44.94751" lon="5.61045">
        <ele>834.330048</ele>
        <time>2011-02-06T10:16:36.8</time>
      </trkpt>
      <trkpt lat="44.94754" lon="5.61039">
        <ele>834.330044</ele>
        <time>2011-02-06T10:16:38.6</time>
      </trkpt>
      <trkpt lat="44.94755" lon="5.61037">
        <ele>834.33004</ele>
        <time>2011-02-06T10:16:40.11</time>
      </trkpt>
      <trkpt lat="44.94758" lon="5.61028">
        <ele>833.33004</ele>
        <time>2011-02-06T10:16:44.14</time>
      </trkpt>
      <trkpt lat="44.9476" lon="5.61022">
        <ele>833.330032</ele>
        <time>2011-02-06T10:16:47.55</time>
      </trkpt>
      <trkpt lat="44.94764" lon="5.61009">
        <ele>833.330017</ele>
        <time>2011-02-06T10:16:51.8</time>
      </trkpt>
      <trkpt lat="44.94765" lon="5.61005">
        <ele>833.330017</ele>
        <time>2011-02-06T10:16:53.8</time>
      </trkpt>
      <trkpt lat="44.94767" lon="5.61001">
        <ele>833.330013</ele>
        <time>2011-02-06T10:16:55.12</time>
      </trkpt>
      <trkpt lat="44.9477" lon="5.60994">
        <ele>833.330009</ele>
        <time>2011-02-06T10:16:57.12</time>
      </trkpt>
      <trkpt lat="44.94775" lon="5.60985">
        <ele>833.330006</ele>
        <time>2011-02-06T10:16:59.11</time>
      </trkpt>
      <trkpt lat="44.94778" lon="5.60978">
        <ele>833.330002</ele>
        <time>2011-02-06T10:17:01.18</time>
      </trkpt>
      <trkpt lat="44.94783" lon="5.6097">
        <ele>833.330002</ele>
        <time>2011-02-06T10:17:03.10</time>
      </trkpt>
      <trkpt lat="44.94787" lon="5.60964">
        <ele>834.330002</ele>
        <time>2011-02-06T10:17:05.9</time>
      </trkpt>
      <trkpt lat="44.9479" lon="5.60957">
        <ele>834.329998</ele>
        <time>2011-02-06T10:17:07.13</time>
      </trkpt>
      <trkpt lat="44.94793" lon="5.60952">
        <ele>834.329998</ele>
        <time>2011-02-06T10:17:09.12</time>
      </trkpt>
      <trkpt lat="44.94797" lon="5.60941">
        <ele>834.32999</ele>
        <time>2011-02-06T10:17:11.10</time>
      </trkpt>
      <trkpt lat="44.94804" lon="5.60922">
        <ele>836.329979</ele>
        <time>2011-02-06T10:17:16.14</time>
      </trkpt>
      <trkpt lat="44.94807" lon="5.60911">
        <ele>838.329964</ele>
        <time>2011-02-06T10:17:19.13</time>
      </trkpt>
      <trkpt lat="44.94811" lon="5.60898">
        <ele>838.329956</ele>
        <time>2011-02-06T10:17:23.12</time>
      </trkpt>
      <trkpt lat="44.94813" lon="5.60891">
        <ele>838.329948</ele>
        <time>2011-02-06T10:17:25.15</time>
      </trkpt>
      <trkpt lat="44.94816" lon="5.6088">
        <ele>838.329937</ele>
        <time>2011-02-06T10:17:28.12</time>
      </trkpt>
      <trkpt lat="44.94818" lon="5.60872">
        <ele>838.329929</ele>
        <time>2011-02-06T10:17:30.9</time>
      </trkpt>
      <trkpt lat="44.94821" lon="5.60863">
        <ele>838.329926</ele>
        <time>2011-02-06T10:17:32.9</time>
      </trkpt>
      <trkpt lat="44.94826" lon="5.60847">
        <ele>839.32991</ele>
        <time>2011-02-06T10:17:39.11</time>
      </trkpt>
      <trkpt lat="44.94827" lon="5.60841">
        <ele>839.329903</ele>
        <time>2011-02-06T10:17:41.8</time>
      </trkpt>
      <trkpt lat="44.94829" lon="5.60834">
        <ele>838.329895</ele>
        <time>2011-02-06T10:17:43.15</time>
      </trkpt>
      <trkpt lat="44.9483" lon="5.60826">
        <ele>838.329884</ele>
        <time>2011-02-06T10:17:45.16</time>
      </trkpt>
      <trkpt lat="44.94831" lon="5.60821">
        <ele>839.329876</ele>
        <time>2011-02-06T10:17:47.32</time>
      </trkpt>
      <trkpt lat="44.94832" lon="5.60807">
        <ele>838.329861</ele>
        <time>2011-02-06T10:17:51.4</time>
      </trkpt>
      <trkpt lat="44.94833" lon="5.60802">
        <ele>838.329861</ele>
        <time>2011-02-06T10:17:53.10</time>
      </trkpt>
      <trkpt lat="44.94834" lon="5.60795">
        <ele>838.329849</ele>
        <time>2011-02-06T10:17:55.13</time>
      </trkpt>
      <trkpt lat="44.94836" lon="5.6079">
        <ele>838.329842</ele>
        <time>2011-02-06T10:17:57.13</time>
      </trkpt>
      <trkpt lat="44.94838" lon="5.60782">
        <ele>838.329838</ele>
        <time>2011-02-06T10:17:59.10</time>
      </trkpt>
      <trkpt lat="44.9484" lon="5.60773">
        <ele>838.329826</ele>
        <time>2011-02-06T10:18:02.10</time>
      </trkpt>
      <trkpt lat="44.94843" lon="5.60763">
        <ele>839.329819</ele>
        <time>2011-02-06T10:18:05.10</time>
      </trkpt>
      <trkpt lat="44.94846" lon="5.60755">
        <ele>839.329811</ele>
        <time>2011-02-06T10:18:07.13</time>
      </trkpt>
      <trkpt lat="44.9485" lon="5.60748">
        <ele>839.329811</ele>
        <time>2011-02-06T10:18:09.12</time>
      </trkpt>
      <trkpt lat="44.94854" lon="5.60739">
        <ele>839.329807</ele>
        <time>2011-02-06T10:18:12.13</time>
      </trkpt>
      <trkpt lat="44.94857" lon="5.60733">
        <ele>839.3298</ele>
        <time>2011-02-06T10:18:14.9</time>
      </trkpt>
      <trkpt lat="44.9486" lon="5.60726">
        <ele>839.329796</ele>
        <time>2011-02-06T10:18:16.12</time>
      </trkpt>
      <trkpt lat="44.94867" lon="5.60697">
        <ele>838.329773</ele>
        <time>2011-02-06T10:18:26.7</time>
      </trkpt>
      <trkpt lat="44.9487" lon="5.60683">
        <ele>838.329754</ele>
        <time>2011-02-06T10:18:29.8</time>
      </trkpt>
      <trkpt lat="44.94875" lon="5.60666">
        <ele>837.329735</ele>
        <time>2011-02-06T10:18:33.7</time>
      </trkpt>
      <trkpt lat="44.94878" lon="5.60658">
        <ele>836.329735</ele>
        <time>2011-02-06T10:18:35.7</time>
      </trkpt>
      <trkpt lat="44.94884" lon="5.60644">
        <ele>835.329727</ele>
        <time>2011-02-06T10:18:38.8</time>
      </trkpt>
      <trkpt lat="44.94889" lon="5.60633">
        <ele>834.32972</ele>
        <time>2011-02-06T10:18:41.6</time>
      </trkpt>
      <trkpt lat="44.94891" lon="5.60627">
        <ele>833.329716</ele>
        <time>2011-02-06T10:18:43.14</time>
      </trkpt>
      <trkpt lat="44.94893" lon="5.60622">
        <ele>833.329712</ele>
        <time>2011-02-06T10:18:45.12</time>
      </trkpt>
      <trkpt lat="44.94897" lon="5.60614">
        <ele>833.329704</ele>
        <time>2011-02-06T10:18:47.9</time>
      </trkpt>
      <trkpt lat="44.94901" lon="5.60605">
        <ele>832.329704</ele>
        <time>2011-02-06T10:18:49.12</time>
      </trkpt>
      <trkpt lat="44.94905" lon="5.60598">
        <ele>831.329704</ele>
        <time>2011-02-06T10:18:51.11</time>
      </trkpt>
      <trkpt lat="44.94907" lon="5.60593">
        <ele>830.3297</ele>
        <time>2011-02-06T10:18:53.14</time>
      </trkpt>
      <trkpt lat="44.94917" lon="5.6058">
        <ele>830.3297</ele>
        <time>2011-02-06T10:18:58.15</time>
      </trkpt>
      <trkpt lat="44.94919" lon="5.60576">
        <ele>830.3297</ele>
        <time>2011-02-06T10:19:00.9</time>
      </trkpt>
      <trkpt lat="44.94922" lon="5.6057">
        <ele>830.329697</ele>
        <time>2011-02-06T10:19:02.9</time>
      </trkpt>
      <trkpt lat="44.94925" lon="5.60564">
        <ele>830.329697</ele>
        <time>2011-02-06T10:19:04.9</time>
      </trkpt>
      <trkpt lat="44.94927" lon="5.60558">
        <ele>831.329693</ele>
        <time>2011-02-06T10:19:06.8</time>
      </trkpt>
      <trkpt lat="44.94932" lon="5.60549">
        <ele>832.329689</ele>
        <time>2011-02-06T10:19:08.10</time>
      </trkpt>
      <trkpt lat="44.94943" lon="5.6052">
        <ele>836.329666</ele>
        <time>2011-02-06T10:19:15.10</time>
      </trkpt>
      <trkpt lat="44.94944" lon="5.60514">
        <ele>836.329666</ele>
        <time>2011-02-06T10:19:17.9</time>
      </trkpt>
      <trkpt lat="44.94945" lon="5.60507">
        <ele>837.329651</ele>
        <time>2011-02-06T10:19:19.14</time>
      </trkpt>
      <trkpt lat="44.94944" lon="5.60499">
        <ele>837.329639</ele>
        <time>2011-02-06T10:19:23.10</time>
      </trkpt>
      <trkpt lat="44.94943" lon="5.60496">
        <ele>836.329632</ele>
        <time>2011-02-06T10:19:25.15</time>
      </trkpt>
      <trkpt lat="44.94939" lon="5.60491">
        <ele>835.329617</ele>
        <time>2011-02-06T10:19:27.1</time>
      </trkpt>
      <trkpt lat="44.94932" lon="5.60487">
        <ele>834.329594</ele>
        <time>2011-02-06T10:19:29.8</time>
      </trkpt>
      <trkpt lat="44.94927" lon="5.60483">
        <ele>833.329578</ele>
        <time>2011-02-06T10:19:31.16</time>
      </trkpt>
      <trkpt lat="44.94921" lon="5.6048">
        <ele>832.329559</ele>
        <time>2011-02-06T10:19:33.13</time>
      </trkpt>
      <trkpt lat="44.94915" lon="5.60476">
        <ele>832.329536</ele>
        <time>2011-02-06T10:19:35.9</time>
      </trkpt>
      <trkpt lat="44.94909" lon="5.60473">
        <ele>831.329517</ele>
        <time>2011-02-06T10:19:37.8</time>
      </trkpt>
      <trkpt lat="44.94903" lon="5.6047">
        <ele>830.329506</ele>
        <time>2011-02-06T10:19:39.12</time>
      </trkpt>
      <trkpt lat="44.94897" lon="5.60467">
        <ele>829.329487</ele>
        <time>2011-02-06T10:19:41.11</time>
      </trkpt>
      <trkpt lat="44.94892" lon="5.60464">
        <ele>827.329468</ele>
        <time>2011-02-06T10:19:43.7</time>
      </trkpt>
      <trkpt lat="44.94887" lon="5.60461">
        <ele>827.329453</ele>
        <time>2011-02-06T10:19:45.13</time>
      </trkpt>
      <trkpt lat="44.94882" lon="5.60459">
        <ele>828.329445</ele>
        <time>2011-02-06T10:19:47.8</time>
      </trkpt>
      <trkpt lat="44.94878" lon="5.60458">
        <ele>828.32943</ele>
        <time>2011-02-06T10:19:49.9</time>
      </trkpt>
      <trkpt lat="44.94873" lon="5.60456">
        <ele>829.329414</ele>
        <time>2011-02-06T10:19:51.7</time>
      </trkpt>
      <trkpt lat="44.94869" lon="5.60454">
        <ele>829.329403</ele>
        <time>2011-02-06T10:19:53.7</time>
      </trkpt>
      <trkpt lat="44.94865" lon="5.60453">
        <ele>830.329395</ele>
        <time>2011-02-06T10:19:55.12</time>
      </trkpt>
      <trkpt lat="44.94861" lon="5.60451">
        <ele>831.32938</ele>
        <time>2011-02-06T10:19:57.8</time>
      </trkpt>
      <trkpt lat="44.94856" lon="5.60449">
        <ele>831.329369</ele>
        <time>2011-02-06T10:19:59.10</time>
      </trkpt>
      <trkpt lat="44.94851" lon="5.60447">
        <ele>832.329357</ele>
        <time>2011-02-06T10:20:01.14</time>
      </trkpt>
      <trkpt lat="44.94847" lon="5.60444">
        <ele>833.329342</ele>
        <time>2011-02-06T10:20:03.12</time>
      </trkpt>
      <trkpt lat="44.94842" lon="5.60442">
        <ele>833.329323</ele>
        <time>2011-02-06T10:20:05.6</time>
      </trkpt>
      <trkpt lat="44.94837" lon="5.6044">
        <ele>833.329311</ele>
        <time>2011-02-06T10:20:07.13</time>
      </trkpt>
      <trkpt lat="44.94832" lon="5.60437">
        <ele>834.3293</ele>
        <time>2011-02-06T10:20:09.10</time>
      </trkpt>
      <trkpt lat="44.94828" lon="5.60434">
        <ele>833.329285</ele>
        <time>2011-02-06T10:20:11.9</time>
      </trkpt>
      <trkpt lat="44.94823" lon="5.60432">
        <ele>834.329269</ele>
        <time>2011-02-06T10:20:13.13</time>
      </trkpt>
      <trkpt lat="44.94818" lon="5.60429">
        <ele>835.329254</ele>
        <time>2011-02-06T10:20:15.21</time>
      </trkpt>
      <trkpt lat="44.94814" lon="5.60427">
        <ele>835.329239</ele>
        <time>2011-02-06T10:20:17.11</time>
      </trkpt>
      <trkpt lat="44.94809" lon="5.60425">
        <ele>835.329227</ele>
        <time>2011-02-06T10:20:19.10</time>
      </trkpt>
      <trkpt lat="44.94805" lon="5.60423">
        <ele>836.329216</ele>
        <time>2011-02-06T10:20:21.9</time>
      </trkpt>
      <trkpt lat="44.94801" lon="5.60421">
        <ele>838.329205</ele>
        <time>2011-02-06T10:20:23.9</time>
      </trkpt>
      <trkpt lat="44.94797" lon="5.60418">
        <ele>840.329189</ele>
        <time>2011-02-06T10:20:25.22</time>
      </trkpt>
      <trkpt lat="44.94793" lon="5.60414">
        <ele>841.329174</ele>
        <time>2011-02-06T10:20:27.9</time>
      </trkpt>
      <trkpt lat="44.9479" lon="5.6041">
        <ele>842.329163</ele>
        <time>2011-02-06T10:20:29.6</time>
      </trkpt>
      <trkpt lat="44.94786" lon="5.60408">
        <ele>843.329147</ele>
        <time>2011-02-06T10:20:31.11</time>
      </trkpt>
      <trkpt lat="44.94782" lon="5.60406">
        <ele>844.32914</ele>
        <time>2011-02-06T10:20:33.10</time>
      </trkpt>
      <trkpt lat="44.94777" lon="5.60404">
        <ele>844.329124</ele>
        <time>2011-02-06T10:20:35.5</time>
      </trkpt>
      <trkpt lat="44.94773" lon="5.60402">
        <ele>845.329113</ele>
        <time>2011-02-06T10:20:37.9</time>
      </trkpt>
      <trkpt lat="44.94769" lon="5.60401">
        <ele>846.329102</ele>
        <time>2011-02-06T10:20:39.8</time>
      </trkpt>
      <trkpt lat="44.94765" lon="5.604">
        <ele>846.329094</ele>
        <time>2011-02-06T10:20:41.7</time>
      </trkpt>
      <trkpt lat="44.9476" lon="5.60399">
        <ele>846.329082</ele>
        <time>2011-02-06T10:20:43.8</time>
      </trkpt>
      <trkpt lat="44.94757" lon="5.60398">
        <ele>846.329071</ele>
        <time>2011-02-06T10:20:45.10</time>
      </trkpt>
      <trkpt lat="44.94753" lon="5.60398">
        <ele>846.329063</ele>
        <time>2011-02-06T10:20:47.6</time>
      </trkpt>
      <trkpt lat="44.9475" lon="5.60397">
        <ele>847.32906</ele>
        <time>2011-02-06T10:20:49.9</time>
      </trkpt>
      <trkpt lat="44.94742" lon="5.60396">
        <ele>848.329037</ele>
        <time>2011-02-06T10:20:53.9</time>
      </trkpt>
      <trkpt lat="44.94737" lon="5.60396">
        <ele>848.329025</ele>
        <time>2011-02-06T10:20:55.5</time>
      </trkpt>
      <trkpt lat="44.94732" lon="5.60395">
        <ele>848.32901</ele>
        <time>2011-02-06T10:20:57.1</time>
      </trkpt>
      <trkpt lat="44.94726" lon="5.60395">
        <ele>848.328999</ele>
        <time>2011-02-06T10:20:59.9</time>
      </trkpt>
      <trkpt lat="44.9472" lon="5.60395">
        <ele>848.328987</ele>
        <time>2011-02-06T10:21:01.17</time>
      </trkpt>
      <trkpt lat="44.94714" lon="5.60396">
        <ele>848.328979</ele>
        <time>2011-02-06T10:21:03.7</time>
      </trkpt>
      <trkpt lat="44.94708" lon="5.60397">
        <ele>848.328964</ele>
        <time>2011-02-06T10:21:05.7</time>
      </trkpt>
      <trkpt lat="44.94703" lon="5.60399">
        <ele>848.328957</ele>
        <time>2011-02-06T10:21:07.9</time>
      </trkpt>
      <trkpt lat="44.94697" lon="5.60402">
        <ele>847.328949</ele>
        <time>2011-02-06T10:21:09.11</time>
      </trkpt>
      <trkpt lat="44.94693" lon="5.60404">
        <ele>846.328941</ele>
        <time>2011-02-06T10:21:11.8</time>
      </trkpt>
      <trkpt lat="44.94679" lon="5.60416">
        <ele>846.328926</ele>
        <time>2011-02-06T10:21:20.5</time>
      </trkpt>
      <trkpt lat="44.9467" lon="5.60426">
        <ele>845.328926</ele>
        <time>2011-02-06T10:21:22.5</time>
      </trkpt>
      <trkpt lat="44.94663" lon="5.60434">
        <ele>845.328926</ele>
        <time>2011-02-06T10:21:24.12</time>
      </trkpt>
      <trkpt lat="44.94656" lon="5.60442">
        <ele>845.328918</ele>
        <time>2011-02-06T10:21:26.11</time>
      </trkpt>
      <trkpt lat="44.9465" lon="5.6045">
        <ele>845.328911</ele>
        <time>2011-02-06T10:21:28.16</time>
      </trkpt>
      <trkpt lat="44.94644" lon="5.60458">
        <ele>846.328915</ele>
        <time>2011-02-06T10:21:30.9</time>
      </trkpt>
      <trkpt lat="44.94639" lon="5.60465">
        <ele>846.328915</ele>
        <time>2011-02-06T10:21:32.6</time>
      </trkpt>
      <trkpt lat="44.94633" lon="5.60472">
        <ele>847.328915</ele>
        <time>2011-02-06T10:21:34.15</time>
      </trkpt>
      <trkpt lat="44.94628" lon="5.60479">
        <ele>846.328911</ele>
        <time>2011-02-06T10:21:36.6</time>
      </trkpt>
      <trkpt lat="44.94623" lon="5.60484">
        <ele>846.328911</ele>
        <time>2011-02-06T10:21:38.7</time>
      </trkpt>
      <trkpt lat="44.94618" lon="5.60488">
        <ele>846.328907</ele>
        <time>2011-02-06T10:21:40.9</time>
      </trkpt>
      <trkpt lat="44.94614" lon="5.60493">
        <ele>847.328903</ele>
        <time>2011-02-06T10:21:42.11</time>
      </trkpt>
      <trkpt lat="44.9461" lon="5.60497">
        <ele>847.328899</ele>
        <time>2011-02-06T10:21:44.9</time>
      </trkpt>
      <trkpt lat="44.94606" lon="5.60501">
        <ele>847.328896</ele>
        <time>2011-02-06T10:21:46.9</time>
      </trkpt>
      <trkpt lat="44.94601" lon="5.60505">
        <ele>847.328896</ele>
        <time>2011-02-06T10:21:48.21</time>
      </trkpt>
      <trkpt lat="44.94598" lon="5.6051">
        <ele>846.328892</ele>
        <time>2011-02-06T10:21:50.7</time>
      </trkpt>
      <trkpt lat="44.94594" lon="5.60514">
        <ele>846.328892</ele>
        <time>2011-02-06T10:21:52.10</time>
      </trkpt>
      <trkpt lat="44.94592" lon="5.60517">
        <ele>846.328892</ele>
        <time>2011-02-06T10:21:54.10</time>
      </trkpt>
      <trkpt lat="44.94589" lon="5.6052">
        <ele>846.328888</ele>
        <time>2011-02-06T10:21:56.9</time>
      </trkpt>
      <trkpt lat="44.94586" lon="5.60523">
        <ele>846.328884</ele>
        <time>2011-02-06T10:21:58.13</time>
      </trkpt>
      <trkpt lat="44.94583" lon="5.60526">
        <ele>846.328884</ele>
        <time>2011-02-06T10:22:00.8</time>
      </trkpt>
      <trkpt lat="44.94579" lon="5.6053">
        <ele>846.328888</ele>
        <time>2011-02-06T10:22:02.7</time>
      </trkpt>
      <trkpt lat="44.94568" lon="5.60542">
        <ele>847.328876</ele>
        <time>2011-02-06T10:22:07.9</time>
      </trkpt>
      <trkpt lat="44.94561" lon="5.60548">
        <ele>846.328873</ele>
        <time>2011-02-06T10:22:10.10</time>
      </trkpt>
      <trkpt lat="44.94557" lon="5.60552">
        <ele>845.328869</ele>
        <time>2011-02-06T10:22:12.8</time>
      </trkpt>
      <trkpt lat="44.94552" lon="5.60558">
        <ele>844.328865</ele>
        <time>2011-02-06T10:22:14.7</time>
      </trkpt>
      <trkpt lat="44.94546" lon="5.60564">
        <ele>843.328865</ele>
        <time>2011-02-06T10:22:16.11</time>
      </trkpt>
      <trkpt lat="44.94539" lon="5.6057">
        <ele>843.328857</ele>
        <time>2011-02-06T10:22:18.6</time>
      </trkpt>
      <trkpt lat="44.94533" lon="5.60576">
        <ele>844.32885</ele>
        <time>2011-02-06T10:22:20.28</time>
      </trkpt>
      <trkpt lat="44.94527" lon="5.60582">
        <ele>844.328846</ele>
        <time>2011-02-06T10:22:25.56</time>
      </trkpt>
      <trkpt lat="44.94517" lon="5.60589">
        <ele>844.328838</ele>
        <time>2011-02-06T10:22:31.11</time>
      </trkpt>
      <trkpt lat="44.94505" lon="5.60595">
        <ele>844.328819</ele>
        <time>2011-02-06T10:22:37.11</time>
      </trkpt>
      <trkpt lat="44.945" lon="5.60598">
        <ele>843.328815</ele>
        <time>2011-02-06T10:22:39.11</time>
      </trkpt>
      <trkpt lat="44.94494" lon="5.60601">
        <ele>843.328804</ele>
        <time>2011-02-06T10:22:41.4</time>
      </trkpt>
      <trkpt lat="44.94484" lon="5.60606">
        <ele>842.328789</ele>
        <time>2011-02-06T10:22:44.4</time>
      </trkpt>
      <trkpt lat="44.94478" lon="5.60609">
        <ele>842.328777</ele>
        <time>2011-02-06T10:22:46.8</time>
      </trkpt>
      <trkpt lat="44.94469" lon="5.60612">
        <ele>842.328766</ele>
        <time>2011-02-06T10:22:48.6</time>
      </trkpt>
      <trkpt lat="44.94456" lon="5.60619">
        <ele>841.328751</ele>
        <time>2011-02-06T10:22:50.8</time>
      </trkpt>
      <trkpt lat="44.94447" lon="5.60626">
        <ele>841.328739</ele>
        <time>2011-02-06T10:22:52.12</time>
      </trkpt>
      <trkpt lat="44.94438" lon="5.60631">
        <ele>843.328728</ele>
        <time>2011-02-06T10:22:54.5</time>
      </trkpt>
      <trkpt lat="44.94428" lon="5.60635">
        <ele>843.328712</ele>
        <time>2011-02-06T10:22:56.12</time>
      </trkpt>
      <trkpt lat="44.94421" lon="5.60637">
        <ele>844.328701</ele>
        <time>2011-02-06T10:22:58.14</time>
      </trkpt>
      <trkpt lat="44.94414" lon="5.60638">
        <ele>844.328686</ele>
        <time>2011-02-06T10:23:00.9</time>
      </trkpt>
      <trkpt lat="44.94406" lon="5.60639">
        <ele>844.328671</ele>
        <time>2011-02-06T10:23:02.25</time>
      </trkpt>
      <trkpt lat="44.944" lon="5.6064">
        <ele>844.328659</ele>
        <time>2011-02-06T10:23:04.15</time>
      </trkpt>
      <trkpt lat="44.94394" lon="5.6064">
        <ele>844.328644</ele>
        <time>2011-02-06T10:23:06.31</time>
      </trkpt>
      <trkpt lat="44.94387" lon="5.6064">
        <ele>845.328629</ele>
        <time>2011-02-06T10:23:08.7</time>
      </trkpt>
      <trkpt lat="44.94381" lon="5.60639">
        <ele>845.328613</ele>
        <time>2011-02-06T10:23:10.8</time>
      </trkpt>
      <trkpt lat="44.94375" lon="5.60639">
        <ele>846.328602</ele>
        <time>2011-02-06T10:23:12.8</time>
      </trkpt>
      <trkpt lat="44.94369" lon="5.60637">
        <ele>846.328587</ele>
        <time>2011-02-06T10:23:14.7</time>
      </trkpt>
      <trkpt lat="44.94363" lon="5.60635">
        <ele>847.328568</ele>
        <time>2011-02-06T10:23:16.12</time>
      </trkpt>
      <trkpt lat="44.94358" lon="5.60634">
        <ele>848.32856</ele>
        <time>2011-02-06T10:23:18.21</time>
      </trkpt>
      <trkpt lat="44.94353" lon="5.60633">
        <ele>848.328545</ele>
        <time>2011-02-06T10:23:20.6</time>
      </trkpt>
      <trkpt lat="44.94348" lon="5.60633">
        <ele>847.328533</ele>
        <time>2011-02-06T10:23:22.9</time>
      </trkpt>
      <trkpt lat="44.94343" lon="5.60633">
        <ele>847.328522</ele>
        <time>2011-02-06T10:23:24.10</time>
      </trkpt>
      <trkpt lat="44.94338" lon="5.60632">
        <ele>847.32851</ele>
        <time>2011-02-06T10:23:26.7</time>
      </trkpt>
      <trkpt lat="44.94332" lon="5.60632">
        <ele>847.328499</ele>
        <time>2011-02-06T10:23:28.34</time>
      </trkpt>
      <trkpt lat="44.94327" lon="5.60632">
        <ele>847.328484</ele>
        <time>2011-02-06T10:23:30.14</time>
      </trkpt>
      <trkpt lat="44.94321" lon="5.60634">
        <ele>848.328476</ele>
        <time>2011-02-06T10:23:32.10</time>
      </trkpt>
      <trkpt lat="44.94316" lon="5.60636">
        <ele>848.328465</ele>
        <time>2011-02-06T10:23:34.10</time>
      </trkpt>
      <trkpt lat="44.94311" lon="5.60638">
        <ele>848.328461</ele>
        <time>2011-02-06T10:23:36.7</time>
      </trkpt>
      <trkpt lat="44.94309" lon="5.60641">
        <ele>848.328457</ele>
        <time>2011-02-06T10:23:38.9</time>
      </trkpt>
      <trkpt lat="44.94305" lon="5.60644">
        <ele>848.328457</ele>
        <time>2011-02-06T10:23:40.7</time>
      </trkpt>
      <trkpt lat="44.94297" lon="5.6065">
        <ele>847.328449</ele>
        <time>2011-02-06T10:23:44.12</time>
      </trkpt>
      <trkpt lat="44.94293" lon="5.60652">
        <ele>847.328442</ele>
        <time>2011-02-06T10:23:46.11</time>
      </trkpt>
      <trkpt lat="44.94288" lon="5.60654">
        <ele>847.328434</ele>
        <time>2011-02-06T10:23:48.8</time>
      </trkpt>
      <trkpt lat="44.94283" lon="5.60657">
        <ele>848.328426</ele>
        <time>2011-02-06T10:23:50.8</time>
      </trkpt>
      <trkpt lat="44.94276" lon="5.60661">
        <ele>849.328419</ele>
        <time>2011-02-06T10:23:52.32</time>
      </trkpt>
      <trkpt lat="44.9427" lon="5.60665">
        <ele>849.328411</ele>
        <time>2011-02-06T10:23:54.10</time>
      </trkpt>
      <trkpt lat="44.94264" lon="5.60669">
        <ele>850.328403</ele>
        <time>2011-02-06T10:23:56.7</time>
      </trkpt>
      <trkpt lat="44.94258" lon="5.60673">
        <ele>850.3284</ele>
        <time>2011-02-06T10:23:58.9</time>
      </trkpt>
      <trkpt lat="44.94254" lon="5.60676">
        <ele>850.328392</ele>
        <time>2011-02-06T10:24:00.9</time>
      </trkpt>
      <trkpt lat="44.94249" lon="5.60681">
        <ele>852.328388</ele>
        <time>2011-02-06T10:24:03.6</time>
      </trkpt>
      <trkpt lat="44.94246" lon="5.60684">
        <ele>853.328384</ele>
        <time>2011-02-06T10:24:05.4</time>
      </trkpt>
      <trkpt lat="44.94238" lon="5.6069">
        <ele>855.328381</ele>
        <time>2011-02-06T10:24:09.9</time>
      </trkpt>
      <trkpt lat="44.9423" lon="5.60698">
        <ele>857.328373</ele>
        <time>2011-02-06T10:24:14.9</time>
      </trkpt>
      <trkpt lat="44.94225" lon="5.60703">
        <ele>858.328369</ele>
        <time>2011-02-06T10:24:17.6</time>
      </trkpt>
      <trkpt lat="44.94221" lon="5.60706">
        <ele>859.328369</ele>
        <time>2011-02-06T10:24:19.10</time>
      </trkpt>
      <trkpt lat="44.94214" lon="5.60713">
        <ele>860.328362</ele>
        <time>2011-02-06T10:24:22.11</time>
      </trkpt>
      <trkpt lat="44.94207" lon="5.6072">
        <ele>861.328358</ele>
        <time>2011-02-06T10:24:25.12</time>
      </trkpt>
      <trkpt lat="44.94202" lon="5.60724">
        <ele>861.32835</ele>
        <time>2011-02-06T10:24:27.7</time>
      </trkpt>
      <trkpt lat="44.94192" lon="5.60734">
        <ele>862.328342</ele>
        <time>2011-02-06T10:24:31.9</time>
      </trkpt>
      <trkpt lat="44.94187" lon="5.60737">
        <ele>862.328339</ele>
        <time>2011-02-06T10:24:33.8</time>
      </trkpt>
      <trkpt lat="44.94182" lon="5.60741">
        <ele>863.328335</ele>
        <time>2011-02-06T10:24:35.8</time>
      </trkpt>
      <trkpt lat="44.94177" lon="5.60745">
        <ele>862.328331</ele>
        <time>2011-02-06T10:24:37.6</time>
      </trkpt>
      <trkpt lat="44.94172" lon="5.60749">
        <ele>863.32832</ele>
        <time>2011-02-06T10:24:39.7</time>
      </trkpt>
      <trkpt lat="44.94167" lon="5.60753">
        <ele>863.328316</ele>
        <time>2011-02-06T10:24:41.10</time>
      </trkpt>
      <trkpt lat="44.94161" lon="5.60757">
        <ele>862.328312</ele>
        <time>2011-02-06T10:24:43.10</time>
      </trkpt>
      <trkpt lat="44.94154" lon="5.60761">
        <ele>862.328304</ele>
        <time>2011-02-06T10:24:45.5</time>
      </trkpt>
      <trkpt lat="44.94148" lon="5.60765">
        <ele>861.328297</ele>
        <time>2011-02-06T10:24:47.3</time>
      </trkpt>
      <trkpt lat="44.94144" lon="5.60768">
        <ele>861.328293</ele>
        <time>2011-02-06T10:24:49</time>
      </trkpt>
      <trkpt lat="44.94139" lon="5.60771">
        <ele>860.328285</ele>
        <time>2011-02-06T10:24:51.5</time>
      </trkpt>
      <trkpt lat="44.94134" lon="5.60774">
        <ele>860.328278</ele>
        <time>2011-02-06T10:24:53.6</time>
      </trkpt>
      <trkpt lat="44.94128" lon="5.60777">
        <ele>859.32827</ele>
        <time>2011-02-06T10:24:55.10</time>
      </trkpt>
      <trkpt lat="44.94122" lon="5.6078">
        <ele>859.328262</ele>
        <time>2011-02-06T10:24:57.34</time>
      </trkpt>
      <trkpt lat="44.94111" lon="5.60787">
        <ele>857.328247</ele>
        <time>2011-02-06T10:25:01.105</time>
      </trkpt>
      <trkpt lat="44.94102" lon="5.60792">
        <ele>857.328236</ele>
        <time>2011-02-06T10:25:04.14</time>
      </trkpt>
      <trkpt lat="44.94097" lon="5.60796">
        <ele>857.328228</ele>
        <time>2011-02-06T10:25:06.8</time>
      </trkpt>
      <trkpt lat="44.94092" lon="5.60799">
        <ele>857.328224</ele>
        <time>2011-02-06T10:25:08.8</time>
      </trkpt>
      <trkpt lat="44.94087" lon="5.60801">
        <ele>857.328217</ele>
        <time>2011-02-06T10:25:10.12</time>
      </trkpt>
      <trkpt lat="44.94084" lon="5.60804">
        <ele>857.328217</ele>
        <time>2011-02-06T10:25:12.12</time>
      </trkpt>
      <trkpt lat="44.9408" lon="5.60807">
        <ele>856.328209</ele>
        <time>2011-02-06T10:25:14.59</time>
      </trkpt>
      <trkpt lat="44.94076" lon="5.6081">
        <ele>857.328205</ele>
        <time>2011-02-06T10:25:16.51</time>
      </trkpt>
      <trkpt lat="44.94072" lon="5.60813">
        <ele>857.328201</ele>
        <time>2011-02-06T10:25:18.9</time>
      </trkpt>
      <trkpt lat="44.94068" lon="5.60816">
        <ele>857.328197</ele>
        <time>2011-02-06T10:25:20.8</time>
      </trkpt>
      <trkpt lat="44.94061" lon="5.60821">
        <ele>859.32819</ele>
        <time>2011-02-06T10:25:24.9</time>
      </trkpt>
      <trkpt lat="44.94053" lon="5.60825">
        <ele>859.328178</ele>
        <time>2011-02-06T10:25:29.10</time>
      </trkpt>
      <trkpt lat="44.94049" lon="5.60828">
        <ele>859.328171</ele>
        <time>2011-02-06T10:25:31.11</time>
      </trkpt>
      <trkpt lat="44.94044" lon="5.6083">
        <ele>860.328167</ele>
        <time>2011-02-06T10:25:33.6</time>
      </trkpt>
      <trkpt lat="44.94039" lon="5.60833">
        <ele>860.328159</ele>
        <time>2011-02-06T10:25:35.5</time>
      </trkpt>
      <trkpt lat="44.94027" lon="5.60841">
        <ele>860.328144</ele>
        <time>2011-02-06T10:25:39.6</time>
      </trkpt>
      <trkpt lat="44.9402" lon="5.60846">
        <ele>860.32814</ele>
        <time>2011-02-06T10:25:41.6</time>
      </trkpt>
      <trkpt lat="44.94014" lon="5.6085">
        <ele>860.328133</ele>
        <time>2011-02-06T10:25:43.45</time>
      </trkpt>
      <trkpt lat="44.94008" lon="5.60854">
        <ele>860.328125</ele>
        <time>2011-02-06T10:25:45.62</time>
      </trkpt>
      <trkpt lat="44.94003" lon="5.60857">
        <ele>861.328117</ele>
        <time>2011-02-06T10:25:47.7</time>
      </trkpt>
      <trkpt lat="44.93998" lon="5.60861">
        <ele>861.328114</ele>
        <time>2011-02-06T10:25:49.13</time>
      </trkpt>
      <trkpt lat="44.93992" lon="5.60865">
        <ele>862.328106</ele>
        <time>2011-02-06T10:25:51.12</time>
      </trkpt>
      <trkpt lat="44.93988" lon="5.60868">
        <ele>862.328098</ele>
        <time>2011-02-06T10:25:53.4</time>
      </trkpt>
      <trkpt lat="44.93983" lon="5.60871">
        <ele>862.328094</ele>
        <time>2011-02-06T10:25:55.12</time>
      </trkpt>
      <trkpt lat="44.93979" lon="5.60874">
        <ele>863.328091</ele>
        <time>2011-02-06T10:25:57.10</time>
      </trkpt>
      <trkpt lat="44.93975" lon="5.60877">
        <ele>863.328087</ele>
        <time>2011-02-06T10:25:59.5</time>
      </trkpt>
      <trkpt lat="44.93971" lon="5.60879">
        <ele>863.328079</ele>
        <time>2011-02-06T10:26:01.13</time>
      </trkpt>
      <trkpt lat="44.93966" lon="5.60881">
        <ele>863.328072</ele>
        <time>2011-02-06T10:26:03.13</time>
      </trkpt>
      <trkpt lat="44.93962" lon="5.60882">
        <ele>862.328068</ele>
        <time>2011-02-06T10:26:05.7</time>
      </trkpt>
      <trkpt lat="44.93958" lon="5.60884">
        <ele>862.32806</ele>
        <time>2011-02-06T10:26:07.11</time>
      </trkpt>
      <trkpt lat="44.93955" lon="5.60886">
        <ele>862.328056</ele>
        <time>2011-02-06T10:26:09.7</time>
      </trkpt>
      <trkpt lat="44.93953" lon="5.6089">
        <ele>862.32806</ele>
        <time>2011-02-06T10:26:11.9</time>
      </trkpt>
      <trkpt lat="44.93953" lon="5.60894">
        <ele>863.328064</ele>
        <time>2011-02-06T10:26:13.8</time>
      </trkpt>
      <trkpt lat="44.93954" lon="5.60897">
        <ele>863.328072</ele>
        <time>2011-02-06T10:26:15.4</time>
      </trkpt>
      <trkpt lat="44.93956" lon="5.60899">
        <ele>863.328079</ele>
        <time>2011-02-06T10:26:17.17</time>
      </trkpt>
      <trkpt lat="44.93961" lon="5.60901">
        <ele>863.328091</ele>
        <time>2011-02-06T10:26:19.11</time>
      </trkpt>
      <trkpt lat="44.93966" lon="5.60901">
        <ele>863.328106</ele>
        <time>2011-02-06T10:26:21.8</time>
      </trkpt>
      <trkpt lat="44.93973" lon="5.609">
        <ele>863.328114</ele>
        <time>2011-02-06T10:26:23.14</time>
      </trkpt>
      <trkpt lat="44.93979" lon="5.60897">
        <ele>862.328125</ele>
        <time>2011-02-06T10:26:25.3</time>
      </trkpt>
      <trkpt lat="44.93985" lon="5.60893">
        <ele>861.328133</ele>
        <time>2011-02-06T10:26:27.8</time>
      </trkpt>
      <trkpt lat="44.9399" lon="5.60889">
        <ele>860.32814</ele>
        <time>2011-02-06T10:26:29.7</time>
      </trkpt>
      <trkpt lat="44.93996" lon="5.60885">
        <ele>860.328144</ele>
        <time>2011-02-06T10:26:31.9</time>
      </trkpt>
      <trkpt lat="44.94001" lon="5.6088">
        <ele>859.328148</ele>
        <time>2011-02-06T10:26:33.47</time>
      </trkpt>
      <trkpt lat="44.94006" lon="5.60877">
        <ele>859.328159</ele>
        <time>2011-02-06T10:26:35.81</time>
      </trkpt>
      <trkpt lat="44.94008" lon="5.60874">
        <ele>859.328152</ele>
        <time>2011-02-06T10:26:37.9</time>
      </trkpt>
      <trkpt lat="44.94011" lon="5.60871">
        <ele>860.328156</ele>
        <time>2011-02-06T10:26:39.10</time>
      </trkpt>
      <trkpt lat="44.94016" lon="5.60868">
        <ele>859.328163</ele>
        <time>2011-02-06T10:26:42.10</time>
      </trkpt>
      <trkpt lat="44.9402" lon="5.60866">
        <ele>860.328167</ele>
        <time>2011-02-06T10:26:44.4</time>
      </trkpt>
      <trkpt lat="44.94024" lon="5.60863">
        <ele>859.328178</ele>
        <time>2011-02-06T10:26:46.8</time>
      </trkpt>
      <trkpt lat="44.94029" lon="5.6086">
        <ele>860.328178</ele>
        <time>2011-02-06T10:26:48.4</time>
      </trkpt>
      <trkpt lat="44.94034" lon="5.60858">
        <ele>860.328186</ele>
        <time>2011-02-06T10:26:50.4</time>
      </trkpt>
      <trkpt lat="44.94038" lon="5.60855">
        <ele>860.328194</ele>
        <time>2011-02-06T10:26:52.8</time>
      </trkpt>
      <trkpt lat="44.94043" lon="5.60852">
        <ele>860.328197</ele>
        <time>2011-02-06T10:26:54.33</time>
      </trkpt>
      <trkpt lat="44.94048" lon="5.60849">
        <ele>860.328201</ele>
        <time>2011-02-06T10:26:56.6</time>
      </trkpt>
      <trkpt lat="44.94053" lon="5.60846">
        <ele>860.328209</ele>
        <time>2011-02-06T10:26:58.8</time>
      </trkpt>
      <trkpt lat="44.94058" lon="5.60842">
        <ele>860.328217</ele>
        <time>2011-02-06T10:27:00.10</time>
      </trkpt>
      <trkpt lat="44.94063" lon="5.60839">
        <ele>860.32822</ele>
        <time>2011-02-06T10:27:02.7</time>
      </trkpt>
      <trkpt lat="44.94068" lon="5.60836">
        <ele>859.328228</ele>
        <time>2011-02-06T10:27:04.7</time>
      </trkpt>
      <trkpt lat="44.94073" lon="5.60833">
        <ele>859.328236</ele>
        <time>2011-02-06T10:27:06.10</time>
      </trkpt>
      <trkpt lat="44.94078" lon="5.6083">
        <ele>858.328243</ele>
        <time>2011-02-06T10:27:08.10</time>
      </trkpt>
      <trkpt lat="44.94083" lon="5.60828">
        <ele>858.328247</ele>
        <time>2011-02-06T10:27:10.9</time>
      </trkpt>
      <trkpt lat="44.94088" lon="5.60825">
        <ele>858.328255</ele>
        <time>2011-02-06T10:27:12.4</time>
      </trkpt>
      <trkpt lat="44.94093" lon="5.60823">
        <ele>858.328266</ele>
        <time>2011-02-06T10:27:14.32</time>
      </trkpt>
      <trkpt lat="44.94097" lon="5.6082">
        <ele>858.32827</ele>
        <time>2011-02-06T10:27:16.7</time>
      </trkpt>
      <trkpt lat="44.94101" lon="5.60818">
        <ele>858.328274</ele>
        <time>2011-02-06T10:27:18.6</time>
      </trkpt>
      <trkpt lat="44.94105" lon="5.60816">
        <ele>859.328278</ele>
        <time>2011-02-06T10:27:20.5</time>
      </trkpt>
      <trkpt lat="44.94109" lon="5.60814">
        <ele>861.328285</ele>
        <time>2011-02-06T10:27:22.9</time>
      </trkpt>
      <trkpt lat="44.94113" lon="5.60811">
        <ele>861.328289</ele>
        <time>2011-02-06T10:27:24.11</time>
      </trkpt>
      <trkpt lat="44.94117" lon="5.60809">
        <ele>861.328293</ele>
        <time>2011-02-06T10:27:26.8</time>
      </trkpt>
      <trkpt lat="44.94121" lon="5.60807">
        <ele>861.3283</ele>
        <time>2011-02-06T10:27:28.5</time>
      </trkpt>
      <trkpt lat="44.94125" lon="5.60804">
        <ele>861.328304</ele>
        <time>2011-02-06T10:27:30.32</time>
      </trkpt>
      <trkpt lat="44.9413" lon="5.60802">
        <ele>860.328316</ele>
        <time>2011-02-06T10:27:32.36</time>
      </trkpt>
      <trkpt lat="44.94135" lon="5.60799">
        <ele>860.328316</ele>
        <time>2011-02-06T10:27:34.8</time>
      </trkpt>
      <trkpt lat="44.94139" lon="5.60796">
        <ele>860.328323</ele>
        <time>2011-02-06T10:27:36.8</time>
      </trkpt>
      <trkpt lat="44.94142" lon="5.60795">
        <ele>860.328327</ele>
        <time>2011-02-06T10:27:38.3</time>
      </trkpt>
      <trkpt lat="44.94144" lon="5.60794">
        <ele>859.328331</ele>
        <time>2011-02-06T10:27:40.8</time>
      </trkpt>
      <trkpt lat="44.94145" lon="5.60793">
        <ele>859.328331</ele>
        <time>2011-02-06T10:27:42.6</time>
      </trkpt>
      <trkpt lat="44.94146" lon="5.60792">
        <ele>859.328335</ele>
        <time>2011-02-06T10:27:44.7</time>
      </trkpt>
      <trkpt lat="44.94146" lon="5.60792">
        <ele>860.328331</ele>
        <time>2011-02-06T10:27:46.9</time>
      </trkpt>
      <trkpt lat="44.94146" lon="5.60791">
        <ele>859.328331</ele>
        <time>2011-02-06T10:27:48.8</time>
      </trkpt>
      <trkpt lat="44.94147" lon="5.60792">
        <ele>849.328331</ele>
        <time>2011-02-06T10:27:55.13</time>
      </trkpt>
      <trkpt lat="44.94147" lon="5.60792">
        <ele>843.328339</ele>
        <time>2011-02-06T10:27:57.7</time>
      </trkpt>
      <trkpt lat="44.94147" lon="5.60792">
        <ele>838.328335</ele>
        <time>2011-02-06T10:28:00.14</time>
      </trkpt>
      <trkpt lat="44.94151" lon="5.60789">
        <ele>837.328339</ele>
        <time>2011-02-06T10:28:02.3</time>
      </trkpt>
      <trkpt lat="44.94157" lon="5.60786">
        <ele>836.328346</ele>
        <time>2011-02-06T10:28:04.7</time>
      </trkpt>
      <trkpt lat="44.94164" lon="5.60782">
        <ele>837.328354</ele>
        <time>2011-02-06T10:28:06.6</time>
      </trkpt>
      <trkpt lat="44.94171" lon="5.60778">
        <ele>838.328365</ele>
        <time>2011-02-06T10:28:08.6</time>
      </trkpt>
      <trkpt lat="44.94177" lon="5.60774">
        <ele>839.328373</ele>
        <time>2011-02-06T10:28:10.7</time>
      </trkpt>
      <trkpt lat="44.94185" lon="5.60768">
        <ele>839.328377</ele>
        <time>2011-02-06T10:28:12.7</time>
      </trkpt>
      <trkpt lat="44.94192" lon="5.60762">
        <ele>839.328388</ele>
        <time>2011-02-06T10:28:14.17</time>
      </trkpt>
      <trkpt lat="44.94199" lon="5.60757">
        <ele>839.328396</ele>
        <time>2011-02-06T10:28:16.6</time>
      </trkpt>
      <trkpt lat="44.94206" lon="5.60751">
        <ele>840.3284</ele>
        <time>2011-02-06T10:28:18.11</time>
      </trkpt>
      <trkpt lat="44.94214" lon="5.60745">
        <ele>840.328407</ele>
        <time>2011-02-06T10:28:20.4</time>
      </trkpt>
      <trkpt lat="44.94221" lon="5.60739">
        <ele>841.328415</ele>
        <time>2011-02-06T10:28:22.7</time>
      </trkpt>
      <trkpt lat="44.94227" lon="5.60733">
        <ele>840.328423</ele>
        <time>2011-02-06T10:28:24.60</time>
      </trkpt>
      <trkpt lat="44.94234" lon="5.60727">
        <ele>841.328426</ele>
        <time>2011-02-06T10:28:26.6</time>
      </trkpt>
      <trkpt lat="44.9424" lon="5.60721">
        <ele>841.32843</ele>
        <time>2011-02-06T10:28:28.18</time>
      </trkpt>
      <trkpt lat="44.94245" lon="5.60715">
        <ele>841.32843</ele>
        <time>2011-02-06T10:28:30.9</time>
      </trkpt>
      <trkpt lat="44.94251" lon="5.60709">
        <ele>841.328434</ele>
        <time>2011-02-06T10:28:32.2</time>
      </trkpt>
      <trkpt lat="44.94257" lon="5.60703">
        <ele>841.328438</ele>
        <time>2011-02-06T10:28:34.15</time>
      </trkpt>
      <trkpt lat="44.94263" lon="5.60698">
        <ele>841.328445</ele>
        <time>2011-02-06T10:28:36.7</time>
      </trkpt>
      <trkpt lat="44.94268" lon="5.60692">
        <ele>842.328445</ele>
        <time>2011-02-06T10:28:38.8</time>
      </trkpt>
      <trkpt lat="44.94274" lon="5.60687">
        <ele>841.328449</ele>
        <time>2011-02-06T10:28:40.6</time>
      </trkpt>
      <trkpt lat="44.94279" lon="5.60682">
        <ele>841.328453</ele>
        <time>2011-02-06T10:28:42.7</time>
      </trkpt>
      <trkpt lat="44.94284" lon="5.60677">
        <ele>841.328461</ele>
        <time>2011-02-06T10:28:44.6</time>
      </trkpt>
      <trkpt lat="44.94289" lon="5.60671">
        <ele>841.328461</ele>
        <time>2011-02-06T10:28:46.56</time>
      </trkpt>
      <trkpt lat="44.94294" lon="5.60666">
        <ele>841.328465</ele>
        <time>2011-02-06T10:28:48.5</time>
      </trkpt>
      <trkpt lat="44.94299" lon="5.60662">
        <ele>842.328468</ele>
        <time>2011-02-06T10:28:50.4</time>
      </trkpt>
      <trkpt lat="44.94304" lon="5.60658">
        <ele>843.328472</ele>
        <time>2011-02-06T10:28:52.6</time>
      </trkpt>
      <trkpt lat="44.94308" lon="5.60655">
        <ele>843.328476</ele>
        <time>2011-02-06T10:28:54.5</time>
      </trkpt>
      <trkpt lat="44.94313" lon="5.60651">
        <ele>844.328484</ele>
        <time>2011-02-06T10:28:56.7</time>
      </trkpt>
      <trkpt lat="44.94317" lon="5.60649">
        <ele>845.328487</ele>
        <time>2011-02-06T10:28:58.10</time>
      </trkpt>
      <trkpt lat="44.94321" lon="5.60647">
        <ele>846.328491</ele>
        <time>2011-02-06T10:29:00.5</time>
      </trkpt>
      <trkpt lat="44.94325" lon="5.60646">
        <ele>847.328499</ele>
        <time>2011-02-06T10:29:02.11</time>
      </trkpt>
      <trkpt lat="44.94329" lon="5.60645">
        <ele>848.328514</ele>
        <time>2011-02-06T10:29:04.9</time>
      </trkpt>
      <trkpt lat="44.94333" lon="5.60645">
        <ele>848.328522</ele>
        <time>2011-02-06T10:29:06.8</time>
      </trkpt>
      <trkpt lat="44.94337" lon="5.60645">
        <ele>848.328526</ele>
        <time>2011-02-06T10:29:08.7</time>
      </trkpt>
      <trkpt lat="44.94341" lon="5.60645">
        <ele>848.328537</ele>
        <time>2011-02-06T10:29:10.7</time>
      </trkpt>
      <trkpt lat="44.94345" lon="5.60645">
        <ele>849.328545</ele>
        <time>2011-02-06T10:29:12.15</time>
      </trkpt>
      <trkpt lat="44.94349" lon="5.60646">
        <ele>850.328556</ele>
        <time>2011-02-06T10:29:14.4</time>
      </trkpt>
      <trkpt lat="44.94353" lon="5.60646">
        <ele>850.328564</ele>
        <time>2011-02-06T10:29:16.9</time>
      </trkpt>
      <trkpt lat="44.94358" lon="5.60647">
        <ele>850.328571</ele>
        <time>2011-02-06T10:29:18.14</time>
      </trkpt>
      <trkpt lat="44.94362" lon="5.60647">
        <ele>850.328583</ele>
        <time>2011-02-06T10:29:20.2</time>
      </trkpt>
      <trkpt lat="44.94366" lon="5.60648">
        <ele>849.328598</ele>
        <time>2011-02-06T10:29:22.10</time>
      </trkpt>
      <trkpt lat="44.9437" lon="5.60649">
        <ele>848.328606</ele>
        <time>2011-02-06T10:29:24.5</time>
      </trkpt>
      <trkpt lat="44.94374" lon="5.6065">
        <ele>848.328617</ele>
        <time>2011-02-06T10:29:26.4</time>
      </trkpt>
      <trkpt lat="44.94378" lon="5.60651">
        <ele>848.328621</ele>
        <time>2011-02-06T10:29:28.14</time>
      </trkpt>
      <trkpt lat="44.94382" lon="5.60652">
        <ele>848.328632</ele>
        <time>2011-02-06T10:29:30.4</time>
      </trkpt>
      <trkpt lat="44.94385" lon="5.60652">
        <ele>848.328644</ele>
        <time>2011-02-06T10:29:32.7</time>
      </trkpt>
      <trkpt lat="44.94389" lon="5.60653">
        <ele>847.328655</ele>
        <time>2011-02-06T10:29:34.11</time>
      </trkpt>
      <trkpt lat="44.94392" lon="5.60655">
        <ele>848.328663</ele>
        <time>2011-02-06T10:29:36.6</time>
      </trkpt>
      <trkpt lat="44.94396" lon="5.60656">
        <ele>849.328674</ele>
        <time>2011-02-06T10:29:38.5</time>
      </trkpt>
      <trkpt lat="44.94399" lon="5.60657">
        <ele>850.328682</ele>
        <time>2011-02-06T10:29:40.11</time>
      </trkpt>
      <trkpt lat="44.94402" lon="5.60658">
        <ele>851.32869</ele>
        <time>2011-02-06T10:29:42.6</time>
      </trkpt>
      <trkpt lat="44.94405" lon="5.60658">
        <ele>852.328697</ele>
        <time>2011-02-06T10:29:44.7</time>
      </trkpt>
      <trkpt lat="44.94411" lon="5.60659">
        <ele>854.328712</ele>
        <time>2011-02-06T10:29:48.5</time>
      </trkpt>
      <trkpt lat="44.94414" lon="5.6066">
        <ele>855.32872</ele>
        <time>2011-02-06T10:29:50.9</time>
      </trkpt>
      <trkpt lat="44.94418" lon="5.60661">
        <ele>856.328728</ele>
        <time>2011-02-06T10:29:52.9</time>
      </trkpt>
      <trkpt lat="44.9443" lon="5.60662">
        <ele>859.328758</ele>
        <time>2011-02-06T10:29:59.4</time>
      </trkpt>
      <trkpt lat="44.94433" lon="5.60662">
        <ele>860.328762</ele>
        <time>2011-02-06T10:30:01.8</time>
      </trkpt>
      <trkpt lat="44.94437" lon="5.60661">
        <ele>862.328766</ele>
        <time>2011-02-06T10:30:03.7</time>
      </trkpt>
      <trkpt lat="44.94449" lon="5.6066">
        <ele>868.328796</ele>
        <time>2011-02-06T10:30:10.9</time>
      </trkpt>
      <trkpt lat="44.94452" lon="5.60659">
        <ele>869.328804</ele>
        <time>2011-02-06T10:30:12.10</time>
      </trkpt>
      <trkpt lat="44.94456" lon="5.60658">
        <ele>870.328808</ele>
        <time>2011-02-06T10:30:14.6</time>
      </trkpt>
      <trkpt lat="44.9446" lon="5.60657">
        <ele>872.328819</ele>
        <time>2011-02-06T10:30:16.10</time>
      </trkpt>
      <trkpt lat="44.94472" lon="5.60652">
        <ele>873.328835</ele>
        <time>2011-02-06T10:30:21.25</time>
      </trkpt>
      <trkpt lat="44.94477" lon="5.60649">
        <ele>873.328842</ele>
        <time>2011-02-06T10:30:23.4</time>
      </trkpt>
      <trkpt lat="44.94483" lon="5.60645">
        <ele>874.32885</ele>
        <time>2011-02-06T10:30:25.9</time>
      </trkpt>
      <trkpt lat="44.94489" lon="5.60641">
        <ele>874.328857</ele>
        <time>2011-02-06T10:30:27.8</time>
      </trkpt>
      <trkpt lat="44.94501" lon="5.60633">
        <ele>874.328869</ele>
        <time>2011-02-06T10:30:31.14</time>
      </trkpt>
      <trkpt lat="44.94507" lon="5.60628">
        <ele>874.328876</ele>
        <time>2011-02-06T10:30:33.8</time>
      </trkpt>
      <trkpt lat="44.94513" lon="5.60623">
        <ele>873.328884</ele>
        <time>2011-02-06T10:30:35.5</time>
      </trkpt>
      <trkpt lat="44.9452" lon="5.60618">
        <ele>872.328888</ele>
        <time>2011-02-06T10:30:37.14</time>
      </trkpt>
      <trkpt lat="44.94526" lon="5.60613">
        <ele>871.328896</ele>
        <time>2011-02-06T10:30:39.8</time>
      </trkpt>
      <trkpt lat="44.94532" lon="5.60608">
        <ele>870.328899</ele>
        <time>2011-02-06T10:30:41.14</time>
      </trkpt>
      <trkpt lat="44.94537" lon="5.60602">
        <ele>870.328903</ele>
        <time>2011-02-06T10:30:43.9</time>
      </trkpt>
      <trkpt lat="44.94543" lon="5.60597">
        <ele>870.328907</ele>
        <time>2011-02-06T10:30:45.5</time>
      </trkpt>
      <trkpt lat="44.94548" lon="5.60592">
        <ele>869.328911</ele>
        <time>2011-02-06T10:30:47.9</time>
      </trkpt>
      <trkpt lat="44.94553" lon="5.60588">
        <ele>868.328911</ele>
        <time>2011-02-06T10:30:49.22</time>
      </trkpt>
      <trkpt lat="44.94558" lon="5.60583">
        <ele>867.328918</ele>
        <time>2011-02-06T10:30:51.9</time>
      </trkpt>
      <trkpt lat="44.94563" lon="5.60579">
        <ele>866.328922</ele>
        <time>2011-02-06T10:30:53.7</time>
      </trkpt>
      <trkpt lat="44.94568" lon="5.60575">
        <ele>866.328926</ele>
        <time>2011-02-06T10:30:55.6</time>
      </trkpt>
      <trkpt lat="44.94572" lon="5.60571">
        <ele>866.328934</ele>
        <time>2011-02-06T10:30:57.6</time>
      </trkpt>
      <trkpt lat="44.94577" lon="5.60567">
        <ele>865.328938</ele>
        <time>2011-02-06T10:30:59.4</time>
      </trkpt>
      <trkpt lat="44.94581" lon="5.60563">
        <ele>864.328938</ele>
        <time>2011-02-06T10:31:01.105</time>
      </trkpt>
      <trkpt lat="44.94586" lon="5.60559">
        <ele>864.328941</ele>
        <time>2011-02-06T10:31:03.2</time>
      </trkpt>
      <trkpt lat="44.9459" lon="5.60556">
        <ele>864.328949</ele>
        <time>2011-02-06T10:31:05.7</time>
      </trkpt>
      <trkpt lat="44.94594" lon="5.60552">
        <ele>864.328949</ele>
        <time>2011-02-06T10:31:07.15</time>
      </trkpt>
      <trkpt lat="44.94598" lon="5.60548">
        <ele>865.328953</ele>
        <time>2011-02-06T10:31:09.6</time>
      </trkpt>
      <trkpt lat="44.94602" lon="5.60544">
        <ele>865.328957</ele>
        <time>2011-02-06T10:31:11.5</time>
      </trkpt>
      <trkpt lat="44.94605" lon="5.6054">
        <ele>865.328953</ele>
        <time>2011-02-06T10:31:13.11</time>
      </trkpt>
      <trkpt lat="44.94609" lon="5.60536">
        <ele>865.328957</ele>
        <time>2011-02-06T10:31:15.4</time>
      </trkpt>
      <trkpt lat="44.94612" lon="5.60533">
        <ele>866.32896</ele>
        <time>2011-02-06T10:31:17.7</time>
      </trkpt>
      <trkpt lat="44.94616" lon="5.60529">
        <ele>867.328964</ele>
        <time>2011-02-06T10:31:19.42</time>
      </trkpt>
      <trkpt lat="44.94619" lon="5.60526">
        <ele>868.328964</ele>
        <time>2011-02-06T10:31:22.9</time>
      </trkpt>
      <trkpt lat="44.94626" lon="5.60519">
        <ele>868.328972</ele>
        <time>2011-02-06T10:31:27.10</time>
      </trkpt>
      <trkpt lat="44.94629" lon="5.60515">
        <ele>868.328968</ele>
        <time>2011-02-06T10:31:29.3</time>
      </trkpt>
      <trkpt lat="44.94632" lon="5.60512">
        <ele>868.328972</ele>
        <time>2011-02-06T10:31:31.8</time>
      </trkpt>
      <trkpt lat="44.94636" lon="5.60508">
        <ele>868.328976</ele>
        <time>2011-02-06T10:31:33.30</time>
      </trkpt>
      <trkpt lat="44.94639" lon="5.60504">
        <ele>868.328979</ele>
        <time>2011-02-06T10:31:35.6</time>
      </trkpt>
      <trkpt lat="44.94642" lon="5.605">
        <ele>868.328976</ele>
        <time>2011-02-06T10:31:37.8</time>
      </trkpt>
      <trkpt lat="44.94645" lon="5.60496">
        <ele>869.328972</ele>
        <time>2011-02-06T10:31:39.9</time>
      </trkpt>
      <trkpt lat="44.94648" lon="5.60492">
        <ele>870.328976</ele>
        <time>2011-02-06T10:31:41.4</time>
      </trkpt>
      <trkpt lat="44.94651" lon="5.60487">
        <ele>870.328976</ele>
        <time>2011-02-06T10:31:43.6</time>
      </trkpt>
      <trkpt lat="44.94655" lon="5.60482">
        <ele>871.328976</ele>
        <time>2011-02-06T10:31:45.6</time>
      </trkpt>
      <trkpt lat="44.94659" lon="5.60477">
        <ele>871.328976</ele>
        <time>2011-02-06T10:31:47.6</time>
      </trkpt>
      <trkpt lat="44.94662" lon="5.60472">
        <ele>872.328979</ele>
        <time>2011-02-06T10:31:49.10</time>
      </trkpt>
      <trkpt lat="44.94665" lon="5.60467">
        <ele>873.328976</ele>
        <time>2011-02-06T10:31:51.5</time>
      </trkpt>
      <trkpt lat="44.94669" lon="5.60463">
        <ele>875.328979</ele>
        <time>2011-02-06T10:31:53.8</time>
      </trkpt>
      <trkpt lat="44.94672" lon="5.6046">
        <ele>876.328979</ele>
        <time>2011-02-06T10:31:55.96</time>
      </trkpt>
      <trkpt lat="44.94676" lon="5.60457">
        <ele>876.328987</ele>
        <time>2011-02-06T10:31:57.10</time>
      </trkpt>
      <trkpt lat="44.9468" lon="5.60453">
        <ele>877.328987</ele>
        <time>2011-02-06T10:31:59.6</time>
      </trkpt>
      <trkpt lat="44.94684" lon="5.60451">
        <ele>877.328991</ele>
        <time>2011-02-06T10:32:01.106</time>
      </trkpt>
      <trkpt lat="44.94689" lon="5.60448">
        <ele>877.328999</ele>
        <time>2011-02-06T10:32:03.92</time>
      </trkpt>
      <trkpt lat="44.94693" lon="5.60445">
        <ele>877.329006</ele>
        <time>2011-02-06T10:32:05.65</time>
      </trkpt>
      <trkpt lat="44.94698" lon="5.60443">
        <ele>877.329014</ele>
        <time>2011-02-06T10:32:07.16</time>
      </trkpt>
      <trkpt lat="44.94703" lon="5.6044">
        <ele>877.329018</ele>
        <time>2011-02-06T10:32:09.6</time>
      </trkpt>
      <trkpt lat="44.94708" lon="5.60437">
        <ele>877.329021</ele>
        <time>2011-02-06T10:32:11.58</time>
      </trkpt>
      <trkpt lat="44.94712" lon="5.60434">
        <ele>877.329029</ele>
        <time>2011-02-06T10:32:13.14</time>
      </trkpt>
      <trkpt lat="44.94717" lon="5.60431">
        <ele>875.329033</ele>
        <time>2011-02-06T10:32:15.4</time>
      </trkpt>
      <trkpt lat="44.94722" lon="5.60428">
        <ele>873.329044</ele>
        <time>2011-02-06T10:32:17.91</time>
      </trkpt>
      <trkpt lat="44.94727" lon="5.60426">
        <ele>871.329048</ele>
        <time>2011-02-06T10:32:19.91</time>
      </trkpt>
      <trkpt lat="44.94732" lon="5.60424">
        <ele>869.329056</ele>
        <time>2011-02-06T10:32:21.93</time>
      </trkpt>
      <trkpt lat="44.94735" lon="5.60423">
        <ele>868.329063</ele>
        <time>2011-02-06T10:32:23.91</time>
      </trkpt>
      <trkpt lat="44.94741" lon="5.60421">
        <ele>868.329075</ele>
        <time>2011-02-06T10:32:26.166</time>
      </trkpt>
      <trkpt lat="44.94745" lon="5.60421">
        <ele>867.329079</ele>
        <time>2011-02-06T10:32:28.14</time>
      </trkpt>
      <trkpt lat="44.94749" lon="5.6042">
        <ele>867.329086</ele>
        <time>2011-02-06T10:32:30.7</time>
      </trkpt>
      <trkpt lat="44.94753" lon="5.6042">
        <ele>866.329094</ele>
        <time>2011-02-06T10:32:32.6</time>
      </trkpt>
      <trkpt lat="44.94765" lon="5.6042">
        <ele>863.329121</ele>
        <time>2011-02-06T10:32:38.5</time>
      </trkpt>
      <trkpt lat="44.94769" lon="5.6042">
        <ele>862.329136</ele>
        <time>2011-02-06T10:32:40.92</time>
      </trkpt>
      <trkpt lat="44.94774" lon="5.60421">
        <ele>861.329144</ele>
        <time>2011-02-06T10:32:42.95</time>
      </trkpt>
      <trkpt lat="44.94778" lon="5.60423">
        <ele>860.329155</ele>
        <time>2011-02-06T10:32:44.201</time>
      </trkpt>
      <trkpt lat="44.94783" lon="5.60424">
        <ele>859.32917</ele>
        <time>2011-02-06T10:32:46.217</time>
      </trkpt>
      <trkpt lat="44.94788" lon="5.60426">
        <ele>858.329185</ele>
        <time>2011-02-06T10:32:48.245</time>
      </trkpt>
      <trkpt lat="44.94792" lon="5.60428">
        <ele>857.329197</ele>
        <time>2011-02-06T10:32:50.14</time>
      </trkpt>
      <trkpt lat="44.94797" lon="5.6043">
        <ele>856.329212</ele>
        <time>2011-02-06T10:32:52.8</time>
      </trkpt>
      <trkpt lat="44.94803" lon="5.60432">
        <ele>856.329227</ele>
        <time>2011-02-06T10:32:54.5</time>
      </trkpt>
      <trkpt lat="44.94809" lon="5.60436">
        <ele>856.329243</ele>
        <time>2011-02-06T10:32:56.35</time>
      </trkpt>
      <trkpt lat="44.94815" lon="5.60439">
        <ele>855.329262</ele>
        <time>2011-02-06T10:32:58.93</time>
      </trkpt>
      <trkpt lat="44.94822" lon="5.60443">
        <ele>854.329285</ele>
        <time>2011-02-06T10:33:00.91</time>
      </trkpt>
      <trkpt lat="44.94828" lon="5.60446">
        <ele>853.3293</ele>
        <time>2011-02-06T10:33:02.15</time>
      </trkpt>
      <trkpt lat="44.94833" lon="5.60448">
        <ele>852.329315</ele>
        <time>2011-02-06T10:33:04.7</time>
      </trkpt>
      <trkpt lat="44.94839" lon="5.60451">
        <ele>852.329334</ele>
        <time>2011-02-06T10:33:06.7</time>
      </trkpt>
      <trkpt lat="44.94844" lon="5.60453">
        <ele>851.329346</ele>
        <time>2011-02-06T10:33:08.6</time>
      </trkpt>
      <trkpt lat="44.94849" lon="5.60455">
        <ele>850.329361</ele>
        <time>2011-02-06T10:33:10.17</time>
      </trkpt>
      <trkpt lat="44.94854" lon="5.60458">
        <ele>849.329376</ele>
        <time>2011-02-06T10:33:12.94</time>
      </trkpt>
      <trkpt lat="44.94858" lon="5.6046">
        <ele>848.329391</ele>
        <time>2011-02-06T10:33:14.92</time>
      </trkpt>
      <trkpt lat="44.94863" lon="5.60462">
        <ele>847.329399</ele>
        <time>2011-02-06T10:33:16.35</time>
      </trkpt>
      <trkpt lat="44.94867" lon="5.60463">
        <ele>847.329414</ele>
        <time>2011-02-06T10:33:18.4</time>
      </trkpt>
      <trkpt lat="44.94871" lon="5.60465">
        <ele>846.329426</ele>
        <time>2011-02-06T10:33:20.7</time>
      </trkpt>
      <trkpt lat="44.94875" lon="5.60465">
        <ele>845.329433</ele>
        <time>2011-02-06T10:33:22.6</time>
      </trkpt>
      <trkpt lat="44.94877" lon="5.60464">
        <ele>845.329437</ele>
        <time>2011-02-06T10:33:24.7</time>
      </trkpt>
      <trkpt lat="44.94877" lon="5.6046">
        <ele>844.32943</ele>
        <time>2011-02-06T10:33:26.15</time>
      </trkpt>
      <trkpt lat="44.94876" lon="5.60455">
        <ele>844.329422</ele>
        <time>2011-02-06T10:33:28.15</time>
      </trkpt>
      <trkpt lat="44.94873" lon="5.60451">
        <ele>843.329411</ele>
        <time>2011-02-06T10:33:30.14</time>
      </trkpt>
      <trkpt lat="44.94869" lon="5.60449">
        <ele>843.329399</ele>
        <time>2011-02-06T10:33:32.35</time>
      </trkpt>
      <trkpt lat="44.94864" lon="5.60447">
        <ele>842.329384</ele>
        <time>2011-02-06T10:33:34.92</time>
      </trkpt>
      <trkpt lat="44.94859" lon="5.60445">
        <ele>841.329372</ele>
        <time>2011-02-06T10:33:36.93</time>
      </trkpt>
      <trkpt lat="44.94854" lon="5.60444">
        <ele>840.329353</ele>
        <time>2011-02-06T10:33:38.5</time>
      </trkpt>
      <trkpt lat="44.94849" lon="5.60442">
        <ele>840.329342</ele>
        <time>2011-02-06T10:33:40.6</time>
      </trkpt>
      <trkpt lat="44.94844" lon="5.6044">
        <ele>840.32933</ele>
        <time>2011-02-06T10:33:42.5</time>
      </trkpt>
      <trkpt lat="44.9484" lon="5.60439">
        <ele>839.329315</ele>
        <time>2011-02-06T10:33:44.37</time>
      </trkpt>
      <trkpt lat="44.94835" lon="5.60437">
        <ele>840.3293</ele>
        <time>2011-02-06T10:33:46.7</time>
      </trkpt>
      <trkpt lat="44.9483" lon="5.60436">
        <ele>840.329292</ele>
        <time>2011-02-06T10:33:48.7</time>
      </trkpt>
      <trkpt lat="44.94825" lon="5.60434">
        <ele>840.329277</ele>
        <time>2011-02-06T10:33:50.94</time>
      </trkpt>
      <trkpt lat="44.9482" lon="5.60432">
        <ele>841.329266</ele>
        <time>2011-02-06T10:33:52.95</time>
      </trkpt>
      <trkpt lat="44.94814" lon="5.6043">
        <ele>840.329247</ele>
        <time>2011-02-06T10:33:54.94</time>
      </trkpt>
      <trkpt lat="44.94809" lon="5.60428">
        <ele>840.329231</ele>
        <time>2011-02-06T10:33:56.198</time>
      </trkpt>
      <trkpt lat="44.94805" lon="5.60425">
        <ele>841.329216</ele>
        <time>2011-02-06T10:33:58.231</time>
      </trkpt>
      <trkpt lat="44.948" lon="5.60423">
        <ele>841.329205</ele>
        <time>2011-02-06T10:34:00.7</time>
      </trkpt>
      <trkpt lat="44.94795" lon="5.60421">
        <ele>841.329189</ele>
        <time>2011-02-06T10:34:02.4</time>
      </trkpt>
      <trkpt lat="44.9479" lon="5.60418">
        <ele>840.329174</ele>
        <time>2011-02-06T10:34:04.16</time>
      </trkpt>
      <trkpt lat="44.94786" lon="5.60416">
        <ele>840.329159</ele>
        <time>2011-02-06T10:34:06.14</time>
      </trkpt>
      <trkpt lat="44.94782" lon="5.60414">
        <ele>840.329151</ele>
        <time>2011-02-06T10:34:08.7</time>
      </trkpt>
      <trkpt lat="44.94777" lon="5.60412">
        <ele>840.32914</ele>
        <time>2011-02-06T10:34:10.20</time>
      </trkpt>
      <trkpt lat="44.94773" lon="5.6041">
        <ele>840.329124</ele>
        <time>2011-02-06T10:34:12.97</time>
      </trkpt>
      <trkpt lat="44.94768" lon="5.60409">
        <ele>841.329109</ele>
        <time>2011-02-06T10:34:14.96</time>
      </trkpt>
      <trkpt lat="44.94763" lon="5.60407">
        <ele>841.329102</ele>
        <time>2011-02-06T10:34:16.200</time>
      </trkpt>
      <trkpt lat="44.94758" lon="5.60406">
        <ele>841.32909</ele>
        <time>2011-02-06T10:34:18.172</time>
      </trkpt>
      <trkpt lat="44.94754" lon="5.60404">
        <ele>842.329075</ele>
        <time>2011-02-06T10:34:20.14</time>
      </trkpt>
      <trkpt lat="44.9475" lon="5.60402">
        <ele>842.329063</ele>
        <time>2011-02-06T10:34:22.6</time>
      </trkpt>
      <trkpt lat="44.94745" lon="5.60401">
        <ele>842.329048</ele>
        <time>2011-02-06T10:34:24.15</time>
      </trkpt>
      <trkpt lat="44.94741" lon="5.60399">
        <ele>842.329037</ele>
        <time>2011-02-06T10:34:26.97</time>
      </trkpt>
      <trkpt lat="44.94736" lon="5.60398">
        <ele>843.329025</ele>
        <time>2011-02-06T10:34:28.98</time>
      </trkpt>
      <trkpt lat="44.94731" lon="5.60398">
        <ele>844.329014</ele>
        <time>2011-02-06T10:34:30.167</time>
      </trkpt>
      <trkpt lat="44.94727" lon="5.60398">
        <ele>844.329006</ele>
        <time>2011-02-06T10:34:32.2</time>
      </trkpt>
      <trkpt lat="44.94721" lon="5.60398">
        <ele>844.328991</ele>
        <time>2011-02-06T10:34:34.14</time>
      </trkpt>
      <trkpt lat="44.94716" lon="5.604">
        <ele>845.328983</ele>
        <time>2011-02-06T10:34:36.6</time>
      </trkpt>
      <trkpt lat="44.94712" lon="5.60401">
        <ele>845.328979</ele>
        <time>2011-02-06T10:34:38.6</time>
      </trkpt>
      <trkpt lat="44.94706" lon="5.60406">
        <ele>846.328972</ele>
        <time>2011-02-06T10:34:42.14</time>
      </trkpt>
      <trkpt lat="44.94701" lon="5.60408">
        <ele>847.328964</ele>
        <time>2011-02-06T10:34:44.58</time>
      </trkpt>
      <trkpt lat="44.94697" lon="5.6041">
        <ele>848.328957</ele>
        <time>2011-02-06T10:34:46.109</time>
      </trkpt>
      <trkpt lat="44.94693" lon="5.60413">
        <ele>849.328957</ele>
        <time>2011-02-06T10:34:48.160</time>
      </trkpt>
      <trkpt lat="44.94689" lon="5.60416">
        <ele>849.328945</ele>
        <time>2011-02-06T10:34:50.234</time>
      </trkpt>
      <trkpt lat="44.94684" lon="5.60419">
        <ele>849.328945</ele>
        <time>2011-02-06T10:34:52.14</time>
      </trkpt>
      <trkpt lat="44.9468" lon="5.60422">
        <ele>849.328941</ele>
        <time>2011-02-06T10:34:54.5</time>
      </trkpt>
      <trkpt lat="44.94676" lon="5.60425">
        <ele>850.328938</ele>
        <time>2011-02-06T10:34:56.4</time>
      </trkpt>
      <trkpt lat="44.94673" lon="5.60429">
        <ele>850.328934</ele>
        <time>2011-02-06T10:34:58.14</time>
      </trkpt>
      <trkpt lat="44.9467" lon="5.60433">
        <ele>851.328934</ele>
        <time>2011-02-06T10:35:00.23</time>
      </trkpt>
      <trkpt lat="44.94667" lon="5.60437">
        <ele>851.328938</ele>
        <time>2011-02-06T10:35:02.101</time>
      </trkpt>
      <trkpt lat="44.94663" lon="5.60441">
        <ele>852.32893</ele>
        <time>2011-02-06T10:35:04.102</time>
      </trkpt>
      <trkpt lat="44.9466" lon="5.60445">
        <ele>853.328926</ele>
        <time>2011-02-06T10:35:06.107</time>
      </trkpt>
      <trkpt lat="44.94656" lon="5.60448">
        <ele>853.328926</ele>
        <time>2011-02-06T10:35:08.7</time>
      </trkpt>
      <trkpt lat="44.94653" lon="5.60453">
        <ele>854.32893</ele>
        <time>2011-02-06T10:35:10.15</time>
      </trkpt>
      <trkpt lat="44.9465" lon="5.60457">
        <ele>855.328926</ele>
        <time>2011-02-06T10:35:12.14</time>
      </trkpt>
      <trkpt lat="44.94646" lon="5.60461">
        <ele>855.328926</ele>
        <time>2011-02-06T10:35:14.6</time>
      </trkpt>
      <trkpt lat="44.94642" lon="5.60465">
        <ele>855.328922</ele>
        <time>2011-02-06T10:35:16.60</time>
      </trkpt>
      <trkpt lat="44.94632" lon="5.60475">
        <ele>856.328915</ele>
        <time>2011-02-06T10:35:21.106</time>
      </trkpt>
      <trkpt lat="44.94628" lon="5.60479">
        <ele>856.328918</ele>
        <time>2011-02-06T10:35:23.125</time>
      </trkpt>
      <trkpt lat="44.94624" lon="5.60484">
        <ele>857.328911</ele>
        <time>2011-02-06T10:35:25.6</time>
      </trkpt>
      <trkpt lat="44.94621" lon="5.60488">
        <ele>857.328911</ele>
        <time>2011-02-06T10:35:27.14</time>
      </trkpt>
      <trkpt lat="44.94617" lon="5.60492">
        <ele>858.328911</ele>
        <time>2011-02-06T10:35:29.3</time>
      </trkpt>
      <trkpt lat="44.94614" lon="5.60496">
        <ele>858.328907</ele>
        <time>2011-02-06T10:35:31.27</time>
      </trkpt>
      <trkpt lat="44.9461" lon="5.60501">
        <ele>859.328907</ele>
        <time>2011-02-06T10:35:33.109</time>
      </trkpt>
      <trkpt lat="44.94608" lon="5.60506">
        <ele>859.328911</ele>
        <time>2011-02-06T10:35:35.106</time>
      </trkpt>
      <trkpt lat="44.94606" lon="5.60511">
        <ele>859.328911</ele>
        <time>2011-02-06T10:35:37.63</time>
      </trkpt>
      <trkpt lat="44.94605" lon="5.60516">
        <ele>859.328918</ele>
        <time>2011-02-06T10:35:39.44</time>
      </trkpt>
      <trkpt lat="44.94605" lon="5.60521">
        <ele>859.328922</ele>
        <time>2011-02-06T10:35:41.217</time>
      </trkpt>
      <trkpt lat="44.94605" lon="5.60527">
        <ele>858.328934</ele>
        <time>2011-02-06T10:35:43.17</time>
      </trkpt>
      <trkpt lat="44.94607" lon="5.60533">
        <ele>858.328949</ele>
        <time>2011-02-06T10:35:45.14</time>
      </trkpt>
      <trkpt lat="44.94609" lon="5.60541">
        <ele>856.328968</ele>
        <time>2011-02-06T10:35:47.6</time>
      </trkpt>
      <trkpt lat="44.94611" lon="5.60549">
        <ele>855.328979</ele>
        <time>2011-02-06T10:35:49.48</time>
      </trkpt>
      <trkpt lat="44.94613" lon="5.60556">
        <ele>853.328999</ele>
        <time>2011-02-06T10:35:51.128</time>
      </trkpt>
      <trkpt lat="44.94614" lon="5.60564">
        <ele>853.32901</ele>
        <time>2011-02-06T10:35:53.105</time>
      </trkpt>
      <trkpt lat="44.94615" lon="5.60571">
        <ele>853.329021</ele>
        <time>2011-02-06T10:35:55.52</time>
      </trkpt>
      <trkpt lat="44.94616" lon="5.60577">
        <ele>853.329037</ele>
        <time>2011-02-06T10:35:57.155</time>
      </trkpt>
      <trkpt lat="44.94617" lon="5.60583">
        <ele>853.329048</ele>
        <time>2011-02-06T10:35:59.234</time>
      </trkpt>
      <trkpt lat="44.94618" lon="5.60589">
        <ele>852.32906</ele>
        <time>2011-02-06T10:36:01.6</time>
      </trkpt>
      <trkpt lat="44.94619" lon="5.60596">
        <ele>851.329071</ele>
        <time>2011-02-06T10:36:03.31</time>
      </trkpt>
      <trkpt lat="44.9462" lon="5.60602">
        <ele>851.329082</ele>
        <time>2011-02-06T10:36:05.27</time>
      </trkpt>
      <trkpt lat="44.94621" lon="5.6061">
        <ele>852.329098</ele>
        <time>2011-02-06T10:36:07.109</time>
      </trkpt>
      <trkpt lat="44.94623" lon="5.60618">
        <ele>852.329117</ele>
        <time>2011-02-06T10:36:09.109</time>
      </trkpt>
      <trkpt lat="44.94624" lon="5.60625">
        <ele>853.329128</ele>
        <time>2011-02-06T10:36:11.6</time>
      </trkpt>
      <trkpt lat="44.94626" lon="5.60632">
        <ele>853.32914</ele>
        <time>2011-02-06T10:36:13.15</time>
      </trkpt>
      <trkpt lat="44.94627" lon="5.60638">
        <ele>854.329151</ele>
        <time>2011-02-06T10:36:15.5</time>
      </trkpt>
      <trkpt lat="44.94628" lon="5.60645">
        <ele>854.329166</ele>
        <time>2011-02-06T10:36:17.5</time>
      </trkpt>
      <trkpt lat="44.9463" lon="5.60652">
        <ele>854.329185</ele>
        <time>2011-02-06T10:36:19.7</time>
      </trkpt>
      <trkpt lat="44.94631" lon="5.60658">
        <ele>854.329189</ele>
        <time>2011-02-06T10:36:21.16</time>
      </trkpt>
      <trkpt lat="44.94633" lon="5.60664">
        <ele>855.329205</ele>
        <time>2011-02-06T10:36:23.109</time>
      </trkpt>
      <trkpt lat="44.94635" lon="5.6067">
        <ele>855.329216</ele>
        <time>2011-02-06T10:36:25.109</time>
      </trkpt>
      <trkpt lat="44.94637" lon="5.60676">
        <ele>855.329231</ele>
        <time>2011-02-06T10:36:27.126</time>
      </trkpt>
      <trkpt lat="44.9464" lon="5.60683">
        <ele>855.329247</ele>
        <time>2011-02-06T10:36:29.103</time>
      </trkpt>
      <trkpt lat="44.94642" lon="5.6069">
        <ele>855.329262</ele>
        <time>2011-02-06T10:36:31.160</time>
      </trkpt>
      <trkpt lat="44.94645" lon="5.60696">
        <ele>855.329281</ele>
        <time>2011-02-06T10:36:33.234</time>
      </trkpt>
      <trkpt lat="44.94647" lon="5.60702">
        <ele>855.329296</ele>
        <time>2011-02-06T10:36:35.7</time>
      </trkpt>
      <trkpt lat="44.94649" lon="5.60707">
        <ele>855.329308</ele>
        <time>2011-02-06T10:36:37.14</time>
      </trkpt>
      <trkpt lat="44.94651" lon="5.60712">
        <ele>855.329323</ele>
        <time>2011-02-06T10:36:39.46</time>
      </trkpt>
      <trkpt lat="44.94653" lon="5.60717">
        <ele>854.32933</ele>
        <time>2011-02-06T10:36:41.87</time>
      </trkpt>
      <trkpt lat="44.94655" lon="5.60722">
        <ele>854.329346</ele>
        <time>2011-02-06T10:36:43.109</time>
      </trkpt>
      <trkpt lat="44.94656" lon="5.60727">
        <ele>854.329353</ele>
        <time>2011-02-06T10:36:45.83</time>
      </trkpt>
      <trkpt lat="44.94659" lon="5.60733">
        <ele>854.329369</ele>
        <time>2011-02-06T10:36:47.31</time>
      </trkpt>
      <trkpt lat="44.94661" lon="5.6074">
        <ele>853.329384</ele>
        <time>2011-02-06T10:36:49.6</time>
      </trkpt>
      <trkpt lat="44.94663" lon="5.60747">
        <ele>853.329399</ele>
        <time>2011-02-06T10:36:51.52</time>
      </trkpt>
      <trkpt lat="44.94666" lon="5.60754">
        <ele>853.329418</ele>
        <time>2011-02-06T10:36:53.111</time>
      </trkpt>
      <trkpt lat="44.94668" lon="5.60761">
        <ele>854.329433</ele>
        <time>2011-02-06T10:36:55.28</time>
      </trkpt>
      <trkpt lat="44.94671" lon="5.60768">
        <ele>853.329449</ele>
        <time>2011-02-06T10:36:57.179</time>
      </trkpt>
      <trkpt lat="44.94673" lon="5.60775">
        <ele>853.329468</ele>
        <time>2011-02-06T10:36:59.5</time>
      </trkpt>
      <trkpt lat="44.94676" lon="5.60782">
        <ele>853.329479</ele>
        <time>2011-02-06T10:37:01.17</time>
      </trkpt>
      <trkpt lat="44.94679" lon="5.60788">
        <ele>853.329494</ele>
        <time>2011-02-06T10:37:03.5</time>
      </trkpt>
      <trkpt lat="44.94681" lon="5.60795">
        <ele>853.32951</ele>
        <time>2011-02-06T10:37:05.15</time>
      </trkpt>
      <trkpt lat="44.94684" lon="5.60803">
        <ele>853.329529</ele>
        <time>2011-02-06T10:37:07.110</time>
      </trkpt>
      <trkpt lat="44.94686" lon="5.6081">
        <ele>853.329548</ele>
        <time>2011-02-06T10:37:09.173</time>
      </trkpt>
      <trkpt lat="44.94689" lon="5.60817">
        <ele>852.329567</ele>
        <time>2011-02-06T10:37:11.102</time>
      </trkpt>
      <trkpt lat="44.94691" lon="5.60824">
        <ele>852.329575</ele>
        <time>2011-02-06T10:37:13.7</time>
      </trkpt>
      <trkpt lat="44.94692" lon="5.6083">
        <ele>853.329586</ele>
        <time>2011-02-06T10:37:15.14</time>
      </trkpt>
      <trkpt lat="44.94693" lon="5.60835">
        <ele>853.329601</ele>
        <time>2011-02-06T10:37:17.29</time>
      </trkpt>
      <trkpt lat="44.94694" lon="5.60841">
        <ele>853.329609</ele>
        <time>2011-02-06T10:37:19.102</time>
      </trkpt>
      <trkpt lat="44.94695" lon="5.60846">
        <ele>852.329624</ele>
        <time>2011-02-06T10:37:21.109</time>
      </trkpt>
      <trkpt lat="44.94697" lon="5.60851">
        <ele>851.329636</ele>
        <time>2011-02-06T10:37:23.102</time>
      </trkpt>
      <trkpt lat="44.94699" lon="5.60857">
        <ele>852.329643</ele>
        <time>2011-02-06T10:37:25.7</time>
      </trkpt>
      <trkpt lat="44.947" lon="5.60862">
        <ele>852.329659</ele>
        <time>2011-02-06T10:37:27.14</time>
      </trkpt>
      <trkpt lat="44.94702" lon="5.60868">
        <ele>851.329666</ele>
        <time>2011-02-06T10:37:29.102</time>
      </trkpt>
      <trkpt lat="44.94705" lon="5.60874">
        <ele>852.329685</ele>
        <time>2011-02-06T10:37:31.102</time>
      </trkpt>
      <trkpt lat="44.94707" lon="5.60879">
        <ele>852.329697</ele>
        <time>2011-02-06T10:37:33.115</time>
      </trkpt>
      <trkpt lat="44.94709" lon="5.60884">
        <ele>853.329712</ele>
        <time>2011-02-06T10:37:35.36</time>
      </trkpt>
      <trkpt lat="44.94711" lon="5.6089">
        <ele>854.329723</ele>
        <time>2011-02-06T10:37:37.102</time>
      </trkpt>
      <trkpt lat="44.94713" lon="5.60896">
        <ele>854.329739</ele>
        <time>2011-02-06T10:37:39.109</time>
      </trkpt>
      <trkpt lat="44.94715" lon="5.60901">
        <ele>853.32975</ele>
        <time>2011-02-06T10:37:41.102</time>
      </trkpt>
      <trkpt lat="44.94717" lon="5.60907">
        <ele>852.329762</ele>
        <time>2011-02-06T10:37:43.180</time>
      </trkpt>
      <trkpt lat="44.94718" lon="5.60913">
        <ele>852.329773</ele>
        <time>2011-02-06T10:37:45.5</time>
      </trkpt>
      <trkpt lat="44.9472" lon="5.60919">
        <ele>851.329788</ele>
        <time>2011-02-06T10:37:47.17</time>
      </trkpt>
      <trkpt lat="44.94722" lon="5.60925">
        <ele>851.3298</ele>
        <time>2011-02-06T10:37:49.7</time>
      </trkpt>
      <trkpt lat="44.94725" lon="5.60932">
        <ele>850.329819</ele>
        <time>2011-02-06T10:37:51.6</time>
      </trkpt>
      <trkpt lat="44.94727" lon="5.60939">
        <ele>849.32983</ele>
        <time>2011-02-06T10:37:53.103</time>
      </trkpt>
      <trkpt lat="44.9473" lon="5.60946">
        <ele>849.329845</ele>
        <time>2011-02-06T10:37:55.113</time>
      </trkpt>
      <trkpt lat="44.94732" lon="5.60953">
        <ele>848.329868</ele>
        <time>2011-02-06T10:37:57.14</time>
      </trkpt>
      <trkpt lat="44.94735" lon="5.6096">
        <ele>848.32988</ele>
        <time>2011-02-06T10:37:59.7</time>
      </trkpt>
      <trkpt lat="44.94743" lon="5.60978">
        <ele>846.329929</ele>
        <time>2011-02-06T10:38:05.29</time>
      </trkpt>
      <trkpt lat="44.94748" lon="5.60984">
        <ele>845.329948</ele>
        <time>2011-02-06T10:38:07.75</time>
      </trkpt>
      <trkpt lat="44.94753" lon="5.60988">
        <ele>844.329967</ele>
        <time>2011-02-06T10:38:09.115</time>
      </trkpt>
      <trkpt lat="44.94759" lon="5.60991">
        <ele>843.329979</ele>
        <time>2011-02-06T10:38:11.54</time>
      </trkpt>
      <trkpt lat="44.94763" lon="5.60992">
        <ele>842.32999</ele>
        <time>2011-02-06T10:38:13.169</time>
      </trkpt>
      <trkpt lat="44.94767" lon="5.60991">
        <ele>842.330002</ele>
        <time>2011-02-06T10:38:15.6</time>
      </trkpt>
      <trkpt lat="44.94771" lon="5.6099">
        <ele>842.330006</ele>
        <time>2011-02-06T10:38:17.5</time>
      </trkpt>
      <trkpt lat="44.94773" lon="5.60988">
        <ele>842.330009</ele>
        <time>2011-02-06T10:38:19.6</time>
      </trkpt>
      <trkpt lat="44.94776" lon="5.60986">
        <ele>843.330009</ele>
        <time>2011-02-06T10:38:21.24</time>
      </trkpt>
      <trkpt lat="44.94779" lon="5.60985">
        <ele>844.330013</ele>
        <time>2011-02-06T10:38:23.115</time>
      </trkpt>
      <trkpt lat="44.94784" lon="5.60973">
        <ele>855.330009</ele>
        <time>2011-02-06T10:38:34.16</time>
      </trkpt>
      <trkpt lat="44.94785" lon="5.60971">
        <ele>857.330006</ele>
        <time>2011-02-06T10:38:36.7</time>
      </trkpt>
      <trkpt lat="44.94793" lon="5.60954">
        <ele>867.330002</ele>
        <time>2011-02-06T10:38:46.134</time>
      </trkpt>
      <trkpt lat="44.94795" lon="5.60948">
        <ele>870.329994</ele>
        <time>2011-02-06T10:38:48.109</time>
      </trkpt>
      <trkpt lat="44.94799" lon="5.6094">
        <ele>871.329994</ele>
        <time>2011-02-06T10:38:50.185</time>
      </trkpt>
      <trkpt lat="44.94802" lon="5.60929">
        <ele>872.329983</ele>
        <time>2011-02-06T10:38:52.14</time>
      </trkpt>
      <trkpt lat="44.94806" lon="5.60918">
        <ele>873.329971</ele>
        <time>2011-02-06T10:38:54.15</time>
      </trkpt>
      <trkpt lat="44.94809" lon="5.60908">
        <ele>874.329971</ele>
        <time>2011-02-06T10:38:56.5</time>
      </trkpt>
      <trkpt lat="44.94812" lon="5.60899">
        <ele>874.329956</ele>
        <time>2011-02-06T10:38:58.6</time>
      </trkpt>
      <trkpt lat="44.94817" lon="5.60883">
        <ele>872.329941</ele>
        <time>2011-02-06T10:39:02.35</time>
      </trkpt>
      <trkpt lat="44.9482" lon="5.60873">
        <ele>870.329941</ele>
        <time>2011-02-06T10:39:04.152</time>
      </trkpt>
      <trkpt lat="44.94823" lon="5.60862">
        <ele>869.329926</ele>
        <time>2011-02-06T10:39:06.35</time>
      </trkpt>
      <trkpt lat="44.94825" lon="5.6085">
        <ele>867.32991</ele>
        <time>2011-02-06T10:39:08.2</time>
      </trkpt>
      <trkpt lat="44.94827" lon="5.6084">
        <ele>865.329899</ele>
        <time>2011-02-06T10:39:10.6</time>
      </trkpt>
      <trkpt lat="44.94829" lon="5.6083">
        <ele>863.329887</ele>
        <time>2011-02-06T10:39:12.7</time>
      </trkpt>
      <trkpt lat="44.94831" lon="5.60821">
        <ele>862.32988</ele>
        <time>2011-02-06T10:39:14.109</time>
      </trkpt>
      <trkpt lat="44.94832" lon="5.60813">
        <ele>861.329876</ele>
        <time>2011-02-06T10:39:16.109</time>
      </trkpt>
      <trkpt lat="44.94834" lon="5.60806">
        <ele>861.329861</ele>
        <time>2011-02-06T10:39:18.109</time>
      </trkpt>
      <trkpt lat="44.94835" lon="5.608">
        <ele>861.329861</ele>
        <time>2011-02-06T10:39:20.3</time>
      </trkpt>
      <trkpt lat="44.94837" lon="5.60795">
        <ele>860.329853</ele>
        <time>2011-02-06T10:39:22.7</time>
      </trkpt>
      <trkpt lat="44.94838" lon="5.60789">
        <ele>860.329849</ele>
        <time>2011-02-06T10:39:24.2</time>
      </trkpt>
      <trkpt lat="44.9484" lon="5.60783">
        <ele>860.329842</ele>
        <time>2011-02-06T10:39:26.102</time>
      </trkpt>
      <trkpt lat="44.94841" lon="5.60778">
        <ele>860.329838</ele>
        <time>2011-02-06T10:39:28.138</time>
      </trkpt>
      <trkpt lat="44.94843" lon="5.60772">
        <ele>859.329834</ele>
        <time>2011-02-06T10:39:30.4</time>
      </trkpt>
      <trkpt lat="44.94846" lon="5.60766">
        <ele>859.32983</ele>
        <time>2011-02-06T10:39:32.3</time>
      </trkpt>
      <trkpt lat="44.94848" lon="5.60759">
        <ele>859.329826</ele>
        <time>2011-02-06T10:39:34.15</time>
      </trkpt>
      <trkpt lat="44.94851" lon="5.60753">
        <ele>859.329819</ele>
        <time>2011-02-06T10:39:36.15</time>
      </trkpt>
      <trkpt lat="44.94854" lon="5.60747">
        <ele>859.329815</ele>
        <time>2011-02-06T10:39:38.6</time>
      </trkpt>
      <trkpt lat="44.94856" lon="5.60741">
        <ele>859.329815</ele>
        <time>2011-02-06T10:39:40.109</time>
      </trkpt>
      <trkpt lat="44.94859" lon="5.60735">
        <ele>859.329807</ele>
        <time>2011-02-06T10:39:42.109</time>
      </trkpt>
      <trkpt lat="44.94861" lon="5.60729">
        <ele>858.329803</ele>
        <time>2011-02-06T10:39:44.1</time>
      </trkpt>
      <trkpt lat="44.94863" lon="5.60723">
        <ele>859.3298</ele>
        <time>2011-02-06T10:39:46.5</time>
      </trkpt>
      <trkpt lat="44.94865" lon="5.60717">
        <ele>860.329796</ele>
        <time>2011-02-06T10:39:48.2</time>
      </trkpt>
      <trkpt lat="44.94866" lon="5.60711">
        <ele>861.329788</ele>
        <time>2011-02-06T10:39:50.14</time>
      </trkpt>
      <trkpt lat="44.94869" lon="5.60703">
        <ele>861.329784</ele>
        <time>2011-02-06T10:39:53.3</time>
      </trkpt>
      <trkpt lat="44.94871" lon="5.60697">
        <ele>861.329784</ele>
        <time>2011-02-06T10:39:55.102</time>
      </trkpt>
      <trkpt lat="44.94874" lon="5.60692">
        <ele>861.329781</ele>
        <time>2011-02-06T10:39:57.109</time>
      </trkpt>
      <trkpt lat="44.94876" lon="5.60686">
        <ele>862.329773</ele>
        <time>2011-02-06T10:39:59.127</time>
      </trkpt>
      <trkpt lat="44.94878" lon="5.60682">
        <ele>863.329769</ele>
        <time>2011-02-06T10:40:01.4</time>
      </trkpt>
      <trkpt lat="44.94882" lon="5.60675">
        <ele>863.329773</ele>
        <time>2011-02-06T10:40:04.15</time>
      </trkpt>
      <trkpt lat="44.94885" lon="5.6067">
        <ele>864.329769</ele>
        <time>2011-02-06T10:40:06.17</time>
      </trkpt>
      <trkpt lat="44.94887" lon="5.60665">
        <ele>865.329769</ele>
        <time>2011-02-06T10:40:08.4</time>
      </trkpt>
      <trkpt lat="44.9489" lon="5.60659">
        <ele>866.329765</ele>
        <time>2011-02-06T10:40:10.15</time>
      </trkpt>
      <trkpt lat="44.94893" lon="5.60653">
        <ele>866.329765</ele>
        <time>2011-02-06T10:40:12.7</time>
      </trkpt>
      <trkpt lat="44.94897" lon="5.60647">
        <ele>867.329758</ele>
        <time>2011-02-06T10:40:14.47</time>
      </trkpt>
      <trkpt lat="44.949" lon="5.60641">
        <ele>867.329758</ele>
        <time>2011-02-06T10:40:16.110</time>
      </trkpt>
      <trkpt lat="44.94904" lon="5.60635">
        <ele>867.329758</ele>
        <time>2011-02-06T10:40:18.102</time>
      </trkpt>
      <trkpt lat="44.94907" lon="5.60629">
        <ele>866.329758</ele>
        <time>2011-02-06T10:40:20.52</time>
      </trkpt>
      <trkpt lat="44.9491" lon="5.60622">
        <ele>865.32975</ele>
        <time>2011-02-06T10:40:22.223</time>
      </trkpt>
      <trkpt lat="44.94913" lon="5.60615">
        <ele>863.329746</ele>
        <time>2011-02-06T10:40:24.3</time>
      </trkpt>
      <trkpt lat="44.94915" lon="5.60609">
        <ele>863.329742</ele>
        <time>2011-02-06T10:40:26.2</time>
      </trkpt>
      <trkpt lat="44.9492" lon="5.60599">
        <ele>862.329735</ele>
        <time>2011-02-06T10:40:29.6</time>
      </trkpt>
      <trkpt lat="44.94923" lon="5.60593">
        <ele>861.329735</ele>
        <time>2011-02-06T10:40:31.109</time>
      </trkpt>
      <trkpt lat="44.94927" lon="5.60587">
        <ele>860.329735</ele>
        <time>2011-02-06T10:40:33.109</time>
      </trkpt>
      <trkpt lat="44.9493" lon="5.60581">
        <ele>859.329735</ele>
        <time>2011-02-06T10:40:35.155</time>
      </trkpt>
      <trkpt lat="44.94937" lon="5.60566">
        <ele>858.329727</ele>
        <time>2011-02-06T10:40:40.6</time>
      </trkpt>
      <trkpt lat="44.94939" lon="5.60562">
        <ele>859.32972</ele>
        <time>2011-02-06T10:40:42.1</time>
      </trkpt>
      <trkpt lat="44.94941" lon="5.60557">
        <ele>860.32972</ele>
        <time>2011-02-06T10:40:44.5</time>
      </trkpt>
      <trkpt lat="44.94945" lon="5.60541">
        <ele>858.329704</ele>
        <time>2011-02-06T10:40:49.8</time>
      </trkpt>
      <trkpt lat="44.94945" lon="5.60533">
        <ele>857.329693</ele>
        <time>2011-02-06T10:40:51.132</time>
      </trkpt>
      <trkpt lat="44.94945" lon="5.60525">
        <ele>855.329678</ele>
        <time>2011-02-06T10:40:53.182</time>
      </trkpt>
      <trkpt lat="44.94945" lon="5.60516">
        <ele>852.329666</ele>
        <time>2011-02-06T10:40:55.14</time>
      </trkpt>
      <trkpt lat="44.94942" lon="5.60508">
        <ele>849.329651</ele>
        <time>2011-02-06T10:40:57.7</time>
      </trkpt>
      <trkpt lat="44.94939" lon="5.605">
        <ele>848.329632</ele>
        <time>2011-02-06T10:40:59.3</time>
      </trkpt>
      <trkpt lat="44.94935" lon="5.60494">
        <ele>846.329609</ele>
        <time>2011-02-06T10:41:01.17</time>
      </trkpt>
      <trkpt lat="44.9493" lon="5.60488">
        <ele>845.32959</ele>
        <time>2011-02-06T10:41:03.30</time>
      </trkpt>
      <trkpt lat="44.94925" lon="5.60483">
        <ele>844.329571</ele>
        <time>2011-02-06T10:41:05.109</time>
      </trkpt>
      <trkpt lat="44.9492" lon="5.60479">
        <ele>843.329556</ele>
        <time>2011-02-06T10:41:07.109</time>
      </trkpt>
      <trkpt lat="44.94915" lon="5.60476">
        <ele>842.32954</ele>
        <time>2011-02-06T10:41:09.234</time>
      </trkpt>
      <trkpt lat="44.9491" lon="5.60472">
        <ele>841.329521</ele>
        <time>2011-02-06T10:41:11.5</time>
      </trkpt>
      <trkpt lat="44.94905" lon="5.60469">
        <ele>841.329502</ele>
        <time>2011-02-06T10:41:13.6</time>
      </trkpt>
      <trkpt lat="44.949" lon="5.60466">
        <ele>841.329491</ele>
        <time>2011-02-06T10:41:15.5</time>
      </trkpt>
      <trkpt lat="44.94895" lon="5.60464">
        <ele>841.329475</ele>
        <time>2011-02-06T10:41:17.2</time>
      </trkpt>
      <trkpt lat="44.9489" lon="5.60461">
        <ele>841.32946</ele>
        <time>2011-02-06T10:41:19.102</time>
      </trkpt>
      <trkpt lat="44.94885" lon="5.60459">
        <ele>842.329445</ele>
        <time>2011-02-06T10:41:21.118</time>
      </trkpt>
      <trkpt lat="44.9488" lon="5.60457">
        <ele>843.329433</ele>
        <time>2011-02-06T10:41:23.188</time>
      </trkpt>
      <trkpt lat="44.94875" lon="5.60454">
        <ele>842.329418</ele>
        <time>2011-02-06T10:41:25.169</time>
      </trkpt>
      <trkpt lat="44.94871" lon="5.60452">
        <ele>842.329403</ele>
        <time>2011-02-06T10:41:27.15</time>
      </trkpt>
      <trkpt lat="44.94866" lon="5.60449">
        <ele>842.329391</ele>
        <time>2011-02-06T10:41:29.14</time>
      </trkpt>
      <trkpt lat="44.94861" lon="5.60446">
        <ele>841.329376</ele>
        <time>2011-02-06T10:41:31.6</time>
      </trkpt>
      <trkpt lat="44.94856" lon="5.60444">
        <ele>841.329361</ele>
        <time>2011-02-06T10:41:33.109</time>
      </trkpt>
      <trkpt lat="44.94852" lon="5.60442">
        <ele>840.329346</ele>
        <time>2011-02-06T10:41:35.27</time>
      </trkpt>
      <trkpt lat="44.94847" lon="5.6044">
        <ele>840.329334</ele>
        <time>2011-02-06T10:41:37.36</time>
      </trkpt>
      <trkpt lat="44.94843" lon="5.60438">
        <ele>840.329323</ele>
        <time>2011-02-06T10:41:39.5</time>
      </trkpt>
      <trkpt lat="44.94838" lon="5.60436">
        <ele>840.329308</ele>
        <time>2011-02-06T10:41:41.4</time>
      </trkpt>
      <trkpt lat="44.94833" lon="5.60435">
        <ele>840.329292</ele>
        <time>2011-02-06T10:41:43.14</time>
      </trkpt>
      <trkpt lat="44.94829" lon="5.60433">
        <ele>840.329285</ele>
        <time>2011-02-06T10:41:45.7</time>
      </trkpt>
      <trkpt lat="44.94824" lon="5.60431">
        <ele>840.329269</ele>
        <time>2011-02-06T10:41:47.94</time>
      </trkpt>
      <trkpt lat="44.9482" lon="5.60429">
        <ele>840.329254</ele>
        <time>2011-02-06T10:41:49.109</time>
      </trkpt>
      <trkpt lat="44.94816" lon="5.60427">
        <ele>841.329243</ele>
        <time>2011-02-06T10:41:51.72</time>
      </trkpt>
      <trkpt lat="44.94811" lon="5.60425">
        <ele>841.329235</ele>
        <time>2011-02-06T10:41:53</time>
      </trkpt>
      <trkpt lat="44.94806" lon="5.60423">
        <ele>841.32922</ele>
        <time>2011-02-06T10:41:55.14</time>
      </trkpt>
      <trkpt lat="44.94801" lon="5.60422">
        <ele>841.329201</ele>
        <time>2011-02-06T10:41:57.35</time>
      </trkpt>
      <trkpt lat="44.94797" lon="5.6042">
        <ele>841.329189</ele>
        <time>2011-02-06T10:41:59.107</time>
      </trkpt>
      <trkpt lat="44.94792" lon="5.60417">
        <ele>840.329182</ele>
        <time>2011-02-06T10:42:01.189</time>
      </trkpt>
      <trkpt lat="44.94789" lon="5.60415">
        <ele>841.329166</ele>
        <time>2011-02-06T10:42:03.5</time>
      </trkpt>
      <trkpt lat="44.94785" lon="5.60413">
        <ele>841.329159</ele>
        <time>2011-02-06T10:42:05.15</time>
      </trkpt>
      <trkpt lat="44.94782" lon="5.6041">
        <ele>842.329147</ele>
        <time>2011-02-06T10:42:07.6</time>
      </trkpt>
      <trkpt lat="44.94779" lon="5.60408">
        <ele>842.32914</ele>
        <time>2011-02-06T10:42:09.14</time>
      </trkpt>
      <trkpt lat="44.94776" lon="5.60405">
        <ele>843.329124</ele>
        <time>2011-02-06T10:42:11.126</time>
      </trkpt>
      <trkpt lat="44.94772" lon="5.60403">
        <ele>843.329117</ele>
        <time>2011-02-06T10:42:13.109</time>
      </trkpt>
      <trkpt lat="44.94769" lon="5.60401">
        <ele>844.329105</ele>
        <time>2011-02-06T10:42:15.99</time>
      </trkpt>
      <trkpt lat="44.94765" lon="5.604">
        <ele>845.329094</ele>
        <time>2011-02-06T10:42:17.3</time>
      </trkpt>
      <trkpt lat="44.94761" lon="5.60399">
        <ele>845.329086</ele>
        <time>2011-02-06T10:42:19.7</time>
      </trkpt>
      <trkpt lat="44.94757" lon="5.60398">
        <ele>846.329071</ele>
        <time>2011-02-06T10:42:21.39</time>
      </trkpt>
      <trkpt lat="44.94754" lon="5.60397">
        <ele>847.32906</ele>
        <time>2011-02-06T10:42:23.129</time>
      </trkpt>
      <trkpt lat="44.94752" lon="5.60396">
        <ele>847.32906</ele>
        <time>2011-02-06T10:42:25.153</time>
      </trkpt>
      <trkpt lat="44.94749" lon="5.60395">
        <ele>848.329052</ele>
        <time>2011-02-06T10:42:27.3</time>
      </trkpt>
      <trkpt lat="44.94746" lon="5.60394">
        <ele>849.329041</ele>
        <time>2011-02-06T10:42:29.6</time>
      </trkpt>
      <trkpt lat="44.94742" lon="5.60393">
        <ele>850.329029</ele>
        <time>2011-02-06T10:42:31.15</time>
      </trkpt>
      <trkpt lat="44.94737" lon="5.60393">
        <ele>850.329021</ele>
        <time>2011-02-06T10:42:33</time>
      </trkpt>
      <trkpt lat="44.94732" lon="5.60393">
        <ele>850.32901</ele>
        <time>2011-02-06T10:42:35.2</time>
      </trkpt>
      <trkpt lat="44.94727" lon="5.60394">
        <ele>851.329002</ele>
        <time>2011-02-06T10:42:37.28</time>
      </trkpt>
      <trkpt lat="44.94721" lon="5.60395">
        <ele>851.328987</ele>
        <time>2011-02-06T10:42:39.109</time>
      </trkpt>
      <trkpt lat="44.94714" lon="5.60396">
        <ele>851.328979</ele>
        <time>2011-02-06T10:42:41.10</time>
      </trkpt>
      <trkpt lat="44.94708" lon="5.60399">
        <ele>851.328968</ele>
        <time>2011-02-06T10:42:43.290</time>
      </trkpt>
      <trkpt lat="44.94702" lon="5.60403">
        <ele>851.328957</ele>
        <time>2011-02-06T10:42:45.7</time>
      </trkpt>
      <trkpt lat="44.94696" lon="5.60407">
        <ele>852.328953</ele>
        <time>2011-02-06T10:42:47.6</time>
      </trkpt>
      <trkpt lat="44.94692" lon="5.60411">
        <ele>853.328949</ele>
        <time>2011-02-06T10:42:49.7</time>
      </trkpt>
      <trkpt lat="44.94686" lon="5.60415">
        <ele>853.328941</ele>
        <time>2011-02-06T10:42:51.41</time>
      </trkpt>
      <trkpt lat="44.94681" lon="5.6042">
        <ele>853.328941</ele>
        <time>2011-02-06T10:42:53.55</time>
      </trkpt>
      <trkpt lat="44.94675" lon="5.60426">
        <ele>853.328934</ele>
        <time>2011-02-06T10:42:55.109</time>
      </trkpt>
      <trkpt lat="44.9467" lon="5.60432">
        <ele>854.328934</ele>
        <time>2011-02-06T10:42:57.104</time>
      </trkpt>
      <trkpt lat="44.94664" lon="5.60438">
        <ele>855.328926</ele>
        <time>2011-02-06T10:42:59.200</time>
      </trkpt>
      <trkpt lat="44.94659" lon="5.60444">
        <ele>855.32893</ele>
        <time>2011-02-06T10:43:01.7</time>
      </trkpt>
      <trkpt lat="44.94655" lon="5.60451">
        <ele>856.32893</ele>
        <time>2011-02-06T10:43:03.7</time>
      </trkpt>
      <trkpt lat="44.9465" lon="5.60457">
        <ele>856.328926</ele>
        <time>2011-02-06T10:43:05.2</time>
      </trkpt>
      <trkpt lat="44.94646" lon="5.60464">
        <ele>857.32893</ele>
        <time>2011-02-06T10:43:07.6</time>
      </trkpt>
      <trkpt lat="44.94642" lon="5.6047">
        <ele>857.32893</ele>
        <time>2011-02-06T10:43:09.39</time>
      </trkpt>
      <trkpt lat="44.94637" lon="5.60476">
        <ele>857.328926</ele>
        <time>2011-02-06T10:43:11.33</time>
      </trkpt>
      <trkpt lat="44.94633" lon="5.60482">
        <ele>857.328926</ele>
        <time>2011-02-06T10:43:13.158</time>
      </trkpt>
      <trkpt lat="44.94629" lon="5.60488">
        <ele>858.32893</ele>
        <time>2011-02-06T10:43:15.1</time>
      </trkpt>
      <trkpt lat="44.94625" lon="5.60493">
        <ele>859.32893</ele>
        <time>2011-02-06T10:43:17.1</time>
      </trkpt>
      <trkpt lat="44.94621" lon="5.60499">
        <ele>859.328926</ele>
        <time>2011-02-06T10:43:19.4</time>
      </trkpt>
      <trkpt lat="44.94617" lon="5.60504">
        <ele>860.32893</ele>
        <time>2011-02-06T10:43:21.3</time>
      </trkpt>
      <trkpt lat="44.94612" lon="5.60508">
        <ele>861.328926</ele>
        <time>2011-02-06T10:43:23.61</time>
      </trkpt>
      <trkpt lat="44.94608" lon="5.60513">
        <ele>862.328918</ele>
        <time>2011-02-06T10:43:25.57</time>
      </trkpt>
      <trkpt lat="44.94603" lon="5.60517">
        <ele>862.328911</ele>
        <time>2011-02-06T10:43:27.176</time>
      </trkpt>
      <trkpt lat="44.94597" lon="5.60525">
        <ele>863.328915</ele>
        <time>2011-02-06T10:43:30.2</time>
      </trkpt>
      <trkpt lat="44.94592" lon="5.6053">
        <ele>863.328911</ele>
        <time>2011-02-06T10:43:32</time>
      </trkpt>
      <trkpt lat="44.94587" lon="5.60535">
        <ele>863.328911</ele>
        <time>2011-02-06T10:43:34.5</time>
      </trkpt>
      <trkpt lat="44.94582" lon="5.6054">
        <ele>864.328907</ele>
        <time>2011-02-06T10:43:36.102</time>
      </trkpt>
      <trkpt lat="44.9458" lon="5.60542">
        <ele>864.328903</ele>
        <time>2011-02-06T10:43:38.98</time>
      </trkpt>
      <trkpt lat="44.94576" lon="5.60546">
        <ele>864.328899</ele>
        <time>2011-02-06T10:43:40.172</time>
      </trkpt>
      <trkpt lat="44.94573" lon="5.6055">
        <ele>863.328899</ele>
        <time>2011-02-06T10:43:42.6</time>
      </trkpt>
      <trkpt lat="44.94569" lon="5.60554">
        <ele>863.328896</ele>
        <time>2011-02-06T10:43:44.14</time>
      </trkpt>
      <trkpt lat="44.94564" lon="5.60558">
        <ele>863.328892</ele>
        <time>2011-02-06T10:43:46.5</time>
      </trkpt>
      <trkpt lat="44.94559" lon="5.60562">
        <ele>863.328888</ele>
        <time>2011-02-06T10:43:48</time>
      </trkpt>
      <trkpt lat="44.94554" lon="5.60566">
        <ele>863.32888</ele>
        <time>2011-02-06T10:43:50.48</time>
      </trkpt>
      <trkpt lat="44.94548" lon="5.6057">
        <ele>864.328876</ele>
        <time>2011-02-06T10:43:52.87</time>
      </trkpt>
      <trkpt lat="44.94541" lon="5.60575">
        <ele>864.328869</ele>
        <time>2011-02-06T10:43:54.1</time>
      </trkpt>
      <trkpt lat="44.94534" lon="5.60579">
        <ele>863.328861</ele>
        <time>2011-02-06T10:43:56.2</time>
      </trkpt>
      <trkpt lat="44.94527" lon="5.60584">
        <ele>863.32885</ele>
        <time>2011-02-06T10:43:58.39</time>
      </trkpt>
      <trkpt lat="44.9452" lon="5.60589">
        <ele>863.328842</ele>
        <time>2011-02-06T10:44:00.95</time>
      </trkpt>
      <trkpt lat="44.94514" lon="5.60593">
        <ele>862.328835</ele>
        <time>2011-02-06T10:44:02.110</time>
      </trkpt>
      <trkpt lat="44.94507" lon="5.60598">
        <ele>861.328827</ele>
        <time>2011-02-06T10:44:04.151</time>
      </trkpt>
      <trkpt lat="44.945" lon="5.60602">
        <ele>861.328819</ele>
        <time>2011-02-06T10:44:06.62</time>
      </trkpt>
      <trkpt lat="44.94494" lon="5.60607">
        <ele>861.328812</ele>
        <time>2011-02-06T10:44:08.234</time>
      </trkpt>
      <trkpt lat="44.94488" lon="5.60611">
        <ele>860.328808</ele>
        <time>2011-02-06T10:44:10.234</time>
      </trkpt>
      <trkpt lat="44.94481" lon="5.60615">
        <ele>860.328796</ele>
        <time>2011-02-06T10:44:12.5</time>
      </trkpt>
      <trkpt lat="44.9447" lon="5.6062">
        <ele>860.328781</ele>
        <time>2011-02-06T10:44:15.1</time>
      </trkpt>
      <trkpt lat="44.94462" lon="5.60623">
        <ele>859.328766</ele>
        <time>2011-02-06T10:44:17.1</time>
      </trkpt>
      <trkpt lat="44.94454" lon="5.60627">
        <ele>859.328754</ele>
        <time>2011-02-06T10:44:19.5</time>
      </trkpt>
      <trkpt lat="44.94445" lon="5.6063">
        <ele>858.328739</ele>
        <time>2011-02-06T10:44:21.49</time>
      </trkpt>
      <trkpt lat="44.94437" lon="5.60633">
        <ele>857.328728</ele>
        <time>2011-02-06T10:44:23.153</time>
      </trkpt>
      <trkpt lat="44.9443" lon="5.60635">
        <ele>857.328716</ele>
        <time>2011-02-06T10:44:25.116</time>
      </trkpt>
      <trkpt lat="44.94422" lon="5.60636">
        <ele>857.328701</ele>
        <time>2011-02-06T10:44:27.96</time>
      </trkpt>
      <trkpt lat="44.94414" lon="5.60636">
        <ele>856.328678</ele>
        <time>2011-02-06T10:44:29.1</time>
      </trkpt>
      <trkpt lat="44.94406" lon="5.60634">
        <ele>857.328663</ele>
        <time>2011-02-06T10:44:31.4</time>
      </trkpt>
      <trkpt lat="44.94396" lon="5.60633">
        <ele>856.328636</ele>
        <time>2011-02-06T10:44:33.4</time>
      </trkpt>
      <trkpt lat="44.94385" lon="5.6063">
        <ele>856.328613</ele>
        <time>2011-02-06T10:44:35.57</time>
      </trkpt>
      <trkpt lat="44.94374" lon="5.60628">
        <ele>855.328583</ele>
        <time>2011-02-06T10:44:37.54</time>
      </trkpt>
      <trkpt lat="44.94363" lon="5.60626">
        <ele>855.328556</ele>
        <time>2011-02-06T10:44:39.46</time>
      </trkpt>
      <trkpt lat="44.94353" lon="5.60625">
        <ele>855.328529</ele>
        <time>2011-02-06T10:44:41.27</time>
      </trkpt>
      <trkpt lat="44.94344" lon="5.60625">
        <ele>855.32851</ele>
        <time>2011-02-06T10:44:43.16</time>
      </trkpt>
      <trkpt lat="44.94334" lon="5.60625">
        <ele>855.328491</ele>
        <time>2011-02-06T10:44:45.109</time>
      </trkpt>
      <trkpt lat="44.94326" lon="5.60626">
        <ele>855.328472</ele>
        <time>2011-02-06T10:44:47.2</time>
      </trkpt>
      <trkpt lat="44.9432" lon="5.60628">
        <ele>855.328465</ele>
        <time>2011-02-06T10:44:49.3</time>
      </trkpt>
      <trkpt lat="44.94317" lon="5.60629">
        <ele>854.328461</ele>
        <time>2011-02-06T10:44:51.62</time>
      </trkpt>
      <trkpt lat="44.94311" lon="5.60637">
        <ele>846.328457</ele>
        <time>2011-02-06T10:45:53.3</time>
      </trkpt>
      <trkpt lat="44.94306" lon="5.6064">
        <ele>846.328453</ele>
        <time>2011-02-06T10:45:55.6</time>
      </trkpt>
      <trkpt lat="44.943" lon="5.60644">
        <ele>846.328445</ele>
        <time>2011-02-06T10:45:57.5</time>
      </trkpt>
      <trkpt lat="44.94293" lon="5.60648">
        <ele>847.328434</ele>
        <time>2011-02-06T10:45:59</time>
      </trkpt>
      <trkpt lat="44.94287" lon="5.60652">
        <ele>848.328426</ele>
        <time>2011-02-06T10:46:01.6</time>
      </trkpt>
      <trkpt lat="44.94281" lon="5.60656">
        <ele>848.328419</ele>
        <time>2011-02-06T10:46:03.3</time>
      </trkpt>
      <trkpt lat="44.94272" lon="5.60664">
        <ele>848.328415</ele>
        <time>2011-02-06T10:46:06.4</time>
      </trkpt>
      <trkpt lat="44.94266" lon="5.6067">
        <ele>849.328407</ele>
        <time>2011-02-06T10:46:08.1</time>
      </trkpt>
      <trkpt lat="44.9426" lon="5.60677">
        <ele>849.328407</ele>
        <time>2011-02-06T10:46:10.3</time>
      </trkpt>
      <trkpt lat="44.94253" lon="5.60684">
        <ele>850.328403</ele>
        <time>2011-02-06T10:46:12.6</time>
      </trkpt>
      <trkpt lat="44.94246" lon="5.60692">
        <ele>851.3284</ele>
        <time>2011-02-06T10:46:14.16</time>
      </trkpt>
      <trkpt lat="44.94238" lon="5.60699">
        <ele>851.328392</ele>
        <time>2011-02-06T10:46:16.5</time>
      </trkpt>
      <trkpt lat="44.9423" lon="5.60707">
        <ele>852.328388</ele>
        <time>2011-02-06T10:46:18.10</time>
      </trkpt>
      <trkpt lat="44.94223" lon="5.60715">
        <ele>852.328384</ele>
        <time>2011-02-06T10:46:20</time>
      </trkpt>
      <trkpt lat="44.94215" lon="5.60723">
        <ele>852.328377</ele>
        <time>2011-02-06T10:46:22.7</time>
      </trkpt>
      <trkpt lat="44.94207" lon="5.6073">
        <ele>853.328369</ele>
        <time>2011-02-06T10:46:24.4</time>
      </trkpt>
      <trkpt lat="44.94199" lon="5.60736">
        <ele>853.328362</ele>
        <time>2011-02-06T10:46:26.1</time>
      </trkpt>
      <trkpt lat="44.94193" lon="5.60742">
        <ele>853.328362</ele>
        <time>2011-02-06T10:46:28.121</time>
      </trkpt>
      <trkpt lat="44.94189" lon="5.60747">
        <ele>854.328358</ele>
        <time>2011-02-06T10:46:30.4</time>
      </trkpt>
      <trkpt lat="44.94186" lon="5.60749">
        <ele>854.328358</ele>
        <time>2011-02-06T10:46:33.4</time>
      </trkpt>
      <trkpt lat="44.94182" lon="5.60749">
        <ele>855.328346</ele>
        <time>2011-02-06T10:46:41.33</time>
      </trkpt>
      <trkpt lat="44.94182" lon="5.60749">
        <ele>856.328346</ele>
        <time>2011-02-06T10:46:43.4</time>
      </trkpt>
      <trkpt lat="44.94184" lon="5.6075">
        <ele>856.32835</ele>
        <time>2011-02-06T10:46:48.4</time>
      </trkpt>
      <trkpt lat="44.94187" lon="5.6075">
        <ele>855.328358</ele>
        <time>2011-02-06T10:46:50.2</time>
      </trkpt>
      <trkpt lat="44.94191" lon="5.6075">
        <ele>856.328369</ele>
        <time>2011-02-06T10:46:52.45</time>
      </trkpt>
      <trkpt lat="44.94196" lon="5.6075">
        <ele>855.328381</ele>
        <time>2011-02-06T10:46:54.1</time>
      </trkpt>
      <trkpt lat="44.94203" lon="5.60749">
        <ele>855.328392</ele>
        <time>2011-02-06T10:46:57.6</time>
      </trkpt>
      <trkpt lat="44.94208" lon="5.60747">
        <ele>855.3284</ele>
        <time>2011-02-06T10:46:59.1</time>
      </trkpt>
      <trkpt lat="44.94213" lon="5.60745">
        <ele>855.328407</ele>
        <time>2011-02-06T10:47:01</time>
      </trkpt>
      <trkpt lat="44.94217" lon="5.60743">
        <ele>856.328411</ele>
        <time>2011-02-06T10:47:03.1</time>
      </trkpt>
      <trkpt lat="44.94222" lon="5.6074">
        <ele>857.328419</ele>
        <time>2011-02-06T10:47:05</time>
      </trkpt>
      <trkpt lat="44.94226" lon="5.60737">
        <ele>856.328423</ele>
        <time>2011-02-06T10:47:07.113</time>
      </trkpt>
      <trkpt lat="44.9423" lon="5.60734">
        <ele>855.32843</ele>
        <time>2011-02-06T10:47:09.6</time>
      </trkpt>
      <trkpt lat="44.94234" lon="5.60731">
        <ele>855.328438</ele>
        <time>2011-02-06T10:47:11</time>
      </trkpt>
      <trkpt lat="44.94238" lon="5.60728">
        <ele>855.328438</ele>
        <time>2011-02-06T10:47:13.7</time>
      </trkpt>
      <trkpt lat="44.94244" lon="5.60723">
        <ele>856.328442</ele>
        <time>2011-02-06T10:47:16.5</time>
      </trkpt>
      <trkpt lat="44.94248" lon="5.60719">
        <ele>856.328442</ele>
        <time>2011-02-06T10:47:18.5</time>
      </trkpt>
      <trkpt lat="44.94252" lon="5.60716">
        <ele>857.328449</ele>
        <time>2011-02-06T10:47:20</time>
      </trkpt>
      <trkpt lat="44.94256" lon="5.60712">
        <ele>857.328453</ele>
        <time>2011-02-06T10:47:22.3</time>
      </trkpt>
      <trkpt lat="44.9426" lon="5.60709">
        <ele>857.328457</ele>
        <time>2011-02-06T10:47:24.2</time>
      </trkpt>
      <trkpt lat="44.94264" lon="5.60705">
        <ele>858.328461</ele>
        <time>2011-02-06T10:47:26.2</time>
      </trkpt>
      <trkpt lat="44.94268" lon="5.60701">
        <ele>859.328461</ele>
        <time>2011-02-06T10:47:28.4</time>
      </trkpt>
      <trkpt lat="44.94272" lon="5.60698">
        <ele>860.328468</ele>
        <time>2011-02-06T10:47:30.1</time>
      </trkpt>
      <trkpt lat="44.94277" lon="5.60695">
        <ele>860.328472</ele>
        <time>2011-02-06T10:47:32.15</time>
      </trkpt>
      <trkpt lat="44.94281" lon="5.60692">
        <ele>861.328476</ele>
        <time>2011-02-06T10:47:34.4</time>
      </trkpt>
      <trkpt lat="44.94287" lon="5.60687">
        <ele>861.328484</ele>
        <time>2011-02-06T10:47:37.1</time>
      </trkpt>
      <trkpt lat="44.9429" lon="5.60685">
        <ele>861.328484</ele>
        <time>2011-02-06T10:47:39</time>
      </trkpt>
      <trkpt lat="44.94293" lon="5.60683">
        <ele>862.328484</ele>
        <time>2011-02-06T10:47:41</time>
      </trkpt>
      <trkpt lat="44.94301" lon="5.60676">
        <ele>863.328499</ele>
        <time>2011-02-06T10:47:45.2</time>
      </trkpt>
      <trkpt lat="44.94305" lon="5.60673">
        <ele>864.328499</ele>
        <time>2011-02-06T10:47:47.3</time>
      </trkpt>
      <trkpt lat="44.9431" lon="5.6067">
        <ele>865.328503</ele>
        <time>2011-02-06T10:47:49.5</time>
      </trkpt>
      <trkpt lat="44.94315" lon="5.60667">
        <ele>865.328514</ele>
        <time>2011-02-06T10:47:51.4</time>
      </trkpt>
      <trkpt lat="44.94325" lon="5.60664">
        <ele>867.328526</ele>
        <time>2011-02-06T10:47:55.6</time>
      </trkpt>
      <trkpt lat="44.94333" lon="5.60664">
        <ele>867.328545</ele>
        <time>2011-02-06T10:47:58.4</time>
      </trkpt>
      <trkpt lat="44.94347" lon="5.60664">
        <ele>869.328579</ele>
        <time>2011-02-06T10:48:03.4</time>
      </trkpt>
      <trkpt lat="44.94352" lon="5.60664">
        <ele>868.32859</ele>
        <time>2011-02-06T10:48:05.18</time>
      </trkpt>
      <trkpt lat="44.94357" lon="5.60665">
        <ele>867.328606</ele>
        <time>2011-02-06T10:48:07.23</time>
      </trkpt>
      <trkpt lat="44.94363" lon="5.60665">
        <ele>867.328613</ele>
        <time>2011-02-06T10:48:09.3</time>
      </trkpt>
      <trkpt lat="44.94368" lon="5.60665">
        <ele>867.328629</ele>
        <time>2011-02-06T10:48:11.2</time>
      </trkpt>
      <trkpt lat="44.94373" lon="5.60664">
        <ele>867.328636</ele>
        <time>2011-02-06T10:48:13.5</time>
      </trkpt>
      <trkpt lat="44.94378" lon="5.60664">
        <ele>867.328648</ele>
        <time>2011-02-06T10:48:15.5</time>
      </trkpt>
      <trkpt lat="44.94383" lon="5.60663">
        <ele>866.328655</ele>
        <time>2011-02-06T10:48:17.29</time>
      </trkpt>
      <trkpt lat="44.94388" lon="5.60663">
        <ele>864.328667</ele>
        <time>2011-02-06T10:48:19.3</time>
      </trkpt>
      <trkpt lat="44.944" lon="5.60661">
        <ele>863.32869</ele>
        <time>2011-02-06T10:48:25.999</time>
      </trkpt>
      <trkpt lat="44.94412" lon="5.60665">
        <ele>862.32872</ele>
        <time>2011-02-06T10:48:32.1</time>
      </trkpt>
      <trkpt lat="44.94421" lon="5.60664">
        <ele>862.328739</ele>
        <time>2011-02-06T10:48:35.996</time>
      </trkpt>
      <trkpt lat="44.94432" lon="5.60662">
        <ele>862.328758</ele>
        <time>2011-02-06T10:48:40.1</time>
      </trkpt>
      <trkpt lat="44.94444" lon="5.60661">
        <ele>864.328789</ele>
        <time>2011-02-06T10:48:44.999</time>
      </trkpt>
      <trkpt lat="44.94453" lon="5.60658">
        <ele>866.328804</ele>
        <time>2011-02-06T10:48:51</time>
      </trkpt>
      <trkpt lat="44.9447" lon="5.60651">
        <ele>868.328831</ele>
        <time>2011-02-06T10:49:01.1</time>
      </trkpt>
      <trkpt lat="44.94484" lon="5.60646">
        <ele>868.328854</ele>
        <time>2011-02-06T10:49:04.17</time>
      </trkpt>
      <trkpt lat="44.94495" lon="5.6064">
        <ele>867.328869</ele>
        <time>2011-02-06T10:49:06.3</time>
      </trkpt>
      <trkpt lat="44.94506" lon="5.60635">
        <ele>868.32888</ele>
        <time>2011-02-06T10:49:08.1</time>
      </trkpt>
      <trkpt lat="44.94515" lon="5.60629">
        <ele>867.328896</ele>
        <time>2011-02-06T10:49:10.101</time>
      </trkpt>
      <trkpt lat="44.94524" lon="5.60623">
        <ele>867.328903</ele>
        <time>2011-02-06T10:49:12</time>
      </trkpt>
      <trkpt lat="44.94531" lon="5.60618">
        <ele>867.328915</ele>
        <time>2011-02-06T10:49:14.1</time>
      </trkpt>
      <trkpt lat="44.94538" lon="5.60613">
        <ele>866.328915</ele>
        <time>2011-02-06T10:49:16.4</time>
      </trkpt>
      <trkpt lat="44.94544" lon="5.60607">
        <ele>866.328922</ele>
        <time>2011-02-06T10:49:18</time>
      </trkpt>
      <trkpt lat="44.9455" lon="5.60602">
        <ele>866.32893</ele>
        <time>2011-02-06T10:49:20.15</time>
      </trkpt>
      <trkpt lat="44.94556" lon="5.60598">
        <ele>866.328938</ele>
        <time>2011-02-06T10:49:22.3</time>
      </trkpt>
      <trkpt lat="44.94561" lon="5.60593">
        <ele>866.328938</ele>
        <time>2011-02-06T10:49:24.1</time>
      </trkpt>
      <trkpt lat="44.94567" lon="5.60588">
        <ele>866.328949</ele>
        <time>2011-02-06T10:49:26.13</time>
      </trkpt>
      <trkpt lat="44.94572" lon="5.60584">
        <ele>867.328949</ele>
        <time>2011-02-06T10:49:28.1</time>
      </trkpt>
      <trkpt lat="44.94577" lon="5.60579">
        <ele>867.328957</ele>
        <time>2011-02-06T10:49:30.75</time>
      </trkpt>
      <trkpt lat="44.94583" lon="5.60574">
        <ele>867.328957</ele>
        <time>2011-02-06T10:49:32.30</time>
      </trkpt>
      <trkpt lat="44.94588" lon="5.6057">
        <ele>867.32896</ele>
        <time>2011-02-06T10:49:34.5</time>
      </trkpt>
      <trkpt lat="44.94593" lon="5.60565">
        <ele>867.328968</ele>
        <time>2011-02-06T10:49:36.1</time>
      </trkpt>
      <trkpt lat="44.94598" lon="5.60561">
        <ele>867.328972</ele>
        <time>2011-02-06T10:49:38</time>
      </trkpt>
      <trkpt lat="44.94602" lon="5.60556">
        <ele>867.328976</ele>
        <time>2011-02-06T10:49:40.4</time>
      </trkpt>
      <trkpt lat="44.94607" lon="5.60552">
        <ele>867.328979</ele>
        <time>2011-02-06T10:49:42.3</time>
      </trkpt>
      <trkpt lat="44.94611" lon="5.60547">
        <ele>867.328979</ele>
        <time>2011-02-06T10:49:44.53</time>
      </trkpt>
      <trkpt lat="44.94616" lon="5.60543">
        <ele>868.328983</ele>
        <time>2011-02-06T10:49:46.106</time>
      </trkpt>
      <trkpt lat="44.94623" lon="5.60537">
        <ele>867.328991</ele>
        <time>2011-02-06T10:49:49.3</time>
      </trkpt>
      <trkpt lat="44.94627" lon="5.60534">
        <ele>866.328995</ele>
        <time>2011-02-06T10:49:51.1</time>
      </trkpt>
      <trkpt lat="44.94633" lon="5.60528">
        <ele>866.328995</ele>
        <time>2011-02-06T10:49:53.999</time>
      </trkpt>
      <trkpt lat="44.94635" lon="5.60526">
        <ele>865.329002</ele>
        <time>2011-02-06T10:49:55.3</time>
      </trkpt>
      <trkpt lat="44.94641" lon="5.6052">
        <ele>865.329002</ele>
        <time>2011-02-06T10:49:58.4</time>
      </trkpt>
      <trkpt lat="44.94644" lon="5.60516">
        <ele>866.329006</ele>
        <time>2011-02-06T10:50:00.52</time>
      </trkpt>
      <trkpt lat="44.94649" lon="5.60511">
        <ele>867.329006</ele>
        <time>2011-02-06T10:50:03.1</time>
      </trkpt>
      <trkpt lat="44.94653" lon="5.60508">
        <ele>868.32901</ele>
        <time>2011-02-06T10:50:05.5</time>
      </trkpt>
      <trkpt lat="44.94658" lon="5.60504">
        <ele>869.329014</ele>
        <time>2011-02-06T10:50:07.995</time>
      </trkpt>
      <trkpt lat="44.94661" lon="5.60501">
        <ele>870.329021</ele>
        <time>2011-02-06T10:50:10.2</time>
      </trkpt>
      <trkpt lat="44.94665" lon="5.60497">
        <ele>870.329021</ele>
        <time>2011-02-06T10:50:12.3</time>
      </trkpt>
      <trkpt lat="44.94669" lon="5.60493">
        <ele>871.329025</ele>
        <time>2011-02-06T10:50:14.5</time>
      </trkpt>
      <trkpt lat="44.94674" lon="5.60489">
        <ele>871.329029</ele>
        <time>2011-02-06T10:50:16.24</time>
      </trkpt>
      <trkpt lat="44.9468" lon="5.60485">
        <ele>872.329033</ele>
        <time>2011-02-06T10:50:18.4</time>
      </trkpt>
      <trkpt lat="44.94685" lon="5.6048">
        <ele>873.329041</ele>
        <time>2011-02-06T10:50:20.1</time>
      </trkpt>
      <trkpt lat="44.94691" lon="5.60475">
        <ele>873.329048</ele>
        <time>2011-02-06T10:50:22.11</time>
      </trkpt>
      <trkpt lat="44.94697" lon="5.6047">
        <ele>875.329052</ele>
        <time>2011-02-06T10:50:24</time>
      </trkpt>
      <trkpt lat="44.94702" lon="5.60465">
        <ele>876.329056</ele>
        <time>2011-02-06T10:50:26.7</time>
      </trkpt>
      <trkpt lat="44.94708" lon="5.6046">
        <ele>877.32906</ele>
        <time>2011-02-06T10:50:28.3</time>
      </trkpt>
      <trkpt lat="44.94713" lon="5.60455">
        <ele>877.329063</ele>
        <time>2011-02-06T10:50:30.1</time>
      </trkpt>
      <trkpt lat="44.94718" lon="5.60451">
        <ele>877.329067</ele>
        <time>2011-02-06T10:50:32.23</time>
      </trkpt>
      <trkpt lat="44.94723" lon="5.60447">
        <ele>877.329075</ele>
        <time>2011-02-06T10:50:34.1</time>
      </trkpt>
      <trkpt lat="44.94725" lon="5.60444">
        <ele>876.329071</ele>
        <time>2011-02-06T10:50:36.1</time>
      </trkpt>
      <trkpt lat="44.94729" lon="5.60441">
        <ele>875.329079</ele>
        <time>2011-02-06T10:50:38</time>
      </trkpt>
      <trkpt lat="44.94744" lon="5.60438">
        <ele>872.329105</ele>
        <time>2011-02-06T10:50:44.4</time>
      </trkpt>
      <trkpt lat="44.9475" lon="5.60438">
        <ele>870.329117</ele>
        <time>2011-02-06T10:50:46.31</time>
      </trkpt>
      <trkpt lat="44.94755" lon="5.60437">
        <ele>868.329124</ele>
        <time>2011-02-06T10:50:48.1</time>
      </trkpt>
      <trkpt lat="44.94763" lon="5.60437">
        <ele>865.329144</ele>
        <time>2011-02-06T10:50:51.1</time>
      </trkpt>
      <trkpt lat="44.94771" lon="5.60438">
        <ele>863.329163</ele>
        <time>2011-02-06T10:50:54</time>
      </trkpt>
      <trkpt lat="44.94778" lon="5.60439">
        <ele>861.329185</ele>
        <time>2011-02-06T10:50:57</time>
      </trkpt>
      <trkpt lat="44.94783" lon="5.6044">
        <ele>860.329193</ele>
        <time>2011-02-06T10:50:59.1</time>
      </trkpt>
      <trkpt lat="44.94788" lon="5.60441">
        <ele>858.329208</ele>
        <time>2011-02-06T10:51:01.137</time>
      </trkpt>
      <trkpt lat="44.94793" lon="5.60442">
        <ele>857.32922</ele>
        <time>2011-02-06T10:51:03.66</time>
      </trkpt>
      <trkpt lat="44.94801" lon="5.60446">
        <ele>855.329243</ele>
        <time>2011-02-06T10:51:06.3</time>
      </trkpt>
      <trkpt lat="44.94809" lon="5.60449">
        <ele>854.329266</ele>
        <time>2011-02-06T10:51:09.1</time>
      </trkpt>
      <trkpt lat="44.94817" lon="5.60452">
        <ele>853.329288</ele>
        <time>2011-02-06T10:51:11.998</time>
      </trkpt>
      <trkpt lat="44.9482" lon="5.60453">
        <ele>852.329296</ele>
        <time>2011-02-06T10:51:13.4</time>
      </trkpt>
      <trkpt lat="44.94826" lon="5.60454">
        <ele>851.329308</ele>
        <time>2011-02-06T10:51:15</time>
      </trkpt>
      <trkpt lat="44.94832" lon="5.60456">
        <ele>850.329323</ele>
        <time>2011-02-06T10:51:17.36</time>
      </trkpt>
      <trkpt lat="44.94838" lon="5.60458">
        <ele>849.329338</ele>
        <time>2011-02-06T10:51:19.8</time>
      </trkpt>
      <trkpt lat="44.94843" lon="5.6046">
        <ele>847.329353</ele>
        <time>2011-02-06T10:51:21.1</time>
      </trkpt>
      <trkpt lat="44.94848" lon="5.60461">
        <ele>847.329372</ele>
        <time>2011-02-06T10:51:23.53</time>
      </trkpt>
      <trkpt lat="44.94854" lon="5.60463">
        <ele>845.329384</ele>
        <time>2011-02-06T10:51:25.3</time>
      </trkpt>
      <trkpt lat="44.94863" lon="5.60467">
        <ele>844.329414</ele>
        <time>2011-02-06T10:51:28.1</time>
      </trkpt>
      <trkpt lat="44.94869" lon="5.60469">
        <ele>843.329426</ele>
        <time>2011-02-06T10:51:30.3</time>
      </trkpt>
      <trkpt lat="44.94875" lon="5.60471">
        <ele>843.329441</ele>
        <time>2011-02-06T10:51:32.20</time>
      </trkpt>
      <trkpt lat="44.9488" lon="5.60473">
        <ele>842.329456</ele>
        <time>2011-02-06T10:51:34.3</time>
      </trkpt>
      <trkpt lat="44.94889" lon="5.60476">
        <ele>841.329483</ele>
        <time>2011-02-06T10:51:37.4</time>
      </trkpt>
      <trkpt lat="44.94894" lon="5.60478">
        <ele>841.329498</ele>
        <time>2011-02-06T10:51:39.31</time>
      </trkpt>
      <trkpt lat="44.94903" lon="5.60481">
        <ele>840.329517</ele>
        <time>2011-02-06T10:51:42</time>
      </trkpt>
      <trkpt lat="44.94911" lon="5.60484">
        <ele>840.329544</ele>
        <time>2011-02-06T10:51:45.5</time>
      </trkpt>
      <trkpt lat="44.94916" lon="5.60486">
        <ele>840.329552</ele>
        <time>2011-02-06T10:51:47.2</time>
      </trkpt>
      <trkpt lat="44.94921" lon="5.60488">
        <ele>840.329575</ele>
        <time>2011-02-06T10:51:49</time>
      </trkpt>
      <trkpt lat="44.94927" lon="5.6049">
        <ele>840.329586</ele>
        <time>2011-02-06T10:51:51.4</time>
      </trkpt>
      <trkpt lat="44.94934" lon="5.60493">
        <ele>839.329609</ele>
        <time>2011-02-06T10:51:54.2</time>
      </trkpt>
      <trkpt lat="44.94939" lon="5.60496">
        <ele>839.32962</ele>
        <time>2011-02-06T10:51:56</time>
      </trkpt>
      <trkpt lat="44.94943" lon="5.60499">
        <ele>839.329636</ele>
        <time>2011-02-06T10:51:58.3</time>
      </trkpt>
      <trkpt lat="44.94946" lon="5.60502">
        <ele>839.329647</ele>
        <time>2011-02-06T10:52:00.4</time>
      </trkpt>
      <trkpt lat="44.94945" lon="5.60511">
        <ele>839.329659</ele>
        <time>2011-02-06T10:52:03.10</time>
      </trkpt>
      <trkpt lat="44.94943" lon="5.60516">
        <ele>839.329662</ele>
        <time>2011-02-06T10:52:05.4</time>
      </trkpt>
      <trkpt lat="44.9494" lon="5.60521">
        <ele>839.329662</ele>
        <time>2011-02-06T10:52:07.1</time>
      </trkpt>
      <trkpt lat="44.94937" lon="5.60526">
        <ele>839.329666</ele>
        <time>2011-02-06T10:52:09.4</time>
      </trkpt>
      <trkpt lat="44.94935" lon="5.60532">
        <ele>839.32967</ele>
        <time>2011-02-06T10:52:11.35</time>
      </trkpt>
      <trkpt lat="44.94932" lon="5.60537">
        <ele>839.32967</ele>
        <time>2011-02-06T10:52:13.52</time>
      </trkpt>
      <trkpt lat="44.94929" lon="5.60542">
        <ele>839.32967</ele>
        <time>2011-02-06T10:52:15</time>
      </trkpt>
      <trkpt lat="44.94925" lon="5.6055">
        <ele>838.329674</ele>
        <time>2011-02-06T10:52:18.6</time>
      </trkpt>
      <trkpt lat="44.94922" lon="5.60558">
        <ele>839.329678</ele>
        <time>2011-02-06T10:52:21.1</time>
      </trkpt>
      <trkpt lat="44.94918" lon="5.60567">
        <ele>839.329681</ele>
        <time>2011-02-06T10:52:24.2</time>
      </trkpt>
      <trkpt lat="44.94914" lon="5.60575">
        <ele>839.329689</ele>
        <time>2011-02-06T10:52:27</time>
      </trkpt>
      <trkpt lat="44.9491" lon="5.60584">
        <ele>840.329693</ele>
        <time>2011-02-06T10:52:30</time>
      </trkpt>
      <trkpt lat="44.94907" lon="5.6059">
        <ele>840.329697</ele>
        <time>2011-02-06T10:52:32.1</time>
      </trkpt>
      <trkpt lat="44.94902" lon="5.60599">
        <ele>840.329697</ele>
        <time>2011-02-06T10:52:34.997</time>
      </trkpt>
      <trkpt lat="44.94901" lon="5.60602">
        <ele>840.329704</ele>
        <time>2011-02-06T10:52:36</time>
      </trkpt>
      <trkpt lat="44.94896" lon="5.6061">
        <ele>840.329704</ele>
        <time>2011-02-06T10:52:39</time>
      </trkpt>
      <trkpt lat="44.94893" lon="5.60616">
        <ele>839.329704</ele>
        <time>2011-02-06T10:52:41.5</time>
      </trkpt>
      <trkpt lat="44.9489" lon="5.60622">
        <ele>839.329704</ele>
        <time>2011-02-06T10:52:43.3</time>
      </trkpt>
      <trkpt lat="44.94888" lon="5.60627">
        <ele>840.329712</ele>
        <time>2011-02-06T10:52:45.61</time>
      </trkpt>
      <trkpt lat="44.94886" lon="5.60633">
        <ele>841.329712</ele>
        <time>2011-02-06T10:52:47.3</time>
      </trkpt>
      <trkpt lat="44.94883" lon="5.60638">
        <ele>841.32972</ele>
        <time>2011-02-06T10:52:49.1</time>
      </trkpt>
      <trkpt lat="44.94881" lon="5.60643">
        <ele>842.32972</ele>
        <time>2011-02-06T10:52:51.19</time>
      </trkpt>
      <trkpt lat="44.94879" lon="5.60648">
        <ele>842.329723</ele>
        <time>2011-02-06T10:52:53.5</time>
      </trkpt>
      <trkpt lat="44.94876" lon="5.60657">
        <ele>842.329727</ele>
        <time>2011-02-06T10:52:55.996</time>
      </trkpt>
      <trkpt lat="44.94875" lon="5.6066">
        <ele>842.329731</ele>
        <time>2011-02-06T10:52:57.3</time>
      </trkpt>
      <trkpt lat="44.94873" lon="5.60665">
        <ele>842.329735</ele>
        <time>2011-02-06T10:52:59.6</time>
      </trkpt>
      <trkpt lat="44.9487" lon="5.60672">
        <ele>841.329739</ele>
        <time>2011-02-06T10:53:01.1</time>
      </trkpt>
      <trkpt lat="44.94867" lon="5.60681">
        <ele>841.329746</ele>
        <time>2011-02-06T10:53:04.1</time>
      </trkpt>
      <trkpt lat="44.94865" lon="5.60687">
        <ele>841.32975</ele>
        <time>2011-02-06T10:53:06.4</time>
      </trkpt>
      <trkpt lat="44.94863" lon="5.60693">
        <ele>842.329754</ele>
        <time>2011-02-06T10:53:08.109</time>
      </trkpt>
      <trkpt lat="44.94861" lon="5.60698">
        <ele>842.329758</ele>
        <time>2011-02-06T10:53:10.11</time>
      </trkpt>
      <trkpt lat="44.94859" lon="5.60703">
        <ele>842.329762</ele>
        <time>2011-02-06T10:53:12.5</time>
      </trkpt>
      <trkpt lat="44.94856" lon="5.60709">
        <ele>842.329765</ele>
        <time>2011-02-06T10:53:14</time>
      </trkpt>
      <trkpt lat="44.94854" lon="5.60714">
        <ele>842.329765</ele>
        <time>2011-02-06T10:53:16.3</time>
      </trkpt>
      <trkpt lat="44.94851" lon="5.60719">
        <ele>841.329769</ele>
        <time>2011-02-06T10:53:18.1</time>
      </trkpt>
      <trkpt lat="44.94848" lon="5.60724">
        <ele>841.329769</ele>
        <time>2011-02-06T10:53:20.2</time>
      </trkpt>
      <trkpt lat="44.94845" lon="5.6073">
        <ele>841.329773</ele>
        <time>2011-02-06T10:53:22.7</time>
      </trkpt>
      <trkpt lat="44.94843" lon="5.60736">
        <ele>841.329773</ele>
        <time>2011-02-06T10:53:24.5</time>
      </trkpt>
      <trkpt lat="44.9484" lon="5.60741">
        <ele>841.329777</ele>
        <time>2011-02-06T10:53:26</time>
      </trkpt>
      <trkpt lat="44.94837" lon="5.60747">
        <ele>841.329781</ele>
        <time>2011-02-06T10:53:28.6</time>
      </trkpt>
      <trkpt lat="44.94834" lon="5.60752">
        <ele>841.329781</ele>
        <time>2011-02-06T10:53:30.6</time>
      </trkpt>
      <trkpt lat="44.94831" lon="5.60759">
        <ele>841.329784</ele>
        <time>2011-02-06T10:53:33.7</time>
      </trkpt>
      <trkpt lat="44.9483" lon="5.60764">
        <ele>842.329792</ele>
        <time>2011-02-06T10:53:35.3</time>
      </trkpt>
      <trkpt lat="44.94828" lon="5.6077">
        <ele>842.329796</ele>
        <time>2011-02-06T10:53:37.3</time>
      </trkpt>
      <trkpt lat="44.94826" lon="5.60776">
        <ele>842.329803</ele>
        <time>2011-02-06T10:53:39.2</time>
      </trkpt>
      <trkpt lat="44.94824" lon="5.60783">
        <ele>843.329811</ele>
        <time>2011-02-06T10:53:41.2</time>
      </trkpt>
      <trkpt lat="44.94822" lon="5.6079">
        <ele>843.329811</ele>
        <time>2011-02-06T10:53:43.7</time>
      </trkpt>
      <trkpt lat="44.9482" lon="5.60796">
        <ele>844.329819</ele>
        <time>2011-02-06T10:53:45.3</time>
      </trkpt>
      <trkpt lat="44.94818" lon="5.60803">
        <ele>844.329826</ele>
        <time>2011-02-06T10:53:47</time>
      </trkpt>
      <trkpt lat="44.94816" lon="5.6081">
        <ele>844.329834</ele>
        <time>2011-02-06T10:53:49.7</time>
      </trkpt>
      <trkpt lat="44.94814" lon="5.60817">
        <ele>844.329838</ele>
        <time>2011-02-06T10:53:51.1</time>
      </trkpt>
      <trkpt lat="44.94811" lon="5.60826">
        <ele>844.329842</ele>
        <time>2011-02-06T10:53:54.3</time>
      </trkpt>
      <trkpt lat="44.94808" lon="5.60831">
        <ele>844.329845</ele>
        <time>2011-02-06T10:53:56.45</time>
      </trkpt>
      <trkpt lat="44.94806" lon="5.60837">
        <ele>845.329849</ele>
        <time>2011-02-06T10:53:58.2</time>
      </trkpt>
      <trkpt lat="44.94803" lon="5.60842">
        <ele>847.329849</ele>
        <time>2011-02-06T10:54:00.5</time>
      </trkpt>
      <trkpt lat="44.94801" lon="5.60849">
        <ele>847.329857</ele>
        <time>2011-02-06T10:54:02.22</time>
      </trkpt>
      <trkpt lat="44.94799" lon="5.60855">
        <ele>848.329865</ele>
        <time>2011-02-06T10:54:04.5</time>
      </trkpt>
      <trkpt lat="44.94796" lon="5.60865">
        <ele>848.329868</ele>
        <time>2011-02-06T10:54:06.998</time>
      </trkpt>
      <trkpt lat="44.94795" lon="5.60869">
        <ele>848.329876</ele>
        <time>2011-02-06T10:54:08.2</time>
      </trkpt>
      <trkpt lat="44.94794" lon="5.60877">
        <ele>847.329884</ele>
        <time>2011-02-06T10:54:10.2</time>
      </trkpt>
      <trkpt lat="44.94792" lon="5.60885">
        <ele>847.329891</ele>
        <time>2011-02-06T10:54:12.3</time>
      </trkpt>
      <trkpt lat="44.9479" lon="5.60896">
        <ele>845.329906</ele>
        <time>2011-02-06T10:54:14.998</time>
      </trkpt>
      <trkpt lat="44.94789" lon="5.609">
        <ele>846.32991</ele>
        <time>2011-02-06T10:54:16.2</time>
      </trkpt>
      <trkpt lat="44.94788" lon="5.60908">
        <ele>846.329918</ele>
        <time>2011-02-06T10:54:18.3</time>
      </trkpt>
      <trkpt lat="44.94785" lon="5.60918">
        <ele>845.329933</ele>
        <time>2011-02-06T10:54:21.1</time>
      </trkpt>
      <trkpt lat="44.94783" lon="5.60924">
        <ele>845.329933</ele>
        <time>2011-02-06T10:54:23.14</time>
      </trkpt>
      <trkpt lat="44.94781" lon="5.6093">
        <ele>846.329941</ele>
        <time>2011-02-06T10:54:25.2</time>
      </trkpt>
      <trkpt lat="44.94779" lon="5.60936">
        <ele>846.329941</ele>
        <time>2011-02-06T10:54:27.2</time>
      </trkpt>
      <trkpt lat="44.94777" lon="5.60942">
        <ele>845.329945</ele>
        <time>2011-02-06T10:54:29.6</time>
      </trkpt>
      <trkpt lat="44.94775" lon="5.60948">
        <ele>845.329952</ele>
        <time>2011-02-06T10:54:31.2</time>
      </trkpt>
      <trkpt lat="44.94773" lon="5.60954">
        <ele>845.329956</ele>
        <time>2011-02-06T10:54:33</time>
      </trkpt>
      <trkpt lat="44.94772" lon="5.6096">
        <ele>846.32996</ele>
        <time>2011-02-06T10:54:35.1</time>
      </trkpt>
      <trkpt lat="44.94771" lon="5.60965">
        <ele>846.329967</ele>
        <time>2011-02-06T10:54:37.4</time>
      </trkpt>
      <trkpt lat="44.9477" lon="5.6097">
        <ele>846.329971</ele>
        <time>2011-02-06T10:54:39.5</time>
      </trkpt>
      <trkpt lat="44.94767" lon="5.60977">
        <ele>846.329979</ele>
        <time>2011-02-06T10:54:42.999</time>
      </trkpt>
      <trkpt lat="44.94766" lon="5.6098">
        <ele>847.329983</ele>
        <time>2011-02-06T10:54:43.2</time>
      </trkpt>
      <trkpt lat="44.94763" lon="5.60986">
        <ele>847.329983</ele>
        <time>2011-02-06T10:54:45.5</time>
      </trkpt>
      <trkpt lat="44.9476" lon="5.60992">
        <ele>847.329987</ele>
        <time>2011-02-06T10:54:47</time>
      </trkpt>
      <trkpt lat="44.94757" lon="5.61">
        <ele>847.329987</ele>
        <time>2011-02-06T10:54:49.4</time>
      </trkpt>
      <trkpt lat="44.94753" lon="5.61007">
        <ele>847.329994</ele>
        <time>2011-02-06T10:54:51.1</time>
      </trkpt>
      <trkpt lat="44.9475" lon="5.61014">
        <ele>847.329998</ele>
        <time>2011-02-06T10:54:53.25</time>
      </trkpt>
      <trkpt lat="44.94746" lon="5.61021">
        <ele>847.329998</ele>
        <time>2011-02-06T10:54:55.6</time>
      </trkpt>
      <trkpt lat="44.94743" lon="5.61028">
        <ele>847.330002</ele>
        <time>2011-02-06T10:54:57.2</time>
      </trkpt>
      <trkpt lat="44.9474" lon="5.61035">
        <ele>847.330009</ele>
        <time>2011-02-06T10:54:59.34</time>
      </trkpt>
      <trkpt lat="44.94736" lon="5.61043">
        <ele>847.330009</ele>
        <time>2011-02-06T10:55:01.4</time>
      </trkpt>
      <trkpt lat="44.94732" lon="5.61053">
        <ele>847.330017</ele>
        <time>2011-02-06T10:55:04.5</time>
      </trkpt>
      <trkpt lat="44.9473" lon="5.61059">
        <ele>846.330021</ele>
        <time>2011-02-06T10:55:06</time>
      </trkpt>
      <trkpt lat="44.9473" lon="5.61065">
        <ele>845.330032</ele>
        <time>2011-02-06T10:55:10.2</time>
      </trkpt>
      <trkpt lat="44.94731" lon="5.61067">
        <ele>842.330036</ele>
        <time>2011-02-06T10:55:12.115</time>
      </trkpt>
      <trkpt lat="44.94732" lon="5.61068">
        <ele>840.33004</ele>
        <time>2011-02-06T10:55:14.1</time>
      </trkpt>
      <trkpt lat="44.94732" lon="5.61069">
        <ele>839.330044</ele>
        <time>2011-02-06T10:55:16.2</time>
      </trkpt>
      <trkpt lat="44.94733" lon="5.61069">
        <ele>837.330048</ele>
        <time>2011-02-06T10:55:18.1</time>
      </trkpt>
      <trkpt lat="44.94733" lon="5.6107">
        <ele>836.330048</ele>
        <time>2011-02-06T10:55:21</time>
      </trkpt>
      <trkpt lat="44.94733" lon="5.6107">
        <ele>834.330048</ele>
        <time>2011-02-06T10:55:23.1</time>
      </trkpt>
      <trkpt lat="44.94733" lon="5.61071">
        <ele>830.330048</ele>
        <time>2011-02-06T10:55:25.1</time>
      </trkpt>
      <trkpt lat="44.94734" lon="5.61071">
        <ele>828.330048</ele>
        <time>2011-02-06T10:55:27.6</time>
      </trkpt>
      <trkpt lat="44.94735" lon="5.61071">
        <ele>828.330048</ele>
        <time>2011-02-06T10:55:29.3</time>
      </trkpt>
      <trkpt lat="44.94735" lon="5.61072">
        <ele>830.330051</ele>
        <time>2011-02-06T10:55:31.2</time>
      </trkpt>
      <trkpt lat="44.94736" lon="5.61071">
        <ele>832.330055</ele>
        <time>2011-02-06T10:55:33.95</time>
      </trkpt>
      <trkpt lat="44.94738" lon="5.61072">
        <ele>835.330059</ele>
        <time>2011-02-06T10:55:43.2</time>
      </trkpt>
      <trkpt lat="44.94739" lon="5.61072">
        <ele>836.330063</ele>
        <time>2011-02-06T10:55:45.2</time>
      </trkpt>
      <trkpt lat="44.94739" lon="5.61073">
        <ele>837.33007</ele>
        <time>2011-02-06T10:55:47.1</time>
      </trkpt>
      <trkpt lat="44.9474" lon="5.61073">
        <ele>838.33007</ele>
        <time>2011-02-06T10:55:49.20</time>
      </trkpt>
      <trkpt lat="44.94741" lon="5.6107">
        <ele>841.330063</ele>
        <time>2011-02-06T10:55:54.4</time>
      </trkpt>
      <trkpt lat="44.94741" lon="5.6107">
        <ele>842.330063</ele>
        <time>2011-02-06T10:55:56.1</time>
      </trkpt>
      <trkpt lat="44.9474" lon="5.61071">
        <ele>843.330063</ele>
        <time>2011-02-06T10:55:58.3</time>
      </trkpt>
      <trkpt lat="44.94737" lon="5.61074">
        <ele>844.330063</ele>
        <time>2011-02-06T10:56:00.9</time>
      </trkpt>
      <trkpt lat="44.94732" lon="5.61083">
        <ele>844.330063</ele>
        <time>2011-02-06T10:56:03.1</time>
      </trkpt>
      <trkpt lat="44.94729" lon="5.61091">
        <ele>844.330067</ele>
        <time>2011-02-06T10:56:05</time>
      </trkpt>
      <trkpt lat="44.94725" lon="5.61099">
        <ele>844.330074</ele>
        <time>2011-02-06T10:56:07.3</time>
      </trkpt>
      <trkpt lat="44.9472" lon="5.61113">
        <ele>844.330082</ele>
        <time>2011-02-06T10:56:10.4</time>
      </trkpt>
      <trkpt lat="44.94715" lon="5.61127">
        <ele>843.330093</ele>
        <time>2011-02-06T10:56:13.2</time>
      </trkpt>
      <trkpt lat="44.94712" lon="5.61137">
        <ele>843.330105</ele>
        <time>2011-02-06T10:56:15.1</time>
      </trkpt>
      <trkpt lat="44.94708" lon="5.61154">
        <ele>844.33012</ele>
        <time>2011-02-06T10:56:18.2</time>
      </trkpt>
      <trkpt lat="44.94706" lon="5.61164">
        <ele>844.330132</ele>
        <time>2011-02-06T10:56:20.7</time>
      </trkpt>
      <trkpt lat="44.94704" lon="5.61175">
        <ele>844.330147</ele>
        <time>2011-02-06T10:56:22.4</time>
      </trkpt>
      <trkpt lat="44.94701" lon="5.61192">
        <ele>844.330162</ele>
        <time>2011-02-06T10:56:25.1</time>
      </trkpt>
      <trkpt lat="44.94699" lon="5.61204">
        <ele>845.330177</ele>
        <time>2011-02-06T10:56:27</time>
      </trkpt>
      <trkpt lat="44.94697" lon="5.61216">
        <ele>845.330189</ele>
        <time>2011-02-06T10:56:29.3</time>
      </trkpt>
      <trkpt lat="44.94695" lon="5.61228">
        <ele>845.330204</ele>
        <time>2011-02-06T10:56:31.3</time>
      </trkpt>
      <trkpt lat="44.94693" lon="5.6124">
        <ele>846.330215</ele>
        <time>2011-02-06T10:56:33.2</time>
      </trkpt>
      <trkpt lat="44.9469" lon="5.61251">
        <ele>846.330231</ele>
        <time>2011-02-06T10:56:35.1</time>
      </trkpt>
      <trkpt lat="44.94687" lon="5.61263">
        <ele>846.330235</ele>
        <time>2011-02-06T10:56:37.7</time>
      </trkpt>
      <trkpt lat="44.94682" lon="5.61275">
        <ele>846.33025</ele>
        <time>2011-02-06T10:56:39.14</time>
      </trkpt>
      <trkpt lat="44.94678" lon="5.61287">
        <ele>845.330257</ele>
        <time>2011-02-06T10:56:41.3</time>
      </trkpt>
      <trkpt lat="44.94675" lon="5.61299">
        <ele>844.330269</ele>
        <time>2011-02-06T10:56:43.4</time>
      </trkpt>
      <trkpt lat="44.94672" lon="5.61311">
        <ele>843.330284</ele>
        <time>2011-02-06T10:56:45.2</time>
      </trkpt>
      <trkpt lat="44.94669" lon="5.61323">
        <ele>842.330292</ele>
        <time>2011-02-06T10:56:47.2</time>
      </trkpt>
      <trkpt lat="44.94668" lon="5.61334">
        <ele>842.330307</ele>
        <time>2011-02-06T10:56:49.5</time>
      </trkpt>
      <trkpt lat="44.94666" lon="5.61346">
        <ele>841.330322</ele>
        <time>2011-02-06T10:56:51.4</time>
      </trkpt>
      <trkpt lat="44.94665" lon="5.61363">
        <ele>841.330345</ele>
        <time>2011-02-06T10:56:54.2</time>
      </trkpt>
      <trkpt lat="44.94663" lon="5.6138">
        <ele>841.330364</ele>
        <time>2011-02-06T10:56:56.999</time>
      </trkpt>
      <trkpt lat="44.94662" lon="5.61386">
        <ele>841.330372</ele>
        <time>2011-02-06T10:56:58.1</time>
      </trkpt>
      <trkpt lat="44.9466" lon="5.61403">
        <ele>840.330395</ele>
        <time>2011-02-06T10:57:01.5</time>
      </trkpt>
      <trkpt lat="44.94659" lon="5.61415">
        <ele>840.330406</ele>
        <time>2011-02-06T10:57:03</time>
      </trkpt>
      <trkpt lat="44.94657" lon="5.61427">
        <ele>840.330421</ele>
        <time>2011-02-06T10:57:05</time>
      </trkpt>
      <trkpt lat="44.94656" lon="5.61439">
        <ele>839.330441</ele>
        <time>2011-02-06T10:57:07.3</time>
      </trkpt>
      <trkpt lat="44.94654" lon="5.6145">
        <ele>840.330452</ele>
        <time>2011-02-06T10:57:09.8</time>
      </trkpt>
      <trkpt lat="44.94651" lon="5.61468">
        <ele>839.330471</ele>
        <time>2011-02-06T10:57:12.33</time>
      </trkpt>
      <trkpt lat="44.94647" lon="5.61485">
        <ele>839.330494</ele>
        <time>2011-02-06T10:57:15.1</time>
      </trkpt>
      <trkpt lat="44.94645" lon="5.61496">
        <ele>839.330505</ele>
        <time>2011-02-06T10:57:17.53</time>
      </trkpt>
      <trkpt lat="44.94643" lon="5.61507">
        <ele>839.330513</ele>
        <time>2011-02-06T10:57:19.4</time>
      </trkpt>
      <trkpt lat="44.94641" lon="5.61518">
        <ele>839.330528</ele>
        <time>2011-02-06T10:57:21.4</time>
      </trkpt>
      <trkpt lat="44.94636" lon="5.61533">
        <ele>839.330536</ele>
        <time>2011-02-06T10:57:24</time>
      </trkpt>
      <trkpt lat="44.9463" lon="5.61548">
        <ele>838.330551</ele>
        <time>2011-02-06T10:57:27.3</time>
      </trkpt>
      <trkpt lat="44.94626" lon="5.61562">
        <ele>839.330563</ele>
        <time>2011-02-06T10:57:30.2</time>
      </trkpt>
      <trkpt lat="44.94623" lon="5.61572">
        <ele>838.33057</ele>
        <time>2011-02-06T10:57:32.2</time>
      </trkpt>
      <trkpt lat="44.9462" lon="5.6158">
        <ele>838.330582</ele>
        <time>2011-02-06T10:57:34.2</time>
      </trkpt>
      <trkpt lat="44.94618" lon="5.61587">
        <ele>838.330582</ele>
        <time>2011-02-06T10:57:36</time>
      </trkpt>
      <trkpt lat="44.94616" lon="5.61597">
        <ele>837.330593</ele>
        <time>2011-02-06T10:57:39.9</time>
      </trkpt>
      <trkpt lat="44.94613" lon="5.61603">
        <ele>838.330597</ele>
        <time>2011-02-06T10:57:41.1</time>
      </trkpt>
      <trkpt lat="44.94611" lon="5.61609">
        <ele>838.330605</ele>
        <time>2011-02-06T10:57:43.18</time>
      </trkpt>
      <trkpt lat="44.94609" lon="5.61616">
        <ele>838.330605</ele>
        <time>2011-02-06T10:57:45.3</time>
      </trkpt>
      <trkpt lat="44.94606" lon="5.61626">
        <ele>838.330616</ele>
        <time>2011-02-06T10:57:48</time>
      </trkpt>
      <trkpt lat="44.94603" lon="5.61637">
        <ele>838.330627</ele>
        <time>2011-02-06T10:57:51</time>
      </trkpt>
      <trkpt lat="44.946" lon="5.61647">
        <ele>838.330635</ele>
        <time>2011-02-06T10:57:54.4</time>
      </trkpt>
      <trkpt lat="44.94597" lon="5.61653">
        <ele>838.330635</ele>
        <time>2011-02-06T10:57:56.1</time>
      </trkpt>
      <trkpt lat="44.94595" lon="5.6166">
        <ele>837.330639</ele>
        <time>2011-02-06T10:57:58.1</time>
      </trkpt>
      <trkpt lat="44.94592" lon="5.61666">
        <ele>837.33065</ele>
        <time>2011-02-06T10:58:00.2</time>
      </trkpt>
      <trkpt lat="44.94588" lon="5.61675">
        <ele>837.33065</ele>
        <time>2011-02-06T10:58:03.1</time>
      </trkpt>
      <trkpt lat="44.94584" lon="5.61684">
        <ele>837.330658</ele>
        <time>2011-02-06T10:58:06.2</time>
      </trkpt>
      <trkpt lat="44.9458" lon="5.61693">
        <ele>837.330662</ele>
        <time>2011-02-06T10:58:09.3</time>
      </trkpt>
      <trkpt lat="44.94577" lon="5.61703">
        <ele>837.330666</ele>
        <time>2011-02-06T10:58:12</time>
      </trkpt>
      <trkpt lat="44.94574" lon="5.61708">
        <ele>838.330673</ele>
        <time>2011-02-06T10:58:14.4</time>
      </trkpt>
      <trkpt lat="44.94571" lon="5.61715">
        <ele>838.330673</ele>
        <time>2011-02-06T10:58:16.3</time>
      </trkpt>
      <trkpt lat="44.94569" lon="5.61721">
        <ele>838.330677</ele>
        <time>2011-02-06T10:58:18.19</time>
      </trkpt>
      <trkpt lat="44.94566" lon="5.61727">
        <ele>839.330685</ele>
        <time>2011-02-06T10:58:20.31</time>
      </trkpt>
      <trkpt lat="44.94564" lon="5.61733">
        <ele>839.330688</ele>
        <time>2011-02-06T10:58:22.2</time>
      </trkpt>
      <trkpt lat="44.94561" lon="5.61739">
        <ele>839.330688</ele>
        <time>2011-02-06T10:58:24.1</time>
      </trkpt>
      <trkpt lat="44.94557" lon="5.61748">
        <ele>839.330696</ele>
        <time>2011-02-06T10:58:27.3</time>
      </trkpt>
      <trkpt lat="44.94553" lon="5.61758">
        <ele>839.3307</ele>
        <time>2011-02-06T10:58:30.3</time>
      </trkpt>
      <trkpt lat="44.94551" lon="5.61768">
        <ele>839.330708</ele>
        <time>2011-02-06T10:58:33</time>
      </trkpt>
      <trkpt lat="44.94548" lon="5.61778">
        <ele>840.330719</ele>
        <time>2011-02-06T10:58:36.1</time>
      </trkpt>
      <trkpt lat="44.94546" lon="5.61784">
        <ele>840.330723</ele>
        <time>2011-02-06T10:58:38</time>
      </trkpt>
      <trkpt lat="44.94545" lon="5.61789">
        <ele>840.33073</ele>
        <time>2011-02-06T10:58:40.4</time>
      </trkpt>
      <trkpt lat="44.94544" lon="5.61794">
        <ele>841.330738</ele>
        <time>2011-02-06T10:58:42.22</time>
      </trkpt>
      <trkpt lat="44.94543" lon="5.61798">
        <ele>841.330738</ele>
        <time>2011-02-06T10:58:44.12</time>
      </trkpt>
      <trkpt lat="44.94542" lon="5.61801">
        <ele>842.330742</ele>
        <time>2011-02-06T10:58:46.25</time>
      </trkpt>
      <trkpt lat="44.94541" lon="5.61805">
        <ele>842.330746</ele>
        <time>2011-02-06T10:58:48.11</time>
      </trkpt>
      <trkpt lat="44.94539" lon="5.61813">
        <ele>842.330757</ele>
        <time>2011-02-06T10:58:51.12</time>
      </trkpt>
      <trkpt lat="44.94538" lon="5.61819">
        <ele>842.330765</ele>
        <time>2011-02-06T10:58:53.113</time>
      </trkpt>
      <trkpt lat="44.94537" lon="5.61824">
        <ele>843.330769</ele>
        <time>2011-02-06T10:58:55.5</time>
      </trkpt>
      <trkpt lat="44.94535" lon="5.61829">
        <ele>843.330769</ele>
        <time>2011-02-06T10:58:57</time>
      </trkpt>
      <trkpt lat="44.94533" lon="5.61838">
        <ele>844.33078</ele>
        <time>2011-02-06T10:58:59.998</time>
      </trkpt>
      <trkpt lat="44.94531" lon="5.61843">
        <ele>844.330784</ele>
        <time>2011-02-06T10:59:02</time>
      </trkpt>
      <trkpt lat="44.94528" lon="5.61855">
        <ele>845.330795</ele>
        <time>2011-02-06T10:59:06.4</time>
      </trkpt>
      <trkpt lat="44.94526" lon="5.61863">
        <ele>846.330803</ele>
        <time>2011-02-06T10:59:09.32</time>
      </trkpt>
      <trkpt lat="44.94523" lon="5.61872">
        <ele>846.330811</ele>
        <time>2011-02-06T10:59:11.998</time>
      </trkpt>
      <trkpt lat="44.94522" lon="5.61875">
        <ele>846.330811</ele>
        <time>2011-02-06T10:59:13.3</time>
      </trkpt>
      <trkpt lat="44.94519" lon="5.61885">
        <ele>847.330818</ele>
        <time>2011-02-06T10:59:16.4</time>
      </trkpt>
      <trkpt lat="44.94516" lon="5.61891">
        <ele>846.330826</ele>
        <time>2011-02-06T10:59:18.3</time>
      </trkpt>
      <trkpt lat="44.94513" lon="5.61897">
        <ele>846.33083</ele>
        <time>2011-02-06T10:59:20</time>
      </trkpt>
      <trkpt lat="44.94509" lon="5.61907">
        <ele>846.330833</ele>
        <time>2011-02-06T10:59:22.990</time>
      </trkpt>
      <trkpt lat="44.94507" lon="5.6191">
        <ele>846.330833</ele>
        <time>2011-02-06T10:59:24.2</time>
      </trkpt>
      <trkpt lat="44.94503" lon="5.6192">
        <ele>847.330841</ele>
        <time>2011-02-06T10:59:27.3</time>
      </trkpt>
      <trkpt lat="44.94499" lon="5.61929">
        <ele>846.330841</ele>
        <time>2011-02-06T10:59:29.999</time>
      </trkpt>
      <trkpt lat="44.94498" lon="5.61931">
        <ele>846.330849</ele>
        <time>2011-02-06T10:59:31.8</time>
      </trkpt>
      <trkpt lat="44.94495" lon="5.61937">
        <ele>847.330849</ele>
        <time>2011-02-06T10:59:33.1</time>
      </trkpt>
      <trkpt lat="44.94491" lon="5.61949">
        <ele>847.330856</ele>
        <time>2011-02-06T10:59:36.1</time>
      </trkpt>
      <trkpt lat="44.94486" lon="5.61961">
        <ele>846.330864</ele>
        <time>2011-02-06T10:59:39.1</time>
      </trkpt>
      <trkpt lat="44.94483" lon="5.61968">
        <ele>846.330868</ele>
        <time>2011-02-06T10:59:41.112</time>
      </trkpt>
      <trkpt lat="44.94481" lon="5.61976">
        <ele>846.330875</ele>
        <time>2011-02-06T10:59:43.138</time>
      </trkpt>
      <trkpt lat="44.94478" lon="5.61983">
        <ele>846.330887</ele>
        <time>2011-02-06T10:59:45</time>
      </trkpt>
      <trkpt lat="44.94475" lon="5.61993">
        <ele>845.330887</ele>
        <time>2011-02-06T10:59:48</time>
      </trkpt>
      <trkpt lat="44.94472" lon="5.62003">
        <ele>845.330894</ele>
        <time>2011-02-06T10:59:50.997</time>
      </trkpt>
      <trkpt lat="44.94471" lon="5.62006">
        <ele>845.330902</ele>
        <time>2011-02-06T10:59:52.3</time>
      </trkpt>
      <trkpt lat="44.94466" lon="5.62018">
        <ele>846.33091</ele>
        <time>2011-02-06T10:59:55.997</time>
      </trkpt>
      <trkpt lat="44.94464" lon="5.62024">
        <ele>847.33091</ele>
        <time>2011-02-06T10:59:58.1</time>
      </trkpt>
      <trkpt lat="44.94461" lon="5.62033">
        <ele>848.330917</ele>
        <time>2011-02-06T11:00:01.6</time>
      </trkpt>
      <trkpt lat="44.94457" lon="5.62053">
        <ele>849.330944</ele>
        <time>2011-02-06T11:00:08.51</time>
      </trkpt>
      <trkpt lat="44.94454" lon="5.62068">
        <ele>850.330956</ele>
        <time>2011-02-06T11:00:12.997</time>
      </trkpt>
      <trkpt lat="44.94451" lon="5.62081">
        <ele>853.330975</ele>
        <time>2011-02-06T11:00:18.999</time>
      </trkpt>
      <trkpt lat="44.9445" lon="5.62088">
        <ele>852.330978</ele>
        <time>2011-02-06T11:00:19.997</time>
      </trkpt>
      <trkpt lat="44.94445" lon="5.62105">
        <ele>852.330997</ele>
        <time>2011-02-06T11:00:25.999</time>
      </trkpt>
      <trkpt lat="44.94441" lon="5.62112">
        <ele>851.331001</ele>
        <time>2011-02-06T11:00:28.3</time>
      </trkpt>
      <trkpt lat="44.94436" lon="5.6213">
        <ele>852.331013</ele>
        <time>2011-02-06T11:00:34.1</time>
      </trkpt>
      <trkpt lat="44.94432" lon="5.62139">
        <ele>853.33102</ele>
        <time>2011-02-06T11:00:37.6</time>
      </trkpt>
      <trkpt lat="44.94429" lon="5.62148">
        <ele>853.331024</ele>
        <time>2011-02-06T11:00:39.997</time>
      </trkpt>
      <trkpt lat="44.94428" lon="5.62151">
        <ele>853.331024</ele>
        <time>2011-02-06T11:00:41.6</time>
      </trkpt>
      <trkpt lat="44.94425" lon="5.6216">
        <ele>852.331036</ele>
        <time>2011-02-06T11:00:43.997</time>
      </trkpt>
      <trkpt lat="44.94422" lon="5.62166">
        <ele>852.331036</ele>
        <time>2011-02-06T11:00:45.999</time>
      </trkpt>
      <trkpt lat="44.9442" lon="5.62169">
        <ele>851.331039</ele>
        <time>2011-02-06T11:00:47.99</time>
      </trkpt>
      <trkpt lat="44.94417" lon="5.62174">
        <ele>851.331039</ele>
        <time>2011-02-06T11:00:49.114</time>
      </trkpt>
      <trkpt lat="44.94412" lon="5.62179">
        <ele>851.331036</ele>
        <time>2011-02-06T11:00:52.998</time>
      </trkpt>
      <trkpt lat="44.9441" lon="5.62182">
        <ele>851.331036</ele>
        <time>2011-02-06T11:00:54.997</time>
      </trkpt>
      <trkpt lat="44.94408" lon="5.62185">
        <ele>851.331039</ele>
        <time>2011-02-06T11:00:57.1</time>
      </trkpt>
      <trkpt lat="44.944" lon="5.62188">
        <ele>851.33102</ele>
        <time>2011-02-06T11:01:02.2</time>
      </trkpt>
      <trkpt lat="44.94396" lon="5.62188">
        <ele>850.331017</ele>
        <time>2011-02-06T11:01:04.68</time>
      </trkpt>
      <trkpt lat="44.94389" lon="5.62188">
        <ele>848.331001</ele>
        <time>2011-02-06T11:01:06.997</time>
      </trkpt>
      <trkpt lat="44.94384" lon="5.62188">
        <ele>848.33099</ele>
        <time>2011-02-06T11:01:08.995</time>
      </trkpt>
      <trkpt lat="44.94381" lon="5.62188">
        <ele>848.330982</ele>
        <time>2011-02-06T11:01:10.14</time>
      </trkpt>
      <trkpt lat="44.94375" lon="5.62188">
        <ele>847.330967</ele>
        <time>2011-02-06T11:01:12.1</time>
      </trkpt>
      <trkpt lat="44.94363" lon="5.62187">
        <ele>846.33094</ele>
        <time>2011-02-06T11:01:14.997</time>
      </trkpt>
      <trkpt lat="44.9436" lon="5.62187">
        <ele>846.330933</ele>
        <time>2011-02-06T11:01:16</time>
      </trkpt>
      <trkpt lat="44.94353" lon="5.62186">
        <ele>845.330921</ele>
        <time>2011-02-06T11:01:18</time>
      </trkpt>
      <trkpt lat="44.94346" lon="5.62187">
        <ele>843.330902</ele>
        <time>2011-02-06T11:01:20.87</time>
      </trkpt>
      <trkpt lat="44.94338" lon="5.62187">
        <ele>841.330887</ele>
        <time>2011-02-06T11:01:22.41</time>
      </trkpt>
      <trkpt lat="44.94325" lon="5.62189">
        <ele>838.33086</ele>
        <time>2011-02-06T11:01:25</time>
      </trkpt>
      <trkpt lat="44.94311" lon="5.6219">
        <ele>836.330833</ele>
        <time>2011-02-06T11:01:28.999</time>
      </trkpt>
      <trkpt lat="44.94307" lon="5.62191">
        <ele>835.330826</ele>
        <time>2011-02-06T11:01:29.31</time>
      </trkpt>
      <trkpt lat="44.94299" lon="5.62194">
        <ele>834.330807</ele>
        <time>2011-02-06T11:01:31.2</time>
      </trkpt>
      <trkpt lat="44.9429" lon="5.62196">
        <ele>832.330795</ele>
        <time>2011-02-06T11:01:33</time>
      </trkpt>
      <trkpt lat="44.94279" lon="5.62201">
        <ele>831.330776</ele>
        <time>2011-02-06T11:01:36.3</time>
      </trkpt>
      <trkpt lat="44.94271" lon="5.62204">
        <ele>831.330765</ele>
        <time>2011-02-06T11:01:38.10</time>
      </trkpt>
      <trkpt lat="44.94265" lon="5.62207">
        <ele>829.330753</ele>
        <time>2011-02-06T11:01:40.41</time>
      </trkpt>
      <trkpt lat="44.94255" lon="5.62212">
        <ele>828.330746</ele>
        <time>2011-02-06T11:01:43.1</time>
      </trkpt>
      <trkpt lat="44.94246" lon="5.62217">
        <ele>827.33073</ele>
        <time>2011-02-06T11:01:45.998</time>
      </trkpt>
      <trkpt lat="44.94242" lon="5.62218">
        <ele>827.330723</ele>
        <time>2011-02-06T11:01:47.15</time>
      </trkpt>
      <trkpt lat="44.94236" lon="5.62221">
        <ele>826.330715</ele>
        <time>2011-02-06T11:01:49.3</time>
      </trkpt>
      <trkpt lat="44.94227" lon="5.62223">
        <ele>824.330696</ele>
        <time>2011-02-06T11:01:52.1</time>
      </trkpt>
      <trkpt lat="44.94217" lon="5.62223">
        <ele>823.330677</ele>
        <time>2011-02-06T11:01:54.998</time>
      </trkpt>
      <trkpt lat="44.94214" lon="5.62223">
        <ele>823.330666</ele>
        <time>2011-02-06T11:01:56.114</time>
      </trkpt>
      <trkpt lat="44.94207" lon="5.62223">
        <ele>822.330658</ele>
        <time>2011-02-06T11:01:58.106</time>
      </trkpt>
      <trkpt lat="44.94201" lon="5.62223">
        <ele>821.330643</ele>
        <time>2011-02-06T11:02:00.3</time>
      </trkpt>
      <trkpt lat="44.94195" lon="5.62224">
        <ele>821.330627</ele>
        <time>2011-02-06T11:02:02.6</time>
      </trkpt>
      <trkpt lat="44.94189" lon="5.62224">
        <ele>820.33062</ele>
        <time>2011-02-06T11:02:04.1</time>
      </trkpt>
      <trkpt lat="44.94181" lon="5.62225">
        <ele>819.330601</ele>
        <time>2011-02-06T11:02:06.997</time>
      </trkpt>
      <trkpt lat="44.94175" lon="5.62226">
        <ele>819.330589</ele>
        <time>2011-02-06T11:02:08.997</time>
      </trkpt>
      <trkpt lat="44.94172" lon="5.62227">
        <ele>819.330585</ele>
        <time>2011-02-06T11:02:10.109</time>
      </trkpt>
      <trkpt lat="44.94167" lon="5.62228">
        <ele>818.33057</ele>
        <time>2011-02-06T11:02:12.22</time>
      </trkpt>
      <trkpt lat="44.94161" lon="5.62228">
        <ele>817.330563</ele>
        <time>2011-02-06T11:02:14.1</time>
      </trkpt>
      <trkpt lat="44.94155" lon="5.62229">
        <ele>817.330551</ele>
        <time>2011-02-06T11:02:16.2</time>
      </trkpt>
      <trkpt lat="44.94146" lon="5.6223">
        <ele>817.330532</ele>
        <time>2011-02-06T11:02:18.998</time>
      </trkpt>
      <trkpt lat="44.94143" lon="5.6223">
        <ele>817.330524</ele>
        <time>2011-02-06T11:02:20.8</time>
      </trkpt>
      <trkpt lat="44.94133" lon="5.62231">
        <ele>816.330505</ele>
        <time>2011-02-06T11:02:22.996</time>
      </trkpt>
      <trkpt lat="44.94127" lon="5.62232">
        <ele>816.33049</ele>
        <time>2011-02-06T11:02:24.998</time>
      </trkpt>
      <trkpt lat="44.94121" lon="5.62232">
        <ele>815.330482</ele>
        <time>2011-02-06T11:02:27.34</time>
      </trkpt>
      <trkpt lat="44.94112" lon="5.62234">
        <ele>816.330463</ele>
        <time>2011-02-06T11:02:29.996</time>
      </trkpt>
      <trkpt lat="44.9411" lon="5.62234">
        <ele>815.33046</ele>
        <time>2011-02-06T11:02:31.137</time>
      </trkpt>
      <trkpt lat="44.94101" lon="5.62236">
        <ele>815.330444</ele>
        <time>2011-02-06T11:02:34.22</time>
      </trkpt>
      <trkpt lat="44.94092" lon="5.62238">
        <ele>814.330425</ele>
        <time>2011-02-06T11:02:37.999</time>
      </trkpt>
      <trkpt lat="44.94086" lon="5.62239">
        <ele>815.330414</ele>
        <time>2011-02-06T11:02:39</time>
      </trkpt>
      <trkpt lat="44.94077" lon="5.6224">
        <ele>814.330399</ele>
        <time>2011-02-06T11:02:42.1</time>
      </trkpt>
      <trkpt lat="44.94068" lon="5.6224">
        <ele>814.330376</ele>
        <time>2011-02-06T11:02:44.997</time>
      </trkpt>
      <trkpt lat="44.94065" lon="5.62241">
        <ele>814.330372</ele>
        <time>2011-02-06T11:02:46.47</time>
      </trkpt>
      <trkpt lat="44.94057" lon="5.62241">
        <ele>814.330353</ele>
        <time>2011-02-06T11:02:49.5</time>
      </trkpt>
      <trkpt lat="44.94048" lon="5.62243">
        <ele>813.330338</ele>
        <time>2011-02-06T11:02:52.1</time>
      </trkpt>
      <trkpt lat="44.94042" lon="5.62243">
        <ele>813.330322</ele>
        <time>2011-02-06T11:02:54</time>
      </trkpt>
      <trkpt lat="44.94034" lon="5.62244">
        <ele>814.330307</ele>
        <time>2011-02-06T11:02:56.997</time>
      </trkpt>
      <trkpt lat="44.94029" lon="5.62245">
        <ele>813.330299</ele>
        <time>2011-02-06T11:02:58.995</time>
      </trkpt>
      <trkpt lat="44.94024" lon="5.62245">
        <ele>814.330284</ele>
        <time>2011-02-06T11:03:01.2</time>
      </trkpt>
      <trkpt lat="44.94019" lon="5.62246">
        <ele>814.33028</ele>
        <time>2011-02-06T11:03:03.4</time>
      </trkpt>
      <trkpt lat="44.94015" lon="5.62246">
        <ele>813.330269</ele>
        <time>2011-02-06T11:03:05.64</time>
      </trkpt>
      <trkpt lat="44.9401" lon="5.62247">
        <ele>814.330257</ele>
        <time>2011-02-06T11:03:07.2</time>
      </trkpt>
      <trkpt lat="44.94006" lon="5.62247">
        <ele>815.33025</ele>
        <time>2011-02-06T11:03:09.99</time>
      </trkpt>
      <trkpt lat="44.94" lon="5.62247">
        <ele>816.330238</ele>
        <time>2011-02-06T11:03:12.17</time>
      </trkpt>
      <trkpt lat="44.93995" lon="5.62248">
        <ele>817.330231</ele>
        <time>2011-02-06T11:03:14.995</time>
      </trkpt>
      <trkpt lat="44.93993" lon="5.62248">
        <ele>817.330223</ele>
        <time>2011-02-06T11:03:16.2</time>
      </trkpt>
      <trkpt lat="44.9399" lon="5.62248">
        <ele>818.330215</ele>
        <time>2011-02-06T11:03:18</time>
      </trkpt>
      <trkpt lat="44.93984" lon="5.62246">
        <ele>819.330204</ele>
        <time>2011-02-06T11:03:20.998</time>
      </trkpt>
      <trkpt lat="44.93982" lon="5.62246">
        <ele>819.330196</ele>
        <time>2011-02-06T11:03:22.1</time>
      </trkpt>
      <trkpt lat="44.93975" lon="5.62243">
        <ele>820.330177</ele>
        <time>2011-02-06T11:03:25.4</time>
      </trkpt>
      <trkpt lat="44.93971" lon="5.62242">
        <ele>821.330162</ele>
        <time>2011-02-06T11:03:27</time>
      </trkpt>
      <trkpt lat="44.93966" lon="5.6224">
        <ele>822.330154</ele>
        <time>2011-02-06T11:03:29.145</time>
      </trkpt>
      <trkpt lat="44.93958" lon="5.62236">
        <ele>822.330132</ele>
        <time>2011-02-06T11:03:31.996</time>
      </trkpt>
      <trkpt lat="44.93953" lon="5.62234">
        <ele>822.330116</ele>
        <time>2011-02-06T11:03:34</time>
      </trkpt>
      <trkpt lat="44.93948" lon="5.62232">
        <ele>823.330101</ele>
        <time>2011-02-06T11:03:36.4</time>
      </trkpt>
      <trkpt lat="44.9394" lon="5.62228">
        <ele>823.330074</ele>
        <time>2011-02-06T11:03:39.1</time>
      </trkpt>
      <trkpt lat="44.93935" lon="5.62225">
        <ele>822.330063</ele>
        <time>2011-02-06T11:03:41.143</time>
      </trkpt>
      <trkpt lat="44.93929" lon="5.62222">
        <ele>822.330044</ele>
        <time>2011-02-06T11:03:43.148</time>
      </trkpt>
      <trkpt lat="44.93921" lon="5.62218">
        <ele>822.330017</ele>
        <time>2011-02-06T11:03:46.46</time>
      </trkpt>
      <trkpt lat="44.93912" lon="5.62214">
        <ele>821.329994</ele>
        <time>2011-02-06T11:03:49.6</time>
      </trkpt>
      <trkpt lat="44.93906" lon="5.62211">
        <ele>821.329975</ele>
        <time>2011-02-06T11:03:51</time>
      </trkpt>
      <trkpt lat="44.93897" lon="5.62207">
        <ele>820.329948</ele>
        <time>2011-02-06T11:03:53.997</time>
      </trkpt>
      <trkpt lat="44.93894" lon="5.62205">
        <ele>820.329941</ele>
        <time>2011-02-06T11:03:55.24</time>
      </trkpt>
      <trkpt lat="44.93885" lon="5.62201">
        <ele>819.329914</ele>
        <time>2011-02-06T11:03:58.1</time>
      </trkpt>
      <trkpt lat="44.93876" lon="5.62198">
        <ele>818.329891</ele>
        <time>2011-02-06T11:04:01.18</time>
      </trkpt>
      <trkpt lat="44.93869" lon="5.62195">
        <ele>817.329868</ele>
        <time>2011-02-06T11:04:03.130</time>
      </trkpt>
      <trkpt lat="44.93863" lon="5.62193">
        <ele>817.329857</ele>
        <time>2011-02-06T11:04:05.146</time>
      </trkpt>
      <trkpt lat="44.93854" lon="5.62189">
        <ele>816.32983</ele>
        <time>2011-02-06T11:04:08.14</time>
      </trkpt>
      <trkpt lat="44.93848" lon="5.62187">
        <ele>816.329815</ele>
        <time>2011-02-06T11:04:10.5</time>
      </trkpt>
      <trkpt lat="44.9384" lon="5.62183">
        <ele>816.329792</ele>
        <time>2011-02-06T11:04:13.6</time>
      </trkpt>
      <trkpt lat="44.93831" lon="5.62178">
        <ele>815.329762</ele>
        <time>2011-02-06T11:04:16.1</time>
      </trkpt>
      <trkpt lat="44.93823" lon="5.62174">
        <ele>814.329739</ele>
        <time>2011-02-06T11:04:19</time>
      </trkpt>
      <trkpt lat="44.93814" lon="5.62171">
        <ele>814.329712</ele>
        <time>2011-02-06T11:04:22</time>
      </trkpt>
      <trkpt lat="44.93806" lon="5.6217">
        <ele>814.329693</ele>
        <time>2011-02-06T11:04:24.997</time>
      </trkpt>
      <trkpt lat="44.93803" lon="5.6217">
        <ele>814.329689</ele>
        <time>2011-02-06T11:04:26.28</time>
      </trkpt>
      <trkpt lat="44.93797" lon="5.6217">
        <ele>814.329674</ele>
        <time>2011-02-06T11:04:28.33</time>
      </trkpt>
      <trkpt lat="44.93788" lon="5.62172">
        <ele>813.329659</ele>
        <time>2011-02-06T11:04:31</time>
      </trkpt>
      <trkpt lat="44.93781" lon="5.62178">
        <ele>813.329651</ele>
        <time>2011-02-06T11:04:34</time>
      </trkpt>
      <trkpt lat="44.93775" lon="5.62185">
        <ele>812.329651</ele>
        <time>2011-02-06T11:04:37</time>
      </trkpt>
      <trkpt lat="44.9377" lon="5.62195">
        <ele>811.329655</ele>
        <time>2011-02-06T11:04:39.998</time>
      </trkpt>
      <trkpt lat="44.93767" lon="5.62201">
        <ele>811.329659</ele>
        <time>2011-02-06T11:04:42.26</time>
      </trkpt>
      <trkpt lat="44.93763" lon="5.62211">
        <ele>810.329662</ele>
        <time>2011-02-06T11:04:44.998</time>
      </trkpt>
      <trkpt lat="44.93762" lon="5.62213">
        <ele>809.329666</ele>
        <time>2011-02-06T11:04:46.109</time>
      </trkpt>
      <trkpt lat="44.9376" lon="5.62219">
        <ele>809.329666</ele>
        <time>2011-02-06T11:04:48.114</time>
      </trkpt>
      <trkpt lat="44.93756" lon="5.62227">
        <ele>808.329674</ele>
        <time>2011-02-06T11:04:50.997</time>
      </trkpt>
      <trkpt lat="44.93755" lon="5.6223">
        <ele>809.329674</ele>
        <time>2011-02-06T11:04:52.7</time>
      </trkpt>
      <trkpt lat="44.9375" lon="5.62243">
        <ele>809.329685</ele>
        <time>2011-02-06T11:04:54.999</time>
      </trkpt>
      <trkpt lat="44.93748" lon="5.62247">
        <ele>809.329685</ele>
        <time>2011-02-06T11:04:56.13</time>
      </trkpt>
      <trkpt lat="44.93745" lon="5.62259">
        <ele>808.3297</ele>
        <time>2011-02-06T11:04:58.998</time>
      </trkpt>
      <trkpt lat="44.93744" lon="5.62264">
        <ele>808.329704</ele>
        <time>2011-02-06T11:05:00.58</time>
      </trkpt>
      <trkpt lat="44.93743" lon="5.62275">
        <ele>809.329716</ele>
        <time>2011-02-06T11:05:02.996</time>
      </trkpt>
      <trkpt lat="44.93743" lon="5.62279">
        <ele>809.329723</ele>
        <time>2011-02-06T11:05:04.30</time>
      </trkpt>
      <trkpt lat="44.93742" lon="5.62286">
        <ele>809.329731</ele>
        <time>2011-02-06T11:05:06.16</time>
      </trkpt>
      <trkpt lat="44.93741" lon="5.62293">
        <ele>809.329739</ele>
        <time>2011-02-06T11:05:08.153</time>
      </trkpt>
      <trkpt lat="44.93739" lon="5.62302">
        <ele>809.32975</ele>
        <time>2011-02-06T11:05:10.1</time>
      </trkpt>
      <trkpt lat="44.93735" lon="5.62315">
        <ele>809.329765</ele>
        <time>2011-02-06T11:05:12.998</time>
      </trkpt>
      <trkpt lat="44.93734" lon="5.6232">
        <ele>809.329769</ele>
        <time>2011-02-06T11:05:14.78</time>
      </trkpt>
      <trkpt lat="44.93729" lon="5.62332">
        <ele>809.329773</ele>
        <time>2011-02-06T11:05:16.996</time>
      </trkpt>
      <trkpt lat="44.93728" lon="5.62336">
        <ele>809.329777</ele>
        <time>2011-02-06T11:05:18.16</time>
      </trkpt>
      <trkpt lat="44.93722" lon="5.62346">
        <ele>809.329781</ele>
        <time>2011-02-06T11:05:20.995</time>
      </trkpt>
      <trkpt lat="44.93719" lon="5.62348">
        <ele>808.329773</ele>
        <time>2011-02-06T11:05:22.13</time>
      </trkpt>
      <trkpt lat="44.93713" lon="5.62354">
        <ele>808.329773</ele>
        <time>2011-02-06T11:05:24.998</time>
      </trkpt>
      <trkpt lat="44.93708" lon="5.62357">
        <ele>808.329765</ele>
        <time>2011-02-06T11:05:27.91</time>
      </trkpt>
      <trkpt lat="44.93704" lon="5.62359">
        <ele>809.329758</ele>
        <time>2011-02-06T11:05:29.150</time>
      </trkpt>
      <trkpt lat="44.93699" lon="5.62361">
        <ele>809.329754</ele>
        <time>2011-02-06T11:05:31</time>
      </trkpt>
      <trkpt lat="44.93693" lon="5.62364">
        <ele>811.329742</ele>
        <time>2011-02-06T11:05:33.997</time>
      </trkpt>
      <trkpt lat="44.93691" lon="5.62365">
        <ele>811.329742</ele>
        <time>2011-02-06T11:05:35.37</time>
      </trkpt>
      <trkpt lat="44.93685" lon="5.62368">
        <ele>812.329735</ele>
        <time>2011-02-06T11:05:37.995</time>
      </trkpt>
      <trkpt lat="44.93681" lon="5.62369">
        <ele>814.329723</ele>
        <time>2011-02-06T11:05:40.999</time>
      </trkpt>
      <trkpt lat="44.93679" lon="5.62369">
        <ele>814.329723</ele>
        <time>2011-02-06T11:05:41.45</time>
      </trkpt>
      <trkpt lat="44.93672" lon="5.62371">
        <ele>816.329708</ele>
        <time>2011-02-06T11:05:43.994</time>
      </trkpt>
      <trkpt lat="44.9367" lon="5.62371">
        <ele>816.329704</ele>
        <time>2011-02-06T11:05:45.40</time>
      </trkpt>
      <trkpt lat="44.93663" lon="5.62372">
        <ele>817.329693</ele>
        <time>2011-02-06T11:05:48.104</time>
      </trkpt>
      <trkpt lat="44.93657" lon="5.62372">
        <ele>817.329681</ele>
        <time>2011-02-06T11:05:50.142</time>
      </trkpt>
      <trkpt lat="44.93652" lon="5.62372">
        <ele>817.32967</ele>
        <time>2011-02-06T11:05:52.160</time>
      </trkpt>
      <trkpt lat="44.93647" lon="5.62372">
        <ele>819.329659</ele>
        <time>2011-02-06T11:05:54.25</time>
      </trkpt>
      <trkpt lat="44.9364" lon="5.62373">
        <ele>819.329647</ele>
        <time>2011-02-06T11:05:56.996</time>
      </trkpt>
      <trkpt lat="44.93638" lon="5.62374">
        <ele>819.329643</ele>
        <time>2011-02-06T11:05:58.21</time>
      </trkpt>
      <trkpt lat="44.93632" lon="5.62375">
        <ele>820.329628</ele>
        <time>2011-02-06T11:06:01</time>
      </trkpt>
      <trkpt lat="44.93626" lon="5.62376">
        <ele>820.329617</ele>
        <time>2011-02-06T11:06:04.999</time>
      </trkpt>
      <trkpt lat="44.93624" lon="5.62378">
        <ele>820.329617</ele>
        <time>2011-02-06T11:06:05.74</time>
      </trkpt>
      <trkpt lat="44.93621" lon="5.6238">
        <ele>821.329613</ele>
        <time>2011-02-06T11:06:07.24</time>
      </trkpt>
      <trkpt lat="44.93618" lon="5.62382">
        <ele>821.329609</ele>
        <time>2011-02-06T11:06:09.122</time>
      </trkpt>
      <trkpt lat="44.93615" lon="5.62384">
        <ele>821.329605</ele>
        <time>2011-02-06T11:06:11.5</time>
      </trkpt>
      <trkpt lat="44.93609" lon="5.62386">
        <ele>821.329597</ele>
        <time>2011-02-06T11:06:14.7</time>
      </trkpt>
      <trkpt lat="44.93606" lon="5.62388">
        <ele>822.32959</ele>
        <time>2011-02-06T11:06:16.993</time>
      </trkpt>
      <trkpt lat="44.93593" lon="5.62391">
        <ele>821.329567</ele>
        <time>2011-02-06T11:06:23.998</time>
      </trkpt>
      <trkpt lat="44.93587" lon="5.62391">
        <ele>822.329552</ele>
        <time>2011-02-06T11:06:27.2</time>
      </trkpt>
      <trkpt lat="44.93582" lon="5.62389">
        <ele>823.32954</ele>
        <time>2011-02-06T11:06:29.999</time>
      </trkpt>
      <trkpt lat="44.93578" lon="5.62387">
        <ele>822.329529</ele>
        <time>2011-02-06T11:06:31.996</time>
      </trkpt>
      <trkpt lat="44.93571" lon="5.62387">
        <ele>821.32951</ele>
        <time>2011-02-06T11:06:35.997</time>
      </trkpt>
      <trkpt lat="44.93567" lon="5.62387">
        <ele>821.329506</ele>
        <time>2011-02-06T11:06:37.79</time>
      </trkpt>
      <trkpt lat="44.93545" lon="5.62389">
        <ele>821.32946</ele>
        <time>2011-02-06T11:06:40.991</time>
      </trkpt>
      <trkpt lat="44.93536" lon="5.62389">
        <ele>821.329441</ele>
        <time>2011-02-06T11:06:43.6</time>
      </trkpt>
      <trkpt lat="44.93527" lon="5.6239">
        <ele>819.329422</ele>
        <time>2011-02-06T11:06:45.72</time>
      </trkpt>
      <trkpt lat="44.93512" lon="5.62392">
        <ele>815.329391</ele>
        <time>2011-02-06T11:06:47.996</time>
      </trkpt>
      <trkpt lat="44.93508" lon="5.62392">
        <ele>814.32938</ele>
        <time>2011-02-06T11:06:49.109</time>
      </trkpt>
      <trkpt lat="44.9349" lon="5.62394">
        <ele>812.329346</ele>
        <time>2011-02-06T11:06:52.997</time>
      </trkpt>
      <trkpt lat="44.93485" lon="5.62394">
        <ele>812.329338</ele>
        <time>2011-02-06T11:06:54.89</time>
      </trkpt>
      <trkpt lat="44.93475" lon="5.62396">
        <ele>813.329315</ele>
        <time>2011-02-06T11:06:56.45</time>
      </trkpt>
      <trkpt lat="44.93465" lon="5.62399">
        <ele>813.3293</ele>
        <time>2011-02-06T11:06:58.12</time>
      </trkpt>
      <trkpt lat="44.93452" lon="5.62404">
        <ele>814.329277</ele>
        <time>2011-02-06T11:07:01.4</time>
      </trkpt>
      <trkpt lat="44.93445" lon="5.62408">
        <ele>813.329269</ele>
        <time>2011-02-06T11:07:03.101</time>
      </trkpt>
      <trkpt lat="44.93436" lon="5.62414">
        <ele>815.329258</ele>
        <time>2011-02-06T11:07:05.999</time>
      </trkpt>
      <trkpt lat="44.93434" lon="5.62416">
        <ele>815.329258</ele>
        <time>2011-02-06T11:07:07.35</time>
      </trkpt>
      <trkpt lat="44.93426" lon="5.62421">
        <ele>816.32925</ele>
        <time>2011-02-06T11:07:09.998</time>
      </trkpt>
      <trkpt lat="44.93424" lon="5.62423">
        <ele>817.329247</ele>
        <time>2011-02-06T11:07:11.40</time>
      </trkpt>
      <trkpt lat="44.93417" lon="5.62428">
        <ele>817.329239</ele>
        <time>2011-02-06T11:07:14.2</time>
      </trkpt>
      <trkpt lat="44.93413" lon="5.62431">
        <ele>817.329231</ele>
        <time>2011-02-06T11:07:16</time>
      </trkpt>
      <trkpt lat="44.93409" lon="5.62434">
        <ele>817.329235</ele>
        <time>2011-02-06T11:07:18.83</time>
      </trkpt>
      <trkpt lat="44.93404" lon="5.62439">
        <ele>816.329227</ele>
        <time>2011-02-06T11:07:20.995</time>
      </trkpt>
      <trkpt lat="44.93401" lon="5.62444">
        <ele>816.329227</ele>
        <time>2011-02-06T11:07:22.995</time>
      </trkpt>
      <trkpt lat="44.93392" lon="5.62455">
        <ele>815.329224</ele>
        <time>2011-02-06T11:07:28.998</time>
      </trkpt>
      <trkpt lat="44.9339" lon="5.62457">
        <ele>815.329224</ele>
        <time>2011-02-06T11:07:30.109</time>
      </trkpt>
      <trkpt lat="44.93386" lon="5.62461">
        <ele>815.329224</ele>
        <time>2011-02-06T11:07:32.1</time>
      </trkpt>
      <trkpt lat="44.93379" lon="5.62468">
        <ele>814.32922</ele>
        <time>2011-02-06T11:07:35.39</time>
      </trkpt>
      <trkpt lat="44.93374" lon="5.62472">
        <ele>813.329212</ele>
        <time>2011-02-06T11:07:37</time>
      </trkpt>
      <trkpt lat="44.93369" lon="5.62477">
        <ele>812.329208</ele>
        <time>2011-02-06T11:07:39.46</time>
      </trkpt>
      <trkpt lat="44.93363" lon="5.62482">
        <ele>812.329205</ele>
        <time>2011-02-06T11:07:41.45</time>
      </trkpt>
      <trkpt lat="44.93355" lon="5.62489">
        <ele>811.329197</ele>
        <time>2011-02-06T11:07:43.995</time>
      </trkpt>
      <trkpt lat="44.93352" lon="5.62491">
        <ele>810.329193</ele>
        <time>2011-02-06T11:07:45.186</time>
      </trkpt>
      <trkpt lat="44.93344" lon="5.62498">
        <ele>810.329185</ele>
        <time>2011-02-06T11:07:47.994</time>
      </trkpt>
      <trkpt lat="44.93341" lon="5.625">
        <ele>810.329185</ele>
        <time>2011-02-06T11:07:49.36</time>
      </trkpt>
      <trkpt lat="44.93334" lon="5.62507">
        <ele>809.329178</ele>
        <time>2011-02-06T11:07:51.996</time>
      </trkpt>
      <trkpt lat="44.93331" lon="5.62509">
        <ele>809.329178</ele>
        <time>2011-02-06T11:07:53.47</time>
      </trkpt>
      <trkpt lat="44.93323" lon="5.62515">
        <ele>809.329163</ele>
        <time>2011-02-06T11:07:55.995</time>
      </trkpt>
      <trkpt lat="44.9332" lon="5.62517">
        <ele>810.329163</ele>
        <time>2011-02-06T11:07:57.46</time>
      </trkpt>
      <trkpt lat="44.93312" lon="5.62522">
        <ele>809.329155</ele>
        <time>2011-02-06T11:08:00.112</time>
      </trkpt>
      <trkpt lat="44.93305" lon="5.62527">
        <ele>810.329147</ele>
        <time>2011-02-06T11:08:02.995</time>
      </trkpt>
      <trkpt lat="44.93302" lon="5.62528">
        <ele>810.329144</ele>
        <time>2011-02-06T11:08:04.110</time>
      </trkpt>
      <trkpt lat="44.93294" lon="5.62533">
        <ele>810.329132</ele>
        <time>2011-02-06T11:08:06.998</time>
      </trkpt>
      <trkpt lat="44.93289" lon="5.62536">
        <ele>810.329124</ele>
        <time>2011-02-06T11:08:08.996</time>
      </trkpt>
      <trkpt lat="44.93286" lon="5.62538">
        <ele>810.329124</ele>
        <time>2011-02-06T11:08:10.109</time>
      </trkpt>
      <trkpt lat="44.93277" lon="5.62542">
        <ele>810.329109</ele>
        <time>2011-02-06T11:08:12.995</time>
      </trkpt>
      <trkpt lat="44.93275" lon="5.62544">
        <ele>809.329105</ele>
        <time>2011-02-06T11:08:14.109</time>
      </trkpt>
      <trkpt lat="44.93269" lon="5.62547">
        <ele>809.329098</ele>
        <time>2011-02-06T11:08:16.148</time>
      </trkpt>
      <trkpt lat="44.93263" lon="5.6255">
        <ele>809.329086</ele>
        <time>2011-02-06T11:08:18.23</time>
      </trkpt>
      <trkpt lat="44.93254" lon="5.62554">
        <ele>809.329071</ele>
        <time>2011-02-06T11:08:21.14</time>
      </trkpt>
      <trkpt lat="44.93245" lon="5.62557">
        <ele>809.329063</ele>
        <time>2011-02-06T11:08:23.999</time>
      </trkpt>
      <trkpt lat="44.93242" lon="5.62558">
        <ele>809.329056</ele>
        <time>2011-02-06T11:08:25.43</time>
      </trkpt>
      <trkpt lat="44.93233" lon="5.62561">
        <ele>810.329041</ele>
        <time>2011-02-06T11:08:27.995</time>
      </trkpt>
      <trkpt lat="44.93226" lon="5.62563">
        <ele>810.329029</ele>
        <time>2011-02-06T11:08:30.46</time>
      </trkpt>
      <trkpt lat="44.9322" lon="5.62565">
        <ele>809.329021</ele>
        <time>2011-02-06T11:08:32.149</time>
      </trkpt>
      <trkpt lat="44.93211" lon="5.62567">
        <ele>809.329002</ele>
        <time>2011-02-06T11:08:34.991</time>
      </trkpt>
      <trkpt lat="44.93207" lon="5.62567">
        <ele>810.328995</ele>
        <time>2011-02-06T11:08:36.63</time>
      </trkpt>
      <trkpt lat="44.93197" lon="5.62569">
        <ele>810.328972</ele>
        <time>2011-02-06T11:08:38.997</time>
      </trkpt>
      <trkpt lat="44.93194" lon="5.6257">
        <ele>811.328972</ele>
        <time>2011-02-06T11:08:40.101</time>
      </trkpt>
      <trkpt lat="44.93184" lon="5.62573">
        <ele>811.328949</ele>
        <time>2011-02-06T11:08:43.38</time>
      </trkpt>
      <trkpt lat="44.93174" lon="5.62576">
        <ele>811.328934</ele>
        <time>2011-02-06T11:08:45.993</time>
      </trkpt>
      <trkpt lat="44.93171" lon="5.62578">
        <ele>812.328934</ele>
        <time>2011-02-06T11:08:47.56</time>
      </trkpt>
      <trkpt lat="44.93161" lon="5.62583">
        <ele>812.328915</ele>
        <time>2011-02-06T11:08:49.993</time>
      </trkpt>
      <trkpt lat="44.93158" lon="5.62584">
        <ele>812.328911</ele>
        <time>2011-02-06T11:08:51.54</time>
      </trkpt>
      <trkpt lat="44.93152" lon="5.62588">
        <ele>812.328903</ele>
        <time>2011-02-06T11:08:53.96</time>
      </trkpt>
      <trkpt lat="44.93142" lon="5.62592">
        <ele>813.328892</ele>
        <time>2011-02-06T11:08:55.990</time>
      </trkpt>
      <trkpt lat="44.93139" lon="5.62594">
        <ele>813.328888</ele>
        <time>2011-02-06T11:08:57.36</time>
      </trkpt>
      <trkpt lat="44.9313" lon="5.62598">
        <ele>812.328873</ele>
        <time>2011-02-06T11:08:59.995</time>
      </trkpt>
      <trkpt lat="44.93125" lon="5.62599">
        <ele>812.328865</ele>
        <time>2011-02-06T11:09:01.990</time>
      </trkpt>
      <trkpt lat="44.93123" lon="5.626">
        <ele>812.328857</ele>
        <time>2011-02-06T11:09:03.34</time>
      </trkpt>
      <trkpt lat="44.9312" lon="5.62597">
        <ele>813.32885</ele>
        <time>2011-02-06T11:09:05.994</time>
      </trkpt>
      <trkpt lat="44.93118" lon="5.62594">
        <ele>813.328842</ele>
        <time>2011-02-06T11:09:08.46</time>
      </trkpt>
      <trkpt lat="44.93114" lon="5.62589">
        <ele>815.328827</ele>
        <time>2011-02-06T11:09:10.987</time>
      </trkpt>
      <trkpt lat="44.93111" lon="5.62587">
        <ele>816.328812</ele>
        <time>2011-02-06T11:09:12.995</time>
      </trkpt>
      <trkpt lat="44.93109" lon="5.62585">
        <ele>816.328804</ele>
        <time>2011-02-06T11:09:14.66</time>
      </trkpt>
      <trkpt lat="44.93101" lon="5.6258">
        <ele>818.328781</ele>
        <time>2011-02-06T11:09:17.995</time>
      </trkpt>
      <trkpt lat="44.93099" lon="5.62579">
        <ele>819.328773</ele>
        <time>2011-02-06T11:09:19.57</time>
      </trkpt>
      <trkpt lat="44.9309" lon="5.62576">
        <ele>820.328754</ele>
        <time>2011-02-06T11:09:21.997</time>
      </trkpt>
      <trkpt lat="44.93082" lon="5.62576">
        <ele>821.328735</ele>
        <time>2011-02-06T11:09:23.994</time>
      </trkpt>
      <trkpt lat="44.93077" lon="5.62577">
        <ele>822.328724</ele>
        <time>2011-02-06T11:09:25.109</time>
      </trkpt>
      <trkpt lat="44.9306" lon="5.62582">
        <ele>820.328697</ele>
        <time>2011-02-06T11:09:27.996</time>
      </trkpt>
      <trkpt lat="44.93054" lon="5.62585">
        <ele>819.32869</ele>
        <time>2011-02-06T11:09:29.42</time>
      </trkpt>
      <trkpt lat="44.93044" lon="5.62591">
        <ele>817.328674</ele>
        <time>2011-02-06T11:09:31.15</time>
      </trkpt>
      <trkpt lat="44.93034" lon="5.62603">
        <ele>816.328674</ele>
        <time>2011-02-06T11:09:34</time>
      </trkpt>
      <trkpt lat="44.93026" lon="5.62615">
        <ele>815.328667</ele>
        <time>2011-02-06T11:09:36.995</time>
      </trkpt>
      <trkpt lat="44.93024" lon="5.62619">
        <ele>815.328674</ele>
        <time>2011-02-06T11:09:38.87</time>
      </trkpt>
      <trkpt lat="44.93019" lon="5.62633">
        <ele>814.328682</ele>
        <time>2011-02-06T11:09:40.994</time>
      </trkpt>
      <trkpt lat="44.93017" lon="5.62637">
        <ele>814.328686</ele>
        <time>2011-02-06T11:09:42.68</time>
      </trkpt>
      <trkpt lat="44.93012" lon="5.62651">
        <ele>813.328697</ele>
        <time>2011-02-06T11:09:44.994</time>
      </trkpt>
      <trkpt lat="44.93011" lon="5.62656">
        <ele>813.328701</ele>
        <time>2011-02-06T11:09:46.110</time>
      </trkpt>
      <trkpt lat="44.93007" lon="5.62669">
        <ele>812.328712</ele>
        <time>2011-02-06T11:09:48.995</time>
      </trkpt>
      <trkpt lat="44.93005" lon="5.62673">
        <ele>813.328712</ele>
        <time>2011-02-06T11:09:50.123</time>
      </trkpt>
      <trkpt lat="44.93001" lon="5.62684">
        <ele>813.32872</ele>
        <time>2011-02-06T11:09:52.990</time>
      </trkpt>
      <trkpt lat="44.93" lon="5.62687">
        <ele>814.328724</ele>
        <time>2011-02-06T11:09:54.61</time>
      </trkpt>
      <trkpt lat="44.92995" lon="5.62698">
        <ele>815.328732</ele>
        <time>2011-02-06T11:09:56.997</time>
      </trkpt>
      <trkpt lat="44.92994" lon="5.62701">
        <ele>815.328735</ele>
        <time>2011-02-06T11:09:58.136</time>
      </trkpt>
      <trkpt lat="44.9299" lon="5.62712">
        <ele>816.328743</ele>
        <time>2011-02-06T11:10:00.995</time>
      </trkpt>
      <trkpt lat="44.92988" lon="5.62719">
        <ele>817.328747</ele>
        <time>2011-02-06T11:10:02.991</time>
      </trkpt>
      <trkpt lat="44.92986" lon="5.62722">
        <ele>817.328751</ele>
        <time>2011-02-06T11:10:04.19</time>
      </trkpt>
      <trkpt lat="44.92982" lon="5.62731">
        <ele>817.328751</ele>
        <time>2011-02-06T11:10:06.995</time>
      </trkpt>
      <trkpt lat="44.92981" lon="5.62734">
        <ele>818.328754</ele>
        <time>2011-02-06T11:10:08.28</time>
      </trkpt>
      <trkpt lat="44.92978" lon="5.6274">
        <ele>818.328758</ele>
        <time>2011-02-06T11:10:10.52</time>
      </trkpt>
      <trkpt lat="44.92975" lon="5.6275">
        <ele>819.328766</ele>
        <time>2011-02-06T11:10:12.998</time>
      </trkpt>
      <trkpt lat="44.92972" lon="5.62757">
        <ele>818.328773</ele>
        <time>2011-02-06T11:10:14.995</time>
      </trkpt>
      <trkpt lat="44.92971" lon="5.62761">
        <ele>818.328773</ele>
        <time>2011-02-06T11:10:16.78</time>
      </trkpt>
      <trkpt lat="44.92969" lon="5.62769">
        <ele>818.328781</ele>
        <time>2011-02-06T11:10:18.2</time>
      </trkpt>
      <trkpt lat="44.92966" lon="5.62776">
        <ele>818.328789</ele>
        <time>2011-02-06T11:10:20.18</time>
      </trkpt>
      <trkpt lat="44.92964" lon="5.62784">
        <ele>818.328793</ele>
        <time>2011-02-06T11:10:22.19</time>
      </trkpt>
      <trkpt lat="44.9296" lon="5.62795">
        <ele>817.328804</ele>
        <time>2011-02-06T11:10:24.996</time>
      </trkpt>
      <trkpt lat="44.92959" lon="5.62799">
        <ele>817.328808</ele>
        <time>2011-02-06T11:10:26.109</time>
      </trkpt>
      <trkpt lat="44.92956" lon="5.62807">
        <ele>817.328812</ele>
        <time>2011-02-06T11:10:28.153</time>
      </trkpt>
      <trkpt lat="44.92951" lon="5.62817">
        <ele>817.328815</ele>
        <time>2011-02-06T11:10:30.994</time>
      </trkpt>
      <trkpt lat="44.92949" lon="5.6282">
        <ele>816.328819</ele>
        <time>2011-02-06T11:10:32.80</time>
      </trkpt>
      <trkpt lat="44.92945" lon="5.6283">
        <ele>817.328819</ele>
        <time>2011-02-06T11:10:34.993</time>
      </trkpt>
      <trkpt lat="44.92943" lon="5.62834">
        <ele>817.328827</ele>
        <time>2011-02-06T11:10:36.109</time>
      </trkpt>
      <trkpt lat="44.92938" lon="5.62844">
        <ele>817.328831</ele>
        <time>2011-02-06T11:10:38.991</time>
      </trkpt>
      <trkpt lat="44.92937" lon="5.62848">
        <ele>817.328831</ele>
        <time>2011-02-06T11:10:40.138</time>
      </trkpt>
      <trkpt lat="44.92933" lon="5.62855">
        <ele>818.328838</ele>
        <time>2011-02-06T11:10:42.22</time>
      </trkpt>
      <trkpt lat="44.92928" lon="5.62865">
        <ele>819.328838</ele>
        <time>2011-02-06T11:10:44.997</time>
      </trkpt>
      <trkpt lat="44.92926" lon="5.62868">
        <ele>819.328838</ele>
        <time>2011-02-06T11:10:46.89</time>
      </trkpt>
      <trkpt lat="44.92921" lon="5.62878">
        <ele>819.328842</ele>
        <time>2011-02-06T11:10:48.992</time>
      </trkpt>
      <trkpt lat="44.92919" lon="5.62881">
        <ele>819.328842</ele>
        <time>2011-02-06T11:10:50.19</time>
      </trkpt>
      <trkpt lat="44.92913" lon="5.62889">
        <ele>820.328846</ele>
        <time>2011-02-06T11:10:52.990</time>
      </trkpt>
      <trkpt lat="44.92909" lon="5.62894">
        <ele>820.328842</ele>
        <time>2011-02-06T11:10:55.36</time>
      </trkpt>
      <trkpt lat="44.92904" lon="5.62902">
        <ele>820.328842</ele>
        <time>2011-02-06T11:10:57.995</time>
      </trkpt>
      <trkpt lat="44.92902" lon="5.62905">
        <ele>820.328846</ele>
        <time>2011-02-06T11:10:59.72</time>
      </trkpt>
      <trkpt lat="44.92897" lon="5.62912">
        <ele>820.328842</ele>
        <time>2011-02-06T11:11:01.992</time>
      </trkpt>
      <trkpt lat="44.92895" lon="5.62914">
        <ele>821.328842</ele>
        <time>2011-02-06T11:11:03.98</time>
      </trkpt>
      <trkpt lat="44.92888" lon="5.62922">
        <ele>821.328842</ele>
        <time>2011-02-06T11:11:06.16</time>
      </trkpt>
      <trkpt lat="44.92884" lon="5.62927">
        <ele>821.328842</ele>
        <time>2011-02-06T11:11:08.52</time>
      </trkpt>
      <trkpt lat="44.9288" lon="5.62933">
        <ele>822.328842</ele>
        <time>2011-02-06T11:11:10.3</time>
      </trkpt>
      <trkpt lat="44.92876" lon="5.6294">
        <ele>822.328842</ele>
        <time>2011-02-06T11:11:12.36</time>
      </trkpt>
      <trkpt lat="44.9287" lon="5.6295">
        <ele>822.328842</ele>
        <time>2011-02-06T11:11:14.996</time>
      </trkpt>
      <trkpt lat="44.92868" lon="5.62954">
        <ele>822.328842</ele>
        <time>2011-02-06T11:11:16.163</time>
      </trkpt>
      <trkpt lat="44.92864" lon="5.62967">
        <ele>823.328857</ele>
        <time>2011-02-06T11:11:18.994</time>
      </trkpt>
      <trkpt lat="44.92863" lon="5.62971">
        <ele>822.328861</ele>
        <time>2011-02-06T11:11:20.83</time>
      </trkpt>
      <trkpt lat="44.9286" lon="5.62983">
        <ele>822.328876</ele>
        <time>2011-02-06T11:11:22.991</time>
      </trkpt>
      <trkpt lat="44.92859" lon="5.62992">
        <ele>823.328884</ele>
        <time>2011-02-06T11:11:24.995</time>
      </trkpt>
      <trkpt lat="44.92859" lon="5.62996">
        <ele>823.328892</ele>
        <time>2011-02-06T11:11:26.84</time>
      </trkpt>
      <trkpt lat="44.92861" lon="5.63009">
        <ele>823.328918</ele>
        <time>2011-02-06T11:11:28.994</time>
      </trkpt>
      <trkpt lat="44.92862" lon="5.63014">
        <ele>824.328922</ele>
        <time>2011-02-06T11:11:30.109</time>
      </trkpt>
      <trkpt lat="44.92863" lon="5.63022">
        <ele>824.328941</ele>
        <time>2011-02-06T11:11:32.36</time>
      </trkpt>
      <trkpt lat="44.92866" lon="5.63035">
        <ele>823.328968</ele>
        <time>2011-02-06T11:11:34.993</time>
      </trkpt>
      <trkpt lat="44.92867" lon="5.63039">
        <ele>823.328972</ele>
        <time>2011-02-06T11:11:36.109</time>
      </trkpt>
      <trkpt lat="44.92869" lon="5.63046">
        <ele>823.328987</ele>
        <time>2011-02-06T11:11:38.140</time>
      </trkpt>
      <trkpt lat="44.9287" lon="5.63055">
        <ele>823.329006</ele>
        <time>2011-02-06T11:11:40.21</time>
      </trkpt>
      <trkpt lat="44.92871" lon="5.63063">
        <ele>823.329021</ele>
        <time>2011-02-06T11:11:42.9</time>
      </trkpt>
      <trkpt lat="44.92873" lon="5.63076">
        <ele>823.329041</ele>
        <time>2011-02-06T11:11:44.996</time>
      </trkpt>
      <trkpt lat="44.92874" lon="5.6308">
        <ele>823.329052</ele>
        <time>2011-02-06T11:11:46.107</time>
      </trkpt>
      <trkpt lat="44.92876" lon="5.63091">
        <ele>823.329075</ele>
        <time>2011-02-06T11:11:48.997</time>
      </trkpt>
      <trkpt lat="44.92876" lon="5.63095">
        <ele>823.329079</ele>
        <time>2011-02-06T11:11:50.57</time>
      </trkpt>
      <trkpt lat="44.92879" lon="5.63107">
        <ele>824.329102</ele>
        <time>2011-02-06T11:11:52.990</time>
      </trkpt>
      <trkpt lat="44.9288" lon="5.6311">
        <ele>824.329113</ele>
        <time>2011-02-06T11:11:54.109</time>
      </trkpt>
      <trkpt lat="44.92882" lon="5.63122">
        <ele>824.329132</ele>
        <time>2011-02-06T11:11:56.993</time>
      </trkpt>
      <trkpt lat="44.92883" lon="5.63127">
        <ele>825.329147</ele>
        <time>2011-02-06T11:11:58.107</time>
      </trkpt>
      <trkpt lat="44.92885" lon="5.6314">
        <ele>825.32917</ele>
        <time>2011-02-06T11:12:00.996</time>
      </trkpt>
      <trkpt lat="44.92887" lon="5.63149">
        <ele>825.329185</ele>
        <time>2011-02-06T11:12:02.994</time>
      </trkpt>
      <trkpt lat="44.92889" lon="5.63157">
        <ele>825.329208</ele>
        <time>2011-02-06T11:12:04.992</time>
      </trkpt>
      <trkpt lat="44.92891" lon="5.63166">
        <ele>825.329224</ele>
        <time>2011-02-06T11:12:07.17</time>
      </trkpt>
      <trkpt lat="44.92893" lon="5.63173">
        <ele>824.329239</ele>
        <time>2011-02-06T11:12:09.40</time>
      </trkpt>
      <trkpt lat="44.92896" lon="5.6318">
        <ele>824.329254</ele>
        <time>2011-02-06T11:12:11.57</time>
      </trkpt>
      <trkpt lat="44.92899" lon="5.63191">
        <ele>824.329277</ele>
        <time>2011-02-06T11:12:13.988</time>
      </trkpt>
      <trkpt lat="44.929" lon="5.63199">
        <ele>825.329288</ele>
        <time>2011-02-06T11:12:15.993</time>
      </trkpt>
      <trkpt lat="44.92901" lon="5.63203">
        <ele>825.3293</ele>
        <time>2011-02-06T11:12:17.129</time>
      </trkpt>
      <trkpt lat="44.92905" lon="5.63213">
        <ele>825.329323</ele>
        <time>2011-02-06T11:12:19.987</time>
      </trkpt>
      <trkpt lat="44.92906" lon="5.63217">
        <ele>824.329334</ele>
        <time>2011-02-06T11:12:21.52</time>
      </trkpt>
      <trkpt lat="44.9291" lon="5.63227">
        <ele>825.329357</ele>
        <time>2011-02-06T11:12:23.991</time>
      </trkpt>
      <trkpt lat="44.92912" lon="5.63231">
        <ele>825.329369</ele>
        <time>2011-02-06T11:12:25.138</time>
      </trkpt>
      <trkpt lat="44.92915" lon="5.63237">
        <ele>824.329384</ele>
        <time>2011-02-06T11:12:27.164</time>
      </trkpt>
      <trkpt lat="44.92919" lon="5.63244">
        <ele>824.329403</ele>
        <time>2011-02-06T11:12:29.30</time>
      </trkpt>
      <trkpt lat="44.92925" lon="5.63253">
        <ele>825.32943</ele>
        <time>2011-02-06T11:12:32.35</time>
      </trkpt>
      <trkpt lat="44.92931" lon="5.63263">
        <ele>825.329456</ele>
        <time>2011-02-06T11:12:34.997</time>
      </trkpt>
      <trkpt lat="44.92936" lon="5.63269">
        <ele>824.329475</ele>
        <time>2011-02-06T11:12:36.997</time>
      </trkpt>
      <trkpt lat="44.92937" lon="5.63272">
        <ele>825.329483</ele>
        <time>2011-02-06T11:12:38.60</time>
      </trkpt>
      <trkpt lat="44.92944" lon="5.63281">
        <ele>825.329514</ele>
        <time>2011-02-06T11:12:40.992</time>
      </trkpt>
      <trkpt lat="44.92946" lon="5.63284">
        <ele>825.329525</ele>
        <time>2011-02-06T11:12:42.35</time>
      </trkpt>
      <trkpt lat="44.92952" lon="5.63293">
        <ele>825.329552</ele>
        <time>2011-02-06T11:12:44.992</time>
      </trkpt>
      <trkpt lat="44.92954" lon="5.63296">
        <ele>825.329559</ele>
        <time>2011-02-06T11:12:46.25</time>
      </trkpt>
      <trkpt lat="44.92961" lon="5.63307">
        <ele>826.32959</ele>
        <time>2011-02-06T11:12:49.109</time>
      </trkpt>
      <trkpt lat="44.92967" lon="5.63318">
        <ele>825.329624</ele>
        <time>2011-02-06T11:12:51.994</time>
      </trkpt>
      <trkpt lat="44.92969" lon="5.63322">
        <ele>825.329632</ele>
        <time>2011-02-06T11:12:53.109</time>
      </trkpt>
      <trkpt lat="44.92975" lon="5.63333">
        <ele>825.329666</ele>
        <time>2011-02-06T11:12:55.991</time>
      </trkpt>
      <trkpt lat="44.92977" lon="5.63337">
        <ele>824.329674</ele>
        <time>2011-02-06T11:12:57.28</time>
      </trkpt>
      <trkpt lat="44.9298" lon="5.63344">
        <ele>824.329689</ele>
        <time>2011-02-06T11:12:59.2</time>
      </trkpt>
      <trkpt lat="44.92984" lon="5.63356">
        <ele>824.329716</ele>
        <time>2011-02-06T11:13:02.64</time>
      </trkpt>
      <trkpt lat="44.92986" lon="5.63364">
        <ele>824.329735</ele>
        <time>2011-02-06T11:13:04.6</time>
      </trkpt>
      <trkpt lat="44.9299" lon="5.63377">
        <ele>825.329762</ele>
        <time>2011-02-06T11:13:06.996</time>
      </trkpt>
      <trkpt lat="44.9299" lon="5.63381">
        <ele>825.329765</ele>
        <time>2011-02-06T11:13:08.9</time>
      </trkpt>
      <trkpt lat="44.92992" lon="5.63393">
        <ele>826.329792</ele>
        <time>2011-02-06T11:13:10.991</time>
      </trkpt>
      <trkpt lat="44.92992" lon="5.63397">
        <ele>826.329796</ele>
        <time>2011-02-06T11:13:12.5</time>
      </trkpt>
      <trkpt lat="44.92992" lon="5.63408">
        <ele>826.329811</ele>
        <time>2011-02-06T11:13:14.993</time>
      </trkpt>
      <trkpt lat="44.92991" lon="5.63412">
        <ele>826.329819</ele>
        <time>2011-02-06T11:13:16.37</time>
      </trkpt>
      <trkpt lat="44.92988" lon="5.63421">
        <ele>827.329826</ele>
        <time>2011-02-06T11:13:19.102</time>
      </trkpt>
      <trkpt lat="44.92983" lon="5.63427">
        <ele>827.329823</ele>
        <time>2011-02-06T11:13:21.993</time>
      </trkpt>
      <trkpt lat="44.9298" lon="5.63429">
        <ele>828.329819</ele>
        <time>2011-02-06T11:13:23.992</time>
      </trkpt>
      <trkpt lat="44.92978" lon="5.63431">
        <ele>828.329819</ele>
        <time>2011-02-06T11:13:25.991</time>
      </trkpt>
      <trkpt lat="44.92979" lon="5.63429">
        <ele>829.329819</ele>
        <time>2011-02-06T11:13:28.32</time>
      </trkpt>
      <trkpt lat="44.92975" lon="5.6343">
        <ele>830.329811</ele>
        <time>2011-02-06T11:13:32.995</time>
      </trkpt>
      <trkpt lat="44.92975" lon="5.63431">
        <ele>830.329811</ele>
        <time>2011-02-06T11:13:34.23</time>
      </trkpt>
      <trkpt lat="44.92972" lon="5.63433">
        <ele>832.329811</ele>
        <time>2011-02-06T11:13:36.994</time>
      </trkpt>
      <trkpt lat="44.9297" lon="5.63434">
        <ele>834.329803</ele>
        <time>2011-02-06T11:13:39.30</time>
      </trkpt>
      <trkpt lat="44.92959" lon="5.63441">
        <ele>836.329792</ele>
        <time>2011-02-06T11:13:43.994</time>
      </trkpt>
      <trkpt lat="44.92953" lon="5.63445">
        <ele>837.329788</ele>
        <time>2011-02-06T11:13:45.993</time>
      </trkpt>
      <trkpt lat="44.92947" lon="5.6345">
        <ele>838.329781</ele>
        <time>2011-02-06T11:13:47.997</time>
      </trkpt>
      <trkpt lat="44.92939" lon="5.63456">
        <ele>838.329773</ele>
        <time>2011-02-06T11:13:49.986</time>
      </trkpt>
      <trkpt lat="44.9293" lon="5.63463">
        <ele>838.329762</ele>
        <time>2011-02-06T11:13:51.993</time>
      </trkpt>
      <trkpt lat="44.92925" lon="5.63466">
        <ele>838.329754</ele>
        <time>2011-02-06T11:13:53.52</time>
      </trkpt>
      <trkpt lat="44.92913" lon="5.63475">
        <ele>838.329742</ele>
        <time>2011-02-06T11:13:55.994</time>
      </trkpt>
      <trkpt lat="44.92909" lon="5.63478">
        <ele>838.329742</ele>
        <time>2011-02-06T11:13:57.83</time>
      </trkpt>
      <trkpt lat="44.92903" lon="5.63483">
        <ele>838.329735</ele>
        <time>2011-02-06T11:13:59.107</time>
      </trkpt>
      <trkpt lat="44.92897" lon="5.63489">
        <ele>837.329727</ele>
        <time>2011-02-06T11:14:01.990</time>
      </trkpt>
      <trkpt lat="44.92892" lon="5.63493">
        <ele>836.329727</ele>
        <time>2011-02-06T11:14:03.990</time>
      </trkpt>
      <trkpt lat="44.92888" lon="5.63497">
        <ele>836.329723</ele>
        <time>2011-02-06T11:14:05.993</time>
      </trkpt>
      <trkpt lat="44.92882" lon="5.63499">
        <ele>836.329716</ele>
        <time>2011-02-06T11:14:07.990</time>
      </trkpt>
      <trkpt lat="44.92877" lon="5.63502">
        <ele>836.329704</ele>
        <time>2011-02-06T11:14:10.16</time>
      </trkpt>
      <trkpt lat="44.92869" lon="5.63508">
        <ele>836.329697</ele>
        <time>2011-02-06T11:14:12.995</time>
      </trkpt>
      <trkpt lat="44.92857" lon="5.63516">
        <ele>835.329685</ele>
        <time>2011-02-06T11:14:17.995</time>
      </trkpt>
      <trkpt lat="44.9285" lon="5.63519">
        <ele>833.32967</ele>
        <time>2011-02-06T11:14:21.994</time>
      </trkpt>
      <trkpt lat="44.92848" lon="5.6352">
        <ele>833.329674</ele>
        <time>2011-02-06T11:14:23.125</time>
      </trkpt>
      <trkpt lat="44.92842" lon="5.63521">
        <ele>832.329659</ele>
        <time>2011-02-06T11:14:25.986</time>
      </trkpt>
      <trkpt lat="44.9284" lon="5.63521">
        <ele>832.329659</ele>
        <time>2011-02-06T11:14:27.56</time>
      </trkpt>
      <trkpt lat="44.92833" lon="5.6352">
        <ele>831.329639</ele>
        <time>2011-02-06T11:14:29.989</time>
      </trkpt>
      <trkpt lat="44.92825" lon="5.63516">
        <ele>830.329617</ele>
        <time>2011-02-06T11:14:33.997</time>
      </trkpt>
      <trkpt lat="44.92822" lon="5.63515">
        <ele>830.329605</ele>
        <time>2011-02-06T11:14:35.20</time>
      </trkpt>
      <trkpt lat="44.92818" lon="5.63513">
        <ele>830.329594</ele>
        <time>2011-02-06T11:14:37.1</time>
      </trkpt>
      <trkpt lat="44.92803" lon="5.63508">
        <ele>828.329556</ele>
        <time>2011-02-06T11:14:42.991</time>
      </trkpt>
      <trkpt lat="44.92797" lon="5.63507">
        <ele>828.32954</ele>
        <time>2011-02-06T11:14:44.991</time>
      </trkpt>
      <trkpt lat="44.9279" lon="5.63507">
        <ele>827.329525</ele>
        <time>2011-02-06T11:14:47.23</time>
      </trkpt>
      <trkpt lat="44.92779" lon="5.63507">
        <ele>827.329502</ele>
        <time>2011-02-06T11:14:49.991</time>
      </trkpt>
      <trkpt lat="44.9277" lon="5.63506">
        <ele>827.329479</ele>
        <time>2011-02-06T11:14:52.987</time>
      </trkpt>
      <trkpt lat="44.92761" lon="5.63504">
        <ele>827.329456</ele>
        <time>2011-02-06T11:14:55.989</time>
      </trkpt>
      <trkpt lat="44.92755" lon="5.63504">
        <ele>828.329437</ele>
        <time>2011-02-06T11:14:57.995</time>
      </trkpt>
      <trkpt lat="44.92752" lon="5.63504">
        <ele>827.329433</ele>
        <time>2011-02-06T11:14:59.83</time>
      </trkpt>
      <trkpt lat="44.92746" lon="5.63504">
        <ele>827.329418</ele>
        <time>2011-02-06T11:15:01.19</time>
      </trkpt>
      <trkpt lat="44.92736" lon="5.63504">
        <ele>828.329403</ele>
        <time>2011-02-06T11:15:03.992</time>
      </trkpt>
      <trkpt lat="44.92721" lon="5.63506">
        <ele>828.329376</ele>
        <time>2011-02-06T11:15:08.992</time>
      </trkpt>
      <trkpt lat="44.92718" lon="5.63506">
        <ele>828.329369</ele>
        <time>2011-02-06T11:15:10.22</time>
      </trkpt>
      <trkpt lat="44.9271" lon="5.63505">
        <ele>829.32935</ele>
        <time>2011-02-06T11:15:12.995</time>
      </trkpt>
      <trkpt lat="44.92708" lon="5.63505">
        <ele>829.329346</ele>
        <time>2011-02-06T11:15:14.84</time>
      </trkpt>
      <trkpt lat="44.92703" lon="5.63504">
        <ele>829.32933</ele>
        <time>2011-02-06T11:15:16.18</time>
      </trkpt>
      <trkpt lat="44.92694" lon="5.635">
        <ele>828.329308</ele>
        <time>2011-02-06T11:15:19.991</time>
      </trkpt>
      <trkpt lat="44.9269" lon="5.63499">
        <ele>827.329292</ele>
        <time>2011-02-06T11:15:21.988</time>
      </trkpt>
      <trkpt lat="44.92682" lon="5.63496">
        <ele>828.329273</ele>
        <time>2011-02-06T11:15:25.992</time>
      </trkpt>
      <trkpt lat="44.92678" lon="5.63494">
        <ele>827.329262</ele>
        <time>2011-02-06T11:15:28.1</time>
      </trkpt>
      <trkpt lat="44.92669" lon="5.63488">
        <ele>828.329231</ele>
        <time>2011-02-06T11:15:32.993</time>
      </trkpt>
      <trkpt lat="44.92666" lon="5.63485">
        <ele>828.32922</ele>
        <time>2011-02-06T11:15:34.992</time>
      </trkpt>
      <trkpt lat="44.92662" lon="5.63483">
        <ele>828.329208</ele>
        <time>2011-02-06T11:15:36.995</time>
      </trkpt>
      <trkpt lat="44.92658" lon="5.6348">
        <ele>828.329193</ele>
        <time>2011-02-06T11:15:38.995</time>
      </trkpt>
      <trkpt lat="44.92649" lon="5.63476">
        <ele>829.329174</ele>
        <time>2011-02-06T11:15:43.991</time>
      </trkpt>
      <trkpt lat="44.92646" lon="5.63475">
        <ele>829.329163</ele>
        <time>2011-02-06T11:15:45.995</time>
      </trkpt>
      <trkpt lat="44.92642" lon="5.63473">
        <ele>829.329151</ele>
        <time>2011-02-06T11:15:47.993</time>
      </trkpt>
      <trkpt lat="44.92638" lon="5.63471">
        <ele>829.32914</ele>
        <time>2011-02-06T11:15:49.989</time>
      </trkpt>
      <trkpt lat="44.92614" lon="5.63463">
        <ele>829.329071</ele>
        <time>2011-02-06T11:15:58.992</time>
      </trkpt>
      <trkpt lat="44.92606" lon="5.63462">
        <ele>829.329056</ele>
        <time>2011-02-06T11:16:00.996</time>
      </trkpt>
      <trkpt lat="44.92598" lon="5.63461">
        <ele>828.329037</ele>
        <time>2011-02-06T11:16:02.995</time>
      </trkpt>
      <trkpt lat="44.9259" lon="5.63459">
        <ele>829.329014</ele>
        <time>2011-02-06T11:16:04.990</time>
      </trkpt>
      <trkpt lat="44.92582" lon="5.63459">
        <ele>828.328999</ele>
        <time>2011-02-06T11:16:07.22</time>
      </trkpt>
      <trkpt lat="44.92563" lon="5.63455">
        <ele>828.328953</ele>
        <time>2011-02-06T11:16:11.990</time>
      </trkpt>
      <trkpt lat="44.9256" lon="5.63454">
        <ele>828.328941</ele>
        <time>2011-02-06T11:16:13.62</time>
      </trkpt>
      <trkpt lat="44.92539" lon="5.63452">
        <ele>832.328892</ele>
        <time>2011-02-06T11:16:21.991</time>
      </trkpt>
      <trkpt lat="44.92533" lon="5.63452">
        <ele>832.32888</ele>
        <time>2011-02-06T11:16:23.994</time>
      </trkpt>
      <trkpt lat="44.92528" lon="5.63452">
        <ele>833.328865</ele>
        <time>2011-02-06T11:16:25.990</time>
      </trkpt>
      <trkpt lat="44.92525" lon="5.63452">
        <ele>834.328857</ele>
        <time>2011-02-06T11:16:27.36</time>
      </trkpt>
      <trkpt lat="44.92503" lon="5.63453">
        <ele>838.328815</ele>
        <time>2011-02-06T11:16:34.989</time>
      </trkpt>
      <trkpt lat="44.925" lon="5.63453">
        <ele>839.328808</ele>
        <time>2011-02-06T11:16:36.12</time>
      </trkpt>
      <trkpt lat="44.92493" lon="5.63452">
        <ele>840.328789</ele>
        <time>2011-02-06T11:16:38.992</time>
      </trkpt>
      <trkpt lat="44.92488" lon="5.63451">
        <ele>840.328781</ele>
        <time>2011-02-06T11:16:40.991</time>
      </trkpt>
      <trkpt lat="44.92471" lon="5.63449">
        <ele>844.328735</ele>
        <time>2011-02-06T11:16:47.990</time>
      </trkpt>
      <trkpt lat="44.92468" lon="5.63448">
        <ele>845.328732</ele>
        <time>2011-02-06T11:16:49.29</time>
      </trkpt>
      <trkpt lat="44.92459" lon="5.63447">
        <ele>845.328712</ele>
        <time>2011-02-06T11:16:51.993</time>
      </trkpt>
      <trkpt lat="44.92453" lon="5.63447">
        <ele>844.328693</ele>
        <time>2011-02-06T11:16:53.988</time>
      </trkpt>
      <trkpt lat="44.9242" lon="5.6345">
        <ele>841.328629</ele>
        <time>2011-02-06T11:17:01.5</time>
      </trkpt>
      <trkpt lat="44.92399" lon="5.63456">
        <ele>838.328594</ele>
        <time>2011-02-06T11:17:06.13</time>
      </trkpt>
      <trkpt lat="44.92392" lon="5.63459">
        <ele>838.328583</ele>
        <time>2011-02-06T11:17:08.99</time>
      </trkpt>
      <trkpt lat="44.92385" lon="5.63461">
        <ele>839.328575</ele>
        <time>2011-02-06T11:17:10.83</time>
      </trkpt>
      <trkpt lat="44.92377" lon="5.63464">
        <ele>839.32856</ele>
        <time>2011-02-06T11:17:12.991</time>
      </trkpt>
      <trkpt lat="44.9237" lon="5.63467">
        <ele>840.328548</ele>
        <time>2011-02-06T11:17:14.990</time>
      </trkpt>
      <trkpt lat="44.9236" lon="5.6347">
        <ele>839.328529</ele>
        <time>2011-02-06T11:17:17.991</time>
      </trkpt>
      <trkpt lat="44.92356" lon="5.63471">
        <ele>838.328522</ele>
        <time>2011-02-06T11:17:19.35</time>
      </trkpt>
      <trkpt lat="44.92351" lon="5.63472">
        <ele>837.328514</ele>
        <time>2011-02-06T11:17:21.3</time>
      </trkpt>
      <trkpt lat="44.92339" lon="5.63475">
        <ele>833.328491</ele>
        <time>2011-02-06T11:17:23.990</time>
      </trkpt>
      <trkpt lat="44.92335" lon="5.63476">
        <ele>832.328484</ele>
        <time>2011-02-06T11:17:25.3</time>
      </trkpt>
      <trkpt lat="44.92322" lon="5.63479">
        <ele>828.328457</ele>
        <time>2011-02-06T11:17:28.999</time>
      </trkpt>
      <trkpt lat="44.92314" lon="5.63481">
        <ele>827.328445</ele>
        <time>2011-02-06T11:17:29.993</time>
      </trkpt>
      <trkpt lat="44.92305" lon="5.63484">
        <ele>825.32843</ele>
        <time>2011-02-06T11:17:31.988</time>
      </trkpt>
      <trkpt lat="44.92296" lon="5.63485">
        <ele>824.328415</ele>
        <time>2011-02-06T11:17:34.7</time>
      </trkpt>
      <trkpt lat="44.92285" lon="5.63488">
        <ele>822.328396</ele>
        <time>2011-02-06T11:17:36.994</time>
      </trkpt>
      <trkpt lat="44.92282" lon="5.63488">
        <ele>822.328388</ele>
        <time>2011-02-06T11:17:38.40</time>
      </trkpt>
      <trkpt lat="44.92274" lon="5.63491">
        <ele>821.328373</ele>
        <time>2011-02-06T11:17:40.992</time>
      </trkpt>
      <trkpt lat="44.92262" lon="5.63495">
        <ele>822.328358</ele>
        <time>2011-02-06T11:17:45.996</time>
      </trkpt>
      <trkpt lat="44.92257" lon="5.63497">
        <ele>823.328346</ele>
        <time>2011-02-06T11:17:47.991</time>
      </trkpt>
      <trkpt lat="44.92254" lon="5.63499">
        <ele>824.328339</ele>
        <time>2011-02-06T11:17:49.1</time>
      </trkpt>
      <trkpt lat="44.92236" lon="5.63507">
        <ele>826.32832</ele>
        <time>2011-02-06T11:17:53.988</time>
      </trkpt>
      <trkpt lat="44.92229" lon="5.63511">
        <ele>827.328304</ele>
        <time>2011-02-06T11:17:55.989</time>
      </trkpt>
      <trkpt lat="44.92221" lon="5.63515">
        <ele>827.328297</ele>
        <time>2011-02-06T11:17:58.73</time>
      </trkpt>
      <trkpt lat="44.92207" lon="5.63523">
        <ele>826.328274</ele>
        <time>2011-02-06T11:18:01.24</time>
      </trkpt>
      <trkpt lat="44.92193" lon="5.63532">
        <ele>825.328259</ele>
        <time>2011-02-06T11:18:04</time>
      </trkpt>
      <trkpt lat="44.92182" lon="5.63539">
        <ele>825.328247</ele>
        <time>2011-02-06T11:18:06.996</time>
      </trkpt>
      <trkpt lat="44.92177" lon="5.63543">
        <ele>825.328243</ele>
        <time>2011-02-06T11:18:08.991</time>
      </trkpt>
      <trkpt lat="44.92174" lon="5.63545">
        <ele>825.328239</ele>
        <time>2011-02-06T11:18:10.1</time>
      </trkpt>
      <trkpt lat="44.92166" lon="5.63551">
        <ele>826.328232</ele>
        <time>2011-02-06T11:18:12.993</time>
      </trkpt>
      <trkpt lat="44.92164" lon="5.63553">
        <ele>826.328224</ele>
        <time>2011-02-06T11:18:14.71</time>
      </trkpt>
      <trkpt lat="44.92158" lon="5.63557">
        <ele>826.328224</ele>
        <time>2011-02-06T11:18:16.4</time>
      </trkpt>
      <trkpt lat="44.92149" lon="5.63564">
        <ele>824.328217</ele>
        <time>2011-02-06T11:18:18.996</time>
      </trkpt>
      <trkpt lat="44.92147" lon="5.63566">
        <ele>824.328209</ele>
        <time>2011-02-06T11:18:20.7</time>
      </trkpt>
      <trkpt lat="44.92139" lon="5.63572">
        <ele>822.328205</ele>
        <time>2011-02-06T11:18:23.17</time>
      </trkpt>
      <trkpt lat="44.92133" lon="5.63578">
        <ele>821.328197</ele>
        <time>2011-02-06T11:18:26.19</time>
      </trkpt>
      <trkpt lat="44.92127" lon="5.63583">
        <ele>822.328194</ele>
        <time>2011-02-06T11:18:29.2</time>
      </trkpt>
      <trkpt lat="44.92123" lon="5.63592">
        <ele>821.328197</ele>
        <time>2011-02-06T11:18:31.996</time>
      </trkpt>
      <trkpt lat="44.92119" lon="5.63597">
        <ele>821.328197</ele>
        <time>2011-02-06T11:18:33.993</time>
      </trkpt>
      <trkpt lat="44.92115" lon="5.63603">
        <ele>820.328197</ele>
        <time>2011-02-06T11:18:36.20</time>
      </trkpt>
      <trkpt lat="44.92108" lon="5.63612">
        <ele>818.328197</ele>
        <time>2011-02-06T11:18:38.989</time>
      </trkpt>
      <trkpt lat="44.92104" lon="5.63618">
        <ele>818.328197</ele>
        <time>2011-02-06T11:18:40.992</time>
      </trkpt>
      <trkpt lat="44.921" lon="5.63624">
        <ele>817.328197</ele>
        <time>2011-02-06T11:18:42.992</time>
      </trkpt>
      <trkpt lat="44.92096" lon="5.63627">
        <ele>816.328194</ele>
        <time>2011-02-06T11:18:44.995</time>
      </trkpt>
      <trkpt lat="44.92092" lon="5.63629">
        <ele>817.328186</ele>
        <time>2011-02-06T11:18:46.990</time>
      </trkpt>
      <trkpt lat="44.92087" lon="5.6363">
        <ele>817.328178</ele>
        <time>2011-02-06T11:18:49.30</time>
      </trkpt>
      <trkpt lat="44.9208" lon="5.63631">
        <ele>817.328163</ele>
        <time>2011-02-06T11:18:51.991</time>
      </trkpt>
      <trkpt lat="44.92075" lon="5.6363">
        <ele>818.328152</ele>
        <time>2011-02-06T11:18:53.990</time>
      </trkpt>
      <trkpt lat="44.9207" lon="5.63629">
        <ele>817.328144</ele>
        <time>2011-02-06T11:18:55.988</time>
      </trkpt>
      <trkpt lat="44.92065" lon="5.63631">
        <ele>817.328133</ele>
        <time>2011-02-06T11:18:57.993</time>
      </trkpt>
      <trkpt lat="44.9206" lon="5.63632">
        <ele>818.328125</ele>
        <time>2011-02-06T11:18:59.987</time>
      </trkpt>
      <trkpt lat="44.92056" lon="5.6363">
        <ele>819.32811</ele>
        <time>2011-02-06T11:19:01.990</time>
      </trkpt>
      <trkpt lat="44.92052" lon="5.63627">
        <ele>819.328098</ele>
        <time>2011-02-06T11:19:03.995</time>
      </trkpt>
      <trkpt lat="44.92048" lon="5.63627">
        <ele>820.328091</ele>
        <time>2011-02-06T11:19:06.56</time>
      </trkpt>
      <trkpt lat="44.92035" lon="5.63622">
        <ele>820.328053</ele>
        <time>2011-02-06T11:19:10.995</time>
      </trkpt>
      <trkpt lat="44.92028" lon="5.6362">
        <ele>820.328033</ele>
        <time>2011-02-06T11:19:12.993</time>
      </trkpt>
      <trkpt lat="44.92022" lon="5.63617">
        <ele>820.328022</ele>
        <time>2011-02-06T11:19:15.2</time>
      </trkpt>
      <trkpt lat="44.92017" lon="5.63614">
        <ele>821.328003</ele>
        <time>2011-02-06T11:19:17.990</time>
      </trkpt>
      <trkpt lat="44.92012" lon="5.6361">
        <ele>821.327988</ele>
        <time>2011-02-06T11:19:19.990</time>
      </trkpt>
      <trkpt lat="44.9201" lon="5.63609">
        <ele>821.327984</ele>
        <time>2011-02-06T11:19:21.46</time>
      </trkpt>
      <trkpt lat="44.91997" lon="5.63603">
        <ele>823.327942</ele>
        <time>2011-02-06T11:19:26.992</time>
      </trkpt>
      <trkpt lat="44.9199" lon="5.63601">
        <ele>825.327919</ele>
        <time>2011-02-06T11:19:30.992</time>
      </trkpt>
      <trkpt lat="44.91986" lon="5.63599">
        <ele>825.327911</ele>
        <time>2011-02-06T11:19:32.991</time>
      </trkpt>
      <trkpt lat="44.91981" lon="5.63598">
        <ele>826.3279</ele>
        <time>2011-02-06T11:19:35.9</time>
      </trkpt>
      <trkpt lat="44.91963" lon="5.63596">
        <ele>826.327858</ele>
        <time>2011-02-06T11:19:39.992</time>
      </trkpt>
      <trkpt lat="44.91954" lon="5.63596">
        <ele>825.327839</ele>
        <time>2011-02-06T11:19:41.992</time>
      </trkpt>
      <trkpt lat="44.91945" lon="5.63598">
        <ele>825.32782</ele>
        <time>2011-02-06T11:19:43.989</time>
      </trkpt>
      <trkpt lat="44.91938" lon="5.63602">
        <ele>825.327812</ele>
        <time>2011-02-06T11:19:45.993</time>
      </trkpt>
      <trkpt lat="44.91933" lon="5.63608">
        <ele>825.327812</ele>
        <time>2011-02-06T11:19:47.993</time>
      </trkpt>
      <trkpt lat="44.91928" lon="5.63614">
        <ele>825.327805</ele>
        <time>2011-02-06T11:19:49.997</time>
      </trkpt>
      <trkpt lat="44.91923" lon="5.63622">
        <ele>824.327808</ele>
        <time>2011-02-06T11:19:51.991</time>
      </trkpt>
      <trkpt lat="44.91922" lon="5.63625">
        <ele>824.327812</ele>
        <time>2011-02-06T11:19:53.29</time>
      </trkpt>
      <trkpt lat="44.91917" lon="5.63638">
        <ele>823.32782</ele>
        <time>2011-02-06T11:19:55.994</time>
      </trkpt>
      <trkpt lat="44.91916" lon="5.63646">
        <ele>823.327831</ele>
        <time>2011-02-06T11:19:57.988</time>
      </trkpt>
      <trkpt lat="44.91917" lon="5.63653">
        <ele>822.327847</ele>
        <time>2011-02-06T11:19:59.993</time>
      </trkpt>
      <trkpt lat="44.9192" lon="5.6366">
        <ele>822.327862</ele>
        <time>2011-02-06T11:20:01.990</time>
      </trkpt>
      <trkpt lat="44.91923" lon="5.63667">
        <ele>822.327881</ele>
        <time>2011-02-06T11:20:03.992</time>
      </trkpt>
      <trkpt lat="44.91925" lon="5.6367">
        <ele>822.327888</ele>
        <time>2011-02-06T11:20:05.31</time>
      </trkpt>
      <trkpt lat="44.9193" lon="5.63681">
        <ele>823.327915</ele>
        <time>2011-02-06T11:20:07.991</time>
      </trkpt>
      <trkpt lat="44.91932" lon="5.63684">
        <ele>823.327927</ele>
        <time>2011-02-06T11:20:09.4</time>
      </trkpt>
      <trkpt lat="44.91936" lon="5.63695">
        <ele>822.32795</ele>
        <time>2011-02-06T11:20:11.989</time>
      </trkpt>
      <trkpt lat="44.91939" lon="5.63702">
        <ele>823.327969</ele>
        <time>2011-02-06T11:20:13.992</time>
      </trkpt>
      <trkpt lat="44.91942" lon="5.63708">
        <ele>824.327984</ele>
        <time>2011-02-06T11:20:15.992</time>
      </trkpt>
      <trkpt lat="44.91945" lon="5.63715">
        <ele>824.327999</ele>
        <time>2011-02-06T11:20:17.992</time>
      </trkpt>
      <trkpt lat="44.91948" lon="5.63722">
        <ele>824.328018</ele>
        <time>2011-02-06T11:20:19.990</time>
      </trkpt>
      <trkpt lat="44.9195" lon="5.63729">
        <ele>824.328037</ele>
        <time>2011-02-06T11:20:21.989</time>
      </trkpt>
      <trkpt lat="44.91952" lon="5.63737">
        <ele>824.328049</ele>
        <time>2011-02-06T11:20:23.989</time>
      </trkpt>
      <trkpt lat="44.91954" lon="5.63744">
        <ele>824.328064</ele>
        <time>2011-02-06T11:20:25.994</time>
      </trkpt>
      <trkpt lat="44.91956" lon="5.63751">
        <ele>824.328079</ele>
        <time>2011-02-06T11:20:27.993</time>
      </trkpt>
      <trkpt lat="44.91957" lon="5.63756">
        <ele>824.328094</ele>
        <time>2011-02-06T11:20:29.992</time>
      </trkpt>
      <trkpt lat="44.9196" lon="5.63761">
        <ele>824.328102</ele>
        <time>2011-02-06T11:20:31.990</time>
      </trkpt>
      <trkpt lat="44.91964" lon="5.63765">
        <ele>825.328117</ele>
        <time>2011-02-06T11:20:33.989</time>
      </trkpt>
      <trkpt lat="44.91967" lon="5.63769">
        <ele>825.328133</ele>
        <time>2011-02-06T11:20:36.3</time>
      </trkpt>
      <trkpt lat="44.91974" lon="5.63774">
        <ele>826.328152</ele>
        <time>2011-02-06T11:20:39.999</time>
      </trkpt>
      <trkpt lat="44.91978" lon="5.63776">
        <ele>826.328171</ele>
        <time>2011-02-06T11:20:40.985</time>
      </trkpt>
      <trkpt lat="44.91982" lon="5.63779">
        <ele>826.328182</ele>
        <time>2011-02-06T11:20:42.993</time>
      </trkpt>
      <trkpt lat="44.91986" lon="5.63781">
        <ele>827.328194</ele>
        <time>2011-02-06T11:20:44.995</time>
      </trkpt>
      <trkpt lat="44.9199" lon="5.63784">
        <ele>827.328205</ele>
        <time>2011-02-06T11:20:46.991</time>
      </trkpt>
      <trkpt lat="44.91994" lon="5.63786">
        <ele>828.328217</ele>
        <time>2011-02-06T11:20:48.992</time>
      </trkpt>
      <trkpt lat="44.91998" lon="5.63788">
        <ele>829.328224</ele>
        <time>2011-02-06T11:20:50.995</time>
      </trkpt>
      <trkpt lat="44.92001" lon="5.63791">
        <ele>829.328243</ele>
        <time>2011-02-06T11:20:52.989</time>
      </trkpt>
      <trkpt lat="44.92004" lon="5.63794">
        <ele>829.328247</ele>
        <time>2011-02-06T11:20:54.993</time>
      </trkpt>
      <trkpt lat="44.92008" lon="5.63798">
        <ele>829.328266</ele>
        <time>2011-02-06T11:21:00.22</time>
      </trkpt>
      <trkpt lat="44.9201" lon="5.638">
        <ele>829.328274</ele>
        <time>2011-02-06T11:21:02.990</time>
      </trkpt>
      <trkpt lat="44.92011" lon="5.63801">
        <ele>828.328278</ele>
        <time>2011-02-06T11:21:04.980</time>
      </trkpt>
      <trkpt lat="44.92012" lon="5.638">
        <ele>827.328278</ele>
        <time>2011-02-06T11:21:06.993</time>
      </trkpt>
    </trkseg>
  </trk>
</gpx>